<?xml version="1.0" encoding="UTF-8" standalone="no" ?>
<gpx xmlns="http://www.topografix.com/GPX/1/1" xmlns:xsi="http://www.w3.org/2001/XMLSchema-instance" xsi:schemaLocation="http://www.topografix.com/GPX/1/1 http://www.topografix.com/GPX/1/1/gpx.xsd" version="1.1" creator="VisuGPX - https://www.visugpx.com">
  <metadata>
    <name>Pornichet 07/08/2022</name>
    <desc><![CDATA[Sortie dimanche 07 août 2022]]></desc>
  </metadata>
  <trk>
    <name><![CDATA[Pornichet Cyclisme]]></name>
    <trkseg>
      <trkpt lat="47.26396" lon="-2.31516">
        <ele>10.3</ele>
        <time>2022-08-07T06:58:15.000Z</time>
      </trkpt>
      <trkpt lat="47.26396" lon="-2.31538">
        <ele>9.9</ele>
        <time>2022-08-07T06:58:19.000Z</time>
      </trkpt>
      <trkpt lat="47.26396" lon="-2.31544">
        <ele>9.7</ele>
        <time>2022-08-07T06:58:20.000Z</time>
      </trkpt>
      <trkpt lat="47.26396" lon="-2.3155">
        <ele>9.5</ele>
        <time>2022-08-07T06:58:21.000Z</time>
      </trkpt>
      <trkpt lat="47.26395" lon="-2.31593">
        <ele>9.2</ele>
        <time>2022-08-07T06:58:28.000Z</time>
      </trkpt>
      <trkpt lat="47.26398" lon="-2.31616">
        <ele>9.3</ele>
        <time>2022-08-07T06:58:32.000Z</time>
      </trkpt>
      <trkpt lat="47.26405" lon="-2.31631">
        <ele>9.2</ele>
        <time>2022-08-07T06:58:33.000Z</time>
      </trkpt>
      <trkpt lat="47.26406" lon="-2.31641">
        <ele>8.9</ele>
        <time>2022-08-07T06:58:35.000Z</time>
      </trkpt>
      <trkpt lat="47.26385" lon="-2.31656">
        <ele>-0.40000000596046</ele>
        <time>2022-08-07T06:58:41.000Z</time>
      </trkpt>
      <trkpt lat="47.26381" lon="-2.31659">
        <ele>-0.80000001192093</ele>
        <time>2022-08-07T06:58:42.000Z</time>
      </trkpt>
      <trkpt lat="47.26377" lon="-2.31662">
        <ele>-1.2000000476837</ele>
        <time>2022-08-07T06:58:43.000Z</time>
      </trkpt>
      <trkpt lat="47.26373" lon="-2.31665">
        <ele>-1.6000000238419</ele>
        <time>2022-08-07T06:58:44.000Z</time>
      </trkpt>
      <trkpt lat="47.26368" lon="-2.31668">
        <ele>-2</ele>
        <time>2022-08-07T06:58:45.000Z</time>
      </trkpt>
      <trkpt lat="47.26354" lon="-2.31677">
        <ele>-2</ele>
        <time>2022-08-07T06:58:48.000Z</time>
      </trkpt>
      <trkpt lat="47.26321" lon="-2.31693">
        <ele>-2.4000000953674</ele>
        <time>2022-08-07T06:58:54.000Z</time>
      </trkpt>
      <trkpt lat="47.26317" lon="-2.31697">
        <ele>-2.7999999523163</ele>
        <time>2022-08-07T06:58:55.000Z</time>
      </trkpt>
      <trkpt lat="47.26314" lon="-2.31703">
        <ele>-3.2000000476837</ele>
        <time>2022-08-07T06:58:56.000Z</time>
      </trkpt>
      <trkpt lat="47.26314" lon="-2.31708">
        <ele>-3.5999999046326</ele>
        <time>2022-08-07T06:58:57.000Z</time>
      </trkpt>
      <trkpt lat="47.26314" lon="-2.31714">
        <ele>-4</ele>
        <time>2022-08-07T06:58:58.000Z</time>
      </trkpt>
      <trkpt lat="47.26316" lon="-2.31726">
        <ele>-4</ele>
        <time>2022-08-07T06:59:00.000Z</time>
      </trkpt>
      <trkpt lat="47.26317" lon="-2.31737">
        <ele>-4</ele>
        <time>2022-08-07T06:59:02.000Z</time>
      </trkpt>
      <trkpt lat="47.26319" lon="-2.31771">
        <ele>-4</ele>
        <time>2022-08-07T06:59:08.000Z</time>
      </trkpt>
      <trkpt lat="47.26318" lon="-2.31806">
        <ele>-4</ele>
        <time>2022-08-07T06:59:14.000Z</time>
      </trkpt>
      <trkpt lat="47.26317" lon="-2.31819">
        <ele>-4</ele>
        <time>2022-08-07T06:59:16.000Z</time>
      </trkpt>
      <trkpt lat="47.26316" lon="-2.31831">
        <ele>-4</ele>
        <time>2022-08-07T06:59:18.000Z</time>
      </trkpt>
      <trkpt lat="47.26317" lon="-2.31837">
        <ele>-4</ele>
        <time>2022-08-07T06:59:19.000Z</time>
      </trkpt>
      <trkpt lat="47.26314" lon="-2.31856">
        <ele>-4</ele>
        <time>2022-08-07T06:59:23.000Z</time>
      </trkpt>
      <trkpt lat="47.26299" lon="-2.31871">
        <ele>-4</ele>
        <time>2022-08-07T06:59:28.000Z</time>
      </trkpt>
      <trkpt lat="47.26292" lon="-2.3188">
        <ele>-4</ele>
        <time>2022-08-07T06:59:30.000Z</time>
      </trkpt>
      <trkpt lat="47.26284" lon="-2.31894">
        <ele>-4</ele>
        <time>2022-08-07T06:59:33.000Z</time>
      </trkpt>
      <trkpt lat="47.26276" lon="-2.31907">
        <ele>-4.5999999046326</ele>
        <time>2022-08-07T06:59:36.000Z</time>
      </trkpt>
      <trkpt lat="47.26274" lon="-2.31912">
        <ele>-5.4000000953674</ele>
        <time>2022-08-07T06:59:37.000Z</time>
      </trkpt>
      <trkpt lat="47.26272" lon="-2.31916">
        <ele>-5.8000001907349</ele>
        <time>2022-08-07T06:59:38.000Z</time>
      </trkpt>
      <trkpt lat="47.26269" lon="-2.3192">
        <ele>-6.1999998092651</ele>
        <time>2022-08-07T06:59:39.000Z</time>
      </trkpt>
      <trkpt lat="47.26258" lon="-2.31931">
        <ele>-6.1999998092651</ele>
        <time>2022-08-07T06:59:42.000Z</time>
      </trkpt>
      <trkpt lat="47.26254" lon="-2.31934">
        <ele>-6.1999998092651</ele>
        <time>2022-08-07T06:59:43.000Z</time>
      </trkpt>
      <trkpt lat="47.26246" lon="-2.31947">
        <ele>-6.1999998092651</ele>
        <time>2022-08-07T06:59:46.000Z</time>
      </trkpt>
      <trkpt lat="47.26243" lon="-2.31952">
        <ele>-6.1999998092651</ele>
        <time>2022-08-07T06:59:47.000Z</time>
      </trkpt>
      <trkpt lat="47.26232" lon="-2.31963">
        <ele>-6.1999998092651</ele>
        <time>2022-08-07T06:59:51.000Z</time>
      </trkpt>
      <trkpt lat="47.26225" lon="-2.31968">
        <ele>-6.1999998092651</ele>
        <time>2022-08-07T06:59:53.000Z</time>
      </trkpt>
      <trkpt lat="47.26223" lon="-2.31973">
        <ele>-6.1999998092651</ele>
        <time>2022-08-07T06:59:54.000Z</time>
      </trkpt>
      <trkpt lat="47.26222" lon="-2.31977">
        <ele>-6.1999998092651</ele>
        <time>2022-08-07T06:59:55.000Z</time>
      </trkpt>
      <trkpt lat="47.2622" lon="-2.31986">
        <ele>-6.1999998092651</ele>
        <time>2022-08-07T06:59:58.000Z</time>
      </trkpt>
      <trkpt lat="47.26218" lon="-2.31987">
        <ele>-6.1999998092651</ele>
        <time>2022-08-07T06:59:59.000Z</time>
      </trkpt>
      <trkpt lat="47.2621" lon="-2.31988">
        <ele>-6.1999998092651</ele>
        <time>2022-08-07T07:00:03.000Z</time>
      </trkpt>
      <trkpt lat="47.26207" lon="-2.31987">
        <ele>-6.1999998092651</ele>
        <time>2022-08-07T07:00:04.000Z</time>
      </trkpt>
      <trkpt lat="47.26192" lon="-2.31992">
        <ele>-6.1999998092651</ele>
        <time>2022-08-07T07:00:09.000Z</time>
      </trkpt>
      <trkpt lat="47.26189" lon="-2.31996">
        <ele>-6.1999998092651</ele>
        <time>2022-08-07T07:00:10.000Z</time>
      </trkpt>
      <trkpt lat="47.26181" lon="-2.32009">
        <ele>-6.1999998092651</ele>
        <time>2022-08-07T07:00:13.000Z</time>
      </trkpt>
      <trkpt lat="47.26173" lon="-2.32031">
        <ele>-6.1999998092651</ele>
        <time>2022-08-07T07:00:17.000Z</time>
      </trkpt>
      <trkpt lat="47.26171" lon="-2.32037">
        <ele>-6.1999998092651</ele>
        <time>2022-08-07T07:00:18.000Z</time>
      </trkpt>
      <trkpt lat="47.26167" lon="-2.32048">
        <ele>-6.1999998092651</ele>
        <time>2022-08-07T07:00:20.000Z</time>
      </trkpt>
      <trkpt lat="47.26159" lon="-2.32072">
        <ele>-6.1999998092651</ele>
        <time>2022-08-07T07:00:24.000Z</time>
      </trkpt>
      <trkpt lat="47.26146" lon="-2.32115">
        <ele>-6.1999998092651</ele>
        <time>2022-08-07T07:00:31.000Z</time>
      </trkpt>
      <trkpt lat="47.26137" lon="-2.32138">
        <ele>-6.1999998092651</ele>
        <time>2022-08-07T07:00:35.000Z</time>
      </trkpt>
      <trkpt lat="47.26135" lon="-2.32143">
        <ele>-6.1999998092651</ele>
        <time>2022-08-07T07:00:36.000Z</time>
      </trkpt>
      <trkpt lat="47.26117" lon="-2.3218">
        <ele>-6.1999998092651</ele>
        <time>2022-08-07T07:00:43.000Z</time>
      </trkpt>
      <trkpt lat="47.261" lon="-2.32203">
        <ele>-6.1999998092651</ele>
        <time>2022-08-07T07:00:48.000Z</time>
      </trkpt>
      <trkpt lat="47.26095" lon="-2.32208">
        <ele>-6.1999998092651</ele>
        <time>2022-08-07T07:00:49.000Z</time>
      </trkpt>
      <trkpt lat="47.26076" lon="-2.32231">
        <ele>-6.1999998092651</ele>
        <time>2022-08-07T07:00:54.000Z</time>
      </trkpt>
      <trkpt lat="47.2606" lon="-2.32252">
        <ele>-6.1999998092651</ele>
        <time>2022-08-07T07:00:58.000Z</time>
      </trkpt>
      <trkpt lat="47.26056" lon="-2.32256">
        <ele>-6.1999998092651</ele>
        <time>2022-08-07T07:00:59.000Z</time>
      </trkpt>
      <trkpt lat="47.26021" lon="-2.32297">
        <ele>-6.1999998092651</ele>
        <time>2022-08-07T07:01:07.000Z</time>
      </trkpt>
      <trkpt lat="47.25995" lon="-2.32331">
        <ele>-6.1999998092651</ele>
        <time>2022-08-07T07:01:13.000Z</time>
      </trkpt>
      <trkpt lat="47.25967" lon="-2.32369">
        <ele>-6.1999998092651</ele>
        <time>2022-08-07T07:01:20.000Z</time>
      </trkpt>
      <trkpt lat="47.25937" lon="-2.3241">
        <ele>-6.1999998092651</ele>
        <time>2022-08-07T07:01:28.000Z</time>
      </trkpt>
      <trkpt lat="47.25913" lon="-2.32443">
        <ele>-6.1999998092651</ele>
        <time>2022-08-07T07:01:35.000Z</time>
      </trkpt>
      <trkpt lat="47.25896" lon="-2.32464">
        <ele>-6.1999998092651</ele>
        <time>2022-08-07T07:01:40.000Z</time>
      </trkpt>
      <trkpt lat="47.25887" lon="-2.32469">
        <ele>-6.1999998092651</ele>
        <time>2022-08-07T07:01:42.000Z</time>
      </trkpt>
      <trkpt lat="47.25856" lon="-2.32478">
        <ele>-6.1999998092651</ele>
        <time>2022-08-07T07:01:49.000Z</time>
      </trkpt>
      <trkpt lat="47.25837" lon="-2.32471">
        <ele>-6.1999998092651</ele>
        <time>2022-08-07T07:01:53.000Z</time>
      </trkpt>
      <trkpt lat="47.25823" lon="-2.32463">
        <ele>-6.1999998092651</ele>
        <time>2022-08-07T07:01:56.000Z</time>
      </trkpt>
      <trkpt lat="47.25806" lon="-2.32451">
        <ele>-6.1999998092651</ele>
        <time>2022-08-07T07:02:00.000Z</time>
      </trkpt>
      <trkpt lat="47.25799" lon="-2.32451">
        <ele>-6.1999998092651</ele>
        <time>2022-08-07T07:02:02.000Z</time>
      </trkpt>
      <trkpt lat="47.25796" lon="-2.32454">
        <ele>-6.1999998092651</ele>
        <time>2022-08-07T07:02:06.000Z</time>
      </trkpt>
      <trkpt lat="47.25795" lon="-2.32455">
        <ele>-6.1999998092651</ele>
        <time>2022-08-07T07:02:07.000Z</time>
      </trkpt>
      <trkpt lat="47.25787" lon="-2.32453">
        <ele>-6.1999998092651</ele>
        <time>2022-08-07T07:02:10.000Z</time>
      </trkpt>
      <trkpt lat="47.25774" lon="-2.32439">
        <ele>-6.1999998092651</ele>
        <time>2022-08-07T07:02:14.000Z</time>
      </trkpt>
      <trkpt lat="47.25762" lon="-2.32419">
        <ele>-6.1999998092651</ele>
        <time>2022-08-07T07:02:18.000Z</time>
      </trkpt>
      <trkpt lat="47.25749" lon="-2.32416">
        <ele>-6.1999998092651</ele>
        <time>2022-08-07T07:02:21.000Z</time>
      </trkpt>
      <trkpt lat="47.25744" lon="-2.32415">
        <ele>-6.1999998092651</ele>
        <time>2022-08-07T07:02:22.000Z</time>
      </trkpt>
      <trkpt lat="47.25706" lon="-2.32414">
        <ele>-6.1999998092651</ele>
        <time>2022-08-07T07:02:29.000Z</time>
      </trkpt>
      <trkpt lat="47.25669" lon="-2.32411">
        <ele>-6.1999998092651</ele>
        <time>2022-08-07T07:02:37.000Z</time>
      </trkpt>
      <trkpt lat="47.25661" lon="-2.32424">
        <ele>-6.1999998092651</ele>
        <time>2022-08-07T07:02:40.000Z</time>
      </trkpt>
      <trkpt lat="47.25664" lon="-2.32443">
        <ele>-6.1999998092651</ele>
        <time>2022-08-07T07:02:43.000Z</time>
      </trkpt>
      <trkpt lat="47.25675" lon="-2.32478">
        <ele>-6.1999998092651</ele>
        <time>2022-08-07T07:02:49.000Z</time>
      </trkpt>
      <trkpt lat="47.2569" lon="-2.32521">
        <ele>-5.8000001907349</ele>
        <time>2022-08-07T07:02:57.000Z</time>
      </trkpt>
      <trkpt lat="47.25691" lon="-2.32526">
        <ele>-5.4000000953674</ele>
        <time>2022-08-07T07:02:58.000Z</time>
      </trkpt>
      <trkpt lat="47.25693" lon="-2.32531">
        <ele>-5</ele>
        <time>2022-08-07T07:02:59.000Z</time>
      </trkpt>
      <trkpt lat="47.25695" lon="-2.32536">
        <ele>-4.4000000953674</ele>
        <time>2022-08-07T07:03:00.000Z</time>
      </trkpt>
      <trkpt lat="47.25697" lon="-2.32541">
        <ele>-4</ele>
        <time>2022-08-07T07:03:01.000Z</time>
      </trkpt>
      <trkpt lat="47.25702" lon="-2.32562">
        <ele>-4</ele>
        <time>2022-08-07T07:03:05.000Z</time>
      </trkpt>
      <trkpt lat="47.25711" lon="-2.32605">
        <ele>-4</ele>
        <time>2022-08-07T07:03:13.000Z</time>
      </trkpt>
      <trkpt lat="47.25709" lon="-2.3261">
        <ele>-4</ele>
        <time>2022-08-07T07:03:14.000Z</time>
      </trkpt>
      <trkpt lat="47.25701" lon="-2.32616">
        <ele>-4</ele>
        <time>2022-08-07T07:03:16.000Z</time>
      </trkpt>
      <trkpt lat="47.25686" lon="-2.32624">
        <ele>-4</ele>
        <time>2022-08-07T07:03:20.000Z</time>
      </trkpt>
      <trkpt lat="47.25683" lon="-2.32625">
        <ele>-4</ele>
        <time>2022-08-07T07:03:21.000Z</time>
      </trkpt>
      <trkpt lat="47.25668" lon="-2.32632">
        <ele>-3.5999999046326</ele>
        <time>2022-08-07T07:03:25.000Z</time>
      </trkpt>
      <trkpt lat="47.25664" lon="-2.32634">
        <ele>-3.2000000476837</ele>
        <time>2022-08-07T07:03:26.000Z</time>
      </trkpt>
      <trkpt lat="47.25661" lon="-2.32636">
        <ele>-2.7999999523163</ele>
        <time>2022-08-07T07:03:27.000Z</time>
      </trkpt>
      <trkpt lat="47.25657" lon="-2.32638">
        <ele>-2.4000000953674</ele>
        <time>2022-08-07T07:03:28.000Z</time>
      </trkpt>
      <trkpt lat="47.25653" lon="-2.3264">
        <ele>-2</ele>
        <time>2022-08-07T07:03:29.000Z</time>
      </trkpt>
      <trkpt lat="47.2562" lon="-2.32654">
        <ele>-2</ele>
        <time>2022-08-07T07:03:38.000Z</time>
      </trkpt>
      <trkpt lat="47.25601" lon="-2.32664">
        <ele>-2</ele>
        <time>2022-08-07T07:03:43.000Z</time>
      </trkpt>
      <trkpt lat="47.25597" lon="-2.32665">
        <ele>-2</ele>
        <time>2022-08-07T07:03:44.000Z</time>
      </trkpt>
      <trkpt lat="47.25585" lon="-2.32668">
        <ele>-2</ele>
        <time>2022-08-07T07:03:47.000Z</time>
      </trkpt>
      <trkpt lat="47.25571" lon="-2.32674">
        <ele>-2</ele>
        <time>2022-08-07T07:03:50.000Z</time>
      </trkpt>
      <trkpt lat="47.25535" lon="-2.32689">
        <ele>-2</ele>
        <time>2022-08-07T07:03:58.000Z</time>
      </trkpt>
      <trkpt lat="47.25517" lon="-2.32694">
        <ele>-2</ele>
        <time>2022-08-07T07:04:02.000Z</time>
      </trkpt>
      <trkpt lat="47.25503" lon="-2.32695">
        <ele>-2</ele>
        <time>2022-08-07T07:04:05.000Z</time>
      </trkpt>
      <trkpt lat="47.2548" lon="-2.32703">
        <ele>-2</ele>
        <time>2022-08-07T07:04:10.000Z</time>
      </trkpt>
      <trkpt lat="47.25476" lon="-2.32706">
        <ele>-2</ele>
        <time>2022-08-07T07:04:11.000Z</time>
      </trkpt>
      <trkpt lat="47.25466" lon="-2.32721">
        <ele>-2</ele>
        <time>2022-08-07T07:04:14.000Z</time>
      </trkpt>
      <trkpt lat="47.25459" lon="-2.32731">
        <ele>-2</ele>
        <time>2022-08-07T07:04:16.000Z</time>
      </trkpt>
      <trkpt lat="47.25438" lon="-2.32762">
        <ele>-2</ele>
        <time>2022-08-07T07:04:22.000Z</time>
      </trkpt>
      <trkpt lat="47.25436" lon="-2.32768">
        <ele>-2</ele>
        <time>2022-08-07T07:04:23.000Z</time>
      </trkpt>
      <trkpt lat="47.25423" lon="-2.32791">
        <ele>-2</ele>
        <time>2022-08-07T07:04:27.000Z</time>
      </trkpt>
      <trkpt lat="47.25415" lon="-2.32802">
        <ele>-2.4000000953674</ele>
        <time>2022-08-07T07:04:29.000Z</time>
      </trkpt>
      <trkpt lat="47.25411" lon="-2.32808">
        <ele>-2.7999999523163</ele>
        <time>2022-08-07T07:04:30.000Z</time>
      </trkpt>
      <trkpt lat="47.25406" lon="-2.32813">
        <ele>-3.2000000476837</ele>
        <time>2022-08-07T07:04:31.000Z</time>
      </trkpt>
      <trkpt lat="47.25402" lon="-2.32819">
        <ele>-3.5999999046326</ele>
        <time>2022-08-07T07:04:32.000Z</time>
      </trkpt>
      <trkpt lat="47.25397" lon="-2.32825">
        <ele>-4</ele>
        <time>2022-08-07T07:04:33.000Z</time>
      </trkpt>
      <trkpt lat="47.25393" lon="-2.32831">
        <ele>-4</ele>
        <time>2022-08-07T07:04:34.000Z</time>
      </trkpt>
      <trkpt lat="47.25367" lon="-2.32861">
        <ele>-4</ele>
        <time>2022-08-07T07:04:40.000Z</time>
      </trkpt>
      <trkpt lat="47.25362" lon="-2.32865">
        <ele>-4</ele>
        <time>2022-08-07T07:04:41.000Z</time>
      </trkpt>
      <trkpt lat="47.25327" lon="-2.32899">
        <ele>-4</ele>
        <time>2022-08-07T07:04:49.000Z</time>
      </trkpt>
      <trkpt lat="47.25314" lon="-2.32913">
        <ele>-4</ele>
        <time>2022-08-07T07:04:52.000Z</time>
      </trkpt>
      <trkpt lat="47.25309" lon="-2.32927">
        <ele>-4</ele>
        <time>2022-08-07T07:04:54.000Z</time>
      </trkpt>
      <trkpt lat="47.25309" lon="-2.32942">
        <ele>-4.4000000953674</ele>
        <time>2022-08-07T07:04:56.000Z</time>
      </trkpt>
      <trkpt lat="47.25311" lon="-2.32949">
        <ele>-4.8000001907349</ele>
        <time>2022-08-07T07:04:57.000Z</time>
      </trkpt>
      <trkpt lat="47.25313" lon="-2.32955">
        <ele>-5.8000001907349</ele>
        <time>2022-08-07T07:04:58.000Z</time>
      </trkpt>
      <trkpt lat="47.25315" lon="-2.32961">
        <ele>-6.1999998092651</ele>
        <time>2022-08-07T07:04:59.000Z</time>
      </trkpt>
      <trkpt lat="47.25318" lon="-2.32967">
        <ele>-6.1999998092651</ele>
        <time>2022-08-07T07:05:00.000Z</time>
      </trkpt>
      <trkpt lat="47.2532" lon="-2.32973">
        <ele>-6.1999998092651</ele>
        <time>2022-08-07T07:05:01.000Z</time>
      </trkpt>
      <trkpt lat="47.25344" lon="-2.33028">
        <ele>-6.1999998092651</ele>
        <time>2022-08-07T07:05:10.000Z</time>
      </trkpt>
      <trkpt lat="47.2536" lon="-2.33067">
        <ele>-6.1999998092651</ele>
        <time>2022-08-07T07:05:17.000Z</time>
      </trkpt>
      <trkpt lat="47.25366" lon="-2.33079">
        <ele>-6.1999998092651</ele>
        <time>2022-08-07T07:05:21.000Z</time>
      </trkpt>
      <trkpt lat="47.25366" lon="-2.3308">
        <ele>-6.1999998092651</ele>
        <time>2022-08-07T07:05:24.000Z</time>
      </trkpt>
      <trkpt lat="47.25366" lon="-2.33081">
        <ele>-10.199999809265</ele>
        <time>2022-08-07T07:07:18.000Z</time>
      </trkpt>
      <trkpt lat="47.25374" lon="-2.33103">
        <ele>-10.199999809265</ele>
        <time>2022-08-07T07:07:24.000Z</time>
      </trkpt>
      <trkpt lat="47.25387" lon="-2.33133">
        <ele>-10.199999809265</ele>
        <time>2022-08-07T07:07:31.000Z</time>
      </trkpt>
      <trkpt lat="47.25391" lon="-2.33133">
        <ele>-10.199999809265</ele>
        <time>2022-08-07T07:07:32.000Z</time>
      </trkpt>
      <trkpt lat="47.25395" lon="-2.33131">
        <ele>-10.60000038147</ele>
        <time>2022-08-07T07:07:33.000Z</time>
      </trkpt>
      <trkpt lat="47.25398" lon="-2.33129">
        <ele>-11</ele>
        <time>2022-08-07T07:07:34.000Z</time>
      </trkpt>
      <trkpt lat="47.25402" lon="-2.33126">
        <ele>-11.39999961853</ele>
        <time>2022-08-07T07:07:35.000Z</time>
      </trkpt>
      <trkpt lat="47.25406" lon="-2.33123">
        <ele>-11.800000190735</ele>
        <time>2022-08-07T07:07:36.000Z</time>
      </trkpt>
      <trkpt lat="47.2541" lon="-2.33122">
        <ele>-12.199999809265</ele>
        <time>2022-08-07T07:07:37.000Z</time>
      </trkpt>
      <trkpt lat="47.25419" lon="-2.33118">
        <ele>-12.199999809265</ele>
        <time>2022-08-07T07:07:39.000Z</time>
      </trkpt>
      <trkpt lat="47.25456" lon="-2.33103">
        <ele>-12.199999809265</ele>
        <time>2022-08-07T07:07:47.000Z</time>
      </trkpt>
      <trkpt lat="47.25483" lon="-2.33089">
        <ele>-12.199999809265</ele>
        <time>2022-08-07T07:07:53.000Z</time>
      </trkpt>
      <trkpt lat="47.2549" lon="-2.33082">
        <ele>-12.199999809265</ele>
        <time>2022-08-07T07:07:55.000Z</time>
      </trkpt>
      <trkpt lat="47.25499" lon="-2.33086">
        <ele>-12.199999809265</ele>
        <time>2022-08-07T07:07:58.000Z</time>
      </trkpt>
      <trkpt lat="47.25501" lon="-2.33103">
        <ele>-12.199999809265</ele>
        <time>2022-08-07T07:08:01.000Z</time>
      </trkpt>
      <trkpt lat="47.25502" lon="-2.33109">
        <ele>-12.199999809265</ele>
        <time>2022-08-07T07:08:02.000Z</time>
      </trkpt>
      <trkpt lat="47.25507" lon="-2.33152">
        <ele>-12.199999809265</ele>
        <time>2022-08-07T07:08:08.000Z</time>
      </trkpt>
      <trkpt lat="47.25512" lon="-2.33202">
        <ele>-12.199999809265</ele>
        <time>2022-08-07T07:08:15.000Z</time>
      </trkpt>
      <trkpt lat="47.2552" lon="-2.33268">
        <ele>-12.199999809265</ele>
        <time>2022-08-07T07:08:24.000Z</time>
      </trkpt>
      <trkpt lat="47.25529" lon="-2.33334">
        <ele>-12.199999809265</ele>
        <time>2022-08-07T07:08:33.000Z</time>
      </trkpt>
      <trkpt lat="47.25538" lon="-2.33395">
        <ele>-12.199999809265</ele>
        <time>2022-08-07T07:08:41.000Z</time>
      </trkpt>
      <trkpt lat="47.25551" lon="-2.33442">
        <ele>-12.60000038147</ele>
        <time>2022-08-07T07:08:47.000Z</time>
      </trkpt>
      <trkpt lat="47.25555" lon="-2.33449">
        <ele>-13</ele>
        <time>2022-08-07T07:08:48.000Z</time>
      </trkpt>
      <trkpt lat="47.25558" lon="-2.33456">
        <ele>-13.39999961853</ele>
        <time>2022-08-07T07:08:49.000Z</time>
      </trkpt>
      <trkpt lat="47.25561" lon="-2.33463">
        <ele>-13.800000190735</ele>
        <time>2022-08-07T07:08:50.000Z</time>
      </trkpt>
      <trkpt lat="47.25564" lon="-2.33469">
        <ele>-14.199999809265</ele>
        <time>2022-08-07T07:08:51.000Z</time>
      </trkpt>
      <trkpt lat="47.25575" lon="-2.33488">
        <ele>-14.199999809265</ele>
        <time>2022-08-07T07:08:54.000Z</time>
      </trkpt>
      <trkpt lat="47.25579" lon="-2.33495">
        <ele>-14.199999809265</ele>
        <time>2022-08-07T07:08:55.000Z</time>
      </trkpt>
      <trkpt lat="47.25607" lon="-2.3353">
        <ele>-14.199999809265</ele>
        <time>2022-08-07T07:09:01.000Z</time>
      </trkpt>
      <trkpt lat="47.25637" lon="-2.33556">
        <ele>-14.199999809265</ele>
        <time>2022-08-07T07:09:07.000Z</time>
      </trkpt>
      <trkpt lat="47.25657" lon="-2.33568">
        <ele>-14.199999809265</ele>
        <time>2022-08-07T07:09:11.000Z</time>
      </trkpt>
      <trkpt lat="47.25668" lon="-2.33572">
        <ele>-14.199999809265</ele>
        <time>2022-08-07T07:09:13.000Z</time>
      </trkpt>
      <trkpt lat="47.2568" lon="-2.33574">
        <ele>-14.60000038147</ele>
        <time>2022-08-07T07:09:15.000Z</time>
      </trkpt>
      <trkpt lat="47.25686" lon="-2.33575">
        <ele>-15</ele>
        <time>2022-08-07T07:09:16.000Z</time>
      </trkpt>
      <trkpt lat="47.25692" lon="-2.33576">
        <ele>-15.60000038147</ele>
        <time>2022-08-07T07:09:17.000Z</time>
      </trkpt>
      <trkpt lat="47.25697" lon="-2.33576">
        <ele>-16</ele>
        <time>2022-08-07T07:09:18.000Z</time>
      </trkpt>
      <trkpt lat="47.25703" lon="-2.33577">
        <ele>-16.39999961853</ele>
        <time>2022-08-07T07:09:19.000Z</time>
      </trkpt>
      <trkpt lat="47.25709" lon="-2.33577">
        <ele>-16.39999961853</ele>
        <time>2022-08-07T07:09:20.000Z</time>
      </trkpt>
      <trkpt lat="47.2575" lon="-2.33574">
        <ele>-16.39999961853</ele>
        <time>2022-08-07T07:09:27.000Z</time>
      </trkpt>
      <trkpt lat="47.25783" lon="-2.33573">
        <ele>-16.39999961853</ele>
        <time>2022-08-07T07:09:33.000Z</time>
      </trkpt>
      <trkpt lat="47.25826" lon="-2.3357">
        <ele>-16.39999961853</ele>
        <time>2022-08-07T07:09:41.000Z</time>
      </trkpt>
      <trkpt lat="47.25861" lon="-2.33568">
        <ele>-16.799999237061</ele>
        <time>2022-08-07T07:09:48.000Z</time>
      </trkpt>
      <trkpt lat="47.25865" lon="-2.33568">
        <ele>-17.200000762939</ele>
        <time>2022-08-07T07:09:49.000Z</time>
      </trkpt>
      <trkpt lat="47.25869" lon="-2.33567">
        <ele>-17.60000038147</ele>
        <time>2022-08-07T07:09:50.000Z</time>
      </trkpt>
      <trkpt lat="47.25873" lon="-2.33564">
        <ele>-18</ele>
        <time>2022-08-07T07:09:51.000Z</time>
      </trkpt>
      <trkpt lat="47.25877" lon="-2.33559">
        <ele>-18.39999961853</ele>
        <time>2022-08-07T07:09:52.000Z</time>
      </trkpt>
      <trkpt lat="47.25882" lon="-2.33557">
        <ele>-18.39999961853</ele>
        <time>2022-08-07T07:09:53.000Z</time>
      </trkpt>
      <trkpt lat="47.25893" lon="-2.33556">
        <ele>-18.39999961853</ele>
        <time>2022-08-07T07:09:55.000Z</time>
      </trkpt>
      <trkpt lat="47.25898" lon="-2.33552">
        <ele>-18.39999961853</ele>
        <time>2022-08-07T07:09:56.000Z</time>
      </trkpt>
      <trkpt lat="47.25904" lon="-2.33546">
        <ele>-18.39999961853</ele>
        <time>2022-08-07T07:09:57.000Z</time>
      </trkpt>
      <trkpt lat="47.25942" lon="-2.33513">
        <ele>-19</ele>
        <time>2022-08-07T07:10:04.000Z</time>
      </trkpt>
      <trkpt lat="47.25947" lon="-2.33508">
        <ele>-19.39999961853</ele>
        <time>2022-08-07T07:10:05.000Z</time>
      </trkpt>
      <trkpt lat="47.25953" lon="-2.33503">
        <ele>-19.799999237061</ele>
        <time>2022-08-07T07:10:06.000Z</time>
      </trkpt>
      <trkpt lat="47.25958" lon="-2.33498">
        <ele>-20.200000762939</ele>
        <time>2022-08-07T07:10:07.000Z</time>
      </trkpt>
      <trkpt lat="47.25963" lon="-2.33493">
        <ele>-20.60000038147</ele>
        <time>2022-08-07T07:10:08.000Z</time>
      </trkpt>
      <trkpt lat="47.25969" lon="-2.3349">
        <ele>-20.60000038147</ele>
        <time>2022-08-07T07:10:09.000Z</time>
      </trkpt>
      <trkpt lat="47.25975" lon="-2.3349">
        <ele>-20.60000038147</ele>
        <time>2022-08-07T07:10:10.000Z</time>
      </trkpt>
      <trkpt lat="47.25998" lon="-2.33487">
        <ele>-20.60000038147</ele>
        <time>2022-08-07T07:10:14.000Z</time>
      </trkpt>
      <trkpt lat="47.26003" lon="-2.33486">
        <ele>-20.60000038147</ele>
        <time>2022-08-07T07:10:15.000Z</time>
      </trkpt>
      <trkpt lat="47.2603" lon="-2.33479">
        <ele>-20.60000038147</ele>
        <time>2022-08-07T07:10:20.000Z</time>
      </trkpt>
      <trkpt lat="47.26038" lon="-2.3347">
        <ele>-20.60000038147</ele>
        <time>2022-08-07T07:10:22.000Z</time>
      </trkpt>
      <trkpt lat="47.26049" lon="-2.33448">
        <ele>-20.60000038147</ele>
        <time>2022-08-07T07:10:26.000Z</time>
      </trkpt>
      <trkpt lat="47.26053" lon="-2.33443">
        <ele>-20.60000038147</ele>
        <time>2022-08-07T07:10:27.000Z</time>
      </trkpt>
      <trkpt lat="47.26061" lon="-2.33435">
        <ele>-21</ele>
        <time>2022-08-07T07:10:29.000Z</time>
      </trkpt>
      <trkpt lat="47.26064" lon="-2.33432">
        <ele>-21.39999961853</ele>
        <time>2022-08-07T07:10:30.000Z</time>
      </trkpt>
      <trkpt lat="47.26066" lon="-2.33427">
        <ele>-21.799999237061</ele>
        <time>2022-08-07T07:10:31.000Z</time>
      </trkpt>
      <trkpt lat="47.26067" lon="-2.33421">
        <ele>-22.200000762939</ele>
        <time>2022-08-07T07:10:32.000Z</time>
      </trkpt>
      <trkpt lat="47.26069" lon="-2.33415">
        <ele>-22.60000038147</ele>
        <time>2022-08-07T07:10:33.000Z</time>
      </trkpt>
      <trkpt lat="47.26072" lon="-2.33409">
        <ele>-22.60000038147</ele>
        <time>2022-08-07T07:10:34.000Z</time>
      </trkpt>
      <trkpt lat="47.26087" lon="-2.33398">
        <ele>-22.60000038147</ele>
        <time>2022-08-07T07:10:37.000Z</time>
      </trkpt>
      <trkpt lat="47.26104" lon="-2.33403">
        <ele>-22.60000038147</ele>
        <time>2022-08-07T07:10:40.000Z</time>
      </trkpt>
      <trkpt lat="47.26121" lon="-2.33425">
        <ele>-22.60000038147</ele>
        <time>2022-08-07T07:10:44.000Z</time>
      </trkpt>
      <trkpt lat="47.26134" lon="-2.33435">
        <ele>-22.60000038147</ele>
        <time>2022-08-07T07:10:47.000Z</time>
      </trkpt>
      <trkpt lat="47.26139" lon="-2.33433">
        <ele>-22.60000038147</ele>
        <time>2022-08-07T07:10:48.000Z</time>
      </trkpt>
      <trkpt lat="47.26153" lon="-2.3343">
        <ele>-22.60000038147</ele>
        <time>2022-08-07T07:10:51.000Z</time>
      </trkpt>
      <trkpt lat="47.26163" lon="-2.33435">
        <ele>-22.60000038147</ele>
        <time>2022-08-07T07:10:53.000Z</time>
      </trkpt>
      <trkpt lat="47.26173" lon="-2.33439">
        <ele>-22.60000038147</ele>
        <time>2022-08-07T07:10:55.000Z</time>
      </trkpt>
      <trkpt lat="47.26178" lon="-2.33439">
        <ele>-22.60000038147</ele>
        <time>2022-08-07T07:10:56.000Z</time>
      </trkpt>
      <trkpt lat="47.26187" lon="-2.33433">
        <ele>-22.60000038147</ele>
        <time>2022-08-07T07:10:58.000Z</time>
      </trkpt>
      <trkpt lat="47.26203" lon="-2.33433">
        <ele>-22.60000038147</ele>
        <time>2022-08-07T07:11:01.000Z</time>
      </trkpt>
      <trkpt lat="47.26208" lon="-2.33431">
        <ele>-22.60000038147</ele>
        <time>2022-08-07T07:11:02.000Z</time>
      </trkpt>
      <trkpt lat="47.26212" lon="-2.3343">
        <ele>-22.60000038147</ele>
        <time>2022-08-07T07:11:03.000Z</time>
      </trkpt>
      <trkpt lat="47.26237" lon="-2.33421">
        <ele>-22.60000038147</ele>
        <time>2022-08-07T07:11:08.000Z</time>
      </trkpt>
      <trkpt lat="47.26252" lon="-2.3342">
        <ele>-22.60000038147</ele>
        <time>2022-08-07T07:11:11.000Z</time>
      </trkpt>
      <trkpt lat="47.26257" lon="-2.33425">
        <ele>-22.60000038147</ele>
        <time>2022-08-07T07:11:12.000Z</time>
      </trkpt>
      <trkpt lat="47.26274" lon="-2.33423">
        <ele>-22.60000038147</ele>
        <time>2022-08-07T07:11:15.000Z</time>
      </trkpt>
      <trkpt lat="47.26279" lon="-2.33422">
        <ele>-22.60000038147</ele>
        <time>2022-08-07T07:11:16.000Z</time>
      </trkpt>
      <trkpt lat="47.26296" lon="-2.3342">
        <ele>-23</ele>
        <time>2022-08-07T07:11:19.000Z</time>
      </trkpt>
      <trkpt lat="47.26302" lon="-2.33418">
        <ele>-23.39999961853</ele>
        <time>2022-08-07T07:11:20.000Z</time>
      </trkpt>
      <trkpt lat="47.26308" lon="-2.33416">
        <ele>-23.799999237061</ele>
        <time>2022-08-07T07:11:21.000Z</time>
      </trkpt>
      <trkpt lat="47.26312" lon="-2.33413">
        <ele>-24.200000762939</ele>
        <time>2022-08-07T07:11:22.000Z</time>
      </trkpt>
      <trkpt lat="47.26317" lon="-2.33407">
        <ele>-24.60000038147</ele>
        <time>2022-08-07T07:11:23.000Z</time>
      </trkpt>
      <trkpt lat="47.26331" lon="-2.33395">
        <ele>-24.60000038147</ele>
        <time>2022-08-07T07:11:26.000Z</time>
      </trkpt>
      <trkpt lat="47.26364" lon="-2.33379">
        <ele>-24.60000038147</ele>
        <time>2022-08-07T07:11:32.000Z</time>
      </trkpt>
      <trkpt lat="47.26415" lon="-2.33347">
        <ele>-24.60000038147</ele>
        <time>2022-08-07T07:11:42.000Z</time>
      </trkpt>
      <trkpt lat="47.26452" lon="-2.3332">
        <ele>-24.60000038147</ele>
        <time>2022-08-07T07:11:50.000Z</time>
      </trkpt>
      <trkpt lat="47.26477" lon="-2.33296">
        <ele>-24.60000038147</ele>
        <time>2022-08-07T07:11:57.000Z</time>
      </trkpt>
      <trkpt lat="47.26487" lon="-2.33275">
        <ele>-24.60000038147</ele>
        <time>2022-08-07T07:12:01.000Z</time>
      </trkpt>
      <trkpt lat="47.2649" lon="-2.33274">
        <ele>-24.60000038147</ele>
        <time>2022-08-07T07:12:02.000Z</time>
      </trkpt>
      <trkpt lat="47.26491" lon="-2.33276">
        <ele>-25</ele>
        <time>2022-08-07T07:12:05.000Z</time>
      </trkpt>
      <trkpt lat="47.26494" lon="-2.33276">
        <ele>-26.39999961853</ele>
        <time>2022-08-07T07:12:08.000Z</time>
      </trkpt>
      <trkpt lat="47.26497" lon="-2.33276">
        <ele>-26.799999237061</ele>
        <time>2022-08-07T07:12:09.000Z</time>
      </trkpt>
      <trkpt lat="47.26499" lon="-2.33278">
        <ele>-26.799999237061</ele>
        <time>2022-08-07T07:12:10.000Z</time>
      </trkpt>
      <trkpt lat="47.26506" lon="-2.33282">
        <ele>-26.799999237061</ele>
        <time>2022-08-07T07:12:12.000Z</time>
      </trkpt>
      <trkpt lat="47.26514" lon="-2.33288">
        <ele>-26.799999237061</ele>
        <time>2022-08-07T07:12:14.000Z</time>
      </trkpt>
      <trkpt lat="47.26522" lon="-2.33296">
        <ele>-26.799999237061</ele>
        <time>2022-08-07T07:12:16.000Z</time>
      </trkpt>
      <trkpt lat="47.26527" lon="-2.33308">
        <ele>-26.799999237061</ele>
        <time>2022-08-07T07:12:18.000Z</time>
      </trkpt>
      <trkpt lat="47.26526" lon="-2.33333">
        <ele>-26.799999237061</ele>
        <time>2022-08-07T07:12:21.000Z</time>
      </trkpt>
      <trkpt lat="47.26525" lon="-2.33342">
        <ele>-26.799999237061</ele>
        <time>2022-08-07T07:12:22.000Z</time>
      </trkpt>
      <trkpt lat="47.26527" lon="-2.3335">
        <ele>-26.799999237061</ele>
        <time>2022-08-07T07:12:23.000Z</time>
      </trkpt>
      <trkpt lat="47.2653" lon="-2.33367">
        <ele>-26.799999237061</ele>
        <time>2022-08-07T07:12:25.000Z</time>
      </trkpt>
      <trkpt lat="47.26535" lon="-2.33383">
        <ele>-26.799999237061</ele>
        <time>2022-08-07T07:12:27.000Z</time>
      </trkpt>
      <trkpt lat="47.26544" lon="-2.33425">
        <ele>-26.799999237061</ele>
        <time>2022-08-07T07:12:32.000Z</time>
      </trkpt>
      <trkpt lat="47.26555" lon="-2.33494">
        <ele>-26.799999237061</ele>
        <time>2022-08-07T07:12:40.000Z</time>
      </trkpt>
      <trkpt lat="47.2656" lon="-2.33509">
        <ele>-26.799999237061</ele>
        <time>2022-08-07T07:12:42.000Z</time>
      </trkpt>
      <trkpt lat="47.26564" lon="-2.33524">
        <ele>-26.799999237061</ele>
        <time>2022-08-07T07:12:44.000Z</time>
      </trkpt>
      <trkpt lat="47.26565" lon="-2.33531">
        <ele>-26.799999237061</ele>
        <time>2022-08-07T07:12:45.000Z</time>
      </trkpt>
      <trkpt lat="47.26567" lon="-2.33556">
        <ele>-26.799999237061</ele>
        <time>2022-08-07T07:12:49.000Z</time>
      </trkpt>
      <trkpt lat="47.26574" lon="-2.33605">
        <ele>-26.799999237061</ele>
        <time>2022-08-07T07:12:57.000Z</time>
      </trkpt>
      <trkpt lat="47.26577" lon="-2.33633">
        <ele>-26.799999237061</ele>
        <time>2022-08-07T07:13:03.000Z</time>
      </trkpt>
      <trkpt lat="47.26578" lon="-2.33658">
        <ele>-26.799999237061</ele>
        <time>2022-08-07T07:13:08.000Z</time>
      </trkpt>
      <trkpt lat="47.2658" lon="-2.33663">
        <ele>-26.799999237061</ele>
        <time>2022-08-07T07:13:09.000Z</time>
      </trkpt>
      <trkpt lat="47.26587" lon="-2.33676">
        <ele>-26.799999237061</ele>
        <time>2022-08-07T07:13:12.000Z</time>
      </trkpt>
      <trkpt lat="47.26593" lon="-2.33686">
        <ele>-26.799999237061</ele>
        <time>2022-08-07T07:13:14.000Z</time>
      </trkpt>
      <trkpt lat="47.26599" lon="-2.33695">
        <ele>-26.39999961853</ele>
        <time>2022-08-07T07:13:16.000Z</time>
      </trkpt>
      <trkpt lat="47.26603" lon="-2.33698">
        <ele>-26</ele>
        <time>2022-08-07T07:13:17.000Z</time>
      </trkpt>
      <trkpt lat="47.26607" lon="-2.33699">
        <ele>-25.60000038147</ele>
        <time>2022-08-07T07:13:18.000Z</time>
      </trkpt>
      <trkpt lat="47.26612" lon="-2.33699">
        <ele>-25</ele>
        <time>2022-08-07T07:13:19.000Z</time>
      </trkpt>
      <trkpt lat="47.26618" lon="-2.33699">
        <ele>-24.60000038147</ele>
        <time>2022-08-07T07:13:20.000Z</time>
      </trkpt>
      <trkpt lat="47.2664" lon="-2.33699">
        <ele>-24.60000038147</ele>
        <time>2022-08-07T07:13:24.000Z</time>
      </trkpt>
      <trkpt lat="47.26675" lon="-2.33697">
        <ele>-24.60000038147</ele>
        <time>2022-08-07T07:13:31.000Z</time>
      </trkpt>
      <trkpt lat="47.26679" lon="-2.33696">
        <ele>-24.60000038147</ele>
        <time>2022-08-07T07:13:32.000Z</time>
      </trkpt>
      <trkpt lat="47.26705" lon="-2.33695">
        <ele>-24.60000038147</ele>
        <time>2022-08-07T07:13:37.000Z</time>
      </trkpt>
      <trkpt lat="47.26746" lon="-2.33694">
        <ele>-24.60000038147</ele>
        <time>2022-08-07T07:13:45.000Z</time>
      </trkpt>
      <trkpt lat="47.26757" lon="-2.33696">
        <ele>-24.60000038147</ele>
        <time>2022-08-07T07:13:47.000Z</time>
      </trkpt>
      <trkpt lat="47.26771" lon="-2.337">
        <ele>-24.60000038147</ele>
        <time>2022-08-07T07:13:50.000Z</time>
      </trkpt>
      <trkpt lat="47.26778" lon="-2.33693">
        <ele>-24.60000038147</ele>
        <time>2022-08-07T07:13:52.000Z</time>
      </trkpt>
      <trkpt lat="47.26778" lon="-2.3368">
        <ele>-24.60000038147</ele>
        <time>2022-08-07T07:13:54.000Z</time>
      </trkpt>
      <trkpt lat="47.26778" lon="-2.33673">
        <ele>-24.60000038147</ele>
        <time>2022-08-07T07:13:55.000Z</time>
      </trkpt>
      <trkpt lat="47.26778" lon="-2.33625">
        <ele>-25.200000762939</ele>
        <time>2022-08-07T07:14:01.000Z</time>
      </trkpt>
      <trkpt lat="47.26778" lon="-2.33617">
        <ele>-26</ele>
        <time>2022-08-07T07:14:02.000Z</time>
      </trkpt>
      <trkpt lat="47.26778" lon="-2.33608">
        <ele>-26.39999961853</ele>
        <time>2022-08-07T07:14:03.000Z</time>
      </trkpt>
      <trkpt lat="47.26778" lon="-2.336">
        <ele>-26.799999237061</ele>
        <time>2022-08-07T07:14:04.000Z</time>
      </trkpt>
      <trkpt lat="47.26779" lon="-2.33576">
        <ele>-26.799999237061</ele>
        <time>2022-08-07T07:14:07.000Z</time>
      </trkpt>
      <trkpt lat="47.26781" lon="-2.33569">
        <ele>-26.799999237061</ele>
        <time>2022-08-07T07:14:08.000Z</time>
      </trkpt>
      <trkpt lat="47.26785" lon="-2.33564">
        <ele>-27.39999961853</ele>
        <time>2022-08-07T07:14:09.000Z</time>
      </trkpt>
      <trkpt lat="47.2679" lon="-2.33561">
        <ele>-27.799999237061</ele>
        <time>2022-08-07T07:14:10.000Z</time>
      </trkpt>
      <trkpt lat="47.26794" lon="-2.33559">
        <ele>-28.200000762939</ele>
        <time>2022-08-07T07:14:11.000Z</time>
      </trkpt>
      <trkpt lat="47.26799" lon="-2.33558">
        <ele>-28.799999237061</ele>
        <time>2022-08-07T07:14:12.000Z</time>
      </trkpt>
      <trkpt lat="47.26804" lon="-2.33556">
        <ele>-29.200000762939</ele>
        <time>2022-08-07T07:14:13.000Z</time>
      </trkpt>
      <trkpt lat="47.26825" lon="-2.33548">
        <ele>-29.200000762939</ele>
        <time>2022-08-07T07:14:17.000Z</time>
      </trkpt>
      <trkpt lat="47.26847" lon="-2.33541">
        <ele>-29.200000762939</ele>
        <time>2022-08-07T07:14:21.000Z</time>
      </trkpt>
      <trkpt lat="47.26852" lon="-2.33538">
        <ele>-29.200000762939</ele>
        <time>2022-08-07T07:14:22.000Z</time>
      </trkpt>
      <trkpt lat="47.26869" lon="-2.33533">
        <ele>-29.200000762939</ele>
        <time>2022-08-07T07:14:25.000Z</time>
      </trkpt>
      <trkpt lat="47.2688" lon="-2.33534">
        <ele>-29.200000762939</ele>
        <time>2022-08-07T07:14:27.000Z</time>
      </trkpt>
      <trkpt lat="47.26894" lon="-2.33544">
        <ele>-29.200000762939</ele>
        <time>2022-08-07T07:14:30.000Z</time>
      </trkpt>
      <trkpt lat="47.26898" lon="-2.3355">
        <ele>-29.200000762939</ele>
        <time>2022-08-07T07:14:31.000Z</time>
      </trkpt>
      <trkpt lat="47.26905" lon="-2.33562">
        <ele>-28.799999237061</ele>
        <time>2022-08-07T07:14:33.000Z</time>
      </trkpt>
      <trkpt lat="47.26908" lon="-2.33568">
        <ele>-28.39999961853</ele>
        <time>2022-08-07T07:14:34.000Z</time>
      </trkpt>
      <trkpt lat="47.26911" lon="-2.33575">
        <ele>-28</ele>
        <time>2022-08-07T07:14:35.000Z</time>
      </trkpt>
      <trkpt lat="47.26913" lon="-2.33582">
        <ele>-27.60000038147</ele>
        <time>2022-08-07T07:14:36.000Z</time>
      </trkpt>
      <trkpt lat="47.26915" lon="-2.3359">
        <ele>-27.200000762939</ele>
        <time>2022-08-07T07:14:37.000Z</time>
      </trkpt>
      <trkpt lat="47.26925" lon="-2.33625">
        <ele>-27.200000762939</ele>
        <time>2022-08-07T07:14:42.000Z</time>
      </trkpt>
      <trkpt lat="47.26935" lon="-2.33676">
        <ele>-27.200000762939</ele>
        <time>2022-08-07T07:14:49.000Z</time>
      </trkpt>
      <trkpt lat="47.26939" lon="-2.33706">
        <ele>-26.799999237061</ele>
        <time>2022-08-07T07:14:53.000Z</time>
      </trkpt>
      <trkpt lat="47.2694" lon="-2.33713">
        <ele>-26.39999961853</ele>
        <time>2022-08-07T07:14:54.000Z</time>
      </trkpt>
      <trkpt lat="47.2694" lon="-2.33721">
        <ele>-26</ele>
        <time>2022-08-07T07:14:55.000Z</time>
      </trkpt>
      <trkpt lat="47.26939" lon="-2.33728">
        <ele>-25.39999961853</ele>
        <time>2022-08-07T07:14:56.000Z</time>
      </trkpt>
      <trkpt lat="47.26938" lon="-2.33735">
        <ele>-25</ele>
        <time>2022-08-07T07:14:57.000Z</time>
      </trkpt>
      <trkpt lat="47.26929" lon="-2.33781">
        <ele>-25</ele>
        <time>2022-08-07T07:15:03.000Z</time>
      </trkpt>
      <trkpt lat="47.26933" lon="-2.33803">
        <ele>-25</ele>
        <time>2022-08-07T07:15:06.000Z</time>
      </trkpt>
      <trkpt lat="47.26945" lon="-2.33812">
        <ele>-25</ele>
        <time>2022-08-07T07:15:09.000Z</time>
      </trkpt>
      <trkpt lat="47.26955" lon="-2.3381">
        <ele>-25</ele>
        <time>2022-08-07T07:15:11.000Z</time>
      </trkpt>
      <trkpt lat="47.26975" lon="-2.33808">
        <ele>-25</ele>
        <time>2022-08-07T07:15:15.000Z</time>
      </trkpt>
      <trkpt lat="47.26987" lon="-2.33808">
        <ele>-24.60000038147</ele>
        <time>2022-08-07T07:15:18.000Z</time>
      </trkpt>
      <trkpt lat="47.26992" lon="-2.33808">
        <ele>-24.200000762939</ele>
        <time>2022-08-07T07:15:19.000Z</time>
      </trkpt>
      <trkpt lat="47.26996" lon="-2.33808">
        <ele>-23.60000038147</ele>
        <time>2022-08-07T07:15:20.000Z</time>
      </trkpt>
      <trkpt lat="47.27" lon="-2.33808">
        <ele>-23.200000762939</ele>
        <time>2022-08-07T07:15:21.000Z</time>
      </trkpt>
      <trkpt lat="47.27005" lon="-2.33808">
        <ele>-22.799999237061</ele>
        <time>2022-08-07T07:15:22.000Z</time>
      </trkpt>
      <trkpt lat="47.2702" lon="-2.33811">
        <ele>-22.39999961853</ele>
        <time>2022-08-07T07:15:26.000Z</time>
      </trkpt>
      <trkpt lat="47.27023" lon="-2.33812">
        <ele>-22</ele>
        <time>2022-08-07T07:15:27.000Z</time>
      </trkpt>
      <trkpt lat="47.27027" lon="-2.33812">
        <ele>-21.39999961853</ele>
        <time>2022-08-07T07:15:28.000Z</time>
      </trkpt>
      <trkpt lat="47.27031" lon="-2.33813">
        <ele>-21</ele>
        <time>2022-08-07T07:15:29.000Z</time>
      </trkpt>
      <trkpt lat="47.27034" lon="-2.33814">
        <ele>-20.60000038147</ele>
        <time>2022-08-07T07:15:30.000Z</time>
      </trkpt>
      <trkpt lat="47.27041" lon="-2.33815">
        <ele>-20.200000762939</ele>
        <time>2022-08-07T07:15:32.000Z</time>
      </trkpt>
      <trkpt lat="47.27045" lon="-2.33814">
        <ele>-19.799999237061</ele>
        <time>2022-08-07T07:15:33.000Z</time>
      </trkpt>
      <trkpt lat="47.27049" lon="-2.33814">
        <ele>-19.39999961853</ele>
        <time>2022-08-07T07:15:34.000Z</time>
      </trkpt>
      <trkpt lat="47.27052" lon="-2.33814">
        <ele>-19</ele>
        <time>2022-08-07T07:15:35.000Z</time>
      </trkpt>
      <trkpt lat="47.27056" lon="-2.33815">
        <ele>-18.60000038147</ele>
        <time>2022-08-07T07:15:36.000Z</time>
      </trkpt>
      <trkpt lat="47.2706" lon="-2.33816">
        <ele>-18.60000038147</ele>
        <time>2022-08-07T07:15:37.000Z</time>
      </trkpt>
      <trkpt lat="47.27068" lon="-2.33818">
        <ele>-18.200000762939</ele>
        <time>2022-08-07T07:15:39.000Z</time>
      </trkpt>
      <trkpt lat="47.27071" lon="-2.33819">
        <ele>-17.799999237061</ele>
        <time>2022-08-07T07:15:40.000Z</time>
      </trkpt>
      <trkpt lat="47.27075" lon="-2.33822">
        <ele>-16.799999237061</ele>
        <time>2022-08-07T07:15:41.000Z</time>
      </trkpt>
      <trkpt lat="47.27078" lon="-2.33825">
        <ele>-16.39999961853</ele>
        <time>2022-08-07T07:15:42.000Z</time>
      </trkpt>
      <trkpt lat="47.27101" lon="-2.3384">
        <ele>-16.39999961853</ele>
        <time>2022-08-07T07:15:48.000Z</time>
      </trkpt>
      <trkpt lat="47.27118" lon="-2.33847">
        <ele>-16</ele>
        <time>2022-08-07T07:15:53.000Z</time>
      </trkpt>
      <trkpt lat="47.27122" lon="-2.33847">
        <ele>-15.60000038147</ele>
        <time>2022-08-07T07:15:54.000Z</time>
      </trkpt>
      <trkpt lat="47.27126" lon="-2.33847">
        <ele>-15.199999809265</ele>
        <time>2022-08-07T07:15:55.000Z</time>
      </trkpt>
      <trkpt lat="47.27129" lon="-2.33846">
        <ele>-14.800000190735</ele>
        <time>2022-08-07T07:15:56.000Z</time>
      </trkpt>
      <trkpt lat="47.27133" lon="-2.33846">
        <ele>-14.39999961853</ele>
        <time>2022-08-07T07:15:57.000Z</time>
      </trkpt>
      <trkpt lat="47.27157" lon="-2.33844">
        <ele>-14.39999961853</ele>
        <time>2022-08-07T07:16:03.000Z</time>
      </trkpt>
      <trkpt lat="47.27175" lon="-2.33834">
        <ele>-14.39999961853</ele>
        <time>2022-08-07T07:16:08.000Z</time>
      </trkpt>
      <trkpt lat="47.27182" lon="-2.3383">
        <ele>-14.39999961853</ele>
        <time>2022-08-07T07:16:10.000Z</time>
      </trkpt>
      <trkpt lat="47.27188" lon="-2.33835">
        <ele>-14.39999961853</ele>
        <time>2022-08-07T07:16:12.000Z</time>
      </trkpt>
      <trkpt lat="47.27194" lon="-2.33839">
        <ele>-14</ele>
        <time>2022-08-07T07:16:14.000Z</time>
      </trkpt>
      <trkpt lat="47.27197" lon="-2.3384">
        <ele>-13.60000038147</ele>
        <time>2022-08-07T07:16:15.000Z</time>
      </trkpt>
      <trkpt lat="47.27201" lon="-2.3384">
        <ele>-13.199999809265</ele>
        <time>2022-08-07T07:16:16.000Z</time>
      </trkpt>
      <trkpt lat="47.27205" lon="-2.3384">
        <ele>-12.800000190735</ele>
        <time>2022-08-07T07:16:17.000Z</time>
      </trkpt>
      <trkpt lat="47.27208" lon="-2.33841">
        <ele>-12.39999961853</ele>
        <time>2022-08-07T07:16:18.000Z</time>
      </trkpt>
      <trkpt lat="47.27222" lon="-2.33846">
        <ele>-12.39999961853</ele>
        <time>2022-08-07T07:16:22.000Z</time>
      </trkpt>
      <trkpt lat="47.27225" lon="-2.33847">
        <ele>-12</ele>
        <time>2022-08-07T07:16:23.000Z</time>
      </trkpt>
      <trkpt lat="47.27229" lon="-2.33849">
        <ele>-11.60000038147</ele>
        <time>2022-08-07T07:16:24.000Z</time>
      </trkpt>
      <trkpt lat="47.27233" lon="-2.3385">
        <ele>-11.199999809265</ele>
        <time>2022-08-07T07:16:25.000Z</time>
      </trkpt>
      <trkpt lat="47.27236" lon="-2.33852">
        <ele>-10.800000190735</ele>
        <time>2022-08-07T07:16:26.000Z</time>
      </trkpt>
      <trkpt lat="47.2724" lon="-2.33854">
        <ele>-10.39999961853</ele>
        <time>2022-08-07T07:16:27.000Z</time>
      </trkpt>
      <trkpt lat="47.27246" lon="-2.33858">
        <ele>-10.39999961853</ele>
        <time>2022-08-07T07:16:29.000Z</time>
      </trkpt>
      <trkpt lat="47.2726" lon="-2.33871">
        <ele>-10.39999961853</ele>
        <time>2022-08-07T07:16:34.000Z</time>
      </trkpt>
      <trkpt lat="47.27285" lon="-2.339">
        <ele>-10.39999961853</ele>
        <time>2022-08-07T07:16:42.000Z</time>
      </trkpt>
      <trkpt lat="47.27305" lon="-2.33925">
        <ele>-10.39999961853</ele>
        <time>2022-08-07T07:16:49.000Z</time>
      </trkpt>
      <trkpt lat="47.27332" lon="-2.33954">
        <ele>-10.39999961853</ele>
        <time>2022-08-07T07:16:57.000Z</time>
      </trkpt>
      <trkpt lat="47.2734" lon="-2.33958">
        <ele>-10.39999961853</ele>
        <time>2022-08-07T07:16:59.000Z</time>
      </trkpt>
      <trkpt lat="47.27356" lon="-2.33961">
        <ele>-10.39999961853</ele>
        <time>2022-08-07T07:17:03.000Z</time>
      </trkpt>
      <trkpt lat="47.27369" lon="-2.33962">
        <ele>-10.39999961853</ele>
        <time>2022-08-07T07:17:06.000Z</time>
      </trkpt>
      <trkpt lat="47.27382" lon="-2.33959">
        <ele>-10.39999961853</ele>
        <time>2022-08-07T07:17:09.000Z</time>
      </trkpt>
      <trkpt lat="47.27391" lon="-2.33964">
        <ele>-10.39999961853</ele>
        <time>2022-08-07T07:17:12.000Z</time>
      </trkpt>
      <trkpt lat="47.27395" lon="-2.33985">
        <ele>-10.39999961853</ele>
        <time>2022-08-07T07:17:16.000Z</time>
      </trkpt>
      <trkpt lat="47.274" lon="-2.34001">
        <ele>-10.39999961853</ele>
        <time>2022-08-07T07:17:19.000Z</time>
      </trkpt>
      <trkpt lat="47.27408" lon="-2.34">
        <ele>-10.39999961853</ele>
        <time>2022-08-07T07:17:21.000Z</time>
      </trkpt>
      <trkpt lat="47.27414" lon="-2.33992">
        <ele>-10.39999961853</ele>
        <time>2022-08-07T07:17:23.000Z</time>
      </trkpt>
      <trkpt lat="47.27425" lon="-2.33979">
        <ele>-10.39999961853</ele>
        <time>2022-08-07T07:17:27.000Z</time>
      </trkpt>
      <trkpt lat="47.27434" lon="-2.33968">
        <ele>-10.39999961853</ele>
        <time>2022-08-07T07:17:30.000Z</time>
      </trkpt>
      <trkpt lat="47.27444" lon="-2.33954">
        <ele>-10.39999961853</ele>
        <time>2022-08-07T07:17:33.000Z</time>
      </trkpt>
      <trkpt lat="47.27466" lon="-2.33921">
        <ele>-10.39999961853</ele>
        <time>2022-08-07T07:17:40.000Z</time>
      </trkpt>
      <trkpt lat="47.27496" lon="-2.33886">
        <ele>-10.39999961853</ele>
        <time>2022-08-07T07:17:48.000Z</time>
      </trkpt>
      <trkpt lat="47.275" lon="-2.33881">
        <ele>-10.39999961853</ele>
        <time>2022-08-07T07:17:49.000Z</time>
      </trkpt>
      <trkpt lat="47.27521" lon="-2.3386">
        <ele>-10.39999961853</ele>
        <time>2022-08-07T07:17:54.000Z</time>
      </trkpt>
      <trkpt lat="47.27555" lon="-2.33829">
        <ele>-10.39999961853</ele>
        <time>2022-08-07T07:18:02.000Z</time>
      </trkpt>
      <trkpt lat="47.27584" lon="-2.33806">
        <ele>-10.39999961853</ele>
        <time>2022-08-07T07:18:08.000Z</time>
      </trkpt>
      <trkpt lat="47.27615" lon="-2.33786">
        <ele>-10.39999961853</ele>
        <time>2022-08-07T07:18:14.000Z</time>
      </trkpt>
      <trkpt lat="47.2765" lon="-2.33762">
        <ele>-10.39999961853</ele>
        <time>2022-08-07T07:18:21.000Z</time>
      </trkpt>
      <trkpt lat="47.27655" lon="-2.33759">
        <ele>-10.800000190735</ele>
        <time>2022-08-07T07:18:22.000Z</time>
      </trkpt>
      <trkpt lat="47.2766" lon="-2.33756">
        <ele>-11.199999809265</ele>
        <time>2022-08-07T07:18:23.000Z</time>
      </trkpt>
      <trkpt lat="47.27665" lon="-2.33754">
        <ele>-11.60000038147</ele>
        <time>2022-08-07T07:18:24.000Z</time>
      </trkpt>
      <trkpt lat="47.2767" lon="-2.33753">
        <ele>-12</ele>
        <time>2022-08-07T07:18:25.000Z</time>
      </trkpt>
      <trkpt lat="47.27675" lon="-2.33751">
        <ele>-12.39999961853</ele>
        <time>2022-08-07T07:18:26.000Z</time>
      </trkpt>
      <trkpt lat="47.27697" lon="-2.33739">
        <ele>-12.39999961853</ele>
        <time>2022-08-07T07:18:31.000Z</time>
      </trkpt>
      <trkpt lat="47.27702" lon="-2.33734">
        <ele>-12.39999961853</ele>
        <time>2022-08-07T07:18:32.000Z</time>
      </trkpt>
      <trkpt lat="47.2773" lon="-2.33699">
        <ele>-12.39999961853</ele>
        <time>2022-08-07T07:18:38.000Z</time>
      </trkpt>
      <trkpt lat="47.27734" lon="-2.33695">
        <ele>-12.800000190735</ele>
        <time>2022-08-07T07:18:39.000Z</time>
      </trkpt>
      <trkpt lat="47.27739" lon="-2.3369">
        <ele>-13.199999809265</ele>
        <time>2022-08-07T07:18:40.000Z</time>
      </trkpt>
      <trkpt lat="47.27744" lon="-2.33686">
        <ele>-13.60000038147</ele>
        <time>2022-08-07T07:18:41.000Z</time>
      </trkpt>
      <trkpt lat="47.27749" lon="-2.33681">
        <ele>-14</ele>
        <time>2022-08-07T07:18:42.000Z</time>
      </trkpt>
      <trkpt lat="47.27754" lon="-2.33677">
        <ele>-14.39999961853</ele>
        <time>2022-08-07T07:18:43.000Z</time>
      </trkpt>
      <trkpt lat="47.27759" lon="-2.33672">
        <ele>-14.39999961853</ele>
        <time>2022-08-07T07:18:44.000Z</time>
      </trkpt>
      <trkpt lat="47.27776" lon="-2.33653">
        <ele>-14.39999961853</ele>
        <time>2022-08-07T07:18:48.000Z</time>
      </trkpt>
      <trkpt lat="47.27787" lon="-2.33647">
        <ele>-14.39999961853</ele>
        <time>2022-08-07T07:18:50.000Z</time>
      </trkpt>
      <trkpt lat="47.27803" lon="-2.3364">
        <ele>-14.39999961853</ele>
        <time>2022-08-07T07:18:53.000Z</time>
      </trkpt>
      <trkpt lat="47.27809" lon="-2.33637">
        <ele>-15</ele>
        <time>2022-08-07T07:18:54.000Z</time>
      </trkpt>
      <trkpt lat="47.27815" lon="-2.33634">
        <ele>-15.39999961853</ele>
        <time>2022-08-07T07:18:55.000Z</time>
      </trkpt>
      <trkpt lat="47.27821" lon="-2.33631">
        <ele>-15.800000190735</ele>
        <time>2022-08-07T07:18:56.000Z</time>
      </trkpt>
      <trkpt lat="47.27827" lon="-2.33629">
        <ele>-16.200000762939</ele>
        <time>2022-08-07T07:18:57.000Z</time>
      </trkpt>
      <trkpt lat="47.27833" lon="-2.33626">
        <ele>-16.60000038147</ele>
        <time>2022-08-07T07:18:58.000Z</time>
      </trkpt>
      <trkpt lat="47.27851" lon="-2.33618">
        <ele>-16.60000038147</ele>
        <time>2022-08-07T07:19:01.000Z</time>
      </trkpt>
      <trkpt lat="47.27874" lon="-2.33608">
        <ele>-17</ele>
        <time>2022-08-07T07:19:05.000Z</time>
      </trkpt>
      <trkpt lat="47.2788" lon="-2.33606">
        <ele>-17.39999961853</ele>
        <time>2022-08-07T07:19:06.000Z</time>
      </trkpt>
      <trkpt lat="47.27886" lon="-2.33603">
        <ele>-18</ele>
        <time>2022-08-07T07:19:07.000Z</time>
      </trkpt>
      <trkpt lat="47.27891" lon="-2.336">
        <ele>-18.39999961853</ele>
        <time>2022-08-07T07:19:08.000Z</time>
      </trkpt>
      <trkpt lat="47.27897" lon="-2.33598">
        <ele>-18.799999237061</ele>
        <time>2022-08-07T07:19:09.000Z</time>
      </trkpt>
      <trkpt lat="47.27903" lon="-2.33595">
        <ele>-18.799999237061</ele>
        <time>2022-08-07T07:19:10.000Z</time>
      </trkpt>
      <trkpt lat="47.27921" lon="-2.33586">
        <ele>-18.799999237061</ele>
        <time>2022-08-07T07:19:13.000Z</time>
      </trkpt>
      <trkpt lat="47.27933" lon="-2.33579">
        <ele>-19.200000762939</ele>
        <time>2022-08-07T07:19:15.000Z</time>
      </trkpt>
      <trkpt lat="47.27938" lon="-2.33575">
        <ele>-19.60000038147</ele>
        <time>2022-08-07T07:19:16.000Z</time>
      </trkpt>
      <trkpt lat="47.27944" lon="-2.33571">
        <ele>-20</ele>
        <time>2022-08-07T07:19:17.000Z</time>
      </trkpt>
      <trkpt lat="47.2795" lon="-2.33567">
        <ele>-20.39999961853</ele>
        <time>2022-08-07T07:19:18.000Z</time>
      </trkpt>
      <trkpt lat="47.27957" lon="-2.33563">
        <ele>-20.799999237061</ele>
        <time>2022-08-07T07:19:19.000Z</time>
      </trkpt>
      <trkpt lat="47.27982" lon="-2.33546">
        <ele>-20.799999237061</ele>
        <time>2022-08-07T07:19:23.000Z</time>
      </trkpt>
      <trkpt lat="47.27988" lon="-2.33542">
        <ele>-21.60000038147</ele>
        <time>2022-08-07T07:19:24.000Z</time>
      </trkpt>
      <trkpt lat="47.27994" lon="-2.33539">
        <ele>-22</ele>
        <time>2022-08-07T07:19:25.000Z</time>
      </trkpt>
      <trkpt lat="47.28" lon="-2.33535">
        <ele>-22.39999961853</ele>
        <time>2022-08-07T07:19:26.000Z</time>
      </trkpt>
      <trkpt lat="47.28006" lon="-2.33531">
        <ele>-22.799999237061</ele>
        <time>2022-08-07T07:19:27.000Z</time>
      </trkpt>
      <trkpt lat="47.28018" lon="-2.33523">
        <ele>-22.799999237061</ele>
        <time>2022-08-07T07:19:29.000Z</time>
      </trkpt>
      <trkpt lat="47.28024" lon="-2.3352">
        <ele>-22.799999237061</ele>
        <time>2022-08-07T07:19:30.000Z</time>
      </trkpt>
      <trkpt lat="47.28039" lon="-2.33519">
        <ele>-22.799999237061</ele>
        <time>2022-08-07T07:19:33.000Z</time>
      </trkpt>
      <trkpt lat="47.28043" lon="-2.33517">
        <ele>-22.799999237061</ele>
        <time>2022-08-07T07:19:34.000Z</time>
      </trkpt>
      <trkpt lat="47.28051" lon="-2.33516">
        <ele>-22.799999237061</ele>
        <time>2022-08-07T07:19:36.000Z</time>
      </trkpt>
      <trkpt lat="47.2806" lon="-2.33516">
        <ele>-22.799999237061</ele>
        <time>2022-08-07T07:19:38.000Z</time>
      </trkpt>
      <trkpt lat="47.28072" lon="-2.33516">
        <ele>-23.200000762939</ele>
        <time>2022-08-07T07:19:41.000Z</time>
      </trkpt>
      <trkpt lat="47.28074" lon="-2.3352">
        <ele>-23.60000038147</ele>
        <time>2022-08-07T07:19:42.000Z</time>
      </trkpt>
      <trkpt lat="47.28075" lon="-2.33525">
        <ele>-24.200000762939</ele>
        <time>2022-08-07T07:19:43.000Z</time>
      </trkpt>
      <trkpt lat="47.28076" lon="-2.33531">
        <ele>-24.60000038147</ele>
        <time>2022-08-07T07:19:44.000Z</time>
      </trkpt>
      <trkpt lat="47.28077" lon="-2.33537">
        <ele>-25</ele>
        <time>2022-08-07T07:19:45.000Z</time>
      </trkpt>
      <trkpt lat="47.28081" lon="-2.33564">
        <ele>-25</ele>
        <time>2022-08-07T07:19:49.000Z</time>
      </trkpt>
      <trkpt lat="47.28082" lon="-2.3357">
        <ele>-25</ele>
        <time>2022-08-07T07:19:50.000Z</time>
      </trkpt>
      <trkpt lat="47.28087" lon="-2.33589">
        <ele>-25</ele>
        <time>2022-08-07T07:19:53.000Z</time>
      </trkpt>
      <trkpt lat="47.2809" lon="-2.33601">
        <ele>-25</ele>
        <time>2022-08-07T07:19:55.000Z</time>
      </trkpt>
      <trkpt lat="47.28091" lon="-2.33608">
        <ele>-25</ele>
        <time>2022-08-07T07:19:56.000Z</time>
      </trkpt>
      <trkpt lat="47.28093" lon="-2.33633">
        <ele>-25</ele>
        <time>2022-08-07T07:20:00.000Z</time>
      </trkpt>
      <trkpt lat="47.28095" lon="-2.33643">
        <ele>-25</ele>
        <time>2022-08-07T07:20:04.000Z</time>
      </trkpt>
      <trkpt lat="47.28103" lon="-2.33658">
        <ele>-25</ele>
        <time>2022-08-07T07:20:08.000Z</time>
      </trkpt>
      <trkpt lat="47.28111" lon="-2.33674">
        <ele>-25</ele>
        <time>2022-08-07T07:20:11.000Z</time>
      </trkpt>
      <trkpt lat="47.28115" lon="-2.33679">
        <ele>-25</ele>
        <time>2022-08-07T07:20:12.000Z</time>
      </trkpt>
      <trkpt lat="47.2813" lon="-2.33698">
        <ele>-25</ele>
        <time>2022-08-07T07:20:16.000Z</time>
      </trkpt>
      <trkpt lat="47.28138" lon="-2.33709">
        <ele>-25</ele>
        <time>2022-08-07T07:20:18.000Z</time>
      </trkpt>
      <trkpt lat="47.28149" lon="-2.33726">
        <ele>-25</ele>
        <time>2022-08-07T07:20:21.000Z</time>
      </trkpt>
      <trkpt lat="47.28161" lon="-2.33742">
        <ele>-25</ele>
        <time>2022-08-07T07:20:24.000Z</time>
      </trkpt>
      <trkpt lat="47.28194" lon="-2.33781">
        <ele>-25</ele>
        <time>2022-08-07T07:20:31.000Z</time>
      </trkpt>
      <trkpt lat="47.28211" lon="-2.33794">
        <ele>-25</ele>
        <time>2022-08-07T07:20:34.000Z</time>
      </trkpt>
      <trkpt lat="47.28223" lon="-2.33799">
        <ele>-25</ele>
        <time>2022-08-07T07:20:36.000Z</time>
      </trkpt>
      <trkpt lat="47.28254" lon="-2.33819">
        <ele>-25</ele>
        <time>2022-08-07T07:20:42.000Z</time>
      </trkpt>
      <trkpt lat="47.28269" lon="-2.33844">
        <ele>-25</ele>
        <time>2022-08-07T07:20:46.000Z</time>
      </trkpt>
      <trkpt lat="47.28284" lon="-2.33879">
        <ele>-24.60000038147</ele>
        <time>2022-08-07T07:20:51.000Z</time>
      </trkpt>
      <trkpt lat="47.28287" lon="-2.33886">
        <ele>-24.200000762939</ele>
        <time>2022-08-07T07:20:52.000Z</time>
      </trkpt>
      <trkpt lat="47.2829" lon="-2.33893">
        <ele>-23.799999237061</ele>
        <time>2022-08-07T07:20:53.000Z</time>
      </trkpt>
      <trkpt lat="47.28292" lon="-2.339">
        <ele>-23.39999961853</ele>
        <time>2022-08-07T07:20:54.000Z</time>
      </trkpt>
      <trkpt lat="47.28295" lon="-2.33906">
        <ele>-23</ele>
        <time>2022-08-07T07:20:55.000Z</time>
      </trkpt>
      <trkpt lat="47.283" lon="-2.33919">
        <ele>-23</ele>
        <time>2022-08-07T07:20:57.000Z</time>
      </trkpt>
      <trkpt lat="47.28305" lon="-2.33929">
        <ele>-23</ele>
        <time>2022-08-07T07:20:59.000Z</time>
      </trkpt>
      <trkpt lat="47.28313" lon="-2.33928">
        <ele>-23</ele>
        <time>2022-08-07T07:21:01.000Z</time>
      </trkpt>
      <trkpt lat="47.2833" lon="-2.33913">
        <ele>-23</ele>
        <time>2022-08-07T07:21:05.000Z</time>
      </trkpt>
      <trkpt lat="47.28335" lon="-2.3391">
        <ele>-23</ele>
        <time>2022-08-07T07:21:06.000Z</time>
      </trkpt>
      <trkpt lat="47.28352" lon="-2.33896">
        <ele>-23</ele>
        <time>2022-08-07T07:21:10.000Z</time>
      </trkpt>
      <trkpt lat="47.28356" lon="-2.33892">
        <ele>-22.39999961853</ele>
        <time>2022-08-07T07:21:11.000Z</time>
      </trkpt>
      <trkpt lat="47.2836" lon="-2.33888">
        <ele>-22</ele>
        <time>2022-08-07T07:21:12.000Z</time>
      </trkpt>
      <trkpt lat="47.28364" lon="-2.33884">
        <ele>-21.60000038147</ele>
        <time>2022-08-07T07:21:13.000Z</time>
      </trkpt>
      <trkpt lat="47.28369" lon="-2.33881">
        <ele>-21.200000762939</ele>
        <time>2022-08-07T07:21:14.000Z</time>
      </trkpt>
      <trkpt lat="47.28373" lon="-2.33877">
        <ele>-20.799999237061</ele>
        <time>2022-08-07T07:21:15.000Z</time>
      </trkpt>
      <trkpt lat="47.28389" lon="-2.33861">
        <ele>-20.799999237061</ele>
        <time>2022-08-07T07:21:19.000Z</time>
      </trkpt>
      <trkpt lat="47.28421" lon="-2.3383">
        <ele>-20.799999237061</ele>
        <time>2022-08-07T07:21:27.000Z</time>
      </trkpt>
      <trkpt lat="47.28455" lon="-2.33795">
        <ele>-20.799999237061</ele>
        <time>2022-08-07T07:21:35.000Z</time>
      </trkpt>
      <trkpt lat="47.28463" lon="-2.33785">
        <ele>-20.799999237061</ele>
        <time>2022-08-07T07:21:37.000Z</time>
      </trkpt>
      <trkpt lat="47.28479" lon="-2.33766">
        <ele>-20.799999237061</ele>
        <time>2022-08-07T07:21:41.000Z</time>
      </trkpt>
      <trkpt lat="47.28509" lon="-2.33734">
        <ele>-20.799999237061</ele>
        <time>2022-08-07T07:21:48.000Z</time>
      </trkpt>
      <trkpt lat="47.2853" lon="-2.33729">
        <ele>-20.799999237061</ele>
        <time>2022-08-07T07:21:52.000Z</time>
      </trkpt>
      <trkpt lat="47.28571" lon="-2.3373">
        <ele>-20.799999237061</ele>
        <time>2022-08-07T07:22:00.000Z</time>
      </trkpt>
      <trkpt lat="47.28587" lon="-2.33731">
        <ele>-20.799999237061</ele>
        <time>2022-08-07T07:22:03.000Z</time>
      </trkpt>
      <trkpt lat="47.28598" lon="-2.33728">
        <ele>-20.799999237061</ele>
        <time>2022-08-07T07:22:05.000Z</time>
      </trkpt>
      <trkpt lat="47.28638" lon="-2.33711">
        <ele>-20.799999237061</ele>
        <time>2022-08-07T07:22:12.000Z</time>
      </trkpt>
      <trkpt lat="47.28685" lon="-2.33693">
        <ele>-20.799999237061</ele>
        <time>2022-08-07T07:22:21.000Z</time>
      </trkpt>
      <trkpt lat="47.287" lon="-2.33689">
        <ele>-20.799999237061</ele>
        <time>2022-08-07T07:22:24.000Z</time>
      </trkpt>
      <trkpt lat="47.28711" lon="-2.3369">
        <ele>-20.799999237061</ele>
        <time>2022-08-07T07:22:26.000Z</time>
      </trkpt>
      <trkpt lat="47.28731" lon="-2.33702">
        <ele>-20.799999237061</ele>
        <time>2022-08-07T07:22:30.000Z</time>
      </trkpt>
      <trkpt lat="47.28746" lon="-2.33724">
        <ele>-20.799999237061</ele>
        <time>2022-08-07T07:22:34.000Z</time>
      </trkpt>
      <trkpt lat="47.28751" lon="-2.33737">
        <ele>-20.799999237061</ele>
        <time>2022-08-07T07:22:36.000Z</time>
      </trkpt>
      <trkpt lat="47.28753" lon="-2.33743">
        <ele>-20.799999237061</ele>
        <time>2022-08-07T07:22:37.000Z</time>
      </trkpt>
      <trkpt lat="47.28756" lon="-2.33758">
        <ele>-20.799999237061</ele>
        <time>2022-08-07T07:22:39.000Z</time>
      </trkpt>
      <trkpt lat="47.28761" lon="-2.33805">
        <ele>-20.799999237061</ele>
        <time>2022-08-07T07:22:45.000Z</time>
      </trkpt>
      <trkpt lat="47.2877" lon="-2.33856">
        <ele>-20.799999237061</ele>
        <time>2022-08-07T07:22:52.000Z</time>
      </trkpt>
      <trkpt lat="47.28773" lon="-2.33863">
        <ele>-20.799999237061</ele>
        <time>2022-08-07T07:22:53.000Z</time>
      </trkpt>
      <trkpt lat="47.28796" lon="-2.33913">
        <ele>-20.799999237061</ele>
        <time>2022-08-07T07:23:01.000Z</time>
      </trkpt>
      <trkpt lat="47.28804" lon="-2.33932">
        <ele>-20.39999961853</ele>
        <time>2022-08-07T07:23:04.000Z</time>
      </trkpt>
      <trkpt lat="47.28806" lon="-2.33939">
        <ele>-20</ele>
        <time>2022-08-07T07:23:05.000Z</time>
      </trkpt>
      <trkpt lat="47.28808" lon="-2.33946">
        <ele>-19.60000038147</ele>
        <time>2022-08-07T07:23:06.000Z</time>
      </trkpt>
      <trkpt lat="47.28811" lon="-2.33952">
        <ele>-18.799999237061</ele>
        <time>2022-08-07T07:23:07.000Z</time>
      </trkpt>
      <trkpt lat="47.28815" lon="-2.33966">
        <ele>-18.799999237061</ele>
        <time>2022-08-07T07:23:09.000Z</time>
      </trkpt>
      <trkpt lat="47.2883" lon="-2.34014">
        <ele>-18.799999237061</ele>
        <time>2022-08-07T07:23:16.000Z</time>
      </trkpt>
      <trkpt lat="47.28842" lon="-2.34069">
        <ele>-18.39999961853</ele>
        <time>2022-08-07T07:23:24.000Z</time>
      </trkpt>
      <trkpt lat="47.28844" lon="-2.34077">
        <ele>-18</ele>
        <time>2022-08-07T07:23:25.000Z</time>
      </trkpt>
      <trkpt lat="47.28845" lon="-2.34084">
        <ele>-17.39999961853</ele>
        <time>2022-08-07T07:23:26.000Z</time>
      </trkpt>
      <trkpt lat="47.28847" lon="-2.34092">
        <ele>-17</ele>
        <time>2022-08-07T07:23:27.000Z</time>
      </trkpt>
      <trkpt lat="47.28848" lon="-2.341">
        <ele>-16.60000038147</ele>
        <time>2022-08-07T07:23:28.000Z</time>
      </trkpt>
      <trkpt lat="47.28854" lon="-2.34138">
        <ele>-16.60000038147</ele>
        <time>2022-08-07T07:23:33.000Z</time>
      </trkpt>
      <trkpt lat="47.28861" lon="-2.34203">
        <ele>-16.60000038147</ele>
        <time>2022-08-07T07:23:41.000Z</time>
      </trkpt>
      <trkpt lat="47.28871" lon="-2.34277">
        <ele>-16.60000038147</ele>
        <time>2022-08-07T07:23:50.000Z</time>
      </trkpt>
      <trkpt lat="47.28885" lon="-2.3435">
        <ele>-16.60000038147</ele>
        <time>2022-08-07T07:23:59.000Z</time>
      </trkpt>
      <trkpt lat="47.28897" lon="-2.34418">
        <ele>-16.60000038147</ele>
        <time>2022-08-07T07:24:07.000Z</time>
      </trkpt>
      <trkpt lat="47.28906" lon="-2.34459">
        <ele>-17</ele>
        <time>2022-08-07T07:24:12.000Z</time>
      </trkpt>
      <trkpt lat="47.28907" lon="-2.34467">
        <ele>-17.60000038147</ele>
        <time>2022-08-07T07:24:13.000Z</time>
      </trkpt>
      <trkpt lat="47.28909" lon="-2.34476">
        <ele>-18</ele>
        <time>2022-08-07T07:24:14.000Z</time>
      </trkpt>
      <trkpt lat="47.28911" lon="-2.34484">
        <ele>-18.39999961853</ele>
        <time>2022-08-07T07:24:15.000Z</time>
      </trkpt>
      <trkpt lat="47.28912" lon="-2.34492">
        <ele>-18.799999237061</ele>
        <time>2022-08-07T07:24:16.000Z</time>
      </trkpt>
      <trkpt lat="47.28922" lon="-2.34562">
        <ele>-18.799999237061</ele>
        <time>2022-08-07T07:24:24.000Z</time>
      </trkpt>
      <trkpt lat="47.28934" lon="-2.34621">
        <ele>-18.799999237061</ele>
        <time>2022-08-07T07:24:31.000Z</time>
      </trkpt>
      <trkpt lat="47.28944" lon="-2.34662">
        <ele>-19.200000762939</ele>
        <time>2022-08-07T07:24:36.000Z</time>
      </trkpt>
      <trkpt lat="47.28946" lon="-2.3467">
        <ele>-19.60000038147</ele>
        <time>2022-08-07T07:24:37.000Z</time>
      </trkpt>
      <trkpt lat="47.28948" lon="-2.34678">
        <ele>-20</ele>
        <time>2022-08-07T07:24:38.000Z</time>
      </trkpt>
      <trkpt lat="47.2895" lon="-2.34686">
        <ele>-20.39999961853</ele>
        <time>2022-08-07T07:24:39.000Z</time>
      </trkpt>
      <trkpt lat="47.28951" lon="-2.34695">
        <ele>-20.799999237061</ele>
        <time>2022-08-07T07:24:40.000Z</time>
      </trkpt>
      <trkpt lat="47.28966" lon="-2.34779">
        <ele>-20.799999237061</ele>
        <time>2022-08-07T07:24:50.000Z</time>
      </trkpt>
      <trkpt lat="47.28977" lon="-2.34841">
        <ele>-20.799999237061</ele>
        <time>2022-08-07T07:24:58.000Z</time>
      </trkpt>
      <trkpt lat="47.28987" lon="-2.34902">
        <ele>-20.799999237061</ele>
        <time>2022-08-07T07:25:06.000Z</time>
      </trkpt>
      <trkpt lat="47.29" lon="-2.34971">
        <ele>-20.799999237061</ele>
        <time>2022-08-07T07:25:15.000Z</time>
      </trkpt>
      <trkpt lat="47.29016" lon="-2.3504">
        <ele>-20.799999237061</ele>
        <time>2022-08-07T07:25:24.000Z</time>
      </trkpt>
      <trkpt lat="47.29026" lon="-2.35095">
        <ele>-20.799999237061</ele>
        <time>2022-08-07T07:25:31.000Z</time>
      </trkpt>
      <trkpt lat="47.29037" lon="-2.35159">
        <ele>-20.799999237061</ele>
        <time>2022-08-07T07:25:39.000Z</time>
      </trkpt>
      <trkpt lat="47.2904" lon="-2.35192">
        <ele>-20.799999237061</ele>
        <time>2022-08-07T07:25:43.000Z</time>
      </trkpt>
      <trkpt lat="47.29036" lon="-2.35208">
        <ele>-20.799999237061</ele>
        <time>2022-08-07T07:25:45.000Z</time>
      </trkpt>
      <trkpt lat="47.29035" lon="-2.35235">
        <ele>-20.799999237061</ele>
        <time>2022-08-07T07:25:48.000Z</time>
      </trkpt>
      <trkpt lat="47.29044" lon="-2.35256">
        <ele>-20.799999237061</ele>
        <time>2022-08-07T07:25:51.000Z</time>
      </trkpt>
      <trkpt lat="47.29052" lon="-2.35268">
        <ele>-20.39999961853</ele>
        <time>2022-08-07T07:25:53.000Z</time>
      </trkpt>
      <trkpt lat="47.29055" lon="-2.35274">
        <ele>-20</ele>
        <time>2022-08-07T07:25:54.000Z</time>
      </trkpt>
      <trkpt lat="47.29057" lon="-2.35282">
        <ele>-19.60000038147</ele>
        <time>2022-08-07T07:25:55.000Z</time>
      </trkpt>
      <trkpt lat="47.29059" lon="-2.3529">
        <ele>-19.200000762939</ele>
        <time>2022-08-07T07:25:56.000Z</time>
      </trkpt>
      <trkpt lat="47.2906" lon="-2.35298">
        <ele>-18.799999237061</ele>
        <time>2022-08-07T07:25:57.000Z</time>
      </trkpt>
      <trkpt lat="47.2907" lon="-2.35348">
        <ele>-18.799999237061</ele>
        <time>2022-08-07T07:26:03.000Z</time>
      </trkpt>
      <trkpt lat="47.29083" lon="-2.35414">
        <ele>-18.799999237061</ele>
        <time>2022-08-07T07:26:11.000Z</time>
      </trkpt>
      <trkpt lat="47.29085" lon="-2.35429">
        <ele>-18.799999237061</ele>
        <time>2022-08-07T07:26:13.000Z</time>
      </trkpt>
      <trkpt lat="47.29085" lon="-2.35445">
        <ele>-18.799999237061</ele>
        <time>2022-08-07T07:26:15.000Z</time>
      </trkpt>
      <trkpt lat="47.29086" lon="-2.35452">
        <ele>-18.799999237061</ele>
        <time>2022-08-07T07:26:16.000Z</time>
      </trkpt>
      <trkpt lat="47.2909" lon="-2.35466">
        <ele>-18.799999237061</ele>
        <time>2022-08-07T07:26:18.000Z</time>
      </trkpt>
      <trkpt lat="47.29092" lon="-2.35472">
        <ele>-18.799999237061</ele>
        <time>2022-08-07T07:26:19.000Z</time>
      </trkpt>
      <trkpt lat="47.29099" lon="-2.35477">
        <ele>-18.799999237061</ele>
        <time>2022-08-07T07:26:21.000Z</time>
      </trkpt>
      <trkpt lat="47.29104" lon="-2.35474">
        <ele>-18.799999237061</ele>
        <time>2022-08-07T07:26:24.000Z</time>
      </trkpt>
      <trkpt lat="47.29103" lon="-2.35475">
        <ele>-18.799999237061</ele>
        <time>2022-08-07T07:26:25.000Z</time>
      </trkpt>
      <trkpt lat="47.29105" lon="-2.35473">
        <ele>-18.799999237061</ele>
        <time>2022-08-07T07:26:33.000Z</time>
      </trkpt>
      <trkpt lat="47.29107" lon="-2.35472">
        <ele>-18.799999237061</ele>
        <time>2022-08-07T07:26:34.000Z</time>
      </trkpt>
      <trkpt lat="47.29121" lon="-2.35466">
        <ele>-18.799999237061</ele>
        <time>2022-08-07T07:26:39.000Z</time>
      </trkpt>
      <trkpt lat="47.29142" lon="-2.35455">
        <ele>-18.799999237061</ele>
        <time>2022-08-07T07:26:44.000Z</time>
      </trkpt>
      <trkpt lat="47.29147" lon="-2.35454">
        <ele>-18.799999237061</ele>
        <time>2022-08-07T07:26:45.000Z</time>
      </trkpt>
      <trkpt lat="47.29183" lon="-2.35441">
        <ele>-18.799999237061</ele>
        <time>2022-08-07T07:26:52.000Z</time>
      </trkpt>
      <trkpt lat="47.29225" lon="-2.35425">
        <ele>-18.799999237061</ele>
        <time>2022-08-07T07:27:00.000Z</time>
      </trkpt>
      <trkpt lat="47.29263" lon="-2.35409">
        <ele>-18.799999237061</ele>
        <time>2022-08-07T07:27:07.000Z</time>
      </trkpt>
      <trkpt lat="47.29294" lon="-2.35384">
        <ele>-18.799999237061</ele>
        <time>2022-08-07T07:27:13.000Z</time>
      </trkpt>
      <trkpt lat="47.29335" lon="-2.35343">
        <ele>-18.799999237061</ele>
        <time>2022-08-07T07:27:21.000Z</time>
      </trkpt>
      <trkpt lat="47.2936" lon="-2.35314">
        <ele>-18.799999237061</ele>
        <time>2022-08-07T07:27:26.000Z</time>
      </trkpt>
      <trkpt lat="47.2937" lon="-2.35303">
        <ele>-18.799999237061</ele>
        <time>2022-08-07T07:27:28.000Z</time>
      </trkpt>
      <trkpt lat="47.2938" lon="-2.35291">
        <ele>-18.799999237061</ele>
        <time>2022-08-07T07:27:30.000Z</time>
      </trkpt>
      <trkpt lat="47.29394" lon="-2.35271">
        <ele>-19.200000762939</ele>
        <time>2022-08-07T07:27:33.000Z</time>
      </trkpt>
      <trkpt lat="47.29398" lon="-2.35264">
        <ele>-19.60000038147</ele>
        <time>2022-08-07T07:27:34.000Z</time>
      </trkpt>
      <trkpt lat="47.29403" lon="-2.35257">
        <ele>-20</ele>
        <time>2022-08-07T07:27:35.000Z</time>
      </trkpt>
      <trkpt lat="47.29407" lon="-2.35251">
        <ele>-20.60000038147</ele>
        <time>2022-08-07T07:27:36.000Z</time>
      </trkpt>
      <trkpt lat="47.29411" lon="-2.35244">
        <ele>-21</ele>
        <time>2022-08-07T07:27:37.000Z</time>
      </trkpt>
      <trkpt lat="47.29429" lon="-2.35215">
        <ele>-21</ele>
        <time>2022-08-07T07:27:41.000Z</time>
      </trkpt>
      <trkpt lat="47.29448" lon="-2.35167">
        <ele>-21</ele>
        <time>2022-08-07T07:27:47.000Z</time>
      </trkpt>
      <trkpt lat="47.29451" lon="-2.35158">
        <ele>-21.39999961853</ele>
        <time>2022-08-07T07:27:48.000Z</time>
      </trkpt>
      <trkpt lat="47.29454" lon="-2.3515">
        <ele>-21.799999237061</ele>
        <time>2022-08-07T07:27:49.000Z</time>
      </trkpt>
      <trkpt lat="47.29457" lon="-2.35142">
        <ele>-22.200000762939</ele>
        <time>2022-08-07T07:27:50.000Z</time>
      </trkpt>
      <trkpt lat="47.2946" lon="-2.35134">
        <ele>-22.60000038147</ele>
        <time>2022-08-07T07:27:51.000Z</time>
      </trkpt>
      <trkpt lat="47.29463" lon="-2.35126">
        <ele>-23</ele>
        <time>2022-08-07T07:27:52.000Z</time>
      </trkpt>
      <trkpt lat="47.29468" lon="-2.3511">
        <ele>-23</ele>
        <time>2022-08-07T07:27:54.000Z</time>
      </trkpt>
      <trkpt lat="47.29475" lon="-2.35087">
        <ele>-23</ele>
        <time>2022-08-07T07:27:57.000Z</time>
      </trkpt>
      <trkpt lat="47.29479" lon="-2.35072">
        <ele>-23</ele>
        <time>2022-08-07T07:27:59.000Z</time>
      </trkpt>
      <trkpt lat="47.29481" lon="-2.35064">
        <ele>-23</ele>
        <time>2022-08-07T07:28:00.000Z</time>
      </trkpt>
      <trkpt lat="47.29496" lon="-2.35023">
        <ele>-23.39999961853</ele>
        <time>2022-08-07T07:28:05.000Z</time>
      </trkpt>
      <trkpt lat="47.295" lon="-2.35013">
        <ele>-23.799999237061</ele>
        <time>2022-08-07T07:28:06.000Z</time>
      </trkpt>
      <trkpt lat="47.29504" lon="-2.35003">
        <ele>-24.200000762939</ele>
        <time>2022-08-07T07:28:07.000Z</time>
      </trkpt>
      <trkpt lat="47.29509" lon="-2.34993">
        <ele>-24.60000038147</ele>
        <time>2022-08-07T07:28:08.000Z</time>
      </trkpt>
      <trkpt lat="47.29513" lon="-2.34984">
        <ele>-25</ele>
        <time>2022-08-07T07:28:09.000Z</time>
      </trkpt>
      <trkpt lat="47.2952" lon="-2.34974">
        <ele>-25.39999961853</ele>
        <time>2022-08-07T07:28:10.000Z</time>
      </trkpt>
      <trkpt lat="47.29525" lon="-2.34964">
        <ele>-25.799999237061</ele>
        <time>2022-08-07T07:28:11.000Z</time>
      </trkpt>
      <trkpt lat="47.29531" lon="-2.34954">
        <ele>-26.200000762939</ele>
        <time>2022-08-07T07:28:12.000Z</time>
      </trkpt>
      <trkpt lat="47.29537" lon="-2.34945">
        <ele>-26.60000038147</ele>
        <time>2022-08-07T07:28:13.000Z</time>
      </trkpt>
      <trkpt lat="47.29542" lon="-2.34938">
        <ele>-27.200000762939</ele>
        <time>2022-08-07T07:28:14.000Z</time>
      </trkpt>
      <trkpt lat="47.29552" lon="-2.34923">
        <ele>-27.200000762939</ele>
        <time>2022-08-07T07:28:16.000Z</time>
      </trkpt>
      <trkpt lat="47.29575" lon="-2.34894">
        <ele>-27.200000762939</ele>
        <time>2022-08-07T07:28:21.000Z</time>
      </trkpt>
      <trkpt lat="47.29579" lon="-2.34887">
        <ele>-26.60000038147</ele>
        <time>2022-08-07T07:28:22.000Z</time>
      </trkpt>
      <trkpt lat="47.29584" lon="-2.34881">
        <ele>-26.200000762939</ele>
        <time>2022-08-07T07:28:23.000Z</time>
      </trkpt>
      <trkpt lat="47.29587" lon="-2.34874">
        <ele>-25.799999237061</ele>
        <time>2022-08-07T07:28:24.000Z</time>
      </trkpt>
      <trkpt lat="47.29592" lon="-2.34868">
        <ele>-25.39999961853</ele>
        <time>2022-08-07T07:28:25.000Z</time>
      </trkpt>
      <trkpt lat="47.29596" lon="-2.34861">
        <ele>-24.799999237061</ele>
        <time>2022-08-07T07:28:26.000Z</time>
      </trkpt>
      <trkpt lat="47.29601" lon="-2.34855">
        <ele>-24.799999237061</ele>
        <time>2022-08-07T07:28:27.000Z</time>
      </trkpt>
      <trkpt lat="47.29613" lon="-2.34836">
        <ele>-24.799999237061</ele>
        <time>2022-08-07T07:28:30.000Z</time>
      </trkpt>
      <trkpt lat="47.29623" lon="-2.34831">
        <ele>-24.799999237061</ele>
        <time>2022-08-07T07:28:32.000Z</time>
      </trkpt>
      <trkpt lat="47.29642" lon="-2.34841">
        <ele>-24.799999237061</ele>
        <time>2022-08-07T07:28:35.000Z</time>
      </trkpt>
      <trkpt lat="47.29648" lon="-2.34846">
        <ele>-24.799999237061</ele>
        <time>2022-08-07T07:28:36.000Z</time>
      </trkpt>
      <trkpt lat="47.29674" lon="-2.34874">
        <ele>-25.200000762939</ele>
        <time>2022-08-07T07:28:41.000Z</time>
      </trkpt>
      <trkpt lat="47.2968" lon="-2.3488">
        <ele>-25.60000038147</ele>
        <time>2022-08-07T07:28:42.000Z</time>
      </trkpt>
      <trkpt lat="47.29685" lon="-2.34885">
        <ele>-26</ele>
        <time>2022-08-07T07:28:43.000Z</time>
      </trkpt>
      <trkpt lat="47.2969" lon="-2.34889">
        <ele>-26.39999961853</ele>
        <time>2022-08-07T07:28:44.000Z</time>
      </trkpt>
      <trkpt lat="47.29695" lon="-2.34891">
        <ele>-26.799999237061</ele>
        <time>2022-08-07T07:28:45.000Z</time>
      </trkpt>
      <trkpt lat="47.29701" lon="-2.34891">
        <ele>-26.799999237061</ele>
        <time>2022-08-07T07:28:46.000Z</time>
      </trkpt>
      <trkpt lat="47.2972" lon="-2.34883">
        <ele>-26.799999237061</ele>
        <time>2022-08-07T07:28:49.000Z</time>
      </trkpt>
      <trkpt lat="47.29732" lon="-2.34878">
        <ele>-26.799999237061</ele>
        <time>2022-08-07T07:28:51.000Z</time>
      </trkpt>
      <trkpt lat="47.29751" lon="-2.34873">
        <ele>-26.799999237061</ele>
        <time>2022-08-07T07:28:54.000Z</time>
      </trkpt>
      <trkpt lat="47.29787" lon="-2.34862">
        <ele>-26.799999237061</ele>
        <time>2022-08-07T07:29:00.000Z</time>
      </trkpt>
      <trkpt lat="47.298" lon="-2.34859">
        <ele>-26.799999237061</ele>
        <time>2022-08-07T07:29:02.000Z</time>
      </trkpt>
      <trkpt lat="47.29811" lon="-2.34855">
        <ele>-26.799999237061</ele>
        <time>2022-08-07T07:29:04.000Z</time>
      </trkpt>
      <trkpt lat="47.29823" lon="-2.34851">
        <ele>-26.799999237061</ele>
        <time>2022-08-07T07:29:06.000Z</time>
      </trkpt>
      <trkpt lat="47.29835" lon="-2.34849">
        <ele>-26.799999237061</ele>
        <time>2022-08-07T07:29:08.000Z</time>
      </trkpt>
      <trkpt lat="47.29868" lon="-2.34841">
        <ele>-26.799999237061</ele>
        <time>2022-08-07T07:29:14.000Z</time>
      </trkpt>
      <trkpt lat="47.29906" lon="-2.34833">
        <ele>-26.799999237061</ele>
        <time>2022-08-07T07:29:21.000Z</time>
      </trkpt>
      <trkpt lat="47.29931" lon="-2.34828">
        <ele>-26.39999961853</ele>
        <time>2022-08-07T07:29:26.000Z</time>
      </trkpt>
      <trkpt lat="47.29936" lon="-2.34827">
        <ele>-26</ele>
        <time>2022-08-07T07:29:27.000Z</time>
      </trkpt>
      <trkpt lat="47.29941" lon="-2.34826">
        <ele>-25.60000038147</ele>
        <time>2022-08-07T07:29:28.000Z</time>
      </trkpt>
      <trkpt lat="47.29945" lon="-2.34825">
        <ele>-25.200000762939</ele>
        <time>2022-08-07T07:29:29.000Z</time>
      </trkpt>
      <trkpt lat="47.2995" lon="-2.34824">
        <ele>-24.799999237061</ele>
        <time>2022-08-07T07:29:30.000Z</time>
      </trkpt>
      <trkpt lat="47.2997" lon="-2.3482">
        <ele>-24.799999237061</ele>
        <time>2022-08-07T07:29:35.000Z</time>
      </trkpt>
      <trkpt lat="47.29977" lon="-2.34818">
        <ele>-24.799999237061</ele>
        <time>2022-08-07T07:29:39.000Z</time>
      </trkpt>
      <trkpt lat="47.29985" lon="-2.34828">
        <ele>-24.799999237061</ele>
        <time>2022-08-07T07:29:44.000Z</time>
      </trkpt>
      <trkpt lat="47.29987" lon="-2.34851">
        <ele>-24.799999237061</ele>
        <time>2022-08-07T07:29:48.000Z</time>
      </trkpt>
      <trkpt lat="47.29993" lon="-2.349">
        <ele>-24.799999237061</ele>
        <time>2022-08-07T07:29:55.000Z</time>
      </trkpt>
      <trkpt lat="47.29996" lon="-2.34962">
        <ele>-24.799999237061</ele>
        <time>2022-08-07T07:30:03.000Z</time>
      </trkpt>
      <trkpt lat="47.29992" lon="-2.35015">
        <ele>-24.799999237061</ele>
        <time>2022-08-07T07:30:09.000Z</time>
      </trkpt>
      <trkpt lat="47.29988" lon="-2.35088">
        <ele>-24.799999237061</ele>
        <time>2022-08-07T07:30:17.000Z</time>
      </trkpt>
      <trkpt lat="47.29984" lon="-2.35143">
        <ele>-24.799999237061</ele>
        <time>2022-08-07T07:30:23.000Z</time>
      </trkpt>
      <trkpt lat="47.29986" lon="-2.35187">
        <ele>-24.799999237061</ele>
        <time>2022-08-07T07:30:28.000Z</time>
      </trkpt>
      <trkpt lat="47.29988" lon="-2.35195">
        <ele>-24.799999237061</ele>
        <time>2022-08-07T07:30:29.000Z</time>
      </trkpt>
      <trkpt lat="47.29995" lon="-2.3522">
        <ele>-24.799999237061</ele>
        <time>2022-08-07T07:30:32.000Z</time>
      </trkpt>
      <trkpt lat="47.3" lon="-2.35234">
        <ele>-24.799999237061</ele>
        <time>2022-08-07T07:30:34.000Z</time>
      </trkpt>
      <trkpt lat="47.30008" lon="-2.35253">
        <ele>-24.799999237061</ele>
        <time>2022-08-07T07:30:38.000Z</time>
      </trkpt>
      <trkpt lat="47.3001" lon="-2.35255">
        <ele>-24.799999237061</ele>
        <time>2022-08-07T07:30:39.000Z</time>
      </trkpt>
      <trkpt lat="47.30014" lon="-2.35253">
        <ele>-24.799999237061</ele>
        <time>2022-08-07T07:30:41.000Z</time>
      </trkpt>
      <trkpt lat="47.30024" lon="-2.35247">
        <ele>-24.799999237061</ele>
        <time>2022-08-07T07:30:46.000Z</time>
      </trkpt>
      <trkpt lat="47.30025" lon="-2.35247">
        <ele>-24.799999237061</ele>
        <time>2022-08-07T07:30:47.000Z</time>
      </trkpt>
      <trkpt lat="47.30025" lon="-2.35246">
        <ele>-24.799999237061</ele>
        <time>2022-08-07T07:30:48.000Z</time>
      </trkpt>
      <trkpt lat="47.30029" lon="-2.35243">
        <ele>-24.799999237061</ele>
        <time>2022-08-07T07:30:50.000Z</time>
      </trkpt>
      <trkpt lat="47.30045" lon="-2.35234">
        <ele>-24.799999237061</ele>
        <time>2022-08-07T07:30:54.000Z</time>
      </trkpt>
      <trkpt lat="47.3005" lon="-2.35232">
        <ele>-24.799999237061</ele>
        <time>2022-08-07T07:30:55.000Z</time>
      </trkpt>
      <trkpt lat="47.30054" lon="-2.3523">
        <ele>-25.200000762939</ele>
        <time>2022-08-07T07:30:56.000Z</time>
      </trkpt>
      <trkpt lat="47.30059" lon="-2.35228">
        <ele>-25.60000038147</ele>
        <time>2022-08-07T07:30:57.000Z</time>
      </trkpt>
      <trkpt lat="47.30064" lon="-2.35226">
        <ele>-26</ele>
        <time>2022-08-07T07:30:58.000Z</time>
      </trkpt>
      <trkpt lat="47.30068" lon="-2.35222">
        <ele>-26.39999961853</ele>
        <time>2022-08-07T07:30:59.000Z</time>
      </trkpt>
      <trkpt lat="47.30073" lon="-2.35218">
        <ele>-26.799999237061</ele>
        <time>2022-08-07T07:31:00.000Z</time>
      </trkpt>
      <trkpt lat="47.30088" lon="-2.35214">
        <ele>-26.799999237061</ele>
        <time>2022-08-07T07:31:03.000Z</time>
      </trkpt>
      <trkpt lat="47.30097" lon="-2.35208">
        <ele>-26.799999237061</ele>
        <time>2022-08-07T07:31:05.000Z</time>
      </trkpt>
      <trkpt lat="47.30101" lon="-2.35206">
        <ele>-26.799999237061</ele>
        <time>2022-08-07T07:31:06.000Z</time>
      </trkpt>
      <trkpt lat="47.30112" lon="-2.352">
        <ele>-26.799999237061</ele>
        <time>2022-08-07T07:31:08.000Z</time>
      </trkpt>
      <trkpt lat="47.30127" lon="-2.35194">
        <ele>-26.799999237061</ele>
        <time>2022-08-07T07:31:11.000Z</time>
      </trkpt>
      <trkpt lat="47.30136" lon="-2.35193">
        <ele>-26.799999237061</ele>
        <time>2022-08-07T07:31:13.000Z</time>
      </trkpt>
      <trkpt lat="47.30146" lon="-2.35192">
        <ele>-26.799999237061</ele>
        <time>2022-08-07T07:31:15.000Z</time>
      </trkpt>
      <trkpt lat="47.30158" lon="-2.35181">
        <ele>-26.799999237061</ele>
        <time>2022-08-07T07:31:18.000Z</time>
      </trkpt>
      <trkpt lat="47.30173" lon="-2.35174">
        <ele>-26.799999237061</ele>
        <time>2022-08-07T07:31:21.000Z</time>
      </trkpt>
      <trkpt lat="47.30178" lon="-2.35173">
        <ele>-26.799999237061</ele>
        <time>2022-08-07T07:31:22.000Z</time>
      </trkpt>
      <trkpt lat="47.30183" lon="-2.35172">
        <ele>-26.799999237061</ele>
        <time>2022-08-07T07:31:23.000Z</time>
      </trkpt>
      <trkpt lat="47.30198" lon="-2.35164">
        <ele>-26.799999237061</ele>
        <time>2022-08-07T07:31:26.000Z</time>
      </trkpt>
      <trkpt lat="47.30204" lon="-2.35144">
        <ele>-26.799999237061</ele>
        <time>2022-08-07T07:31:29.000Z</time>
      </trkpt>
      <trkpt lat="47.30204" lon="-2.35136">
        <ele>-26.799999237061</ele>
        <time>2022-08-07T07:31:30.000Z</time>
      </trkpt>
      <trkpt lat="47.30204" lon="-2.35122">
        <ele>-26.799999237061</ele>
        <time>2022-08-07T07:31:32.000Z</time>
      </trkpt>
      <trkpt lat="47.30205" lon="-2.35115">
        <ele>-26.39999961853</ele>
        <time>2022-08-07T07:31:33.000Z</time>
      </trkpt>
      <trkpt lat="47.30206" lon="-2.35108">
        <ele>-26</ele>
        <time>2022-08-07T07:31:34.000Z</time>
      </trkpt>
      <trkpt lat="47.30207" lon="-2.35101">
        <ele>-25.60000038147</ele>
        <time>2022-08-07T07:31:35.000Z</time>
      </trkpt>
      <trkpt lat="47.30207" lon="-2.35093">
        <ele>-25.200000762939</ele>
        <time>2022-08-07T07:31:36.000Z</time>
      </trkpt>
      <trkpt lat="47.30207" lon="-2.35086">
        <ele>-24.60000038147</ele>
        <time>2022-08-07T07:31:37.000Z</time>
      </trkpt>
      <trkpt lat="47.30207" lon="-2.35078">
        <ele>-24.60000038147</ele>
        <time>2022-08-07T07:31:38.000Z</time>
      </trkpt>
      <trkpt lat="47.30207" lon="-2.35064">
        <ele>-24.60000038147</ele>
        <time>2022-08-07T07:31:40.000Z</time>
      </trkpt>
      <trkpt lat="47.30206" lon="-2.35013">
        <ele>-24.60000038147</ele>
        <time>2022-08-07T07:31:47.000Z</time>
      </trkpt>
      <trkpt lat="47.30205" lon="-2.35">
        <ele>-24.60000038147</ele>
        <time>2022-08-07T07:31:49.000Z</time>
      </trkpt>
      <trkpt lat="47.30206" lon="-2.34979">
        <ele>-24.60000038147</ele>
        <time>2022-08-07T07:31:52.000Z</time>
      </trkpt>
      <trkpt lat="47.30207" lon="-2.34966">
        <ele>-24.200000762939</ele>
        <time>2022-08-07T07:31:54.000Z</time>
      </trkpt>
      <trkpt lat="47.30207" lon="-2.34959">
        <ele>-23.799999237061</ele>
        <time>2022-08-07T07:31:55.000Z</time>
      </trkpt>
      <trkpt lat="47.30207" lon="-2.34952">
        <ele>-23.39999961853</ele>
        <time>2022-08-07T07:31:56.000Z</time>
      </trkpt>
      <trkpt lat="47.30207" lon="-2.34945">
        <ele>-23</ele>
        <time>2022-08-07T07:31:57.000Z</time>
      </trkpt>
      <trkpt lat="47.30206" lon="-2.34937">
        <ele>-22.60000038147</ele>
        <time>2022-08-07T07:31:58.000Z</time>
      </trkpt>
      <trkpt lat="47.30208" lon="-2.34911">
        <ele>-22.60000038147</ele>
        <time>2022-08-07T07:32:02.000Z</time>
      </trkpt>
      <trkpt lat="47.30211" lon="-2.34906">
        <ele>-22.60000038147</ele>
        <time>2022-08-07T07:32:03.000Z</time>
      </trkpt>
      <trkpt lat="47.30224" lon="-2.34894">
        <ele>-22.60000038147</ele>
        <time>2022-08-07T07:32:06.000Z</time>
      </trkpt>
      <trkpt lat="47.30243" lon="-2.3488">
        <ele>-22.60000038147</ele>
        <time>2022-08-07T07:32:10.000Z</time>
      </trkpt>
      <trkpt lat="47.30248" lon="-2.34877">
        <ele>-22.60000038147</ele>
        <time>2022-08-07T07:32:11.000Z</time>
      </trkpt>
      <trkpt lat="47.30279" lon="-2.34858">
        <ele>-22.60000038147</ele>
        <time>2022-08-07T07:32:17.000Z</time>
      </trkpt>
      <trkpt lat="47.30289" lon="-2.34849">
        <ele>-22.60000038147</ele>
        <time>2022-08-07T07:32:19.000Z</time>
      </trkpt>
      <trkpt lat="47.30298" lon="-2.34838">
        <ele>-22.60000038147</ele>
        <time>2022-08-07T07:32:21.000Z</time>
      </trkpt>
      <trkpt lat="47.30321" lon="-2.34799">
        <ele>-22.60000038147</ele>
        <time>2022-08-07T07:32:27.000Z</time>
      </trkpt>
      <trkpt lat="47.30328" lon="-2.34785">
        <ele>-22.60000038147</ele>
        <time>2022-08-07T07:32:29.000Z</time>
      </trkpt>
      <trkpt lat="47.30337" lon="-2.34776">
        <ele>-22.60000038147</ele>
        <time>2022-08-07T07:32:31.000Z</time>
      </trkpt>
      <trkpt lat="47.30361" lon="-2.3476">
        <ele>-22.60000038147</ele>
        <time>2022-08-07T07:32:36.000Z</time>
      </trkpt>
      <trkpt lat="47.30366" lon="-2.34756">
        <ele>-22.60000038147</ele>
        <time>2022-08-07T07:32:37.000Z</time>
      </trkpt>
      <trkpt lat="47.30401" lon="-2.34735">
        <ele>-22.60000038147</ele>
        <time>2022-08-07T07:32:43.000Z</time>
      </trkpt>
      <trkpt lat="47.30425" lon="-2.34718">
        <ele>-22.60000038147</ele>
        <time>2022-08-07T07:32:47.000Z</time>
      </trkpt>
      <trkpt lat="47.30429" lon="-2.34712">
        <ele>-22.60000038147</ele>
        <time>2022-08-07T07:32:48.000Z</time>
      </trkpt>
      <trkpt lat="47.3044" lon="-2.34702">
        <ele>-22.60000038147</ele>
        <time>2022-08-07T07:32:50.000Z</time>
      </trkpt>
      <trkpt lat="47.30457" lon="-2.34688">
        <ele>-22.60000038147</ele>
        <time>2022-08-07T07:32:53.000Z</time>
      </trkpt>
      <trkpt lat="47.30488" lon="-2.34653">
        <ele>-22.60000038147</ele>
        <time>2022-08-07T07:32:59.000Z</time>
      </trkpt>
      <trkpt lat="47.305" lon="-2.34627">
        <ele>-22.60000038147</ele>
        <time>2022-08-07T07:33:03.000Z</time>
      </trkpt>
      <trkpt lat="47.30507" lon="-2.34615">
        <ele>-22.60000038147</ele>
        <time>2022-08-07T07:33:05.000Z</time>
      </trkpt>
      <trkpt lat="47.30514" lon="-2.34606">
        <ele>-22.60000038147</ele>
        <time>2022-08-07T07:33:07.000Z</time>
      </trkpt>
      <trkpt lat="47.30526" lon="-2.3459">
        <ele>-22.60000038147</ele>
        <time>2022-08-07T07:33:10.000Z</time>
      </trkpt>
      <trkpt lat="47.30533" lon="-2.34582">
        <ele>-22.60000038147</ele>
        <time>2022-08-07T07:33:12.000Z</time>
      </trkpt>
      <trkpt lat="47.30548" lon="-2.34561">
        <ele>-22.60000038147</ele>
        <time>2022-08-07T07:33:18.000Z</time>
      </trkpt>
      <trkpt lat="47.3056" lon="-2.34541">
        <ele>-22.60000038147</ele>
        <time>2022-08-07T07:33:23.000Z</time>
      </trkpt>
      <trkpt lat="47.3057" lon="-2.3452">
        <ele>-22.60000038147</ele>
        <time>2022-08-07T07:33:28.000Z</time>
      </trkpt>
      <trkpt lat="47.30583" lon="-2.34498">
        <ele>-22.60000038147</ele>
        <time>2022-08-07T07:33:34.000Z</time>
      </trkpt>
      <trkpt lat="47.30599" lon="-2.34468">
        <ele>-22.60000038147</ele>
        <time>2022-08-07T07:33:41.000Z</time>
      </trkpt>
      <trkpt lat="47.30605" lon="-2.34458">
        <ele>-22.60000038147</ele>
        <time>2022-08-07T07:33:43.000Z</time>
      </trkpt>
      <trkpt lat="47.30617" lon="-2.34444">
        <ele>-22.60000038147</ele>
        <time>2022-08-07T07:33:46.000Z</time>
      </trkpt>
      <trkpt lat="47.30643" lon="-2.3441">
        <ele>-22.60000038147</ele>
        <time>2022-08-07T07:33:52.000Z</time>
      </trkpt>
      <trkpt lat="47.30657" lon="-2.34388">
        <ele>-22.60000038147</ele>
        <time>2022-08-07T07:33:56.000Z</time>
      </trkpt>
      <trkpt lat="47.30661" lon="-2.34382">
        <ele>-22.60000038147</ele>
        <time>2022-08-07T07:33:57.000Z</time>
      </trkpt>
      <trkpt lat="47.30685" lon="-2.34341">
        <ele>-22.60000038147</ele>
        <time>2022-08-07T07:34:03.000Z</time>
      </trkpt>
      <trkpt lat="47.30702" lon="-2.34308">
        <ele>-22.60000038147</ele>
        <time>2022-08-07T07:34:08.000Z</time>
      </trkpt>
      <trkpt lat="47.30716" lon="-2.34277">
        <ele>-22.60000038147</ele>
        <time>2022-08-07T07:34:12.000Z</time>
      </trkpt>
      <trkpt lat="47.30719" lon="-2.34268">
        <ele>-22.60000038147</ele>
        <time>2022-08-07T07:34:13.000Z</time>
      </trkpt>
      <trkpt lat="47.30723" lon="-2.34235">
        <ele>-22.60000038147</ele>
        <time>2022-08-07T07:34:17.000Z</time>
      </trkpt>
      <trkpt lat="47.30731" lon="-2.34228">
        <ele>-22.60000038147</ele>
        <time>2022-08-07T07:34:19.000Z</time>
      </trkpt>
      <trkpt lat="47.30745" lon="-2.34226">
        <ele>-22.60000038147</ele>
        <time>2022-08-07T07:34:22.000Z</time>
      </trkpt>
      <trkpt lat="47.30763" lon="-2.34212">
        <ele>-22.60000038147</ele>
        <time>2022-08-07T07:34:26.000Z</time>
      </trkpt>
      <trkpt lat="47.30764" lon="-2.3419">
        <ele>-22.60000038147</ele>
        <time>2022-08-07T07:34:29.000Z</time>
      </trkpt>
      <trkpt lat="47.30765" lon="-2.34175">
        <ele>-22.60000038147</ele>
        <time>2022-08-07T07:34:31.000Z</time>
      </trkpt>
      <trkpt lat="47.30767" lon="-2.34153">
        <ele>-22.60000038147</ele>
        <time>2022-08-07T07:34:34.000Z</time>
      </trkpt>
      <trkpt lat="47.30767" lon="-2.34144">
        <ele>-22.60000038147</ele>
        <time>2022-08-07T07:34:35.000Z</time>
      </trkpt>
      <trkpt lat="47.30771" lon="-2.34093">
        <ele>-22.60000038147</ele>
        <time>2022-08-07T07:34:41.000Z</time>
      </trkpt>
      <trkpt lat="47.30774" lon="-2.34069">
        <ele>-23.200000762939</ele>
        <time>2022-08-07T07:34:44.000Z</time>
      </trkpt>
      <trkpt lat="47.30774" lon="-2.3406">
        <ele>-23.60000038147</ele>
        <time>2022-08-07T07:34:45.000Z</time>
      </trkpt>
      <trkpt lat="47.30775" lon="-2.34052">
        <ele>-24</ele>
        <time>2022-08-07T07:34:46.000Z</time>
      </trkpt>
      <trkpt lat="47.30775" lon="-2.34045">
        <ele>-24.60000038147</ele>
        <time>2022-08-07T07:34:47.000Z</time>
      </trkpt>
      <trkpt lat="47.30775" lon="-2.34036">
        <ele>-25</ele>
        <time>2022-08-07T07:34:48.000Z</time>
      </trkpt>
      <trkpt lat="47.30776" lon="-2.34028">
        <ele>-25</ele>
        <time>2022-08-07T07:34:49.000Z</time>
      </trkpt>
      <trkpt lat="47.30777" lon="-2.34006">
        <ele>-25</ele>
        <time>2022-08-07T07:34:52.000Z</time>
      </trkpt>
      <trkpt lat="47.3078" lon="-2.33979">
        <ele>-25</ele>
        <time>2022-08-07T07:34:57.000Z</time>
      </trkpt>
      <trkpt lat="47.30783" lon="-2.33973">
        <ele>-25</ele>
        <time>2022-08-07T07:34:59.000Z</time>
      </trkpt>
      <trkpt lat="47.30788" lon="-2.33972">
        <ele>-25</ele>
        <time>2022-08-07T07:35:01.000Z</time>
      </trkpt>
      <trkpt lat="47.30803" lon="-2.33965">
        <ele>-25</ele>
        <time>2022-08-07T07:35:07.000Z</time>
      </trkpt>
      <trkpt lat="47.3082" lon="-2.33958">
        <ele>-25</ele>
        <time>2022-08-07T07:35:14.000Z</time>
      </trkpt>
      <trkpt lat="47.30838" lon="-2.33955">
        <ele>-25</ele>
        <time>2022-08-07T07:35:22.000Z</time>
      </trkpt>
      <trkpt lat="47.30852" lon="-2.33952">
        <ele>-25</ele>
        <time>2022-08-07T07:35:28.000Z</time>
      </trkpt>
      <trkpt lat="47.30869" lon="-2.33949">
        <ele>-25</ele>
        <time>2022-08-07T07:35:35.000Z</time>
      </trkpt>
      <trkpt lat="47.30887" lon="-2.33946">
        <ele>-25</ele>
        <time>2022-08-07T07:35:42.000Z</time>
      </trkpt>
      <trkpt lat="47.30902" lon="-2.33944">
        <ele>-25</ele>
        <time>2022-08-07T07:35:48.000Z</time>
      </trkpt>
      <trkpt lat="47.30924" lon="-2.33945">
        <ele>-25</ele>
        <time>2022-08-07T07:35:56.000Z</time>
      </trkpt>
      <trkpt lat="47.30944" lon="-2.33949">
        <ele>-25</ele>
        <time>2022-08-07T07:36:03.000Z</time>
      </trkpt>
      <trkpt lat="47.30951" lon="-2.33949">
        <ele>-25</ele>
        <time>2022-08-07T07:36:07.000Z</time>
      </trkpt>
      <trkpt lat="47.30953" lon="-2.33951">
        <ele>-25.799999237061</ele>
        <time>2022-08-07T07:36:39.000Z</time>
      </trkpt>
      <trkpt lat="47.30955" lon="-2.33952">
        <ele>-26.200000762939</ele>
        <time>2022-08-07T07:36:40.000Z</time>
      </trkpt>
      <trkpt lat="47.30957" lon="-2.33952">
        <ele>-26.60000038147</ele>
        <time>2022-08-07T07:36:41.000Z</time>
      </trkpt>
      <trkpt lat="47.3096" lon="-2.33953">
        <ele>-27</ele>
        <time>2022-08-07T07:36:42.000Z</time>
      </trkpt>
      <trkpt lat="47.30982" lon="-2.33955">
        <ele>-27</ele>
        <time>2022-08-07T07:36:47.000Z</time>
      </trkpt>
      <trkpt lat="47.3102" lon="-2.3395">
        <ele>-27</ele>
        <time>2022-08-07T07:36:54.000Z</time>
      </trkpt>
      <trkpt lat="47.31051" lon="-2.33946">
        <ele>-27.39999961853</ele>
        <time>2022-08-07T07:36:59.000Z</time>
      </trkpt>
      <trkpt lat="47.31055" lon="-2.33945">
        <ele>-27.799999237061</ele>
        <time>2022-08-07T07:37:00.000Z</time>
      </trkpt>
      <trkpt lat="47.31058" lon="-2.33948">
        <ele>-28.200000762939</ele>
        <time>2022-08-07T07:37:01.000Z</time>
      </trkpt>
      <trkpt lat="47.3106" lon="-2.33952">
        <ele>-28.60000038147</ele>
        <time>2022-08-07T07:37:02.000Z</time>
      </trkpt>
      <trkpt lat="47.31062" lon="-2.33956">
        <ele>-29.200000762939</ele>
        <time>2022-08-07T07:37:03.000Z</time>
      </trkpt>
      <trkpt lat="47.31066" lon="-2.33986">
        <ele>-29.200000762939</ele>
        <time>2022-08-07T07:37:07.000Z</time>
      </trkpt>
      <trkpt lat="47.31066" lon="-2.33995">
        <ele>-29.200000762939</ele>
        <time>2022-08-07T07:37:08.000Z</time>
      </trkpt>
      <trkpt lat="47.3107" lon="-2.34049">
        <ele>-29.200000762939</ele>
        <time>2022-08-07T07:37:14.000Z</time>
      </trkpt>
      <trkpt lat="47.31082" lon="-2.34095">
        <ele>-29.200000762939</ele>
        <time>2022-08-07T07:37:19.000Z</time>
      </trkpt>
      <trkpt lat="47.31085" lon="-2.34104">
        <ele>-29.60000038147</ele>
        <time>2022-08-07T07:37:20.000Z</time>
      </trkpt>
      <trkpt lat="47.3109" lon="-2.34114">
        <ele>-30</ele>
        <time>2022-08-07T07:37:21.000Z</time>
      </trkpt>
      <trkpt lat="47.31094" lon="-2.34123">
        <ele>-30.39999961853</ele>
        <time>2022-08-07T07:37:22.000Z</time>
      </trkpt>
      <trkpt lat="47.31099" lon="-2.34133">
        <ele>-30.799999237061</ele>
        <time>2022-08-07T07:37:23.000Z</time>
      </trkpt>
      <trkpt lat="47.31104" lon="-2.34142">
        <ele>-31.200000762939</ele>
        <time>2022-08-07T07:37:24.000Z</time>
      </trkpt>
      <trkpt lat="47.31114" lon="-2.34162">
        <ele>-31.799999237061</ele>
        <time>2022-08-07T07:37:26.000Z</time>
      </trkpt>
      <trkpt lat="47.3112" lon="-2.34173">
        <ele>-32.200000762939</ele>
        <time>2022-08-07T07:37:27.000Z</time>
      </trkpt>
      <trkpt lat="47.31125" lon="-2.34183">
        <ele>-32.799999237061</ele>
        <time>2022-08-07T07:37:28.000Z</time>
      </trkpt>
      <trkpt lat="47.3113" lon="-2.34194">
        <ele>-33.200000762939</ele>
        <time>2022-08-07T07:37:29.000Z</time>
      </trkpt>
      <trkpt lat="47.31136" lon="-2.34204">
        <ele>-33.799999237061</ele>
        <time>2022-08-07T07:37:30.000Z</time>
      </trkpt>
      <trkpt lat="47.31141" lon="-2.34215">
        <ele>-34.400001525879</ele>
        <time>2022-08-07T07:37:31.000Z</time>
      </trkpt>
      <trkpt lat="47.31147" lon="-2.34225">
        <ele>-35.400001525879</ele>
        <time>2022-08-07T07:37:32.000Z</time>
      </trkpt>
      <trkpt lat="47.31153" lon="-2.34237">
        <ele>-35.799999237061</ele>
        <time>2022-08-07T07:37:33.000Z</time>
      </trkpt>
      <trkpt lat="47.31158" lon="-2.34248">
        <ele>-36.400001525879</ele>
        <time>2022-08-07T07:37:34.000Z</time>
      </trkpt>
      <trkpt lat="47.31163" lon="-2.34259">
        <ele>-37</ele>
        <time>2022-08-07T07:37:35.000Z</time>
      </trkpt>
      <trkpt lat="47.31169" lon="-2.34271">
        <ele>-37.599998474121</ele>
        <time>2022-08-07T07:37:36.000Z</time>
      </trkpt>
      <trkpt lat="47.31173" lon="-2.34282">
        <ele>-38</ele>
        <time>2022-08-07T07:37:37.000Z</time>
      </trkpt>
      <trkpt lat="47.31178" lon="-2.34293">
        <ele>-38</ele>
        <time>2022-08-07T07:37:38.000Z</time>
      </trkpt>
      <trkpt lat="47.312" lon="-2.34332">
        <ele>-38</ele>
        <time>2022-08-07T07:37:42.000Z</time>
      </trkpt>
      <trkpt lat="47.31207" lon="-2.34338">
        <ele>-38</ele>
        <time>2022-08-07T07:37:43.000Z</time>
      </trkpt>
      <trkpt lat="47.31221" lon="-2.34349">
        <ele>-38</ele>
        <time>2022-08-07T07:37:45.000Z</time>
      </trkpt>
      <trkpt lat="47.31236" lon="-2.34354">
        <ele>-38</ele>
        <time>2022-08-07T07:37:47.000Z</time>
      </trkpt>
      <trkpt lat="47.31262" lon="-2.34369">
        <ele>-38</ele>
        <time>2022-08-07T07:37:51.000Z</time>
      </trkpt>
      <trkpt lat="47.31266" lon="-2.34376">
        <ele>-38</ele>
        <time>2022-08-07T07:37:52.000Z</time>
      </trkpt>
      <trkpt lat="47.31271" lon="-2.34405">
        <ele>-38</ele>
        <time>2022-08-07T07:37:55.000Z</time>
      </trkpt>
      <trkpt lat="47.31271" lon="-2.34415">
        <ele>-38</ele>
        <time>2022-08-07T07:37:56.000Z</time>
      </trkpt>
      <trkpt lat="47.31276" lon="-2.34462">
        <ele>-37.599998474121</ele>
        <time>2022-08-07T07:38:01.000Z</time>
      </trkpt>
      <trkpt lat="47.31277" lon="-2.34472">
        <ele>-37.200000762939</ele>
        <time>2022-08-07T07:38:02.000Z</time>
      </trkpt>
      <trkpt lat="47.31278" lon="-2.3448">
        <ele>-36.599998474121</ele>
        <time>2022-08-07T07:38:03.000Z</time>
      </trkpt>
      <trkpt lat="47.31279" lon="-2.34489">
        <ele>-36.200000762939</ele>
        <time>2022-08-07T07:38:04.000Z</time>
      </trkpt>
      <trkpt lat="47.3128" lon="-2.34499">
        <ele>-35.799999237061</ele>
        <time>2022-08-07T07:38:05.000Z</time>
      </trkpt>
      <trkpt lat="47.31281" lon="-2.34517">
        <ele>-35.799999237061</ele>
        <time>2022-08-07T07:38:07.000Z</time>
      </trkpt>
      <trkpt lat="47.31282" lon="-2.34526">
        <ele>-35.799999237061</ele>
        <time>2022-08-07T07:38:08.000Z</time>
      </trkpt>
      <trkpt lat="47.31287" lon="-2.34569">
        <ele>-35.400001525879</ele>
        <time>2022-08-07T07:38:13.000Z</time>
      </trkpt>
      <trkpt lat="47.31288" lon="-2.34577">
        <ele>-35</ele>
        <time>2022-08-07T07:38:14.000Z</time>
      </trkpt>
      <trkpt lat="47.31289" lon="-2.34586">
        <ele>-34.400001525879</ele>
        <time>2022-08-07T07:38:15.000Z</time>
      </trkpt>
      <trkpt lat="47.31289" lon="-2.34595">
        <ele>-34</ele>
        <time>2022-08-07T07:38:16.000Z</time>
      </trkpt>
      <trkpt lat="47.3129" lon="-2.34603">
        <ele>-33.599998474121</ele>
        <time>2022-08-07T07:38:17.000Z</time>
      </trkpt>
      <trkpt lat="47.31294" lon="-2.34639">
        <ele>-33.599998474121</ele>
        <time>2022-08-07T07:38:22.000Z</time>
      </trkpt>
      <trkpt lat="47.31296" lon="-2.34652">
        <ele>-33.200000762939</ele>
        <time>2022-08-07T07:38:24.000Z</time>
      </trkpt>
      <trkpt lat="47.31299" lon="-2.34656">
        <ele>-32.799999237061</ele>
        <time>2022-08-07T07:38:25.000Z</time>
      </trkpt>
      <trkpt lat="47.31302" lon="-2.3466">
        <ele>-32.400001525879</ele>
        <time>2022-08-07T07:38:26.000Z</time>
      </trkpt>
      <trkpt lat="47.31303" lon="-2.34665">
        <ele>-32</ele>
        <time>2022-08-07T07:38:27.000Z</time>
      </trkpt>
      <trkpt lat="47.31301" lon="-2.34671">
        <ele>-31.60000038147</ele>
        <time>2022-08-07T07:38:28.000Z</time>
      </trkpt>
      <trkpt lat="47.31297" lon="-2.34675">
        <ele>-31.60000038147</ele>
        <time>2022-08-07T07:38:29.000Z</time>
      </trkpt>
      <trkpt lat="47.31281" lon="-2.34694">
        <ele>-31.60000038147</ele>
        <time>2022-08-07T07:38:33.000Z</time>
      </trkpt>
      <trkpt lat="47.31278" lon="-2.34714">
        <ele>-31.60000038147</ele>
        <time>2022-08-07T07:38:36.000Z</time>
      </trkpt>
      <trkpt lat="47.3128" lon="-2.34729">
        <ele>-31.60000038147</ele>
        <time>2022-08-07T07:38:38.000Z</time>
      </trkpt>
      <trkpt lat="47.31284" lon="-2.34759">
        <ele>-31.60000038147</ele>
        <time>2022-08-07T07:38:42.000Z</time>
      </trkpt>
      <trkpt lat="47.31293" lon="-2.34804">
        <ele>-31.60000038147</ele>
        <time>2022-08-07T07:38:48.000Z</time>
      </trkpt>
      <trkpt lat="47.31294" lon="-2.34811">
        <ele>-31.200000762939</ele>
        <time>2022-08-07T07:38:49.000Z</time>
      </trkpt>
      <trkpt lat="47.31296" lon="-2.34819">
        <ele>-30.60000038147</ele>
        <time>2022-08-07T07:38:50.000Z</time>
      </trkpt>
      <trkpt lat="47.31297" lon="-2.34828">
        <ele>-30.200000762939</ele>
        <time>2022-08-07T07:38:51.000Z</time>
      </trkpt>
      <trkpt lat="47.31299" lon="-2.34836">
        <ele>-29.799999237061</ele>
        <time>2022-08-07T07:38:52.000Z</time>
      </trkpt>
      <trkpt lat="47.31301" lon="-2.34845">
        <ele>-29.39999961853</ele>
        <time>2022-08-07T07:38:53.000Z</time>
      </trkpt>
      <trkpt lat="47.31305" lon="-2.34862">
        <ele>-29.39999961853</ele>
        <time>2022-08-07T07:38:55.000Z</time>
      </trkpt>
      <trkpt lat="47.31321" lon="-2.34915">
        <ele>-29.39999961853</ele>
        <time>2022-08-07T07:39:01.000Z</time>
      </trkpt>
      <trkpt lat="47.31334" lon="-2.34963">
        <ele>-29.39999961853</ele>
        <time>2022-08-07T07:39:06.000Z</time>
      </trkpt>
      <trkpt lat="47.31342" lon="-2.35013">
        <ele>-29.39999961853</ele>
        <time>2022-08-07T07:39:11.000Z</time>
      </trkpt>
      <trkpt lat="47.31343" lon="-2.35023">
        <ele>-29.39999961853</ele>
        <time>2022-08-07T07:39:12.000Z</time>
      </trkpt>
      <trkpt lat="47.31344" lon="-2.35082">
        <ele>-29.39999961853</ele>
        <time>2022-08-07T07:39:18.000Z</time>
      </trkpt>
      <trkpt lat="47.31342" lon="-2.35161">
        <ele>-29.39999961853</ele>
        <time>2022-08-07T07:39:26.000Z</time>
      </trkpt>
      <trkpt lat="47.31339" lon="-2.35233">
        <ele>-29.39999961853</ele>
        <time>2022-08-07T07:39:33.000Z</time>
      </trkpt>
      <trkpt lat="47.31338" lon="-2.35311">
        <ele>-29.39999961853</ele>
        <time>2022-08-07T07:39:41.000Z</time>
      </trkpt>
      <trkpt lat="47.31336" lon="-2.35358">
        <ele>-29.39999961853</ele>
        <time>2022-08-07T07:39:46.000Z</time>
      </trkpt>
      <trkpt lat="47.31335" lon="-2.35406">
        <ele>-29.39999961853</ele>
        <time>2022-08-07T07:39:51.000Z</time>
      </trkpt>
      <trkpt lat="47.31336" lon="-2.3544">
        <ele>-29.39999961853</ele>
        <time>2022-08-07T07:39:55.000Z</time>
      </trkpt>
      <trkpt lat="47.31334" lon="-2.35486">
        <ele>-29.39999961853</ele>
        <time>2022-08-07T07:40:00.000Z</time>
      </trkpt>
      <trkpt lat="47.31333" lon="-2.35494">
        <ele>-29.39999961853</ele>
        <time>2022-08-07T07:40:01.000Z</time>
      </trkpt>
      <trkpt lat="47.31332" lon="-2.35527">
        <ele>-29.39999961853</ele>
        <time>2022-08-07T07:40:05.000Z</time>
      </trkpt>
      <trkpt lat="47.31332" lon="-2.35535">
        <ele>-29.39999961853</ele>
        <time>2022-08-07T07:40:06.000Z</time>
      </trkpt>
      <trkpt lat="47.31328" lon="-2.3557">
        <ele>-29.39999961853</ele>
        <time>2022-08-07T07:40:10.000Z</time>
      </trkpt>
      <trkpt lat="47.31328" lon="-2.35588">
        <ele>-29.39999961853</ele>
        <time>2022-08-07T07:40:12.000Z</time>
      </trkpt>
      <trkpt lat="47.3133" lon="-2.35613">
        <ele>-29.39999961853</ele>
        <time>2022-08-07T07:40:15.000Z</time>
      </trkpt>
      <trkpt lat="47.31331" lon="-2.35654">
        <ele>-29.39999961853</ele>
        <time>2022-08-07T07:40:20.000Z</time>
      </trkpt>
      <trkpt lat="47.31331" lon="-2.35663">
        <ele>-29.39999961853</ele>
        <time>2022-08-07T07:40:21.000Z</time>
      </trkpt>
      <trkpt lat="47.31331" lon="-2.35688">
        <ele>-29.39999961853</ele>
        <time>2022-08-07T07:40:24.000Z</time>
      </trkpt>
      <trkpt lat="47.31332" lon="-2.35707">
        <ele>-29.39999961853</ele>
        <time>2022-08-07T07:40:26.000Z</time>
      </trkpt>
      <trkpt lat="47.3133" lon="-2.35752">
        <ele>-29.39999961853</ele>
        <time>2022-08-07T07:40:31.000Z</time>
      </trkpt>
      <trkpt lat="47.3133" lon="-2.35761">
        <ele>-29.39999961853</ele>
        <time>2022-08-07T07:40:32.000Z</time>
      </trkpt>
      <trkpt lat="47.31333" lon="-2.35788">
        <ele>-29.39999961853</ele>
        <time>2022-08-07T07:40:35.000Z</time>
      </trkpt>
      <trkpt lat="47.31338" lon="-2.35831">
        <ele>-29.39999961853</ele>
        <time>2022-08-07T07:40:40.000Z</time>
      </trkpt>
      <trkpt lat="47.3134" lon="-2.3585">
        <ele>-29.39999961853</ele>
        <time>2022-08-07T07:40:42.000Z</time>
      </trkpt>
      <trkpt lat="47.31345" lon="-2.35868">
        <ele>-29.39999961853</ele>
        <time>2022-08-07T07:40:44.000Z</time>
      </trkpt>
      <trkpt lat="47.31352" lon="-2.35886">
        <ele>-29.799999237061</ele>
        <time>2022-08-07T07:40:46.000Z</time>
      </trkpt>
      <trkpt lat="47.31357" lon="-2.35893">
        <ele>-30.200000762939</ele>
        <time>2022-08-07T07:40:47.000Z</time>
      </trkpt>
      <trkpt lat="47.31361" lon="-2.35901">
        <ele>-30.799999237061</ele>
        <time>2022-08-07T07:40:48.000Z</time>
      </trkpt>
      <trkpt lat="47.31365" lon="-2.35909">
        <ele>-31.200000762939</ele>
        <time>2022-08-07T07:40:49.000Z</time>
      </trkpt>
      <trkpt lat="47.31369" lon="-2.35917">
        <ele>-31.60000038147</ele>
        <time>2022-08-07T07:40:50.000Z</time>
      </trkpt>
      <trkpt lat="47.3139" lon="-2.35954">
        <ele>-31.60000038147</ele>
        <time>2022-08-07T07:40:55.000Z</time>
      </trkpt>
      <trkpt lat="47.31405" lon="-2.35985">
        <ele>-31.60000038147</ele>
        <time>2022-08-07T07:41:00.000Z</time>
      </trkpt>
      <trkpt lat="47.3141" lon="-2.35997">
        <ele>-31.60000038147</ele>
        <time>2022-08-07T07:41:02.000Z</time>
      </trkpt>
      <trkpt lat="47.31416" lon="-2.36014">
        <ele>-31.60000038147</ele>
        <time>2022-08-07T07:41:05.000Z</time>
      </trkpt>
      <trkpt lat="47.31418" lon="-2.3602">
        <ele>-31.200000762939</ele>
        <time>2022-08-07T07:41:06.000Z</time>
      </trkpt>
      <trkpt lat="47.3142" lon="-2.36027">
        <ele>-30.799999237061</ele>
        <time>2022-08-07T07:41:07.000Z</time>
      </trkpt>
      <trkpt lat="47.31422" lon="-2.36033">
        <ele>-30.39999961853</ele>
        <time>2022-08-07T07:41:08.000Z</time>
      </trkpt>
      <trkpt lat="47.31424" lon="-2.36039">
        <ele>-29.60000038147</ele>
        <time>2022-08-07T07:41:09.000Z</time>
      </trkpt>
      <trkpt lat="47.31427" lon="-2.36046">
        <ele>-29.60000038147</ele>
        <time>2022-08-07T07:41:10.000Z</time>
      </trkpt>
      <trkpt lat="47.31438" lon="-2.36076">
        <ele>-29.60000038147</ele>
        <time>2022-08-07T07:41:15.000Z</time>
      </trkpt>
      <trkpt lat="47.31441" lon="-2.36082">
        <ele>-29.60000038147</ele>
        <time>2022-08-07T07:41:16.000Z</time>
      </trkpt>
      <trkpt lat="47.31452" lon="-2.36115">
        <ele>-29.60000038147</ele>
        <time>2022-08-07T07:41:21.000Z</time>
      </trkpt>
      <trkpt lat="47.31454" lon="-2.36122">
        <ele>-29.60000038147</ele>
        <time>2022-08-07T07:41:22.000Z</time>
      </trkpt>
      <trkpt lat="47.3146" lon="-2.36147">
        <ele>-29.60000038147</ele>
        <time>2022-08-07T07:41:25.000Z</time>
      </trkpt>
      <trkpt lat="47.31461" lon="-2.36155">
        <ele>-29.60000038147</ele>
        <time>2022-08-07T07:41:26.000Z</time>
      </trkpt>
      <trkpt lat="47.31464" lon="-2.36173">
        <ele>-29</ele>
        <time>2022-08-07T07:41:28.000Z</time>
      </trkpt>
      <trkpt lat="47.31465" lon="-2.36182">
        <ele>-28.60000038147</ele>
        <time>2022-08-07T07:41:29.000Z</time>
      </trkpt>
      <trkpt lat="47.31467" lon="-2.36191">
        <ele>-28.200000762939</ele>
        <time>2022-08-07T07:41:30.000Z</time>
      </trkpt>
      <trkpt lat="47.31468" lon="-2.362">
        <ele>-27.799999237061</ele>
        <time>2022-08-07T07:41:31.000Z</time>
      </trkpt>
      <trkpt lat="47.3147" lon="-2.36209">
        <ele>-27.39999961853</ele>
        <time>2022-08-07T07:41:32.000Z</time>
      </trkpt>
      <trkpt lat="47.31472" lon="-2.36218">
        <ele>-27.39999961853</ele>
        <time>2022-08-07T07:41:33.000Z</time>
      </trkpt>
      <trkpt lat="47.31476" lon="-2.36237">
        <ele>-27.39999961853</ele>
        <time>2022-08-07T07:41:35.000Z</time>
      </trkpt>
      <trkpt lat="47.31479" lon="-2.36255">
        <ele>-27.799999237061</ele>
        <time>2022-08-07T07:41:37.000Z</time>
      </trkpt>
      <trkpt lat="47.31481" lon="-2.36265">
        <ele>-28.200000762939</ele>
        <time>2022-08-07T07:41:38.000Z</time>
      </trkpt>
      <trkpt lat="47.31483" lon="-2.36273">
        <ele>-28.60000038147</ele>
        <time>2022-08-07T07:41:39.000Z</time>
      </trkpt>
      <trkpt lat="47.31485" lon="-2.36283">
        <ele>-29</ele>
        <time>2022-08-07T07:41:40.000Z</time>
      </trkpt>
      <trkpt lat="47.31487" lon="-2.36292">
        <ele>-29.39999961853</ele>
        <time>2022-08-07T07:41:41.000Z</time>
      </trkpt>
      <trkpt lat="47.31488" lon="-2.36301">
        <ele>-29.39999961853</ele>
        <time>2022-08-07T07:41:42.000Z</time>
      </trkpt>
      <trkpt lat="47.31491" lon="-2.3632">
        <ele>-29.39999961853</ele>
        <time>2022-08-07T07:41:44.000Z</time>
      </trkpt>
      <trkpt lat="47.31492" lon="-2.36339">
        <ele>-29.799999237061</ele>
        <time>2022-08-07T07:41:46.000Z</time>
      </trkpt>
      <trkpt lat="47.31491" lon="-2.36349">
        <ele>-30.200000762939</ele>
        <time>2022-08-07T07:41:47.000Z</time>
      </trkpt>
      <trkpt lat="47.31491" lon="-2.36359">
        <ele>-30.60000038147</ele>
        <time>2022-08-07T07:41:48.000Z</time>
      </trkpt>
      <trkpt lat="47.31491" lon="-2.36369">
        <ele>-31</ele>
        <time>2022-08-07T07:41:49.000Z</time>
      </trkpt>
      <trkpt lat="47.31492" lon="-2.36379">
        <ele>-31.39999961853</ele>
        <time>2022-08-07T07:41:50.000Z</time>
      </trkpt>
      <trkpt lat="47.31493" lon="-2.36399">
        <ele>-31.39999961853</ele>
        <time>2022-08-07T07:41:52.000Z</time>
      </trkpt>
      <trkpt lat="47.31494" lon="-2.36409">
        <ele>-31.39999961853</ele>
        <time>2022-08-07T07:41:53.000Z</time>
      </trkpt>
      <trkpt lat="47.31494" lon="-2.3642">
        <ele>-32</ele>
        <time>2022-08-07T07:41:54.000Z</time>
      </trkpt>
      <trkpt lat="47.31495" lon="-2.3643">
        <ele>-32.400001525879</ele>
        <time>2022-08-07T07:41:55.000Z</time>
      </trkpt>
      <trkpt lat="47.31495" lon="-2.36441">
        <ele>-32.799999237061</ele>
        <time>2022-08-07T07:41:56.000Z</time>
      </trkpt>
      <trkpt lat="47.31496" lon="-2.36451">
        <ele>-33.400001525879</ele>
        <time>2022-08-07T07:41:57.000Z</time>
      </trkpt>
      <trkpt lat="47.31497" lon="-2.36461">
        <ele>-33.799999237061</ele>
        <time>2022-08-07T07:41:58.000Z</time>
      </trkpt>
      <trkpt lat="47.31498" lon="-2.3649">
        <ele>-33.799999237061</ele>
        <time>2022-08-07T07:42:01.000Z</time>
      </trkpt>
      <trkpt lat="47.31497" lon="-2.36499">
        <ele>-33.799999237061</ele>
        <time>2022-08-07T07:42:02.000Z</time>
      </trkpt>
      <trkpt lat="47.31497" lon="-2.36508">
        <ele>-34.200000762939</ele>
        <time>2022-08-07T07:42:03.000Z</time>
      </trkpt>
      <trkpt lat="47.31498" lon="-2.36517">
        <ele>-34.599998474121</ele>
        <time>2022-08-07T07:42:04.000Z</time>
      </trkpt>
      <trkpt lat="47.31498" lon="-2.36525">
        <ele>-35</ele>
        <time>2022-08-07T07:42:05.000Z</time>
      </trkpt>
      <trkpt lat="47.31497" lon="-2.36534">
        <ele>-35.599998474121</ele>
        <time>2022-08-07T07:42:06.000Z</time>
      </trkpt>
      <trkpt lat="47.31498" lon="-2.36541">
        <ele>-36</ele>
        <time>2022-08-07T07:42:07.000Z</time>
      </trkpt>
      <trkpt lat="47.31498" lon="-2.3655">
        <ele>-36</ele>
        <time>2022-08-07T07:42:08.000Z</time>
      </trkpt>
      <trkpt lat="47.315" lon="-2.36558">
        <ele>-36</ele>
        <time>2022-08-07T07:42:09.000Z</time>
      </trkpt>
      <trkpt lat="47.31499" lon="-2.36574">
        <ele>-36</ele>
        <time>2022-08-07T07:42:11.000Z</time>
      </trkpt>
      <trkpt lat="47.31498" lon="-2.36596">
        <ele>-36</ele>
        <time>2022-08-07T07:42:14.000Z</time>
      </trkpt>
      <trkpt lat="47.31502" lon="-2.36611">
        <ele>-36</ele>
        <time>2022-08-07T07:42:16.000Z</time>
      </trkpt>
      <trkpt lat="47.3151" lon="-2.36643">
        <ele>-36</ele>
        <time>2022-08-07T07:42:20.000Z</time>
      </trkpt>
      <trkpt lat="47.31519" lon="-2.36684">
        <ele>-36</ele>
        <time>2022-08-07T07:42:25.000Z</time>
      </trkpt>
      <trkpt lat="47.31532" lon="-2.36729">
        <ele>-36</ele>
        <time>2022-08-07T07:42:31.000Z</time>
      </trkpt>
      <trkpt lat="47.31541" lon="-2.3677">
        <ele>-36</ele>
        <time>2022-08-07T07:42:36.000Z</time>
      </trkpt>
      <trkpt lat="47.31548" lon="-2.36801">
        <ele>-35.400001525879</ele>
        <time>2022-08-07T07:42:40.000Z</time>
      </trkpt>
      <trkpt lat="47.31549" lon="-2.36809">
        <ele>-35</ele>
        <time>2022-08-07T07:42:41.000Z</time>
      </trkpt>
      <trkpt lat="47.31551" lon="-2.36816">
        <ele>-34.599998474121</ele>
        <time>2022-08-07T07:42:42.000Z</time>
      </trkpt>
      <trkpt lat="47.31553" lon="-2.36823">
        <ele>-34</ele>
        <time>2022-08-07T07:42:43.000Z</time>
      </trkpt>
      <trkpt lat="47.31555" lon="-2.36831">
        <ele>-33.599998474121</ele>
        <time>2022-08-07T07:42:44.000Z</time>
      </trkpt>
      <trkpt lat="47.31563" lon="-2.36858">
        <ele>-33.599998474121</ele>
        <time>2022-08-07T07:42:48.000Z</time>
      </trkpt>
      <trkpt lat="47.31564" lon="-2.36865">
        <ele>-33.200000762939</ele>
        <time>2022-08-07T07:42:49.000Z</time>
      </trkpt>
      <trkpt lat="47.31566" lon="-2.36873">
        <ele>-32.799999237061</ele>
        <time>2022-08-07T07:42:50.000Z</time>
      </trkpt>
      <trkpt lat="47.31568" lon="-2.3688">
        <ele>-32.400001525879</ele>
        <time>2022-08-07T07:42:51.000Z</time>
      </trkpt>
      <trkpt lat="47.31571" lon="-2.36888">
        <ele>-32</ele>
        <time>2022-08-07T07:42:52.000Z</time>
      </trkpt>
      <trkpt lat="47.31572" lon="-2.36895">
        <ele>-31.39999961853</ele>
        <time>2022-08-07T07:42:53.000Z</time>
      </trkpt>
      <trkpt lat="47.31575" lon="-2.36902">
        <ele>-31.39999961853</ele>
        <time>2022-08-07T07:42:54.000Z</time>
      </trkpt>
      <trkpt lat="47.31583" lon="-2.36928">
        <ele>-31</ele>
        <time>2022-08-07T07:42:58.000Z</time>
      </trkpt>
      <trkpt lat="47.31585" lon="-2.36934">
        <ele>-30.60000038147</ele>
        <time>2022-08-07T07:42:59.000Z</time>
      </trkpt>
      <trkpt lat="47.31587" lon="-2.3694">
        <ele>-30.200000762939</ele>
        <time>2022-08-07T07:43:00.000Z</time>
      </trkpt>
      <trkpt lat="47.31589" lon="-2.36946">
        <ele>-29.799999237061</ele>
        <time>2022-08-07T07:43:01.000Z</time>
      </trkpt>
      <trkpt lat="47.31591" lon="-2.36952">
        <ele>-29.200000762939</ele>
        <time>2022-08-07T07:43:02.000Z</time>
      </trkpt>
      <trkpt lat="47.31598" lon="-2.36971">
        <ele>-29.200000762939</ele>
        <time>2022-08-07T07:43:05.000Z</time>
      </trkpt>
      <trkpt lat="47.31602" lon="-2.36982">
        <ele>-29.200000762939</ele>
        <time>2022-08-07T07:43:07.000Z</time>
      </trkpt>
      <trkpt lat="47.31607" lon="-2.37001">
        <ele>-29.200000762939</ele>
        <time>2022-08-07T07:43:10.000Z</time>
      </trkpt>
      <trkpt lat="47.3161" lon="-2.37007">
        <ele>-29.200000762939</ele>
        <time>2022-08-07T07:43:11.000Z</time>
      </trkpt>
      <trkpt lat="47.31612" lon="-2.37013">
        <ele>-28.39999961853</ele>
        <time>2022-08-07T07:43:12.000Z</time>
      </trkpt>
      <trkpt lat="47.31614" lon="-2.37019">
        <ele>-28</ele>
        <time>2022-08-07T07:43:13.000Z</time>
      </trkpt>
      <trkpt lat="47.31616" lon="-2.37024">
        <ele>-27.60000038147</ele>
        <time>2022-08-07T07:43:14.000Z</time>
      </trkpt>
      <trkpt lat="47.31618" lon="-2.3703">
        <ele>-27.200000762939</ele>
        <time>2022-08-07T07:43:15.000Z</time>
      </trkpt>
      <trkpt lat="47.31634" lon="-2.37061">
        <ele>-27.200000762939</ele>
        <time>2022-08-07T07:43:21.000Z</time>
      </trkpt>
      <trkpt lat="47.31641" lon="-2.37079">
        <ele>-27.200000762939</ele>
        <time>2022-08-07T07:43:24.000Z</time>
      </trkpt>
      <trkpt lat="47.31647" lon="-2.37091">
        <ele>-27.200000762939</ele>
        <time>2022-08-07T07:43:26.000Z</time>
      </trkpt>
      <trkpt lat="47.3165" lon="-2.37097">
        <ele>-27.200000762939</ele>
        <time>2022-08-07T07:43:27.000Z</time>
      </trkpt>
      <trkpt lat="47.31661" lon="-2.3712">
        <ele>-27.200000762939</ele>
        <time>2022-08-07T07:43:31.000Z</time>
      </trkpt>
      <trkpt lat="47.31664" lon="-2.37125">
        <ele>-27.200000762939</ele>
        <time>2022-08-07T07:43:32.000Z</time>
      </trkpt>
      <trkpt lat="47.31667" lon="-2.37131">
        <ele>-27.200000762939</ele>
        <time>2022-08-07T07:43:33.000Z</time>
      </trkpt>
      <trkpt lat="47.31682" lon="-2.37162">
        <ele>-27.200000762939</ele>
        <time>2022-08-07T07:43:38.000Z</time>
      </trkpt>
      <trkpt lat="47.31685" lon="-2.37169">
        <ele>-26.799999237061</ele>
        <time>2022-08-07T07:43:39.000Z</time>
      </trkpt>
      <trkpt lat="47.31687" lon="-2.37176">
        <ele>-26.39999961853</ele>
        <time>2022-08-07T07:43:40.000Z</time>
      </trkpt>
      <trkpt lat="47.31688" lon="-2.37185">
        <ele>-26</ele>
        <time>2022-08-07T07:43:41.000Z</time>
      </trkpt>
      <trkpt lat="47.31688" lon="-2.37193">
        <ele>-25.60000038147</ele>
        <time>2022-08-07T07:43:42.000Z</time>
      </trkpt>
      <trkpt lat="47.31688" lon="-2.37202">
        <ele>-25.200000762939</ele>
        <time>2022-08-07T07:43:43.000Z</time>
      </trkpt>
      <trkpt lat="47.31684" lon="-2.37219">
        <ele>-25.200000762939</ele>
        <time>2022-08-07T07:43:45.000Z</time>
      </trkpt>
      <trkpt lat="47.31667" lon="-2.37244">
        <ele>-25.200000762939</ele>
        <time>2022-08-07T07:43:49.000Z</time>
      </trkpt>
      <trkpt lat="47.31651" lon="-2.3726">
        <ele>-25.200000762939</ele>
        <time>2022-08-07T07:43:52.000Z</time>
      </trkpt>
      <trkpt lat="47.31641" lon="-2.37269">
        <ele>-25.200000762939</ele>
        <time>2022-08-07T07:43:54.000Z</time>
      </trkpt>
      <trkpt lat="47.31636" lon="-2.37274">
        <ele>-25.200000762939</ele>
        <time>2022-08-07T07:43:55.000Z</time>
      </trkpt>
      <trkpt lat="47.31631" lon="-2.3728">
        <ele>-25.200000762939</ele>
        <time>2022-08-07T07:43:56.000Z</time>
      </trkpt>
      <trkpt lat="47.3162" lon="-2.37305">
        <ele>-25.200000762939</ele>
        <time>2022-08-07T07:43:59.000Z</time>
      </trkpt>
      <trkpt lat="47.31622" lon="-2.37335">
        <ele>-25.200000762939</ele>
        <time>2022-08-07T07:44:02.000Z</time>
      </trkpt>
      <trkpt lat="47.31626" lon="-2.37355">
        <ele>-25.200000762939</ele>
        <time>2022-08-07T07:44:04.000Z</time>
      </trkpt>
      <trkpt lat="47.31633" lon="-2.37392">
        <ele>-25.200000762939</ele>
        <time>2022-08-07T07:44:08.000Z</time>
      </trkpt>
      <trkpt lat="47.31636" lon="-2.37431">
        <ele>-25.60000038147</ele>
        <time>2022-08-07T07:44:12.000Z</time>
      </trkpt>
      <trkpt lat="47.31636" lon="-2.37441">
        <ele>-26</ele>
        <time>2022-08-07T07:44:13.000Z</time>
      </trkpt>
      <trkpt lat="47.31636" lon="-2.37452">
        <ele>-26.39999961853</ele>
        <time>2022-08-07T07:44:14.000Z</time>
      </trkpt>
      <trkpt lat="47.31637" lon="-2.37462">
        <ele>-26.799999237061</ele>
        <time>2022-08-07T07:44:15.000Z</time>
      </trkpt>
      <trkpt lat="47.31637" lon="-2.37473">
        <ele>-27.39999961853</ele>
        <time>2022-08-07T07:44:16.000Z</time>
      </trkpt>
      <trkpt lat="47.31637" lon="-2.37484">
        <ele>-27.39999961853</ele>
        <time>2022-08-07T07:44:17.000Z</time>
      </trkpt>
      <trkpt lat="47.31634" lon="-2.37503">
        <ele>-27.39999961853</ele>
        <time>2022-08-07T07:44:19.000Z</time>
      </trkpt>
      <trkpt lat="47.31629" lon="-2.37521">
        <ele>-27.39999961853</ele>
        <time>2022-08-07T07:44:21.000Z</time>
      </trkpt>
      <trkpt lat="47.3162" lon="-2.37549">
        <ele>-27.39999961853</ele>
        <time>2022-08-07T07:44:24.000Z</time>
      </trkpt>
      <trkpt lat="47.31616" lon="-2.37568">
        <ele>-27.39999961853</ele>
        <time>2022-08-07T07:44:26.000Z</time>
      </trkpt>
      <trkpt lat="47.31614" lon="-2.37598">
        <ele>-27.39999961853</ele>
        <time>2022-08-07T07:44:29.000Z</time>
      </trkpt>
      <trkpt lat="47.31613" lon="-2.37618">
        <ele>-27.39999961853</ele>
        <time>2022-08-07T07:44:31.000Z</time>
      </trkpt>
      <trkpt lat="47.31618" lon="-2.37636">
        <ele>-27.39999961853</ele>
        <time>2022-08-07T07:44:33.000Z</time>
      </trkpt>
      <trkpt lat="47.31632" lon="-2.37655">
        <ele>-27.39999961853</ele>
        <time>2022-08-07T07:44:36.000Z</time>
      </trkpt>
      <trkpt lat="47.31645" lon="-2.37662">
        <ele>-27.39999961853</ele>
        <time>2022-08-07T07:44:38.000Z</time>
      </trkpt>
      <trkpt lat="47.31661" lon="-2.37675">
        <ele>-27.39999961853</ele>
        <time>2022-08-07T07:44:41.000Z</time>
      </trkpt>
      <trkpt lat="47.31666" lon="-2.37681">
        <ele>-27.39999961853</ele>
        <time>2022-08-07T07:44:42.000Z</time>
      </trkpt>
      <trkpt lat="47.3168" lon="-2.37698">
        <ele>-27.39999961853</ele>
        <time>2022-08-07T07:44:45.000Z</time>
      </trkpt>
      <trkpt lat="47.31691" lon="-2.37707">
        <ele>-27.39999961853</ele>
        <time>2022-08-07T07:44:47.000Z</time>
      </trkpt>
      <trkpt lat="47.31697" lon="-2.3771">
        <ele>-27.39999961853</ele>
        <time>2022-08-07T07:44:48.000Z</time>
      </trkpt>
      <trkpt lat="47.31723" lon="-2.37713">
        <ele>-27.39999961853</ele>
        <time>2022-08-07T07:44:52.000Z</time>
      </trkpt>
      <trkpt lat="47.31751" lon="-2.37699">
        <ele>-27.39999961853</ele>
        <time>2022-08-07T07:44:57.000Z</time>
      </trkpt>
      <trkpt lat="47.31766" lon="-2.37684">
        <ele>-27.799999237061</ele>
        <time>2022-08-07T07:45:00.000Z</time>
      </trkpt>
      <trkpt lat="47.31771" lon="-2.37679">
        <ele>-28.200000762939</ele>
        <time>2022-08-07T07:45:01.000Z</time>
      </trkpt>
      <trkpt lat="47.31776" lon="-2.37674">
        <ele>-28.60000038147</ele>
        <time>2022-08-07T07:45:02.000Z</time>
      </trkpt>
      <trkpt lat="47.31781" lon="-2.37669">
        <ele>-29</ele>
        <time>2022-08-07T07:45:03.000Z</time>
      </trkpt>
      <trkpt lat="47.31786" lon="-2.37664">
        <ele>-29.39999961853</ele>
        <time>2022-08-07T07:45:04.000Z</time>
      </trkpt>
      <trkpt lat="47.31807" lon="-2.37652">
        <ele>-29.39999961853</ele>
        <time>2022-08-07T07:45:08.000Z</time>
      </trkpt>
      <trkpt lat="47.31821" lon="-2.37656">
        <ele>-29.39999961853</ele>
        <time>2022-08-07T07:45:11.000Z</time>
      </trkpt>
      <trkpt lat="47.31824" lon="-2.37671">
        <ele>-29.39999961853</ele>
        <time>2022-08-07T07:45:14.000Z</time>
      </trkpt>
      <trkpt lat="47.31823" lon="-2.37677">
        <ele>-29.39999961853</ele>
        <time>2022-08-07T07:45:15.000Z</time>
      </trkpt>
      <trkpt lat="47.3182" lon="-2.37697">
        <ele>-29.39999961853</ele>
        <time>2022-08-07T07:45:18.000Z</time>
      </trkpt>
      <trkpt lat="47.31819" lon="-2.37704">
        <ele>-29.39999961853</ele>
        <time>2022-08-07T07:45:19.000Z</time>
      </trkpt>
      <trkpt lat="47.31814" lon="-2.37746">
        <ele>-29.39999961853</ele>
        <time>2022-08-07T07:45:24.000Z</time>
      </trkpt>
      <trkpt lat="47.31814" lon="-2.37754">
        <ele>-29.39999961853</ele>
        <time>2022-08-07T07:45:25.000Z</time>
      </trkpt>
      <trkpt lat="47.31809" lon="-2.37809">
        <ele>-29.39999961853</ele>
        <time>2022-08-07T07:45:31.000Z</time>
      </trkpt>
      <trkpt lat="47.31804" lon="-2.37857">
        <ele>-29.799999237061</ele>
        <time>2022-08-07T07:45:36.000Z</time>
      </trkpt>
      <trkpt lat="47.31802" lon="-2.37866">
        <ele>-30.200000762939</ele>
        <time>2022-08-07T07:45:37.000Z</time>
      </trkpt>
      <trkpt lat="47.31801" lon="-2.37876">
        <ele>-30.60000038147</ele>
        <time>2022-08-07T07:45:38.000Z</time>
      </trkpt>
      <trkpt lat="47.318" lon="-2.37885">
        <ele>-31</ele>
        <time>2022-08-07T07:45:39.000Z</time>
      </trkpt>
      <trkpt lat="47.31799" lon="-2.37895">
        <ele>-31.39999961853</ele>
        <time>2022-08-07T07:45:40.000Z</time>
      </trkpt>
      <trkpt lat="47.31795" lon="-2.37936">
        <ele>-31.39999961853</ele>
        <time>2022-08-07T07:45:44.000Z</time>
      </trkpt>
      <trkpt lat="47.31795" lon="-2.37947">
        <ele>-32</ele>
        <time>2022-08-07T07:45:45.000Z</time>
      </trkpt>
      <trkpt lat="47.31794" lon="-2.37958">
        <ele>-32.400001525879</ele>
        <time>2022-08-07T07:45:46.000Z</time>
      </trkpt>
      <trkpt lat="47.31794" lon="-2.37969">
        <ele>-32.799999237061</ele>
        <time>2022-08-07T07:45:47.000Z</time>
      </trkpt>
      <trkpt lat="47.31794" lon="-2.37979">
        <ele>-33.400001525879</ele>
        <time>2022-08-07T07:45:48.000Z</time>
      </trkpt>
      <trkpt lat="47.31794" lon="-2.37991">
        <ele>-33.799999237061</ele>
        <time>2022-08-07T07:45:49.000Z</time>
      </trkpt>
      <trkpt lat="47.31795" lon="-2.38002">
        <ele>-33.799999237061</ele>
        <time>2022-08-07T07:45:50.000Z</time>
      </trkpt>
      <trkpt lat="47.31798" lon="-2.38061">
        <ele>-33.799999237061</ele>
        <time>2022-08-07T07:45:55.000Z</time>
      </trkpt>
      <trkpt lat="47.31799" lon="-2.38072">
        <ele>-34.200000762939</ele>
        <time>2022-08-07T07:45:56.000Z</time>
      </trkpt>
      <trkpt lat="47.31799" lon="-2.38083">
        <ele>-34.599998474121</ele>
        <time>2022-08-07T07:45:57.000Z</time>
      </trkpt>
      <trkpt lat="47.318" lon="-2.38093">
        <ele>-35</ele>
        <time>2022-08-07T07:45:58.000Z</time>
      </trkpt>
      <trkpt lat="47.318" lon="-2.38103">
        <ele>-35.400001525879</ele>
        <time>2022-08-07T07:45:59.000Z</time>
      </trkpt>
      <trkpt lat="47.31801" lon="-2.38113">
        <ele>-35.799999237061</ele>
        <time>2022-08-07T07:46:00.000Z</time>
      </trkpt>
      <trkpt lat="47.31801" lon="-2.38121">
        <ele>-35.799999237061</ele>
        <time>2022-08-07T07:46:01.000Z</time>
      </trkpt>
      <trkpt lat="47.31802" lon="-2.38153">
        <ele>-35.799999237061</ele>
        <time>2022-08-07T07:46:05.000Z</time>
      </trkpt>
      <trkpt lat="47.31803" lon="-2.38169">
        <ele>-35.799999237061</ele>
        <time>2022-08-07T07:46:07.000Z</time>
      </trkpt>
      <trkpt lat="47.31804" lon="-2.38216">
        <ele>-35.799999237061</ele>
        <time>2022-08-07T07:46:13.000Z</time>
      </trkpt>
      <trkpt lat="47.31805" lon="-2.38249">
        <ele>-35.400001525879</ele>
        <time>2022-08-07T07:46:17.000Z</time>
      </trkpt>
      <trkpt lat="47.31805" lon="-2.38257">
        <ele>-35</ele>
        <time>2022-08-07T07:46:18.000Z</time>
      </trkpt>
      <trkpt lat="47.31805" lon="-2.38265">
        <ele>-34.599998474121</ele>
        <time>2022-08-07T07:46:19.000Z</time>
      </trkpt>
      <trkpt lat="47.31806" lon="-2.38273">
        <ele>-34.200000762939</ele>
        <time>2022-08-07T07:46:20.000Z</time>
      </trkpt>
      <trkpt lat="47.31806" lon="-2.38281">
        <ele>-33.599998474121</ele>
        <time>2022-08-07T07:46:21.000Z</time>
      </trkpt>
      <trkpt lat="47.31808" lon="-2.3833">
        <ele>-33.200000762939</ele>
        <time>2022-08-07T07:46:27.000Z</time>
      </trkpt>
      <trkpt lat="47.31808" lon="-2.38338">
        <ele>-32.799999237061</ele>
        <time>2022-08-07T07:46:28.000Z</time>
      </trkpt>
      <trkpt lat="47.31808" lon="-2.38347">
        <ele>-32.400001525879</ele>
        <time>2022-08-07T07:46:29.000Z</time>
      </trkpt>
      <trkpt lat="47.31808" lon="-2.38355">
        <ele>-32</ele>
        <time>2022-08-07T07:46:30.000Z</time>
      </trkpt>
      <trkpt lat="47.31808" lon="-2.38364">
        <ele>-31.60000038147</ele>
        <time>2022-08-07T07:46:31.000Z</time>
      </trkpt>
      <trkpt lat="47.31808" lon="-2.38422">
        <ele>-31.200000762939</ele>
        <time>2022-08-07T07:46:38.000Z</time>
      </trkpt>
      <trkpt lat="47.31809" lon="-2.3843">
        <ele>-30.799999237061</ele>
        <time>2022-08-07T07:46:39.000Z</time>
      </trkpt>
      <trkpt lat="47.31809" lon="-2.38438">
        <ele>-30.39999961853</ele>
        <time>2022-08-07T07:46:40.000Z</time>
      </trkpt>
      <trkpt lat="47.31809" lon="-2.38446">
        <ele>-30</ele>
        <time>2022-08-07T07:46:41.000Z</time>
      </trkpt>
      <trkpt lat="47.31809" lon="-2.38454">
        <ele>-29.60000038147</ele>
        <time>2022-08-07T07:46:42.000Z</time>
      </trkpt>
      <trkpt lat="47.31809" lon="-2.38493">
        <ele>-29.60000038147</ele>
        <time>2022-08-07T07:46:47.000Z</time>
      </trkpt>
      <trkpt lat="47.31809" lon="-2.38548">
        <ele>-29.60000038147</ele>
        <time>2022-08-07T07:46:54.000Z</time>
      </trkpt>
      <trkpt lat="47.31811" lon="-2.38598">
        <ele>-29.60000038147</ele>
        <time>2022-08-07T07:47:00.000Z</time>
      </trkpt>
      <trkpt lat="47.31817" lon="-2.38667">
        <ele>-29.60000038147</ele>
        <time>2022-08-07T07:47:08.000Z</time>
      </trkpt>
      <trkpt lat="47.31819" lon="-2.38684">
        <ele>-29.60000038147</ele>
        <time>2022-08-07T07:47:10.000Z</time>
      </trkpt>
      <trkpt lat="47.31821" lon="-2.38719">
        <ele>-29.60000038147</ele>
        <time>2022-08-07T07:47:14.000Z</time>
      </trkpt>
      <trkpt lat="47.31822" lon="-2.38744">
        <ele>-29.60000038147</ele>
        <time>2022-08-07T07:47:17.000Z</time>
      </trkpt>
      <trkpt lat="47.31822" lon="-2.3876">
        <ele>-29.60000038147</ele>
        <time>2022-08-07T07:47:19.000Z</time>
      </trkpt>
      <trkpt lat="47.31824" lon="-2.38822">
        <ele>-29.60000038147</ele>
        <time>2022-08-07T07:47:26.000Z</time>
      </trkpt>
      <trkpt lat="47.31835" lon="-2.38873">
        <ele>-29.60000038147</ele>
        <time>2022-08-07T07:47:32.000Z</time>
      </trkpt>
      <trkpt lat="47.31845" lon="-2.38916">
        <ele>-29.60000038147</ele>
        <time>2022-08-07T07:47:37.000Z</time>
      </trkpt>
      <trkpt lat="47.31848" lon="-2.38925">
        <ele>-29.60000038147</ele>
        <time>2022-08-07T07:47:38.000Z</time>
      </trkpt>
      <trkpt lat="47.31866" lon="-2.38981">
        <ele>-29.60000038147</ele>
        <time>2022-08-07T07:47:45.000Z</time>
      </trkpt>
      <trkpt lat="47.31882" lon="-2.39025">
        <ele>-29.60000038147</ele>
        <time>2022-08-07T07:47:51.000Z</time>
      </trkpt>
      <trkpt lat="47.3189" lon="-2.39048">
        <ele>-29.60000038147</ele>
        <time>2022-08-07T07:47:54.000Z</time>
      </trkpt>
      <trkpt lat="47.31894" lon="-2.39064">
        <ele>-29.60000038147</ele>
        <time>2022-08-07T07:47:56.000Z</time>
      </trkpt>
      <trkpt lat="47.3191" lon="-2.3912">
        <ele>-29.60000038147</ele>
        <time>2022-08-07T07:48:03.000Z</time>
      </trkpt>
      <trkpt lat="47.31926" lon="-2.39175">
        <ele>-29.60000038147</ele>
        <time>2022-08-07T07:48:10.000Z</time>
      </trkpt>
      <trkpt lat="47.31944" lon="-2.39234">
        <ele>-29.60000038147</ele>
        <time>2022-08-07T07:48:18.000Z</time>
      </trkpt>
      <trkpt lat="47.3196" lon="-2.39294">
        <ele>-29.60000038147</ele>
        <time>2022-08-07T07:48:26.000Z</time>
      </trkpt>
      <trkpt lat="47.3197" lon="-2.39331">
        <ele>-29.60000038147</ele>
        <time>2022-08-07T07:48:31.000Z</time>
      </trkpt>
      <trkpt lat="47.31978" lon="-2.39359">
        <ele>-29.200000762939</ele>
        <time>2022-08-07T07:48:35.000Z</time>
      </trkpt>
      <trkpt lat="47.31979" lon="-2.39366">
        <ele>-28.799999237061</ele>
        <time>2022-08-07T07:48:36.000Z</time>
      </trkpt>
      <trkpt lat="47.31981" lon="-2.39373">
        <ele>-28.200000762939</ele>
        <time>2022-08-07T07:48:37.000Z</time>
      </trkpt>
      <trkpt lat="47.31983" lon="-2.39381">
        <ele>-27.799999237061</ele>
        <time>2022-08-07T07:48:38.000Z</time>
      </trkpt>
      <trkpt lat="47.31984" lon="-2.39389">
        <ele>-27.39999961853</ele>
        <time>2022-08-07T07:48:39.000Z</time>
      </trkpt>
      <trkpt lat="47.31989" lon="-2.3941">
        <ele>-27.39999961853</ele>
        <time>2022-08-07T07:48:42.000Z</time>
      </trkpt>
      <trkpt lat="47.31991" lon="-2.39417">
        <ele>-27.39999961853</ele>
        <time>2022-08-07T07:48:43.000Z</time>
      </trkpt>
      <trkpt lat="47.32001" lon="-2.39453">
        <ele>-27.39999961853</ele>
        <time>2022-08-07T07:48:48.000Z</time>
      </trkpt>
      <trkpt lat="47.32003" lon="-2.3946">
        <ele>-27.39999961853</ele>
        <time>2022-08-07T07:48:49.000Z</time>
      </trkpt>
      <trkpt lat="47.32007" lon="-2.39476">
        <ele>-27.39999961853</ele>
        <time>2022-08-07T07:48:51.000Z</time>
      </trkpt>
      <trkpt lat="47.32012" lon="-2.39499">
        <ele>-27.39999961853</ele>
        <time>2022-08-07T07:48:54.000Z</time>
      </trkpt>
      <trkpt lat="47.3202" lon="-2.39538">
        <ele>-27</ele>
        <time>2022-08-07T07:48:59.000Z</time>
      </trkpt>
      <trkpt lat="47.32022" lon="-2.39545">
        <ele>-26.200000762939</ele>
        <time>2022-08-07T07:49:00.000Z</time>
      </trkpt>
      <trkpt lat="47.32024" lon="-2.39554">
        <ele>-25.799999237061</ele>
        <time>2022-08-07T07:49:01.000Z</time>
      </trkpt>
      <trkpt lat="47.32025" lon="-2.39562">
        <ele>-25.39999961853</ele>
        <time>2022-08-07T07:49:02.000Z</time>
      </trkpt>
      <trkpt lat="47.32035" lon="-2.396">
        <ele>-25.39999961853</ele>
        <time>2022-08-07T07:49:07.000Z</time>
      </trkpt>
      <trkpt lat="47.32037" lon="-2.39607">
        <ele>-25.39999961853</ele>
        <time>2022-08-07T07:49:08.000Z</time>
      </trkpt>
      <trkpt lat="47.32049" lon="-2.39658">
        <ele>-25.39999961853</ele>
        <time>2022-08-07T07:49:15.000Z</time>
      </trkpt>
      <trkpt lat="47.32051" lon="-2.39665">
        <ele>-25</ele>
        <time>2022-08-07T07:49:16.000Z</time>
      </trkpt>
      <trkpt lat="47.32053" lon="-2.39672">
        <ele>-24.60000038147</ele>
        <time>2022-08-07T07:49:17.000Z</time>
      </trkpt>
      <trkpt lat="47.32055" lon="-2.39679">
        <ele>-24.200000762939</ele>
        <time>2022-08-07T07:49:18.000Z</time>
      </trkpt>
      <trkpt lat="47.32057" lon="-2.39685">
        <ele>-23.799999237061</ele>
        <time>2022-08-07T07:49:19.000Z</time>
      </trkpt>
      <trkpt lat="47.32059" lon="-2.39692">
        <ele>-23.39999961853</ele>
        <time>2022-08-07T07:49:20.000Z</time>
      </trkpt>
      <trkpt lat="47.32065" lon="-2.39719">
        <ele>-23.39999961853</ele>
        <time>2022-08-07T07:49:24.000Z</time>
      </trkpt>
      <trkpt lat="47.32069" lon="-2.39732">
        <ele>-23.39999961853</ele>
        <time>2022-08-07T07:49:26.000Z</time>
      </trkpt>
      <trkpt lat="47.32076" lon="-2.39762">
        <ele>-23.39999961853</ele>
        <time>2022-08-07T07:49:31.000Z</time>
      </trkpt>
      <trkpt lat="47.32084" lon="-2.39795">
        <ele>-23.39999961853</ele>
        <time>2022-08-07T07:49:37.000Z</time>
      </trkpt>
      <trkpt lat="47.32085" lon="-2.39804">
        <ele>-23.39999961853</ele>
        <time>2022-08-07T07:49:39.000Z</time>
      </trkpt>
      <trkpt lat="47.32081" lon="-2.39811">
        <ele>-23.39999961853</ele>
        <time>2022-08-07T07:49:41.000Z</time>
      </trkpt>
      <trkpt lat="47.3207" lon="-2.39822">
        <ele>-23.39999961853</ele>
        <time>2022-08-07T07:49:44.000Z</time>
      </trkpt>
      <trkpt lat="47.32066" lon="-2.39826">
        <ele>-23.39999961853</ele>
        <time>2022-08-07T07:49:45.000Z</time>
      </trkpt>
      <trkpt lat="47.32044" lon="-2.39849">
        <ele>-23.39999961853</ele>
        <time>2022-08-07T07:49:50.000Z</time>
      </trkpt>
      <trkpt lat="47.32039" lon="-2.39853">
        <ele>-23.39999961853</ele>
        <time>2022-08-07T07:49:51.000Z</time>
      </trkpt>
      <trkpt lat="47.32009" lon="-2.39881">
        <ele>-23.39999961853</ele>
        <time>2022-08-07T07:49:57.000Z</time>
      </trkpt>
      <trkpt lat="47.31977" lon="-2.39914">
        <ele>-23.39999961853</ele>
        <time>2022-08-07T07:50:03.000Z</time>
      </trkpt>
      <trkpt lat="47.31966" lon="-2.39923">
        <ele>-23.799999237061</ele>
        <time>2022-08-07T07:50:05.000Z</time>
      </trkpt>
      <trkpt lat="47.31961" lon="-2.39928">
        <ele>-24.200000762939</ele>
        <time>2022-08-07T07:50:06.000Z</time>
      </trkpt>
      <trkpt lat="47.31956" lon="-2.39933">
        <ele>-24.799999237061</ele>
        <time>2022-08-07T07:50:07.000Z</time>
      </trkpt>
      <trkpt lat="47.3195" lon="-2.39938">
        <ele>-25.200000762939</ele>
        <time>2022-08-07T07:50:08.000Z</time>
      </trkpt>
      <trkpt lat="47.31944" lon="-2.39944">
        <ele>-25.60000038147</ele>
        <time>2022-08-07T07:50:09.000Z</time>
      </trkpt>
      <trkpt lat="47.31933" lon="-2.39955">
        <ele>-25.60000038147</ele>
        <time>2022-08-07T07:50:11.000Z</time>
      </trkpt>
      <trkpt lat="47.31916" lon="-2.39973">
        <ele>-26</ele>
        <time>2022-08-07T07:50:14.000Z</time>
      </trkpt>
      <trkpt lat="47.31911" lon="-2.39979">
        <ele>-26.39999961853</ele>
        <time>2022-08-07T07:50:15.000Z</time>
      </trkpt>
      <trkpt lat="47.31906" lon="-2.39987">
        <ele>-26.799999237061</ele>
        <time>2022-08-07T07:50:16.000Z</time>
      </trkpt>
      <trkpt lat="47.31901" lon="-2.39993">
        <ele>-27.39999961853</ele>
        <time>2022-08-07T07:50:17.000Z</time>
      </trkpt>
      <trkpt lat="47.31896" lon="-2.40001">
        <ele>-27.799999237061</ele>
        <time>2022-08-07T07:50:18.000Z</time>
      </trkpt>
      <trkpt lat="47.31861" lon="-2.4005">
        <ele>-27.799999237061</ele>
        <time>2022-08-07T07:50:25.000Z</time>
      </trkpt>
      <trkpt lat="47.31847" lon="-2.40071">
        <ele>-27.799999237061</ele>
        <time>2022-08-07T07:50:29.000Z</time>
      </trkpt>
      <trkpt lat="47.31821" lon="-2.40107">
        <ele>-27.799999237061</ele>
        <time>2022-08-07T07:50:35.000Z</time>
      </trkpt>
      <trkpt lat="47.31795" lon="-2.40144">
        <ele>-27.799999237061</ele>
        <time>2022-08-07T07:50:41.000Z</time>
      </trkpt>
      <trkpt lat="47.31791" lon="-2.40151">
        <ele>-27.799999237061</ele>
        <time>2022-08-07T07:50:42.000Z</time>
      </trkpt>
      <trkpt lat="47.31764" lon="-2.40191">
        <ele>-27.799999237061</ele>
        <time>2022-08-07T07:50:48.000Z</time>
      </trkpt>
      <trkpt lat="47.31743" lon="-2.40234">
        <ele>-27.799999237061</ele>
        <time>2022-08-07T07:50:54.000Z</time>
      </trkpt>
      <trkpt lat="47.31725" lon="-2.40263">
        <ele>-27.799999237061</ele>
        <time>2022-08-07T07:50:59.000Z</time>
      </trkpt>
      <trkpt lat="47.31698" lon="-2.40296">
        <ele>-27.799999237061</ele>
        <time>2022-08-07T07:51:06.000Z</time>
      </trkpt>
      <trkpt lat="47.31686" lon="-2.40315">
        <ele>-27.799999237061</ele>
        <time>2022-08-07T07:51:10.000Z</time>
      </trkpt>
      <trkpt lat="47.31688" lon="-2.40332">
        <ele>-27.799999237061</ele>
        <time>2022-08-07T07:51:13.000Z</time>
      </trkpt>
      <trkpt lat="47.317" lon="-2.40343">
        <ele>-27.799999237061</ele>
        <time>2022-08-07T07:51:16.000Z</time>
      </trkpt>
      <trkpt lat="47.31707" lon="-2.40347">
        <ele>-27.799999237061</ele>
        <time>2022-08-07T07:51:17.000Z</time>
      </trkpt>
      <trkpt lat="47.31715" lon="-2.40353">
        <ele>-27.799999237061</ele>
        <time>2022-08-07T07:51:19.000Z</time>
      </trkpt>
      <trkpt lat="47.31728" lon="-2.40363">
        <ele>-27.799999237061</ele>
        <time>2022-08-07T07:51:22.000Z</time>
      </trkpt>
      <trkpt lat="47.31737" lon="-2.40368">
        <ele>-27.799999237061</ele>
        <time>2022-08-07T07:51:24.000Z</time>
      </trkpt>
      <trkpt lat="47.31769" lon="-2.40393">
        <ele>-27.799999237061</ele>
        <time>2022-08-07T07:51:31.000Z</time>
      </trkpt>
      <trkpt lat="47.31802" lon="-2.40416">
        <ele>-27.799999237061</ele>
        <time>2022-08-07T07:51:37.000Z</time>
      </trkpt>
      <trkpt lat="47.31818" lon="-2.40427">
        <ele>-27.799999237061</ele>
        <time>2022-08-07T07:51:40.000Z</time>
      </trkpt>
      <trkpt lat="47.31834" lon="-2.40436">
        <ele>-27.799999237061</ele>
        <time>2022-08-07T07:51:43.000Z</time>
      </trkpt>
      <trkpt lat="47.31838" lon="-2.40439">
        <ele>-27.799999237061</ele>
        <time>2022-08-07T07:51:44.000Z</time>
      </trkpt>
      <trkpt lat="47.31856" lon="-2.40456">
        <ele>-27.799999237061</ele>
        <time>2022-08-07T07:51:48.000Z</time>
      </trkpt>
      <trkpt lat="47.31884" lon="-2.40479">
        <ele>-27.39999961853</ele>
        <time>2022-08-07T07:51:54.000Z</time>
      </trkpt>
      <trkpt lat="47.3189" lon="-2.40483">
        <ele>-26.799999237061</ele>
        <time>2022-08-07T07:51:55.000Z</time>
      </trkpt>
      <trkpt lat="47.31895" lon="-2.40487">
        <ele>-26.39999961853</ele>
        <time>2022-08-07T07:51:56.000Z</time>
      </trkpt>
      <trkpt lat="47.31901" lon="-2.40491">
        <ele>-26</ele>
        <time>2022-08-07T07:51:57.000Z</time>
      </trkpt>
      <trkpt lat="47.31906" lon="-2.40495">
        <ele>-25.60000038147</ele>
        <time>2022-08-07T07:51:58.000Z</time>
      </trkpt>
      <trkpt lat="47.31912" lon="-2.405">
        <ele>-25.60000038147</ele>
        <time>2022-08-07T07:51:59.000Z</time>
      </trkpt>
      <trkpt lat="47.31936" lon="-2.40517">
        <ele>-25.60000038147</ele>
        <time>2022-08-07T07:52:03.000Z</time>
      </trkpt>
      <trkpt lat="47.31941" lon="-2.4052">
        <ele>-25.60000038147</ele>
        <time>2022-08-07T07:52:04.000Z</time>
      </trkpt>
      <trkpt lat="47.31966" lon="-2.4054">
        <ele>-25.60000038147</ele>
        <time>2022-08-07T07:52:09.000Z</time>
      </trkpt>
      <trkpt lat="47.31971" lon="-2.40544">
        <ele>-25.60000038147</ele>
        <time>2022-08-07T07:52:10.000Z</time>
      </trkpt>
      <trkpt lat="47.31993" lon="-2.40562">
        <ele>-25.60000038147</ele>
        <time>2022-08-07T07:52:14.000Z</time>
      </trkpt>
      <trkpt lat="47.32037" lon="-2.40598">
        <ele>-25.60000038147</ele>
        <time>2022-08-07T07:52:22.000Z</time>
      </trkpt>
      <trkpt lat="47.32042" lon="-2.40603">
        <ele>-25.200000762939</ele>
        <time>2022-08-07T07:52:23.000Z</time>
      </trkpt>
      <trkpt lat="47.32047" lon="-2.40608">
        <ele>-24.799999237061</ele>
        <time>2022-08-07T07:52:24.000Z</time>
      </trkpt>
      <trkpt lat="47.32052" lon="-2.40612">
        <ele>-24.200000762939</ele>
        <time>2022-08-07T07:52:25.000Z</time>
      </trkpt>
      <trkpt lat="47.32057" lon="-2.40618">
        <ele>-23.799999237061</ele>
        <time>2022-08-07T07:52:26.000Z</time>
      </trkpt>
      <trkpt lat="47.32062" lon="-2.40623">
        <ele>-23.39999961853</ele>
        <time>2022-08-07T07:52:27.000Z</time>
      </trkpt>
      <trkpt lat="47.32072" lon="-2.40633">
        <ele>-23.39999961853</ele>
        <time>2022-08-07T07:52:29.000Z</time>
      </trkpt>
      <trkpt lat="47.32115" lon="-2.40679">
        <ele>-23.39999961853</ele>
        <time>2022-08-07T07:52:37.000Z</time>
      </trkpt>
      <trkpt lat="47.32144" lon="-2.4071">
        <ele>-23.39999961853</ele>
        <time>2022-08-07T07:52:43.000Z</time>
      </trkpt>
      <trkpt lat="47.32173" lon="-2.40745">
        <ele>-23</ele>
        <time>2022-08-07T07:52:50.000Z</time>
      </trkpt>
      <trkpt lat="47.32177" lon="-2.40749">
        <ele>-22.60000038147</ele>
        <time>2022-08-07T07:52:51.000Z</time>
      </trkpt>
      <trkpt lat="47.32181" lon="-2.40754">
        <ele>-22.200000762939</ele>
        <time>2022-08-07T07:52:52.000Z</time>
      </trkpt>
      <trkpt lat="47.32184" lon="-2.40758">
        <ele>-21.799999237061</ele>
        <time>2022-08-07T07:52:53.000Z</time>
      </trkpt>
      <trkpt lat="47.32188" lon="-2.40763">
        <ele>-21.39999961853</ele>
        <time>2022-08-07T07:52:54.000Z</time>
      </trkpt>
      <trkpt lat="47.32194" lon="-2.40772">
        <ele>-21.39999961853</ele>
        <time>2022-08-07T07:52:56.000Z</time>
      </trkpt>
      <trkpt lat="47.32203" lon="-2.40786">
        <ele>-21.39999961853</ele>
        <time>2022-08-07T07:53:00.000Z</time>
      </trkpt>
      <trkpt lat="47.32216" lon="-2.40807">
        <ele>-21.39999961853</ele>
        <time>2022-08-07T07:53:05.000Z</time>
      </trkpt>
      <trkpt lat="47.32224" lon="-2.40818">
        <ele>-21.39999961853</ele>
        <time>2022-08-07T07:53:08.000Z</time>
      </trkpt>
      <trkpt lat="47.32228" lon="-2.40824">
        <ele>-21.39999961853</ele>
        <time>2022-08-07T07:53:09.000Z</time>
      </trkpt>
      <trkpt lat="47.32239" lon="-2.40841">
        <ele>-21.39999961853</ele>
        <time>2022-08-07T07:53:12.000Z</time>
      </trkpt>
      <trkpt lat="47.3227" lon="-2.40893">
        <ele>-21.39999961853</ele>
        <time>2022-08-07T07:53:21.000Z</time>
      </trkpt>
      <trkpt lat="47.32299" lon="-2.4095">
        <ele>-21.39999961853</ele>
        <time>2022-08-07T07:53:29.000Z</time>
      </trkpt>
      <trkpt lat="47.32322" lon="-2.40994">
        <ele>-21.39999961853</ele>
        <time>2022-08-07T07:53:36.000Z</time>
      </trkpt>
      <trkpt lat="47.3234" lon="-2.41026">
        <ele>-21</ele>
        <time>2022-08-07T07:53:41.000Z</time>
      </trkpt>
      <trkpt lat="47.32343" lon="-2.41032">
        <ele>-20.60000038147</ele>
        <time>2022-08-07T07:53:42.000Z</time>
      </trkpt>
      <trkpt lat="47.32346" lon="-2.41038">
        <ele>-20.200000762939</ele>
        <time>2022-08-07T07:53:43.000Z</time>
      </trkpt>
      <trkpt lat="47.32349" lon="-2.41045">
        <ele>-19.799999237061</ele>
        <time>2022-08-07T07:53:44.000Z</time>
      </trkpt>
      <trkpt lat="47.32353" lon="-2.4105">
        <ele>-19.200000762939</ele>
        <time>2022-08-07T07:53:45.000Z</time>
      </trkpt>
      <trkpt lat="47.32364" lon="-2.4107">
        <ele>-19.200000762939</ele>
        <time>2022-08-07T07:53:49.000Z</time>
      </trkpt>
      <trkpt lat="47.32374" lon="-2.41089">
        <ele>-19.200000762939</ele>
        <time>2022-08-07T07:53:53.000Z</time>
      </trkpt>
      <trkpt lat="47.32376" lon="-2.41094">
        <ele>-19.200000762939</ele>
        <time>2022-08-07T07:53:54.000Z</time>
      </trkpt>
      <trkpt lat="47.32389" lon="-2.41117">
        <ele>-19.200000762939</ele>
        <time>2022-08-07T07:53:58.000Z</time>
      </trkpt>
      <trkpt lat="47.32395" lon="-2.41129">
        <ele>-19.200000762939</ele>
        <time>2022-08-07T07:54:00.000Z</time>
      </trkpt>
      <trkpt lat="47.32405" lon="-2.4115">
        <ele>-19.200000762939</ele>
        <time>2022-08-07T07:54:04.000Z</time>
      </trkpt>
      <trkpt lat="47.32423" lon="-2.41189">
        <ele>-19.200000762939</ele>
        <time>2022-08-07T07:54:10.000Z</time>
      </trkpt>
      <trkpt lat="47.32433" lon="-2.41207">
        <ele>-19.200000762939</ele>
        <time>2022-08-07T07:54:13.000Z</time>
      </trkpt>
      <trkpt lat="47.32443" lon="-2.41226">
        <ele>-19.200000762939</ele>
        <time>2022-08-07T07:54:16.000Z</time>
      </trkpt>
      <trkpt lat="47.3245" lon="-2.41239">
        <ele>-19.200000762939</ele>
        <time>2022-08-07T07:54:18.000Z</time>
      </trkpt>
      <trkpt lat="47.32472" lon="-2.41281">
        <ele>-19.200000762939</ele>
        <time>2022-08-07T07:54:24.000Z</time>
      </trkpt>
      <trkpt lat="47.3248" lon="-2.41295">
        <ele>-19.200000762939</ele>
        <time>2022-08-07T07:54:26.000Z</time>
      </trkpt>
      <trkpt lat="47.32509" lon="-2.41353">
        <ele>-19.200000762939</ele>
        <time>2022-08-07T07:54:34.000Z</time>
      </trkpt>
      <trkpt lat="47.32536" lon="-2.41403">
        <ele>-19.200000762939</ele>
        <time>2022-08-07T07:54:41.000Z</time>
      </trkpt>
      <trkpt lat="47.3256" lon="-2.41451">
        <ele>-19.200000762939</ele>
        <time>2022-08-07T07:54:48.000Z</time>
      </trkpt>
      <trkpt lat="47.32563" lon="-2.41455">
        <ele>-19.200000762939</ele>
        <time>2022-08-07T07:54:49.000Z</time>
      </trkpt>
      <trkpt lat="47.3257" lon="-2.4146">
        <ele>-19.200000762939</ele>
        <time>2022-08-07T07:54:52.000Z</time>
      </trkpt>
      <trkpt lat="47.32572" lon="-2.41458">
        <ele>-19.200000762939</ele>
        <time>2022-08-07T07:54:53.000Z</time>
      </trkpt>
      <trkpt lat="47.32576" lon="-2.41442">
        <ele>-19.799999237061</ele>
        <time>2022-08-07T07:54:56.000Z</time>
      </trkpt>
      <trkpt lat="47.32576" lon="-2.41436">
        <ele>-20.200000762939</ele>
        <time>2022-08-07T07:54:57.000Z</time>
      </trkpt>
      <trkpt lat="47.32576" lon="-2.41429">
        <ele>-20.60000038147</ele>
        <time>2022-08-07T07:54:58.000Z</time>
      </trkpt>
      <trkpt lat="47.32577" lon="-2.41421">
        <ele>-21</ele>
        <time>2022-08-07T07:54:59.000Z</time>
      </trkpt>
      <trkpt lat="47.32578" lon="-2.41414">
        <ele>-21.39999961853</ele>
        <time>2022-08-07T07:55:00.000Z</time>
      </trkpt>
      <trkpt lat="47.32579" lon="-2.41406">
        <ele>-21.39999961853</ele>
        <time>2022-08-07T07:55:01.000Z</time>
      </trkpt>
      <trkpt lat="47.32581" lon="-2.41399">
        <ele>-21.39999961853</ele>
        <time>2022-08-07T07:55:02.000Z</time>
      </trkpt>
      <trkpt lat="47.32588" lon="-2.41386">
        <ele>-21.39999961853</ele>
        <time>2022-08-07T07:55:04.000Z</time>
      </trkpt>
      <trkpt lat="47.32609" lon="-2.41372">
        <ele>-21.39999961853</ele>
        <time>2022-08-07T07:55:08.000Z</time>
      </trkpt>
      <trkpt lat="47.32652" lon="-2.41346">
        <ele>-21.799999237061</ele>
        <time>2022-08-07T07:55:16.000Z</time>
      </trkpt>
      <trkpt lat="47.32657" lon="-2.41342">
        <ele>-22.200000762939</ele>
        <time>2022-08-07T07:55:17.000Z</time>
      </trkpt>
      <trkpt lat="47.32662" lon="-2.41339">
        <ele>-22.799999237061</ele>
        <time>2022-08-07T07:55:18.000Z</time>
      </trkpt>
      <trkpt lat="47.32666" lon="-2.41336">
        <ele>-23.200000762939</ele>
        <time>2022-08-07T07:55:19.000Z</time>
      </trkpt>
      <trkpt lat="47.32671" lon="-2.41333">
        <ele>-23.60000038147</ele>
        <time>2022-08-07T07:55:20.000Z</time>
      </trkpt>
      <trkpt lat="47.32687" lon="-2.41321">
        <ele>-23.60000038147</ele>
        <time>2022-08-07T07:55:23.000Z</time>
      </trkpt>
      <trkpt lat="47.32693" lon="-2.41316">
        <ele>-23.60000038147</ele>
        <time>2022-08-07T07:55:24.000Z</time>
      </trkpt>
      <trkpt lat="47.32708" lon="-2.41298">
        <ele>-23.60000038147</ele>
        <time>2022-08-07T07:55:27.000Z</time>
      </trkpt>
      <trkpt lat="47.32718" lon="-2.41287">
        <ele>-23.60000038147</ele>
        <time>2022-08-07T07:55:29.000Z</time>
      </trkpt>
      <trkpt lat="47.3274" lon="-2.41279">
        <ele>-23.60000038147</ele>
        <time>2022-08-07T07:55:33.000Z</time>
      </trkpt>
      <trkpt lat="47.32745" lon="-2.41277">
        <ele>-24</ele>
        <time>2022-08-07T07:55:34.000Z</time>
      </trkpt>
      <trkpt lat="47.32751" lon="-2.41275">
        <ele>-24.39999961853</ele>
        <time>2022-08-07T07:55:35.000Z</time>
      </trkpt>
      <trkpt lat="47.32757" lon="-2.41273">
        <ele>-25.39999961853</ele>
        <time>2022-08-07T07:55:36.000Z</time>
      </trkpt>
      <trkpt lat="47.32762" lon="-2.41272">
        <ele>-25.799999237061</ele>
        <time>2022-08-07T07:55:37.000Z</time>
      </trkpt>
      <trkpt lat="47.32774" lon="-2.41269">
        <ele>-25.799999237061</ele>
        <time>2022-08-07T07:55:39.000Z</time>
      </trkpt>
      <trkpt lat="47.3281" lon="-2.41263">
        <ele>-25.799999237061</ele>
        <time>2022-08-07T07:55:45.000Z</time>
      </trkpt>
      <trkpt lat="47.32814" lon="-2.41259">
        <ele>-25.799999237061</ele>
        <time>2022-08-07T07:55:46.000Z</time>
      </trkpt>
      <trkpt lat="47.32823" lon="-2.41252">
        <ele>-25.799999237061</ele>
        <time>2022-08-07T07:55:48.000Z</time>
      </trkpt>
      <trkpt lat="47.32835" lon="-2.41255">
        <ele>-25.799999237061</ele>
        <time>2022-08-07T07:55:50.000Z</time>
      </trkpt>
      <trkpt lat="47.3284" lon="-2.41256">
        <ele>-25.799999237061</ele>
        <time>2022-08-07T07:55:51.000Z</time>
      </trkpt>
      <trkpt lat="47.32852" lon="-2.41256">
        <ele>-25.799999237061</ele>
        <time>2022-08-07T07:55:53.000Z</time>
      </trkpt>
      <trkpt lat="47.32858" lon="-2.41255">
        <ele>-25.799999237061</ele>
        <time>2022-08-07T07:55:54.000Z</time>
      </trkpt>
      <trkpt lat="47.3291" lon="-2.41251">
        <ele>-25.799999237061</ele>
        <time>2022-08-07T07:56:03.000Z</time>
      </trkpt>
      <trkpt lat="47.32915" lon="-2.41248">
        <ele>-25.799999237061</ele>
        <time>2022-08-07T07:56:04.000Z</time>
      </trkpt>
      <trkpt lat="47.32924" lon="-2.41242">
        <ele>-25.799999237061</ele>
        <time>2022-08-07T07:56:06.000Z</time>
      </trkpt>
      <trkpt lat="47.32937" lon="-2.41248">
        <ele>-25.799999237061</ele>
        <time>2022-08-07T07:56:09.000Z</time>
      </trkpt>
      <trkpt lat="47.32941" lon="-2.41252">
        <ele>-25.799999237061</ele>
        <time>2022-08-07T07:56:10.000Z</time>
      </trkpt>
      <trkpt lat="47.32946" lon="-2.41253">
        <ele>-25.799999237061</ele>
        <time>2022-08-07T07:56:11.000Z</time>
      </trkpt>
      <trkpt lat="47.32955" lon="-2.4125">
        <ele>-25.799999237061</ele>
        <time>2022-08-07T07:56:13.000Z</time>
      </trkpt>
      <trkpt lat="47.3296" lon="-2.41248">
        <ele>-26.200000762939</ele>
        <time>2022-08-07T07:56:14.000Z</time>
      </trkpt>
      <trkpt lat="47.32965" lon="-2.41245">
        <ele>-26.60000038147</ele>
        <time>2022-08-07T07:56:15.000Z</time>
      </trkpt>
      <trkpt lat="47.3297" lon="-2.41242">
        <ele>-27</ele>
        <time>2022-08-07T07:56:16.000Z</time>
      </trkpt>
      <trkpt lat="47.32975" lon="-2.41238">
        <ele>-27.39999961853</ele>
        <time>2022-08-07T07:56:17.000Z</time>
      </trkpt>
      <trkpt lat="47.32979" lon="-2.41233">
        <ele>-27.799999237061</ele>
        <time>2022-08-07T07:56:18.000Z</time>
      </trkpt>
      <trkpt lat="47.32983" lon="-2.41228">
        <ele>-27.799999237061</ele>
        <time>2022-08-07T07:56:19.000Z</time>
      </trkpt>
      <trkpt lat="47.32991" lon="-2.4121">
        <ele>-27.799999237061</ele>
        <time>2022-08-07T07:56:22.000Z</time>
      </trkpt>
      <trkpt lat="47.32998" lon="-2.4121">
        <ele>-27.799999237061</ele>
        <time>2022-08-07T07:56:24.000Z</time>
      </trkpt>
      <trkpt lat="47.3301" lon="-2.41216">
        <ele>-27.799999237061</ele>
        <time>2022-08-07T07:56:27.000Z</time>
      </trkpt>
      <trkpt lat="47.33022" lon="-2.41206">
        <ele>-27.799999237061</ele>
        <time>2022-08-07T07:56:30.000Z</time>
      </trkpt>
      <trkpt lat="47.33029" lon="-2.41192">
        <ele>-27.799999237061</ele>
        <time>2022-08-07T07:56:32.000Z</time>
      </trkpt>
      <trkpt lat="47.33036" lon="-2.41177">
        <ele>-27.799999237061</ele>
        <time>2022-08-07T07:56:34.000Z</time>
      </trkpt>
      <trkpt lat="47.33062" lon="-2.41129">
        <ele>-27.799999237061</ele>
        <time>2022-08-07T07:56:41.000Z</time>
      </trkpt>
      <trkpt lat="47.33068" lon="-2.41114">
        <ele>-27.799999237061</ele>
        <time>2022-08-07T07:56:43.000Z</time>
      </trkpt>
      <trkpt lat="47.33077" lon="-2.41091">
        <ele>-28.200000762939</ele>
        <time>2022-08-07T07:56:46.000Z</time>
      </trkpt>
      <trkpt lat="47.3308" lon="-2.41083">
        <ele>-28.60000038147</ele>
        <time>2022-08-07T07:56:47.000Z</time>
      </trkpt>
      <trkpt lat="47.33083" lon="-2.41075">
        <ele>-29</ele>
        <time>2022-08-07T07:56:48.000Z</time>
      </trkpt>
      <trkpt lat="47.33085" lon="-2.41066">
        <ele>-29.39999961853</ele>
        <time>2022-08-07T07:56:49.000Z</time>
      </trkpt>
      <trkpt lat="47.33088" lon="-2.41058">
        <ele>-29.799999237061</ele>
        <time>2022-08-07T07:56:50.000Z</time>
      </trkpt>
      <trkpt lat="47.33093" lon="-2.41042">
        <ele>-29.799999237061</ele>
        <time>2022-08-07T07:56:52.000Z</time>
      </trkpt>
      <trkpt lat="47.33109" lon="-2.40995">
        <ele>-29.799999237061</ele>
        <time>2022-08-07T07:56:58.000Z</time>
      </trkpt>
      <trkpt lat="47.33125" lon="-2.40955">
        <ele>-29.799999237061</ele>
        <time>2022-08-07T07:57:03.000Z</time>
      </trkpt>
      <trkpt lat="47.33133" lon="-2.4094">
        <ele>-29.799999237061</ele>
        <time>2022-08-07T07:57:05.000Z</time>
      </trkpt>
      <trkpt lat="47.33156" lon="-2.40897">
        <ele>-30.200000762939</ele>
        <time>2022-08-07T07:57:11.000Z</time>
      </trkpt>
      <trkpt lat="47.3316" lon="-2.4089">
        <ele>-30.60000038147</ele>
        <time>2022-08-07T07:57:12.000Z</time>
      </trkpt>
      <trkpt lat="47.33164" lon="-2.40884">
        <ele>-31</ele>
        <time>2022-08-07T07:57:13.000Z</time>
      </trkpt>
      <trkpt lat="47.33168" lon="-2.40877">
        <ele>-31.39999961853</ele>
        <time>2022-08-07T07:57:14.000Z</time>
      </trkpt>
      <trkpt lat="47.33172" lon="-2.40871">
        <ele>-31.799999237061</ele>
        <time>2022-08-07T07:57:15.000Z</time>
      </trkpt>
      <trkpt lat="47.33174" lon="-2.40864">
        <ele>-31.799999237061</ele>
        <time>2022-08-07T07:57:16.000Z</time>
      </trkpt>
      <trkpt lat="47.33183" lon="-2.4085">
        <ele>-31.799999237061</ele>
        <time>2022-08-07T07:57:18.000Z</time>
      </trkpt>
      <trkpt lat="47.33216" lon="-2.40802">
        <ele>-31.799999237061</ele>
        <time>2022-08-07T07:57:25.000Z</time>
      </trkpt>
      <trkpt lat="47.33225" lon="-2.40785">
        <ele>-32.200000762939</ele>
        <time>2022-08-07T07:57:27.000Z</time>
      </trkpt>
      <trkpt lat="47.33228" lon="-2.40776">
        <ele>-32.799999237061</ele>
        <time>2022-08-07T07:57:28.000Z</time>
      </trkpt>
      <trkpt lat="47.3323" lon="-2.40766">
        <ele>-33.200000762939</ele>
        <time>2022-08-07T07:57:29.000Z</time>
      </trkpt>
      <trkpt lat="47.33232" lon="-2.40755">
        <ele>-33.599998474121</ele>
        <time>2022-08-07T07:57:30.000Z</time>
      </trkpt>
      <trkpt lat="47.33233" lon="-2.40744">
        <ele>-34</ele>
        <time>2022-08-07T07:57:31.000Z</time>
      </trkpt>
      <trkpt lat="47.33234" lon="-2.40733">
        <ele>-34</ele>
        <time>2022-08-07T07:57:32.000Z</time>
      </trkpt>
      <trkpt lat="47.33235" lon="-2.40723">
        <ele>-34.400001525879</ele>
        <time>2022-08-07T07:57:33.000Z</time>
      </trkpt>
      <trkpt lat="47.33236" lon="-2.40712">
        <ele>-34.799999237061</ele>
        <time>2022-08-07T07:57:34.000Z</time>
      </trkpt>
      <trkpt lat="47.33238" lon="-2.40701">
        <ele>-35.400001525879</ele>
        <time>2022-08-07T07:57:35.000Z</time>
      </trkpt>
      <trkpt lat="47.3324" lon="-2.40691">
        <ele>-35.799999237061</ele>
        <time>2022-08-07T07:57:36.000Z</time>
      </trkpt>
      <trkpt lat="47.33242" lon="-2.40681">
        <ele>-36.200000762939</ele>
        <time>2022-08-07T07:57:37.000Z</time>
      </trkpt>
      <trkpt lat="47.33247" lon="-2.40662">
        <ele>-36.200000762939</ele>
        <time>2022-08-07T07:57:39.000Z</time>
      </trkpt>
      <trkpt lat="47.33258" lon="-2.40622">
        <ele>-36.799999237061</ele>
        <time>2022-08-07T07:57:43.000Z</time>
      </trkpt>
      <trkpt lat="47.33261" lon="-2.40611">
        <ele>-37.200000762939</ele>
        <time>2022-08-07T07:57:44.000Z</time>
      </trkpt>
      <trkpt lat="47.33264" lon="-2.40601">
        <ele>-37.599998474121</ele>
        <time>2022-08-07T07:57:45.000Z</time>
      </trkpt>
      <trkpt lat="47.33266" lon="-2.40591">
        <ele>-38</ele>
        <time>2022-08-07T07:57:46.000Z</time>
      </trkpt>
      <trkpt lat="47.33269" lon="-2.4058">
        <ele>-38.400001525879</ele>
        <time>2022-08-07T07:57:47.000Z</time>
      </trkpt>
      <trkpt lat="47.33285" lon="-2.40531">
        <ele>-38.400001525879</ele>
        <time>2022-08-07T07:57:52.000Z</time>
      </trkpt>
      <trkpt lat="47.33301" lon="-2.40498">
        <ele>-38.400001525879</ele>
        <time>2022-08-07T07:57:56.000Z</time>
      </trkpt>
      <trkpt lat="47.33303" lon="-2.40488">
        <ele>-38.799999237061</ele>
        <time>2022-08-07T07:57:57.000Z</time>
      </trkpt>
      <trkpt lat="47.33305" lon="-2.40479">
        <ele>-39.200000762939</ele>
        <time>2022-08-07T07:57:58.000Z</time>
      </trkpt>
      <trkpt lat="47.33306" lon="-2.4047">
        <ele>-39.599998474121</ele>
        <time>2022-08-07T07:57:59.000Z</time>
      </trkpt>
      <trkpt lat="47.33307" lon="-2.40462">
        <ele>-40</ele>
        <time>2022-08-07T07:58:00.000Z</time>
      </trkpt>
      <trkpt lat="47.33308" lon="-2.40453">
        <ele>-40.400001525879</ele>
        <time>2022-08-07T07:58:01.000Z</time>
      </trkpt>
      <trkpt lat="47.33309" lon="-2.40445">
        <ele>-40.400001525879</ele>
        <time>2022-08-07T07:58:02.000Z</time>
      </trkpt>
      <trkpt lat="47.33311" lon="-2.40421">
        <ele>-40.400001525879</ele>
        <time>2022-08-07T07:58:05.000Z</time>
      </trkpt>
      <trkpt lat="47.33312" lon="-2.40406">
        <ele>-40.400001525879</ele>
        <time>2022-08-07T07:58:07.000Z</time>
      </trkpt>
      <trkpt lat="47.33312" lon="-2.40399">
        <ele>-40.400001525879</ele>
        <time>2022-08-07T07:58:08.000Z</time>
      </trkpt>
      <trkpt lat="47.33311" lon="-2.40378">
        <ele>-40</ele>
        <time>2022-08-07T07:58:11.000Z</time>
      </trkpt>
      <trkpt lat="47.33312" lon="-2.40372">
        <ele>-39.599998474121</ele>
        <time>2022-08-07T07:58:12.000Z</time>
      </trkpt>
      <trkpt lat="47.33312" lon="-2.40366">
        <ele>-39</ele>
        <time>2022-08-07T07:58:13.000Z</time>
      </trkpt>
      <trkpt lat="47.33313" lon="-2.40361">
        <ele>-38.599998474121</ele>
        <time>2022-08-07T07:58:14.000Z</time>
      </trkpt>
      <trkpt lat="47.33315" lon="-2.40354">
        <ele>-38.200000762939</ele>
        <time>2022-08-07T07:58:15.000Z</time>
      </trkpt>
      <trkpt lat="47.33317" lon="-2.40348">
        <ele>-38.200000762939</ele>
        <time>2022-08-07T07:58:16.000Z</time>
      </trkpt>
      <trkpt lat="47.3332" lon="-2.40343">
        <ele>-37.799999237061</ele>
        <time>2022-08-07T07:58:17.000Z</time>
      </trkpt>
      <trkpt lat="47.33322" lon="-2.40338">
        <ele>-37.200000762939</ele>
        <time>2022-08-07T07:58:18.000Z</time>
      </trkpt>
      <trkpt lat="47.33324" lon="-2.40332">
        <ele>-36.799999237061</ele>
        <time>2022-08-07T07:58:19.000Z</time>
      </trkpt>
      <trkpt lat="47.33325" lon="-2.40325">
        <ele>-36.400001525879</ele>
        <time>2022-08-07T07:58:20.000Z</time>
      </trkpt>
      <trkpt lat="47.33327" lon="-2.40319">
        <ele>-36</ele>
        <time>2022-08-07T07:58:21.000Z</time>
      </trkpt>
      <trkpt lat="47.33328" lon="-2.40312">
        <ele>-36</ele>
        <time>2022-08-07T07:58:22.000Z</time>
      </trkpt>
      <trkpt lat="47.3333" lon="-2.40299">
        <ele>-36</ele>
        <time>2022-08-07T07:58:24.000Z</time>
      </trkpt>
      <trkpt lat="47.33333" lon="-2.40277">
        <ele>-35.400001525879</ele>
        <time>2022-08-07T07:58:27.000Z</time>
      </trkpt>
      <trkpt lat="47.33333" lon="-2.4027">
        <ele>-35</ele>
        <time>2022-08-07T07:58:28.000Z</time>
      </trkpt>
      <trkpt lat="47.33335" lon="-2.40262">
        <ele>-34.599998474121</ele>
        <time>2022-08-07T07:58:29.000Z</time>
      </trkpt>
      <trkpt lat="47.33336" lon="-2.40255">
        <ele>-33.799999237061</ele>
        <time>2022-08-07T07:58:30.000Z</time>
      </trkpt>
      <trkpt lat="47.3334" lon="-2.40218">
        <ele>-33.799999237061</ele>
        <time>2022-08-07T07:58:35.000Z</time>
      </trkpt>
      <trkpt lat="47.33344" lon="-2.4018">
        <ele>-33.799999237061</ele>
        <time>2022-08-07T07:58:40.000Z</time>
      </trkpt>
      <trkpt lat="47.33346" lon="-2.40157">
        <ele>-33.799999237061</ele>
        <time>2022-08-07T07:58:43.000Z</time>
      </trkpt>
      <trkpt lat="47.33348" lon="-2.40133">
        <ele>-33.799999237061</ele>
        <time>2022-08-07T07:58:46.000Z</time>
      </trkpt>
      <trkpt lat="47.33352" lon="-2.40077">
        <ele>-33.799999237061</ele>
        <time>2022-08-07T07:58:53.000Z</time>
      </trkpt>
      <trkpt lat="47.33355" lon="-2.40053">
        <ele>-33.799999237061</ele>
        <time>2022-08-07T07:58:56.000Z</time>
      </trkpt>
      <trkpt lat="47.33364" lon="-2.40031">
        <ele>-33.799999237061</ele>
        <time>2022-08-07T07:58:59.000Z</time>
      </trkpt>
      <trkpt lat="47.33368" lon="-2.40024">
        <ele>-33.799999237061</ele>
        <time>2022-08-07T07:59:00.000Z</time>
      </trkpt>
      <trkpt lat="47.33373" lon="-2.40017">
        <ele>-33.799999237061</ele>
        <time>2022-08-07T07:59:01.000Z</time>
      </trkpt>
      <trkpt lat="47.33382" lon="-2.40003">
        <ele>-33.799999237061</ele>
        <time>2022-08-07T07:59:03.000Z</time>
      </trkpt>
      <trkpt lat="47.33404" lon="-2.39968">
        <ele>-33.799999237061</ele>
        <time>2022-08-07T07:59:08.000Z</time>
      </trkpt>
      <trkpt lat="47.33412" lon="-2.39954">
        <ele>-34.200000762939</ele>
        <time>2022-08-07T07:59:10.000Z</time>
      </trkpt>
      <trkpt lat="47.33417" lon="-2.39947">
        <ele>-34.599998474121</ele>
        <time>2022-08-07T07:59:11.000Z</time>
      </trkpt>
      <trkpt lat="47.33422" lon="-2.39939">
        <ele>-35</ele>
        <time>2022-08-07T07:59:12.000Z</time>
      </trkpt>
      <trkpt lat="47.33426" lon="-2.39933">
        <ele>-35.599998474121</ele>
        <time>2022-08-07T07:59:13.000Z</time>
      </trkpt>
      <trkpt lat="47.33431" lon="-2.39926">
        <ele>-36</ele>
        <time>2022-08-07T07:59:14.000Z</time>
      </trkpt>
      <trkpt lat="47.33451" lon="-2.39897">
        <ele>-36</ele>
        <time>2022-08-07T07:59:19.000Z</time>
      </trkpt>
      <trkpt lat="47.33467" lon="-2.39876">
        <ele>-36.400001525879</ele>
        <time>2022-08-07T07:59:22.000Z</time>
      </trkpt>
      <trkpt lat="47.33472" lon="-2.39869">
        <ele>-36.799999237061</ele>
        <time>2022-08-07T07:59:23.000Z</time>
      </trkpt>
      <trkpt lat="47.33478" lon="-2.39862">
        <ele>-37.200000762939</ele>
        <time>2022-08-07T07:59:24.000Z</time>
      </trkpt>
      <trkpt lat="47.33483" lon="-2.39854">
        <ele>-37.599998474121</ele>
        <time>2022-08-07T07:59:25.000Z</time>
      </trkpt>
      <trkpt lat="47.33489" lon="-2.39847">
        <ele>-38</ele>
        <time>2022-08-07T07:59:26.000Z</time>
      </trkpt>
      <trkpt lat="47.3351" lon="-2.39815">
        <ele>-38.400001525879</ele>
        <time>2022-08-07T07:59:30.000Z</time>
      </trkpt>
      <trkpt lat="47.33514" lon="-2.39807">
        <ele>-38.799999237061</ele>
        <time>2022-08-07T07:59:31.000Z</time>
      </trkpt>
      <trkpt lat="47.33519" lon="-2.39799">
        <ele>-39.200000762939</ele>
        <time>2022-08-07T07:59:32.000Z</time>
      </trkpt>
      <trkpt lat="47.33523" lon="-2.39792">
        <ele>-39.599998474121</ele>
        <time>2022-08-07T07:59:33.000Z</time>
      </trkpt>
      <trkpt lat="47.33529" lon="-2.39785">
        <ele>-40</ele>
        <time>2022-08-07T07:59:34.000Z</time>
      </trkpt>
      <trkpt lat="47.33543" lon="-2.39765">
        <ele>-40</ele>
        <time>2022-08-07T07:59:37.000Z</time>
      </trkpt>
      <trkpt lat="47.33567" lon="-2.39741">
        <ele>-40</ele>
        <time>2022-08-07T07:59:42.000Z</time>
      </trkpt>
      <trkpt lat="47.33577" lon="-2.39731">
        <ele>-40</ele>
        <time>2022-08-07T07:59:44.000Z</time>
      </trkpt>
      <trkpt lat="47.3359" lon="-2.39711">
        <ele>-40</ele>
        <time>2022-08-07T07:59:47.000Z</time>
      </trkpt>
      <trkpt lat="47.33601" lon="-2.39691">
        <ele>-40</ele>
        <time>2022-08-07T07:59:50.000Z</time>
      </trkpt>
      <trkpt lat="47.3361" lon="-2.39677">
        <ele>-40</ele>
        <time>2022-08-07T07:59:52.000Z</time>
      </trkpt>
      <trkpt lat="47.33617" lon="-2.39665">
        <ele>-40</ele>
        <time>2022-08-07T07:59:54.000Z</time>
      </trkpt>
      <trkpt lat="47.3362" lon="-2.3966">
        <ele>-40.599998474121</ele>
        <time>2022-08-07T07:59:55.000Z</time>
      </trkpt>
      <trkpt lat="47.33624" lon="-2.39654">
        <ele>-41</ele>
        <time>2022-08-07T07:59:56.000Z</time>
      </trkpt>
      <trkpt lat="47.33628" lon="-2.39647">
        <ele>-41.400001525879</ele>
        <time>2022-08-07T07:59:57.000Z</time>
      </trkpt>
      <trkpt lat="47.33631" lon="-2.39641">
        <ele>-41.799999237061</ele>
        <time>2022-08-07T07:59:58.000Z</time>
      </trkpt>
      <trkpt lat="47.33634" lon="-2.39634">
        <ele>-42.200000762939</ele>
        <time>2022-08-07T07:59:59.000Z</time>
      </trkpt>
      <trkpt lat="47.33644" lon="-2.39608">
        <ele>-42.200000762939</ele>
        <time>2022-08-07T08:00:03.000Z</time>
      </trkpt>
      <trkpt lat="47.33651" lon="-2.39587">
        <ele>-41.799999237061</ele>
        <time>2022-08-07T08:00:06.000Z</time>
      </trkpt>
      <trkpt lat="47.33654" lon="-2.39581">
        <ele>-41.400001525879</ele>
        <time>2022-08-07T08:00:07.000Z</time>
      </trkpt>
      <trkpt lat="47.33657" lon="-2.39574">
        <ele>-41</ele>
        <time>2022-08-07T08:00:08.000Z</time>
      </trkpt>
      <trkpt lat="47.33659" lon="-2.39567">
        <ele>-40.200000762939</ele>
        <time>2022-08-07T08:00:09.000Z</time>
      </trkpt>
      <trkpt lat="47.33664" lon="-2.39554">
        <ele>-40.200000762939</ele>
        <time>2022-08-07T08:00:11.000Z</time>
      </trkpt>
      <trkpt lat="47.33679" lon="-2.39515">
        <ele>-40.200000762939</ele>
        <time>2022-08-07T08:00:17.000Z</time>
      </trkpt>
      <trkpt lat="47.33681" lon="-2.39508">
        <ele>-39.799999237061</ele>
        <time>2022-08-07T08:00:18.000Z</time>
      </trkpt>
      <trkpt lat="47.33683" lon="-2.39501">
        <ele>-39.400001525879</ele>
        <time>2022-08-07T08:00:19.000Z</time>
      </trkpt>
      <trkpt lat="47.33685" lon="-2.39495">
        <ele>-39</ele>
        <time>2022-08-07T08:00:20.000Z</time>
      </trkpt>
      <trkpt lat="47.33687" lon="-2.39488">
        <ele>-38.599998474121</ele>
        <time>2022-08-07T08:00:21.000Z</time>
      </trkpt>
      <trkpt lat="47.33688" lon="-2.39482">
        <ele>-38.200000762939</ele>
        <time>2022-08-07T08:00:22.000Z</time>
      </trkpt>
      <trkpt lat="47.3369" lon="-2.39476">
        <ele>-38.200000762939</ele>
        <time>2022-08-07T08:00:23.000Z</time>
      </trkpt>
      <trkpt lat="47.33698" lon="-2.39443">
        <ele>-38.200000762939</ele>
        <time>2022-08-07T08:00:28.000Z</time>
      </trkpt>
      <trkpt lat="47.337" lon="-2.39429">
        <ele>-38.200000762939</ele>
        <time>2022-08-07T08:00:30.000Z</time>
      </trkpt>
      <trkpt lat="47.33704" lon="-2.39395">
        <ele>-38.200000762939</ele>
        <time>2022-08-07T08:00:35.000Z</time>
      </trkpt>
      <trkpt lat="47.33706" lon="-2.39382">
        <ele>-38.200000762939</ele>
        <time>2022-08-07T08:00:37.000Z</time>
      </trkpt>
      <trkpt lat="47.3371" lon="-2.39341">
        <ele>-38.200000762939</ele>
        <time>2022-08-07T08:00:43.000Z</time>
      </trkpt>
      <trkpt lat="47.33709" lon="-2.39334">
        <ele>-38.200000762939</ele>
        <time>2022-08-07T08:00:44.000Z</time>
      </trkpt>
      <trkpt lat="47.33708" lon="-2.39317">
        <ele>-38.200000762939</ele>
        <time>2022-08-07T08:00:47.000Z</time>
      </trkpt>
      <trkpt lat="47.33709" lon="-2.39305">
        <ele>-38.200000762939</ele>
        <time>2022-08-07T08:00:51.000Z</time>
      </trkpt>
      <trkpt lat="47.3371" lon="-2.39303">
        <ele>-38.599998474121</ele>
        <time>2022-08-07T08:00:52.000Z</time>
      </trkpt>
      <trkpt lat="47.33712" lon="-2.39303">
        <ele>-39</ele>
        <time>2022-08-07T08:00:53.000Z</time>
      </trkpt>
      <trkpt lat="47.33714" lon="-2.39304">
        <ele>-39.400001525879</ele>
        <time>2022-08-07T08:00:54.000Z</time>
      </trkpt>
      <trkpt lat="47.33716" lon="-2.39304">
        <ele>-39.799999237061</ele>
        <time>2022-08-07T08:00:55.000Z</time>
      </trkpt>
      <trkpt lat="47.33719" lon="-2.39304">
        <ele>-40.200000762939</ele>
        <time>2022-08-07T08:00:56.000Z</time>
      </trkpt>
      <trkpt lat="47.33721" lon="-2.39304">
        <ele>-40.200000762939</ele>
        <time>2022-08-07T08:00:57.000Z</time>
      </trkpt>
      <trkpt lat="47.33728" lon="-2.39304">
        <ele>-40.200000762939</ele>
        <time>2022-08-07T08:01:01.000Z</time>
      </trkpt>
      <trkpt lat="47.33742" lon="-2.39303">
        <ele>-40.200000762939</ele>
        <time>2022-08-07T08:01:07.000Z</time>
      </trkpt>
      <trkpt lat="47.33762" lon="-2.39302">
        <ele>-40.200000762939</ele>
        <time>2022-08-07T08:01:13.000Z</time>
      </trkpt>
      <trkpt lat="47.33766" lon="-2.39301">
        <ele>-40.200000762939</ele>
        <time>2022-08-07T08:01:14.000Z</time>
      </trkpt>
      <trkpt lat="47.33787" lon="-2.39296">
        <ele>-40.200000762939</ele>
        <time>2022-08-07T08:01:18.000Z</time>
      </trkpt>
      <trkpt lat="47.33804" lon="-2.39292">
        <ele>-41</ele>
        <time>2022-08-07T08:01:21.000Z</time>
      </trkpt>
      <trkpt lat="47.3381" lon="-2.39292">
        <ele>-41.400001525879</ele>
        <time>2022-08-07T08:01:22.000Z</time>
      </trkpt>
      <trkpt lat="47.33816" lon="-2.39291">
        <ele>-41.799999237061</ele>
        <time>2022-08-07T08:01:23.000Z</time>
      </trkpt>
      <trkpt lat="47.33821" lon="-2.3929">
        <ele>-42.200000762939</ele>
        <time>2022-08-07T08:01:24.000Z</time>
      </trkpt>
      <trkpt lat="47.33827" lon="-2.39289">
        <ele>-42.200000762939</ele>
        <time>2022-08-07T08:01:25.000Z</time>
      </trkpt>
      <trkpt lat="47.33871" lon="-2.39283">
        <ele>-42.200000762939</ele>
        <time>2022-08-07T08:01:32.000Z</time>
      </trkpt>
      <trkpt lat="47.33904" lon="-2.39276">
        <ele>-42.200000762939</ele>
        <time>2022-08-07T08:01:38.000Z</time>
      </trkpt>
      <trkpt lat="47.33933" lon="-2.3927">
        <ele>-42.599998474121</ele>
        <time>2022-08-07T08:01:43.000Z</time>
      </trkpt>
      <trkpt lat="47.33939" lon="-2.39269">
        <ele>-43</ele>
        <time>2022-08-07T08:01:44.000Z</time>
      </trkpt>
      <trkpt lat="47.33945" lon="-2.39268">
        <ele>-43.599998474121</ele>
        <time>2022-08-07T08:01:45.000Z</time>
      </trkpt>
      <trkpt lat="47.33951" lon="-2.39267">
        <ele>-44.400001525879</ele>
        <time>2022-08-07T08:01:46.000Z</time>
      </trkpt>
      <trkpt lat="47.33985" lon="-2.39261">
        <ele>-44.400001525879</ele>
        <time>2022-08-07T08:01:51.000Z</time>
      </trkpt>
      <trkpt lat="47.34031" lon="-2.39253">
        <ele>-44.400001525879</ele>
        <time>2022-08-07T08:01:58.000Z</time>
      </trkpt>
      <trkpt lat="47.34044" lon="-2.39254">
        <ele>-44.799999237061</ele>
        <time>2022-08-07T08:02:00.000Z</time>
      </trkpt>
      <trkpt lat="47.34049" lon="-2.39255">
        <ele>-45.200000762939</ele>
        <time>2022-08-07T08:02:01.000Z</time>
      </trkpt>
      <trkpt lat="47.34055" lon="-2.39255">
        <ele>-45.799999237061</ele>
        <time>2022-08-07T08:02:02.000Z</time>
      </trkpt>
      <trkpt lat="47.34059" lon="-2.39259">
        <ele>-46.200000762939</ele>
        <time>2022-08-07T08:02:03.000Z</time>
      </trkpt>
      <trkpt lat="47.34062" lon="-2.39263">
        <ele>-46.599998474121</ele>
        <time>2022-08-07T08:02:04.000Z</time>
      </trkpt>
      <trkpt lat="47.34066" lon="-2.39272">
        <ele>-46.599998474121</ele>
        <time>2022-08-07T08:02:06.000Z</time>
      </trkpt>
      <trkpt lat="47.34068" lon="-2.39282">
        <ele>-46.599998474121</ele>
        <time>2022-08-07T08:02:08.000Z</time>
      </trkpt>
      <trkpt lat="47.34069" lon="-2.3929">
        <ele>-46.599998474121</ele>
        <time>2022-08-07T08:02:09.000Z</time>
      </trkpt>
      <trkpt lat="47.3407" lon="-2.39298">
        <ele>-46.599998474121</ele>
        <time>2022-08-07T08:02:10.000Z</time>
      </trkpt>
      <trkpt lat="47.34072" lon="-2.39305">
        <ele>-46.599998474121</ele>
        <time>2022-08-07T08:02:11.000Z</time>
      </trkpt>
      <trkpt lat="47.34078" lon="-2.39337">
        <ele>-46.599998474121</ele>
        <time>2022-08-07T08:02:15.000Z</time>
      </trkpt>
      <trkpt lat="47.34086" lon="-2.39391">
        <ele>-46.599998474121</ele>
        <time>2022-08-07T08:02:22.000Z</time>
      </trkpt>
      <trkpt lat="47.34091" lon="-2.39415">
        <ele>-46.599998474121</ele>
        <time>2022-08-07T08:02:25.000Z</time>
      </trkpt>
      <trkpt lat="47.34099" lon="-2.39424">
        <ele>-46.599998474121</ele>
        <time>2022-08-07T08:02:27.000Z</time>
      </trkpt>
      <trkpt lat="47.34114" lon="-2.39418">
        <ele>-46.599998474121</ele>
        <time>2022-08-07T08:02:30.000Z</time>
      </trkpt>
      <trkpt lat="47.34119" lon="-2.39416">
        <ele>-46.599998474121</ele>
        <time>2022-08-07T08:02:31.000Z</time>
      </trkpt>
      <trkpt lat="47.34146" lon="-2.39402">
        <ele>-46.599998474121</ele>
        <time>2022-08-07T08:02:36.000Z</time>
      </trkpt>
      <trkpt lat="47.34165" lon="-2.3939">
        <ele>-46.599998474121</ele>
        <time>2022-08-07T08:02:40.000Z</time>
      </trkpt>
      <trkpt lat="47.34195" lon="-2.39372">
        <ele>-46.599998474121</ele>
        <time>2022-08-07T08:02:46.000Z</time>
      </trkpt>
      <trkpt lat="47.34233" lon="-2.39347">
        <ele>-46.599998474121</ele>
        <time>2022-08-07T08:02:53.000Z</time>
      </trkpt>
      <trkpt lat="47.34275" lon="-2.39319">
        <ele>-46.599998474121</ele>
        <time>2022-08-07T08:03:00.000Z</time>
      </trkpt>
      <trkpt lat="47.34312" lon="-2.39302">
        <ele>-46.599998474121</ele>
        <time>2022-08-07T08:03:06.000Z</time>
      </trkpt>
      <trkpt lat="47.34341" lon="-2.39287">
        <ele>-47</ele>
        <time>2022-08-07T08:03:11.000Z</time>
      </trkpt>
      <trkpt lat="47.34347" lon="-2.39283">
        <ele>-47.400001525879</ele>
        <time>2022-08-07T08:03:12.000Z</time>
      </trkpt>
      <trkpt lat="47.34353" lon="-2.3928">
        <ele>-48</ele>
        <time>2022-08-07T08:03:13.000Z</time>
      </trkpt>
      <trkpt lat="47.34359" lon="-2.39277">
        <ele>-48.400001525879</ele>
        <time>2022-08-07T08:03:14.000Z</time>
      </trkpt>
      <trkpt lat="47.34366" lon="-2.39274">
        <ele>-48.799999237061</ele>
        <time>2022-08-07T08:03:15.000Z</time>
      </trkpt>
      <trkpt lat="47.34386" lon="-2.39264">
        <ele>-49.200000762939</ele>
        <time>2022-08-07T08:03:18.000Z</time>
      </trkpt>
      <trkpt lat="47.34393" lon="-2.39261">
        <ele>-49.599998474121</ele>
        <time>2022-08-07T08:03:19.000Z</time>
      </trkpt>
      <trkpt lat="47.34401" lon="-2.39258">
        <ele>-50</ele>
        <time>2022-08-07T08:03:20.000Z</time>
      </trkpt>
      <trkpt lat="47.34408" lon="-2.39256">
        <ele>-50.400001525879</ele>
        <time>2022-08-07T08:03:21.000Z</time>
      </trkpt>
      <trkpt lat="47.34415" lon="-2.39253">
        <ele>-50.799999237061</ele>
        <time>2022-08-07T08:03:22.000Z</time>
      </trkpt>
      <trkpt lat="47.34422" lon="-2.39251">
        <ele>-51.200000762939</ele>
        <time>2022-08-07T08:03:23.000Z</time>
      </trkpt>
      <trkpt lat="47.3443" lon="-2.39249">
        <ele>-52</ele>
        <time>2022-08-07T08:03:24.000Z</time>
      </trkpt>
      <trkpt lat="47.34438" lon="-2.39247">
        <ele>-52.400001525879</ele>
        <time>2022-08-07T08:03:25.000Z</time>
      </trkpt>
      <trkpt lat="47.34445" lon="-2.39245">
        <ele>-52.799999237061</ele>
        <time>2022-08-07T08:03:26.000Z</time>
      </trkpt>
      <trkpt lat="47.3446" lon="-2.39241">
        <ele>-53.200000762939</ele>
        <time>2022-08-07T08:03:28.000Z</time>
      </trkpt>
      <trkpt lat="47.34468" lon="-2.39239">
        <ele>-53.599998474121</ele>
        <time>2022-08-07T08:03:29.000Z</time>
      </trkpt>
      <trkpt lat="47.34475" lon="-2.39236">
        <ele>-54.200000762939</ele>
        <time>2022-08-07T08:03:30.000Z</time>
      </trkpt>
      <trkpt lat="47.34483" lon="-2.39234">
        <ele>-54.599998474121</ele>
        <time>2022-08-07T08:03:31.000Z</time>
      </trkpt>
      <trkpt lat="47.3449" lon="-2.39232">
        <ele>-55</ele>
        <time>2022-08-07T08:03:32.000Z</time>
      </trkpt>
      <trkpt lat="47.34505" lon="-2.39228">
        <ele>-55.400001525879</ele>
        <time>2022-08-07T08:03:34.000Z</time>
      </trkpt>
      <trkpt lat="47.34513" lon="-2.39227">
        <ele>-55.799999237061</ele>
        <time>2022-08-07T08:03:35.000Z</time>
      </trkpt>
      <trkpt lat="47.34521" lon="-2.39227">
        <ele>-56.200000762939</ele>
        <time>2022-08-07T08:03:36.000Z</time>
      </trkpt>
      <trkpt lat="47.34529" lon="-2.39227">
        <ele>-56.599998474121</ele>
        <time>2022-08-07T08:03:37.000Z</time>
      </trkpt>
      <trkpt lat="47.34537" lon="-2.39228">
        <ele>-57</ele>
        <time>2022-08-07T08:03:38.000Z</time>
      </trkpt>
      <trkpt lat="47.34561" lon="-2.39233">
        <ele>-57.400001525879</ele>
        <time>2022-08-07T08:03:41.000Z</time>
      </trkpt>
      <trkpt lat="47.34569" lon="-2.39236">
        <ele>-57.799999237061</ele>
        <time>2022-08-07T08:03:42.000Z</time>
      </trkpt>
      <trkpt lat="47.34576" lon="-2.3924">
        <ele>-58.200000762939</ele>
        <time>2022-08-07T08:03:43.000Z</time>
      </trkpt>
      <trkpt lat="47.34584" lon="-2.39244">
        <ele>-58.599998474121</ele>
        <time>2022-08-07T08:03:44.000Z</time>
      </trkpt>
      <trkpt lat="47.34591" lon="-2.39248">
        <ele>-59</ele>
        <time>2022-08-07T08:03:45.000Z</time>
      </trkpt>
      <trkpt lat="47.34611" lon="-2.39261">
        <ele>-59</ele>
        <time>2022-08-07T08:03:48.000Z</time>
      </trkpt>
      <trkpt lat="47.34645" lon="-2.39289">
        <ele>-59</ele>
        <time>2022-08-07T08:03:54.000Z</time>
      </trkpt>
      <trkpt lat="47.34657" lon="-2.39305">
        <ele>-59</ele>
        <time>2022-08-07T08:03:57.000Z</time>
      </trkpt>
      <trkpt lat="47.34659" lon="-2.39311">
        <ele>-59</ele>
        <time>2022-08-07T08:03:58.000Z</time>
      </trkpt>
      <trkpt lat="47.34655" lon="-2.39327">
        <ele>-59</ele>
        <time>2022-08-07T08:04:01.000Z</time>
      </trkpt>
      <trkpt lat="47.34648" lon="-2.39336">
        <ele>-59</ele>
        <time>2022-08-07T08:04:03.000Z</time>
      </trkpt>
      <trkpt lat="47.34641" lon="-2.39347">
        <ele>-59</ele>
        <time>2022-08-07T08:04:05.000Z</time>
      </trkpt>
      <trkpt lat="47.34637" lon="-2.39353">
        <ele>-59</ele>
        <time>2022-08-07T08:04:06.000Z</time>
      </trkpt>
      <trkpt lat="47.34613" lon="-2.39392">
        <ele>-59</ele>
        <time>2022-08-07T08:04:13.000Z</time>
      </trkpt>
      <trkpt lat="47.34597" lon="-2.3942">
        <ele>-58.599998474121</ele>
        <time>2022-08-07T08:04:18.000Z</time>
      </trkpt>
      <trkpt lat="47.34593" lon="-2.39425">
        <ele>-58.200000762939</ele>
        <time>2022-08-07T08:04:19.000Z</time>
      </trkpt>
      <trkpt lat="47.34589" lon="-2.3943">
        <ele>-57.799999237061</ele>
        <time>2022-08-07T08:04:20.000Z</time>
      </trkpt>
      <trkpt lat="47.34585" lon="-2.39436">
        <ele>-57.200000762939</ele>
        <time>2022-08-07T08:04:21.000Z</time>
      </trkpt>
      <trkpt lat="47.34581" lon="-2.39441">
        <ele>-56.799999237061</ele>
        <time>2022-08-07T08:04:22.000Z</time>
      </trkpt>
      <trkpt lat="47.34576" lon="-2.39445">
        <ele>-56.799999237061</ele>
        <time>2022-08-07T08:04:23.000Z</time>
      </trkpt>
      <trkpt lat="47.34564" lon="-2.39458">
        <ele>-56.799999237061</ele>
        <time>2022-08-07T08:04:26.000Z</time>
      </trkpt>
      <trkpt lat="47.34557" lon="-2.39468">
        <ele>-56.799999237061</ele>
        <time>2022-08-07T08:04:28.000Z</time>
      </trkpt>
      <trkpt lat="47.34554" lon="-2.39479">
        <ele>-56.799999237061</ele>
        <time>2022-08-07T08:04:30.000Z</time>
      </trkpt>
      <trkpt lat="47.34551" lon="-2.39504">
        <ele>-56.799999237061</ele>
        <time>2022-08-07T08:04:34.000Z</time>
      </trkpt>
      <trkpt lat="47.34549" lon="-2.3951">
        <ele>-56.799999237061</ele>
        <time>2022-08-07T08:04:35.000Z</time>
      </trkpt>
      <trkpt lat="47.34546" lon="-2.39531">
        <ele>-56</ele>
        <time>2022-08-07T08:04:38.000Z</time>
      </trkpt>
      <trkpt lat="47.34544" lon="-2.39537">
        <ele>-55.599998474121</ele>
        <time>2022-08-07T08:04:39.000Z</time>
      </trkpt>
      <trkpt lat="47.34543" lon="-2.39542">
        <ele>-55.200000762939</ele>
        <time>2022-08-07T08:04:40.000Z</time>
      </trkpt>
      <trkpt lat="47.3454" lon="-2.39549">
        <ele>-54.799999237061</ele>
        <time>2022-08-07T08:04:41.000Z</time>
      </trkpt>
      <trkpt lat="47.34534" lon="-2.39568">
        <ele>-54.799999237061</ele>
        <time>2022-08-07T08:04:44.000Z</time>
      </trkpt>
      <trkpt lat="47.3452" lon="-2.396">
        <ele>-54.799999237061</ele>
        <time>2022-08-07T08:04:49.000Z</time>
      </trkpt>
      <trkpt lat="47.34504" lon="-2.39638">
        <ele>-54.799999237061</ele>
        <time>2022-08-07T08:04:55.000Z</time>
      </trkpt>
      <trkpt lat="47.34487" lon="-2.39671">
        <ele>-54.799999237061</ele>
        <time>2022-08-07T08:05:00.000Z</time>
      </trkpt>
      <trkpt lat="47.3448" lon="-2.39685">
        <ele>-54.799999237061</ele>
        <time>2022-08-07T08:05:02.000Z</time>
      </trkpt>
      <trkpt lat="47.34474" lon="-2.39709">
        <ele>-54.799999237061</ele>
        <time>2022-08-07T08:05:05.000Z</time>
      </trkpt>
      <trkpt lat="47.34472" lon="-2.39729">
        <ele>-54.799999237061</ele>
        <time>2022-08-07T08:05:07.000Z</time>
      </trkpt>
      <trkpt lat="47.3447" lon="-2.39746">
        <ele>-54.799999237061</ele>
        <time>2022-08-07T08:05:09.000Z</time>
      </trkpt>
      <trkpt lat="47.34472" lon="-2.39761">
        <ele>-54.799999237061</ele>
        <time>2022-08-07T08:05:11.000Z</time>
      </trkpt>
      <trkpt lat="47.34476" lon="-2.39764">
        <ele>-54.799999237061</ele>
        <time>2022-08-07T08:05:12.000Z</time>
      </trkpt>
      <trkpt lat="47.34489" lon="-2.3977">
        <ele>-54.799999237061</ele>
        <time>2022-08-07T08:05:15.000Z</time>
      </trkpt>
      <trkpt lat="47.34494" lon="-2.39772">
        <ele>-54.799999237061</ele>
        <time>2022-08-07T08:05:16.000Z</time>
      </trkpt>
      <trkpt lat="47.34512" lon="-2.39781">
        <ele>-54.799999237061</ele>
        <time>2022-08-07T08:05:20.000Z</time>
      </trkpt>
      <trkpt lat="47.34521" lon="-2.39788">
        <ele>-54.799999237061</ele>
        <time>2022-08-07T08:05:22.000Z</time>
      </trkpt>
      <trkpt lat="47.3455" lon="-2.39817">
        <ele>-54.799999237061</ele>
        <time>2022-08-07T08:05:29.000Z</time>
      </trkpt>
      <trkpt lat="47.34579" lon="-2.39844">
        <ele>-54.799999237061</ele>
        <time>2022-08-07T08:05:36.000Z</time>
      </trkpt>
      <trkpt lat="47.34607" lon="-2.39858">
        <ele>-54.799999237061</ele>
        <time>2022-08-07T08:05:42.000Z</time>
      </trkpt>
      <trkpt lat="47.34614" lon="-2.39871">
        <ele>-54.799999237061</ele>
        <time>2022-08-07T08:05:45.000Z</time>
      </trkpt>
      <trkpt lat="47.34613" lon="-2.39877">
        <ele>-55.200000762939</ele>
        <time>2022-08-07T08:05:46.000Z</time>
      </trkpt>
      <trkpt lat="47.34612" lon="-2.39883">
        <ele>-55.599998474121</ele>
        <time>2022-08-07T08:05:47.000Z</time>
      </trkpt>
      <trkpt lat="47.34609" lon="-2.39888">
        <ele>-56</ele>
        <time>2022-08-07T08:05:48.000Z</time>
      </trkpt>
      <trkpt lat="47.34607" lon="-2.39894">
        <ele>-56.400001525879</ele>
        <time>2022-08-07T08:05:49.000Z</time>
      </trkpt>
      <trkpt lat="47.34605" lon="-2.399">
        <ele>-56.799999237061</ele>
        <time>2022-08-07T08:05:50.000Z</time>
      </trkpt>
      <trkpt lat="47.34597" lon="-2.39927">
        <ele>-56.799999237061</ele>
        <time>2022-08-07T08:05:55.000Z</time>
      </trkpt>
      <trkpt lat="47.34591" lon="-2.3996">
        <ele>-56.799999237061</ele>
        <time>2022-08-07T08:06:01.000Z</time>
      </trkpt>
      <trkpt lat="47.34591" lon="-2.39965">
        <ele>-56.400001525879</ele>
        <time>2022-08-07T08:06:02.000Z</time>
      </trkpt>
      <trkpt lat="47.3459" lon="-2.3997">
        <ele>-56</ele>
        <time>2022-08-07T08:06:03.000Z</time>
      </trkpt>
      <trkpt lat="47.34589" lon="-2.39976">
        <ele>-55.400001525879</ele>
        <time>2022-08-07T08:06:04.000Z</time>
      </trkpt>
      <trkpt lat="47.34587" lon="-2.39982">
        <ele>-55</ele>
        <time>2022-08-07T08:06:05.000Z</time>
      </trkpt>
      <trkpt lat="47.34587" lon="-2.39989">
        <ele>-54.599998474121</ele>
        <time>2022-08-07T08:06:06.000Z</time>
      </trkpt>
      <trkpt lat="47.34589" lon="-2.39995">
        <ele>-54.599998474121</ele>
        <time>2022-08-07T08:06:07.000Z</time>
      </trkpt>
      <trkpt lat="47.346" lon="-2.40017">
        <ele>-54.599998474121</ele>
        <time>2022-08-07T08:06:11.000Z</time>
      </trkpt>
      <trkpt lat="47.34622" lon="-2.40053">
        <ele>-54.599998474121</ele>
        <time>2022-08-07T08:06:17.000Z</time>
      </trkpt>
      <trkpt lat="47.34635" lon="-2.40073">
        <ele>-54.599998474121</ele>
        <time>2022-08-07T08:06:20.000Z</time>
      </trkpt>
      <trkpt lat="47.34646" lon="-2.40093">
        <ele>-54.599998474121</ele>
        <time>2022-08-07T08:06:23.000Z</time>
      </trkpt>
      <trkpt lat="47.34651" lon="-2.40099">
        <ele>-55</ele>
        <time>2022-08-07T08:06:24.000Z</time>
      </trkpt>
      <trkpt lat="47.34656" lon="-2.40105">
        <ele>-55.400001525879</ele>
        <time>2022-08-07T08:06:25.000Z</time>
      </trkpt>
      <trkpt lat="47.34661" lon="-2.40111">
        <ele>-55.799999237061</ele>
        <time>2022-08-07T08:06:26.000Z</time>
      </trkpt>
      <trkpt lat="47.34667" lon="-2.40115">
        <ele>-56.200000762939</ele>
        <time>2022-08-07T08:06:27.000Z</time>
      </trkpt>
      <trkpt lat="47.34673" lon="-2.4012">
        <ele>-56.599998474121</ele>
        <time>2022-08-07T08:06:28.000Z</time>
      </trkpt>
      <trkpt lat="47.34696" lon="-2.40126">
        <ele>-56.599998474121</ele>
        <time>2022-08-07T08:06:32.000Z</time>
      </trkpt>
      <trkpt lat="47.34702" lon="-2.40128">
        <ele>-56.599998474121</ele>
        <time>2022-08-07T08:06:33.000Z</time>
      </trkpt>
      <trkpt lat="47.34719" lon="-2.40132">
        <ele>-56.599998474121</ele>
        <time>2022-08-07T08:06:36.000Z</time>
      </trkpt>
      <trkpt lat="47.34729" lon="-2.4014">
        <ele>-56.599998474121</ele>
        <time>2022-08-07T08:06:38.000Z</time>
      </trkpt>
      <trkpt lat="47.34742" lon="-2.40157">
        <ele>-56.599998474121</ele>
        <time>2022-08-07T08:06:41.000Z</time>
      </trkpt>
      <trkpt lat="47.34746" lon="-2.40163">
        <ele>-56.599998474121</ele>
        <time>2022-08-07T08:06:42.000Z</time>
      </trkpt>
      <trkpt lat="47.34776" lon="-2.40205">
        <ele>-56.599998474121</ele>
        <time>2022-08-07T08:06:50.000Z</time>
      </trkpt>
      <trkpt lat="47.34795" lon="-2.40218">
        <ele>-56.599998474121</ele>
        <time>2022-08-07T08:06:54.000Z</time>
      </trkpt>
      <trkpt lat="47.34799" lon="-2.40224">
        <ele>-57</ele>
        <time>2022-08-07T08:06:55.000Z</time>
      </trkpt>
      <trkpt lat="47.34803" lon="-2.40231">
        <ele>-57.400001525879</ele>
        <time>2022-08-07T08:06:56.000Z</time>
      </trkpt>
      <trkpt lat="47.34807" lon="-2.40239">
        <ele>-57.799999237061</ele>
        <time>2022-08-07T08:06:57.000Z</time>
      </trkpt>
      <trkpt lat="47.34811" lon="-2.40247">
        <ele>-58.200000762939</ele>
        <time>2022-08-07T08:06:58.000Z</time>
      </trkpt>
      <trkpt lat="47.34814" lon="-2.40255">
        <ele>-58.599998474121</ele>
        <time>2022-08-07T08:06:59.000Z</time>
      </trkpt>
      <trkpt lat="47.34833" lon="-2.4029">
        <ele>-58.599998474121</ele>
        <time>2022-08-07T08:07:04.000Z</time>
      </trkpt>
      <trkpt lat="47.34843" lon="-2.4031">
        <ele>-59</ele>
        <time>2022-08-07T08:07:07.000Z</time>
      </trkpt>
      <trkpt lat="47.34847" lon="-2.40318">
        <ele>-59.400001525879</ele>
        <time>2022-08-07T08:07:08.000Z</time>
      </trkpt>
      <trkpt lat="47.3485" lon="-2.40326">
        <ele>-60</ele>
        <time>2022-08-07T08:07:09.000Z</time>
      </trkpt>
      <trkpt lat="47.34853" lon="-2.40334">
        <ele>-60.400001525879</ele>
        <time>2022-08-07T08:07:10.000Z</time>
      </trkpt>
      <trkpt lat="47.34855" lon="-2.40344">
        <ele>-60.799999237061</ele>
        <time>2022-08-07T08:07:11.000Z</time>
      </trkpt>
      <trkpt lat="47.34859" lon="-2.40364">
        <ele>-60.799999237061</ele>
        <time>2022-08-07T08:07:13.000Z</time>
      </trkpt>
      <trkpt lat="47.34868" lon="-2.40422">
        <ele>-60.799999237061</ele>
        <time>2022-08-07T08:07:19.000Z</time>
      </trkpt>
      <trkpt lat="47.34874" lon="-2.40459">
        <ele>-61.200000762939</ele>
        <time>2022-08-07T08:07:23.000Z</time>
      </trkpt>
      <trkpt lat="47.34876" lon="-2.40468">
        <ele>-61.599998474121</ele>
        <time>2022-08-07T08:07:24.000Z</time>
      </trkpt>
      <trkpt lat="47.34877" lon="-2.40478">
        <ele>-62</ele>
        <time>2022-08-07T08:07:25.000Z</time>
      </trkpt>
      <trkpt lat="47.34878" lon="-2.40488">
        <ele>-62.400001525879</ele>
        <time>2022-08-07T08:07:26.000Z</time>
      </trkpt>
      <trkpt lat="47.3488" lon="-2.40498">
        <ele>-62.799999237061</ele>
        <time>2022-08-07T08:07:27.000Z</time>
      </trkpt>
      <trkpt lat="47.34885" lon="-2.40528">
        <ele>-63.400001525879</ele>
        <time>2022-08-07T08:07:30.000Z</time>
      </trkpt>
      <trkpt lat="47.34885" lon="-2.40539">
        <ele>-64.199996948242</ele>
        <time>2022-08-07T08:07:31.000Z</time>
      </trkpt>
      <trkpt lat="47.34884" lon="-2.40549">
        <ele>-64.800003051758</ele>
        <time>2022-08-07T08:07:32.000Z</time>
      </trkpt>
      <trkpt lat="47.3488" lon="-2.40558">
        <ele>-65.199996948242</ele>
        <time>2022-08-07T08:07:33.000Z</time>
      </trkpt>
      <trkpt lat="47.34875" lon="-2.40566">
        <ele>-65.199996948242</ele>
        <time>2022-08-07T08:07:34.000Z</time>
      </trkpt>
      <trkpt lat="47.34858" lon="-2.40587">
        <ele>-65.199996948242</ele>
        <time>2022-08-07T08:07:37.000Z</time>
      </trkpt>
      <trkpt lat="47.34852" lon="-2.40593">
        <ele>-65.199996948242</ele>
        <time>2022-08-07T08:07:38.000Z</time>
      </trkpt>
      <trkpt lat="47.34836" lon="-2.40616">
        <ele>-65.199996948242</ele>
        <time>2022-08-07T08:07:41.000Z</time>
      </trkpt>
      <trkpt lat="47.34831" lon="-2.40637">
        <ele>-65.199996948242</ele>
        <time>2022-08-07T08:07:43.000Z</time>
      </trkpt>
      <trkpt lat="47.3482" lon="-2.40696">
        <ele>-65.199996948242</ele>
        <time>2022-08-07T08:07:49.000Z</time>
      </trkpt>
      <trkpt lat="47.3482" lon="-2.40715">
        <ele>-65.199996948242</ele>
        <time>2022-08-07T08:07:51.000Z</time>
      </trkpt>
      <trkpt lat="47.3482" lon="-2.40724">
        <ele>-64.800003051758</ele>
        <time>2022-08-07T08:07:52.000Z</time>
      </trkpt>
      <trkpt lat="47.34821" lon="-2.40733">
        <ele>-64.400001525879</ele>
        <time>2022-08-07T08:07:53.000Z</time>
      </trkpt>
      <trkpt lat="47.34822" lon="-2.40741">
        <ele>-64</ele>
        <time>2022-08-07T08:07:54.000Z</time>
      </trkpt>
      <trkpt lat="47.34824" lon="-2.40748">
        <ele>-63.599998474121</ele>
        <time>2022-08-07T08:07:55.000Z</time>
      </trkpt>
      <trkpt lat="47.34825" lon="-2.40755">
        <ele>-63.200000762939</ele>
        <time>2022-08-07T08:07:56.000Z</time>
      </trkpt>
      <trkpt lat="47.3483" lon="-2.40768">
        <ele>-63.200000762939</ele>
        <time>2022-08-07T08:07:58.000Z</time>
      </trkpt>
      <trkpt lat="47.34845" lon="-2.40775">
        <ele>-63.200000762939</ele>
        <time>2022-08-07T08:08:01.000Z</time>
      </trkpt>
      <trkpt lat="47.3486" lon="-2.40774">
        <ele>-63.200000762939</ele>
        <time>2022-08-07T08:08:04.000Z</time>
      </trkpt>
      <trkpt lat="47.3487" lon="-2.40772">
        <ele>-63.200000762939</ele>
        <time>2022-08-07T08:08:06.000Z</time>
      </trkpt>
      <trkpt lat="47.34874" lon="-2.40773">
        <ele>-63.200000762939</ele>
        <time>2022-08-07T08:08:07.000Z</time>
      </trkpt>
      <trkpt lat="47.34889" lon="-2.40776">
        <ele>-63.200000762939</ele>
        <time>2022-08-07T08:08:11.000Z</time>
      </trkpt>
      <trkpt lat="47.34891" lon="-2.4078">
        <ele>-63.200000762939</ele>
        <time>2022-08-07T08:08:12.000Z</time>
      </trkpt>
      <trkpt lat="47.349" lon="-2.40797">
        <ele>-63.200000762939</ele>
        <time>2022-08-07T08:08:15.000Z</time>
      </trkpt>
      <trkpt lat="47.34922" lon="-2.4084">
        <ele>-63.200000762939</ele>
        <time>2022-08-07T08:08:22.000Z</time>
      </trkpt>
      <trkpt lat="47.34931" lon="-2.40873">
        <ele>-63.200000762939</ele>
        <time>2022-08-07T08:08:26.000Z</time>
      </trkpt>
      <trkpt lat="47.34931" lon="-2.40882">
        <ele>-63.200000762939</ele>
        <time>2022-08-07T08:08:27.000Z</time>
      </trkpt>
      <trkpt lat="47.34937" lon="-2.40926">
        <ele>-63.200000762939</ele>
        <time>2022-08-07T08:08:32.000Z</time>
      </trkpt>
      <trkpt lat="47.34937" lon="-2.40944">
        <ele>-63.200000762939</ele>
        <time>2022-08-07T08:08:34.000Z</time>
      </trkpt>
      <trkpt lat="47.34936" lon="-2.4097">
        <ele>-63.200000762939</ele>
        <time>2022-08-07T08:08:37.000Z</time>
      </trkpt>
      <trkpt lat="47.34934" lon="-2.40979">
        <ele>-63.200000762939</ele>
        <time>2022-08-07T08:08:38.000Z</time>
      </trkpt>
      <trkpt lat="47.34934" lon="-2.41003">
        <ele>-63.200000762939</ele>
        <time>2022-08-07T08:08:41.000Z</time>
      </trkpt>
      <trkpt lat="47.34931" lon="-2.41041">
        <ele>-63.200000762939</ele>
        <time>2022-08-07T08:08:46.000Z</time>
      </trkpt>
      <trkpt lat="47.34933" lon="-2.41049">
        <ele>-63.200000762939</ele>
        <time>2022-08-07T08:08:47.000Z</time>
      </trkpt>
      <trkpt lat="47.34941" lon="-2.41073">
        <ele>-63.200000762939</ele>
        <time>2022-08-07T08:08:50.000Z</time>
      </trkpt>
      <trkpt lat="47.34945" lon="-2.4108">
        <ele>-63.200000762939</ele>
        <time>2022-08-07T08:08:51.000Z</time>
      </trkpt>
      <trkpt lat="47.34965" lon="-2.41129">
        <ele>-63.200000762939</ele>
        <time>2022-08-07T08:08:57.000Z</time>
      </trkpt>
      <trkpt lat="47.34983" lon="-2.41168">
        <ele>-63.200000762939</ele>
        <time>2022-08-07T08:09:02.000Z</time>
      </trkpt>
      <trkpt lat="47.35001" lon="-2.41209">
        <ele>-63.200000762939</ele>
        <time>2022-08-07T08:09:08.000Z</time>
      </trkpt>
      <trkpt lat="47.35003" lon="-2.41216">
        <ele>-63.200000762939</ele>
        <time>2022-08-07T08:09:09.000Z</time>
      </trkpt>
      <trkpt lat="47.35015" lon="-2.41244">
        <ele>-63.200000762939</ele>
        <time>2022-08-07T08:09:13.000Z</time>
      </trkpt>
      <trkpt lat="47.35029" lon="-2.41281">
        <ele>-63.200000762939</ele>
        <time>2022-08-07T08:09:18.000Z</time>
      </trkpt>
      <trkpt lat="47.35045" lon="-2.41324">
        <ele>-63.200000762939</ele>
        <time>2022-08-07T08:09:24.000Z</time>
      </trkpt>
      <trkpt lat="47.3506" lon="-2.41365">
        <ele>-63.200000762939</ele>
        <time>2022-08-07T08:09:29.000Z</time>
      </trkpt>
      <trkpt lat="47.35072" lon="-2.41393">
        <ele>-63.200000762939</ele>
        <time>2022-08-07T08:09:33.000Z</time>
      </trkpt>
      <trkpt lat="47.35076" lon="-2.41398">
        <ele>-63.200000762939</ele>
        <time>2022-08-07T08:09:34.000Z</time>
      </trkpt>
      <trkpt lat="47.35086" lon="-2.41399">
        <ele>-63.200000762939</ele>
        <time>2022-08-07T08:09:36.000Z</time>
      </trkpt>
      <trkpt lat="47.35091" lon="-2.41396">
        <ele>-63.200000762939</ele>
        <time>2022-08-07T08:09:37.000Z</time>
      </trkpt>
      <trkpt lat="47.35095" lon="-2.41393">
        <ele>-63.200000762939</ele>
        <time>2022-08-07T08:09:38.000Z</time>
      </trkpt>
      <trkpt lat="47.35113" lon="-2.41382">
        <ele>-63.200000762939</ele>
        <time>2022-08-07T08:09:42.000Z</time>
      </trkpt>
      <trkpt lat="47.35119" lon="-2.41379">
        <ele>-63.200000762939</ele>
        <time>2022-08-07T08:09:43.000Z</time>
      </trkpt>
      <trkpt lat="47.35135" lon="-2.41371">
        <ele>-63.599998474121</ele>
        <time>2022-08-07T08:09:46.000Z</time>
      </trkpt>
      <trkpt lat="47.35141" lon="-2.41368">
        <ele>-64</ele>
        <time>2022-08-07T08:09:47.000Z</time>
      </trkpt>
      <trkpt lat="47.35147" lon="-2.41364">
        <ele>-64.400001525879</ele>
        <time>2022-08-07T08:09:48.000Z</time>
      </trkpt>
      <trkpt lat="47.35152" lon="-2.41361">
        <ele>-64.800003051758</ele>
        <time>2022-08-07T08:09:49.000Z</time>
      </trkpt>
      <trkpt lat="47.35159" lon="-2.41359">
        <ele>-65.400001525879</ele>
        <time>2022-08-07T08:09:50.000Z</time>
      </trkpt>
      <trkpt lat="47.35165" lon="-2.41357">
        <ele>-65.400001525879</ele>
        <time>2022-08-07T08:09:51.000Z</time>
      </trkpt>
      <trkpt lat="47.35182" lon="-2.41356">
        <ele>-65.400001525879</ele>
        <time>2022-08-07T08:09:54.000Z</time>
      </trkpt>
      <trkpt lat="47.35194" lon="-2.41367">
        <ele>-65.400001525879</ele>
        <time>2022-08-07T08:09:56.000Z</time>
      </trkpt>
      <trkpt lat="47.35203" lon="-2.41378">
        <ele>-65.400001525879</ele>
        <time>2022-08-07T08:09:58.000Z</time>
      </trkpt>
      <trkpt lat="47.35216" lon="-2.41396">
        <ele>-65.400001525879</ele>
        <time>2022-08-07T08:10:01.000Z</time>
      </trkpt>
      <trkpt lat="47.35236" lon="-2.41427">
        <ele>-65.400001525879</ele>
        <time>2022-08-07T08:10:06.000Z</time>
      </trkpt>
      <trkpt lat="47.35244" lon="-2.41438">
        <ele>-65.400001525879</ele>
        <time>2022-08-07T08:10:08.000Z</time>
      </trkpt>
      <trkpt lat="47.3526" lon="-2.41444">
        <ele>-65.400001525879</ele>
        <time>2022-08-07T08:10:11.000Z</time>
      </trkpt>
      <trkpt lat="47.35275" lon="-2.41435">
        <ele>-65.400001525879</ele>
        <time>2022-08-07T08:10:14.000Z</time>
      </trkpt>
      <trkpt lat="47.35284" lon="-2.41427">
        <ele>-65.400001525879</ele>
        <time>2022-08-07T08:10:16.000Z</time>
      </trkpt>
      <trkpt lat="47.35296" lon="-2.41411">
        <ele>-65.400001525879</ele>
        <time>2022-08-07T08:10:19.000Z</time>
      </trkpt>
      <trkpt lat="47.35304" lon="-2.41398">
        <ele>-65.400001525879</ele>
        <time>2022-08-07T08:10:21.000Z</time>
      </trkpt>
      <trkpt lat="47.35316" lon="-2.41376">
        <ele>-65.400001525879</ele>
        <time>2022-08-07T08:10:24.000Z</time>
      </trkpt>
      <trkpt lat="47.35343" lon="-2.41336">
        <ele>-65.400001525879</ele>
        <time>2022-08-07T08:10:30.000Z</time>
      </trkpt>
      <trkpt lat="47.35348" lon="-2.4133">
        <ele>-65.400001525879</ele>
        <time>2022-08-07T08:10:31.000Z</time>
      </trkpt>
      <trkpt lat="47.3537" lon="-2.41297">
        <ele>-65.400001525879</ele>
        <time>2022-08-07T08:10:36.000Z</time>
      </trkpt>
      <trkpt lat="47.35375" lon="-2.41291">
        <ele>-65.400001525879</ele>
        <time>2022-08-07T08:10:37.000Z</time>
      </trkpt>
      <trkpt lat="47.35383" lon="-2.41281">
        <ele>-65.400001525879</ele>
        <time>2022-08-07T08:10:39.000Z</time>
      </trkpt>
      <trkpt lat="47.35387" lon="-2.41277">
        <ele>-65.400001525879</ele>
        <time>2022-08-07T08:10:40.000Z</time>
      </trkpt>
      <trkpt lat="47.35405" lon="-2.41264">
        <ele>-65.400001525879</ele>
        <time>2022-08-07T08:10:44.000Z</time>
      </trkpt>
      <trkpt lat="47.35414" lon="-2.41253">
        <ele>-65.400001525879</ele>
        <time>2022-08-07T08:10:46.000Z</time>
      </trkpt>
      <trkpt lat="47.35433" lon="-2.41227">
        <ele>-65.400001525879</ele>
        <time>2022-08-07T08:10:50.000Z</time>
      </trkpt>
      <trkpt lat="47.35442" lon="-2.41214">
        <ele>-65.400001525879</ele>
        <time>2022-08-07T08:10:52.000Z</time>
      </trkpt>
      <trkpt lat="47.35456" lon="-2.41199">
        <ele>-65.400001525879</ele>
        <time>2022-08-07T08:10:55.000Z</time>
      </trkpt>
      <trkpt lat="47.35462" lon="-2.41195">
        <ele>-65.400001525879</ele>
        <time>2022-08-07T08:10:56.000Z</time>
      </trkpt>
      <trkpt lat="47.35479" lon="-2.41183">
        <ele>-65.400001525879</ele>
        <time>2022-08-07T08:10:59.000Z</time>
      </trkpt>
      <trkpt lat="47.35513" lon="-2.41157">
        <ele>-65.400001525879</ele>
        <time>2022-08-07T08:11:05.000Z</time>
      </trkpt>
      <trkpt lat="47.35541" lon="-2.41138">
        <ele>-65.400001525879</ele>
        <time>2022-08-07T08:11:10.000Z</time>
      </trkpt>
      <trkpt lat="47.35546" lon="-2.41134">
        <ele>-65.400001525879</ele>
        <time>2022-08-07T08:11:11.000Z</time>
      </trkpt>
      <trkpt lat="47.35572" lon="-2.41112">
        <ele>-65.400001525879</ele>
        <time>2022-08-07T08:11:16.000Z</time>
      </trkpt>
      <trkpt lat="47.35602" lon="-2.41079">
        <ele>-65.400001525879</ele>
        <time>2022-08-07T08:11:22.000Z</time>
      </trkpt>
      <trkpt lat="47.35607" lon="-2.41073">
        <ele>-65.400001525879</ele>
        <time>2022-08-07T08:11:23.000Z</time>
      </trkpt>
      <trkpt lat="47.35623" lon="-2.41058">
        <ele>-65.400001525879</ele>
        <time>2022-08-07T08:11:26.000Z</time>
      </trkpt>
      <trkpt lat="47.35628" lon="-2.41052">
        <ele>-65.400001525879</ele>
        <time>2022-08-07T08:11:27.000Z</time>
      </trkpt>
      <trkpt lat="47.35648" lon="-2.41027">
        <ele>-65.400001525879</ele>
        <time>2022-08-07T08:11:31.000Z</time>
      </trkpt>
      <trkpt lat="47.3567" lon="-2.40993">
        <ele>-65.400001525879</ele>
        <time>2022-08-07T08:11:36.000Z</time>
      </trkpt>
      <trkpt lat="47.3568" lon="-2.40977">
        <ele>-65.400001525879</ele>
        <time>2022-08-07T08:11:39.000Z</time>
      </trkpt>
      <trkpt lat="47.35684" lon="-2.40973">
        <ele>-65.400001525879</ele>
        <time>2022-08-07T08:11:40.000Z</time>
      </trkpt>
      <trkpt lat="47.35693" lon="-2.4096">
        <ele>-65.400001525879</ele>
        <time>2022-08-07T08:11:43.000Z</time>
      </trkpt>
      <trkpt lat="47.35697" lon="-2.40955">
        <ele>-65.800003051758</ele>
        <time>2022-08-07T08:11:44.000Z</time>
      </trkpt>
      <trkpt lat="47.357" lon="-2.4095">
        <ele>-66.199996948242</ele>
        <time>2022-08-07T08:11:45.000Z</time>
      </trkpt>
      <trkpt lat="47.35703" lon="-2.40945">
        <ele>-66.599998474121</ele>
        <time>2022-08-07T08:11:46.000Z</time>
      </trkpt>
      <trkpt lat="47.35707" lon="-2.4094">
        <ele>-67</ele>
        <time>2022-08-07T08:11:47.000Z</time>
      </trkpt>
      <trkpt lat="47.3571" lon="-2.40935">
        <ele>-67.400001525879</ele>
        <time>2022-08-07T08:11:48.000Z</time>
      </trkpt>
      <trkpt lat="47.3572" lon="-2.40919">
        <ele>-67.400001525879</ele>
        <time>2022-08-07T08:11:51.000Z</time>
      </trkpt>
      <trkpt lat="47.35724" lon="-2.40914">
        <ele>-67.400001525879</ele>
        <time>2022-08-07T08:11:52.000Z</time>
      </trkpt>
      <trkpt lat="47.3574" lon="-2.40887">
        <ele>-67.400001525879</ele>
        <time>2022-08-07T08:11:57.000Z</time>
      </trkpt>
      <trkpt lat="47.35763" lon="-2.40855">
        <ele>-67.400001525879</ele>
        <time>2022-08-07T08:12:02.000Z</time>
      </trkpt>
      <trkpt lat="47.35791" lon="-2.40816">
        <ele>-67.400001525879</ele>
        <time>2022-08-07T08:12:08.000Z</time>
      </trkpt>
      <trkpt lat="47.35795" lon="-2.40808">
        <ele>-67.400001525879</ele>
        <time>2022-08-07T08:12:09.000Z</time>
      </trkpt>
      <trkpt lat="47.35813" lon="-2.40782">
        <ele>-67.400001525879</ele>
        <time>2022-08-07T08:12:13.000Z</time>
      </trkpt>
      <trkpt lat="47.35843" lon="-2.40737">
        <ele>-67.400001525879</ele>
        <time>2022-08-07T08:12:20.000Z</time>
      </trkpt>
      <trkpt lat="47.35847" lon="-2.4073">
        <ele>-67.400001525879</ele>
        <time>2022-08-07T08:12:21.000Z</time>
      </trkpt>
      <trkpt lat="47.35851" lon="-2.40713">
        <ele>-67.400001525879</ele>
        <time>2022-08-07T08:12:23.000Z</time>
      </trkpt>
      <trkpt lat="47.35856" lon="-2.40687">
        <ele>-67.400001525879</ele>
        <time>2022-08-07T08:12:26.000Z</time>
      </trkpt>
      <trkpt lat="47.35862" lon="-2.40671">
        <ele>-67.400001525879</ele>
        <time>2022-08-07T08:12:28.000Z</time>
      </trkpt>
      <trkpt lat="47.35888" lon="-2.4062">
        <ele>-67.400001525879</ele>
        <time>2022-08-07T08:12:35.000Z</time>
      </trkpt>
      <trkpt lat="47.35893" lon="-2.40613">
        <ele>-67.400001525879</ele>
        <time>2022-08-07T08:12:36.000Z</time>
      </trkpt>
      <trkpt lat="47.3591" lon="-2.40584">
        <ele>-67.400001525879</ele>
        <time>2022-08-07T08:12:40.000Z</time>
      </trkpt>
      <trkpt lat="47.35937" lon="-2.40545">
        <ele>-67.400001525879</ele>
        <time>2022-08-07T08:12:46.000Z</time>
      </trkpt>
      <trkpt lat="47.35964" lon="-2.40506">
        <ele>-67.400001525879</ele>
        <time>2022-08-07T08:12:52.000Z</time>
      </trkpt>
      <trkpt lat="47.35993" lon="-2.4047">
        <ele>-67.400001525879</ele>
        <time>2022-08-07T08:12:58.000Z</time>
      </trkpt>
      <trkpt lat="47.36011" lon="-2.40448">
        <ele>-67.400001525879</ele>
        <time>2022-08-07T08:13:02.000Z</time>
      </trkpt>
      <trkpt lat="47.36015" lon="-2.40441">
        <ele>-67.400001525879</ele>
        <time>2022-08-07T08:13:03.000Z</time>
      </trkpt>
      <trkpt lat="47.36023" lon="-2.40408">
        <ele>-67.400001525879</ele>
        <time>2022-08-07T08:13:07.000Z</time>
      </trkpt>
      <trkpt lat="47.36024" lon="-2.40389">
        <ele>-67.400001525879</ele>
        <time>2022-08-07T08:13:09.000Z</time>
      </trkpt>
      <trkpt lat="47.36025" lon="-2.40353">
        <ele>-67.400001525879</ele>
        <time>2022-08-07T08:13:13.000Z</time>
      </trkpt>
      <trkpt lat="47.36026" lon="-2.40345">
        <ele>-67.400001525879</ele>
        <time>2022-08-07T08:13:14.000Z</time>
      </trkpt>
      <trkpt lat="47.36032" lon="-2.40328">
        <ele>-67.400001525879</ele>
        <time>2022-08-07T08:13:16.000Z</time>
      </trkpt>
      <trkpt lat="47.36035" lon="-2.4032">
        <ele>-67.400001525879</ele>
        <time>2022-08-07T08:13:17.000Z</time>
      </trkpt>
      <trkpt lat="47.36043" lon="-2.40308">
        <ele>-67.400001525879</ele>
        <time>2022-08-07T08:13:19.000Z</time>
      </trkpt>
      <trkpt lat="47.36048" lon="-2.40302">
        <ele>-67.400001525879</ele>
        <time>2022-08-07T08:13:20.000Z</time>
      </trkpt>
      <trkpt lat="47.36058" lon="-2.40292">
        <ele>-67.400001525879</ele>
        <time>2022-08-07T08:13:22.000Z</time>
      </trkpt>
      <trkpt lat="47.36063" lon="-2.40288">
        <ele>-67.400001525879</ele>
        <time>2022-08-07T08:13:23.000Z</time>
      </trkpt>
      <trkpt lat="47.36093" lon="-2.40263">
        <ele>-67.400001525879</ele>
        <time>2022-08-07T08:13:29.000Z</time>
      </trkpt>
      <trkpt lat="47.36129" lon="-2.40235">
        <ele>-67.400001525879</ele>
        <time>2022-08-07T08:13:36.000Z</time>
      </trkpt>
      <trkpt lat="47.36155" lon="-2.40214">
        <ele>-67.400001525879</ele>
        <time>2022-08-07T08:13:41.000Z</time>
      </trkpt>
      <trkpt lat="47.3616" lon="-2.4021">
        <ele>-67.400001525879</ele>
        <time>2022-08-07T08:13:42.000Z</time>
      </trkpt>
      <trkpt lat="47.36165" lon="-2.40206">
        <ele>-67.400001525879</ele>
        <time>2022-08-07T08:13:43.000Z</time>
      </trkpt>
      <trkpt lat="47.36187" lon="-2.40187">
        <ele>-67.400001525879</ele>
        <time>2022-08-07T08:13:47.000Z</time>
      </trkpt>
      <trkpt lat="47.36214" lon="-2.40161">
        <ele>-67.400001525879</ele>
        <time>2022-08-07T08:13:52.000Z</time>
      </trkpt>
      <trkpt lat="47.36233" lon="-2.40144">
        <ele>-67.400001525879</ele>
        <time>2022-08-07T08:13:56.000Z</time>
      </trkpt>
      <trkpt lat="47.36243" lon="-2.40136">
        <ele>-67.400001525879</ele>
        <time>2022-08-07T08:13:58.000Z</time>
      </trkpt>
      <trkpt lat="47.36254" lon="-2.4013">
        <ele>-67.400001525879</ele>
        <time>2022-08-07T08:14:00.000Z</time>
      </trkpt>
      <trkpt lat="47.36278" lon="-2.40121">
        <ele>-67.800003051758</ele>
        <time>2022-08-07T08:14:04.000Z</time>
      </trkpt>
      <trkpt lat="47.36284" lon="-2.40118">
        <ele>-68.199996948242</ele>
        <time>2022-08-07T08:14:05.000Z</time>
      </trkpt>
      <trkpt lat="47.3629" lon="-2.40115">
        <ele>-68.599998474121</ele>
        <time>2022-08-07T08:14:06.000Z</time>
      </trkpt>
      <trkpt lat="47.36296" lon="-2.40113">
        <ele>-69</ele>
        <time>2022-08-07T08:14:07.000Z</time>
      </trkpt>
      <trkpt lat="47.36302" lon="-2.4011">
        <ele>-69.400001525879</ele>
        <time>2022-08-07T08:14:08.000Z</time>
      </trkpt>
      <trkpt lat="47.36327" lon="-2.401">
        <ele>-69.400001525879</ele>
        <time>2022-08-07T08:14:12.000Z</time>
      </trkpt>
      <trkpt lat="47.36357" lon="-2.40085">
        <ele>-69.400001525879</ele>
        <time>2022-08-07T08:14:17.000Z</time>
      </trkpt>
      <trkpt lat="47.36395" lon="-2.40075">
        <ele>-69.400001525879</ele>
        <time>2022-08-07T08:14:23.000Z</time>
      </trkpt>
      <trkpt lat="47.36431" lon="-2.40063">
        <ele>-69.400001525879</ele>
        <time>2022-08-07T08:14:29.000Z</time>
      </trkpt>
      <trkpt lat="47.36442" lon="-2.40058">
        <ele>-69.400001525879</ele>
        <time>2022-08-07T08:14:31.000Z</time>
      </trkpt>
      <trkpt lat="47.36453" lon="-2.40052">
        <ele>-69.400001525879</ele>
        <time>2022-08-07T08:14:33.000Z</time>
      </trkpt>
      <trkpt lat="47.36465" lon="-2.40045">
        <ele>-69.400001525879</ele>
        <time>2022-08-07T08:14:35.000Z</time>
      </trkpt>
      <trkpt lat="47.36475" lon="-2.40038">
        <ele>-69.400001525879</ele>
        <time>2022-08-07T08:14:37.000Z</time>
      </trkpt>
      <trkpt lat="47.36485" lon="-2.4003">
        <ele>-69.400001525879</ele>
        <time>2022-08-07T08:14:39.000Z</time>
      </trkpt>
      <trkpt lat="47.36499" lon="-2.40016">
        <ele>-69.400001525879</ele>
        <time>2022-08-07T08:14:42.000Z</time>
      </trkpt>
      <trkpt lat="47.36519" lon="-2.39998">
        <ele>-69.400001525879</ele>
        <time>2022-08-07T08:14:46.000Z</time>
      </trkpt>
      <trkpt lat="47.36524" lon="-2.39993">
        <ele>-69.400001525879</ele>
        <time>2022-08-07T08:14:47.000Z</time>
      </trkpt>
      <trkpt lat="47.36534" lon="-2.39983">
        <ele>-69.400001525879</ele>
        <time>2022-08-07T08:14:49.000Z</time>
      </trkpt>
      <trkpt lat="47.36542" lon="-2.39973">
        <ele>-69.400001525879</ele>
        <time>2022-08-07T08:14:51.000Z</time>
      </trkpt>
      <trkpt lat="47.36552" lon="-2.39962">
        <ele>-69.800003051758</ele>
        <time>2022-08-07T08:14:53.000Z</time>
      </trkpt>
      <trkpt lat="47.36558" lon="-2.39957">
        <ele>-70.599998474121</ele>
        <time>2022-08-07T08:14:54.000Z</time>
      </trkpt>
      <trkpt lat="47.36562" lon="-2.39951">
        <ele>-71</ele>
        <time>2022-08-07T08:14:55.000Z</time>
      </trkpt>
      <trkpt lat="47.36567" lon="-2.39945">
        <ele>-71.400001525879</ele>
        <time>2022-08-07T08:14:56.000Z</time>
      </trkpt>
      <trkpt lat="47.36571" lon="-2.39939">
        <ele>-71.400001525879</ele>
        <time>2022-08-07T08:14:57.000Z</time>
      </trkpt>
      <trkpt lat="47.36583" lon="-2.3992">
        <ele>-71.400001525879</ele>
        <time>2022-08-07T08:15:00.000Z</time>
      </trkpt>
      <trkpt lat="47.36585" lon="-2.39905">
        <ele>-71.400001525879</ele>
        <time>2022-08-07T08:15:02.000Z</time>
      </trkpt>
      <trkpt lat="47.36577" lon="-2.39885">
        <ele>-71.400001525879</ele>
        <time>2022-08-07T08:15:05.000Z</time>
      </trkpt>
      <trkpt lat="47.3656" lon="-2.39865">
        <ele>-71.400001525879</ele>
        <time>2022-08-07T08:15:09.000Z</time>
      </trkpt>
      <trkpt lat="47.36537" lon="-2.39837">
        <ele>-71.400001525879</ele>
        <time>2022-08-07T08:15:14.000Z</time>
      </trkpt>
      <trkpt lat="47.36533" lon="-2.3983">
        <ele>-71.400001525879</ele>
        <time>2022-08-07T08:15:15.000Z</time>
      </trkpt>
      <trkpt lat="47.36525" lon="-2.39806">
        <ele>-71.400001525879</ele>
        <time>2022-08-07T08:15:18.000Z</time>
      </trkpt>
      <trkpt lat="47.36522" lon="-2.39798">
        <ele>-72.199996948242</ele>
        <time>2022-08-07T08:15:19.000Z</time>
      </trkpt>
      <trkpt lat="47.3652" lon="-2.39791">
        <ele>-72.599998474121</ele>
        <time>2022-08-07T08:15:20.000Z</time>
      </trkpt>
      <trkpt lat="47.36516" lon="-2.39784">
        <ele>-73</ele>
        <time>2022-08-07T08:15:21.000Z</time>
      </trkpt>
      <trkpt lat="47.36511" lon="-2.39779">
        <ele>-73.400001525879</ele>
        <time>2022-08-07T08:15:22.000Z</time>
      </trkpt>
      <trkpt lat="47.36507" lon="-2.39775">
        <ele>-73.400001525879</ele>
        <time>2022-08-07T08:15:23.000Z</time>
      </trkpt>
      <trkpt lat="47.36486" lon="-2.3976">
        <ele>-73.400001525879</ele>
        <time>2022-08-07T08:15:27.000Z</time>
      </trkpt>
      <trkpt lat="47.36473" lon="-2.39733">
        <ele>-73.400001525879</ele>
        <time>2022-08-07T08:15:31.000Z</time>
      </trkpt>
      <trkpt lat="47.36458" lon="-2.39689">
        <ele>-73.400001525879</ele>
        <time>2022-08-07T08:15:37.000Z</time>
      </trkpt>
      <trkpt lat="47.36454" lon="-2.39677">
        <ele>-73</ele>
        <time>2022-08-07T08:15:39.000Z</time>
      </trkpt>
      <trkpt lat="47.36452" lon="-2.39671">
        <ele>-72.599998474121</ele>
        <time>2022-08-07T08:15:40.000Z</time>
      </trkpt>
      <trkpt lat="47.3645" lon="-2.39665">
        <ele>-72.199996948242</ele>
        <time>2022-08-07T08:15:41.000Z</time>
      </trkpt>
      <trkpt lat="47.36449" lon="-2.3966">
        <ele>-71.800003051758</ele>
        <time>2022-08-07T08:15:42.000Z</time>
      </trkpt>
      <trkpt lat="47.36449" lon="-2.39654">
        <ele>-71.400001525879</ele>
        <time>2022-08-07T08:15:43.000Z</time>
      </trkpt>
      <trkpt lat="47.36451" lon="-2.39643">
        <ele>-71.400001525879</ele>
        <time>2022-08-07T08:15:46.000Z</time>
      </trkpt>
      <trkpt lat="47.36459" lon="-2.39639">
        <ele>-71.400001525879</ele>
        <time>2022-08-07T08:15:51.000Z</time>
      </trkpt>
      <trkpt lat="47.36469" lon="-2.3964">
        <ele>-71.400001525879</ele>
        <time>2022-08-07T08:15:57.000Z</time>
      </trkpt>
      <trkpt lat="47.36482" lon="-2.39635">
        <ele>-71.400001525879</ele>
        <time>2022-08-07T08:16:05.000Z</time>
      </trkpt>
      <trkpt lat="47.36495" lon="-2.39626">
        <ele>-71.400001525879</ele>
        <time>2022-08-07T08:16:12.000Z</time>
      </trkpt>
      <trkpt lat="47.3651" lon="-2.39616">
        <ele>-71.400001525879</ele>
        <time>2022-08-07T08:16:20.000Z</time>
      </trkpt>
      <trkpt lat="47.36519" lon="-2.39611">
        <ele>-71.400001525879</ele>
        <time>2022-08-07T08:16:25.000Z</time>
      </trkpt>
      <trkpt lat="47.36529" lon="-2.39605">
        <ele>-71.400001525879</ele>
        <time>2022-08-07T08:16:30.000Z</time>
      </trkpt>
      <trkpt lat="47.36548" lon="-2.39598">
        <ele>-71.400001525879</ele>
        <time>2022-08-07T08:16:38.000Z</time>
      </trkpt>
      <trkpt lat="47.36562" lon="-2.39597">
        <ele>-71.400001525879</ele>
        <time>2022-08-07T08:16:43.000Z</time>
      </trkpt>
      <trkpt lat="47.36582" lon="-2.39596">
        <ele>-71.400001525879</ele>
        <time>2022-08-07T08:16:50.000Z</time>
      </trkpt>
      <trkpt lat="47.3659" lon="-2.39597">
        <ele>-71.400001525879</ele>
        <time>2022-08-07T08:16:53.000Z</time>
      </trkpt>
      <trkpt lat="47.36601" lon="-2.396">
        <ele>-71.400001525879</ele>
        <time>2022-08-07T08:16:58.000Z</time>
      </trkpt>
      <trkpt lat="47.36615" lon="-2.39605">
        <ele>-71.400001525879</ele>
        <time>2022-08-07T08:17:04.000Z</time>
      </trkpt>
      <trkpt lat="47.36622" lon="-2.39607">
        <ele>-71.400001525879</ele>
        <time>2022-08-07T08:17:09.000Z</time>
      </trkpt>
      <trkpt lat="47.36624" lon="-2.39607">
        <ele>-71.400001525879</ele>
        <time>2022-08-07T08:17:40.000Z</time>
      </trkpt>
      <trkpt lat="47.36634" lon="-2.39609">
        <ele>-71.400001525879</ele>
        <time>2022-08-07T08:17:46.000Z</time>
      </trkpt>
      <trkpt lat="47.36644" lon="-2.3961">
        <ele>-71.400001525879</ele>
        <time>2022-08-07T08:17:52.000Z</time>
      </trkpt>
      <trkpt lat="47.36645" lon="-2.3961">
        <ele>-71.400001525879</ele>
        <time>2022-08-07T08:17:53.000Z</time>
      </trkpt>
      <trkpt lat="47.36646" lon="-2.39612">
        <ele>-71.400001525879</ele>
        <time>2022-08-07T08:18:06.000Z</time>
      </trkpt>
      <trkpt lat="47.36649" lon="-2.39614">
        <ele>-71.400001525879</ele>
        <time>2022-08-07T08:18:07.000Z</time>
      </trkpt>
      <trkpt lat="47.36655" lon="-2.39621">
        <ele>-71.400001525879</ele>
        <time>2022-08-07T08:18:09.000Z</time>
      </trkpt>
      <trkpt lat="47.36664" lon="-2.39632">
        <ele>-71.400001525879</ele>
        <time>2022-08-07T08:18:11.000Z</time>
      </trkpt>
      <trkpt lat="47.36669" lon="-2.39637">
        <ele>-72</ele>
        <time>2022-08-07T08:18:12.000Z</time>
      </trkpt>
      <trkpt lat="47.36674" lon="-2.39641">
        <ele>-72.400001525879</ele>
        <time>2022-08-07T08:18:13.000Z</time>
      </trkpt>
      <trkpt lat="47.36679" lon="-2.39645">
        <ele>-72.800003051758</ele>
        <time>2022-08-07T08:18:14.000Z</time>
      </trkpt>
      <trkpt lat="47.36683" lon="-2.39649">
        <ele>-73.199996948242</ele>
        <time>2022-08-07T08:18:15.000Z</time>
      </trkpt>
      <trkpt lat="47.36688" lon="-2.39652">
        <ele>-73.800003051758</ele>
        <time>2022-08-07T08:18:16.000Z</time>
      </trkpt>
      <trkpt lat="47.36704" lon="-2.39664">
        <ele>-73.800003051758</ele>
        <time>2022-08-07T08:18:20.000Z</time>
      </trkpt>
      <trkpt lat="47.36725" lon="-2.39669">
        <ele>-73.800003051758</ele>
        <time>2022-08-07T08:18:24.000Z</time>
      </trkpt>
      <trkpt lat="47.36735" lon="-2.3967">
        <ele>-73.800003051758</ele>
        <time>2022-08-07T08:18:26.000Z</time>
      </trkpt>
      <trkpt lat="47.36749" lon="-2.39673">
        <ele>-73.800003051758</ele>
        <time>2022-08-07T08:18:29.000Z</time>
      </trkpt>
      <trkpt lat="47.36768" lon="-2.39671">
        <ele>-73.800003051758</ele>
        <time>2022-08-07T08:18:33.000Z</time>
      </trkpt>
      <trkpt lat="47.36774" lon="-2.3967">
        <ele>-73.800003051758</ele>
        <time>2022-08-07T08:18:34.000Z</time>
      </trkpt>
      <trkpt lat="47.36779" lon="-2.39668">
        <ele>-73.800003051758</ele>
        <time>2022-08-07T08:18:35.000Z</time>
      </trkpt>
      <trkpt lat="47.36794" lon="-2.39658">
        <ele>-73.800003051758</ele>
        <time>2022-08-07T08:18:38.000Z</time>
      </trkpt>
      <trkpt lat="47.36809" lon="-2.39652">
        <ele>-73.800003051758</ele>
        <time>2022-08-07T08:18:41.000Z</time>
      </trkpt>
      <trkpt lat="47.36815" lon="-2.39651">
        <ele>-73.800003051758</ele>
        <time>2022-08-07T08:18:42.000Z</time>
      </trkpt>
      <trkpt lat="47.3682" lon="-2.39649">
        <ele>-73.800003051758</ele>
        <time>2022-08-07T08:18:43.000Z</time>
      </trkpt>
      <trkpt lat="47.36833" lon="-2.39635">
        <ele>-73.800003051758</ele>
        <time>2022-08-07T08:18:46.000Z</time>
      </trkpt>
      <trkpt lat="47.36862" lon="-2.39606">
        <ele>-73.800003051758</ele>
        <time>2022-08-07T08:18:52.000Z</time>
      </trkpt>
      <trkpt lat="47.36873" lon="-2.39591">
        <ele>-73.800003051758</ele>
        <time>2022-08-07T08:18:55.000Z</time>
      </trkpt>
      <trkpt lat="47.36878" lon="-2.39586">
        <ele>-73.800003051758</ele>
        <time>2022-08-07T08:18:56.000Z</time>
      </trkpt>
      <trkpt lat="47.36896" lon="-2.39567">
        <ele>-73.400001525879</ele>
        <time>2022-08-07T08:19:00.000Z</time>
      </trkpt>
      <trkpt lat="47.369" lon="-2.39561">
        <ele>-72.400001525879</ele>
        <time>2022-08-07T08:19:01.000Z</time>
      </trkpt>
      <trkpt lat="47.36904" lon="-2.39555">
        <ele>-72</ele>
        <time>2022-08-07T08:19:02.000Z</time>
      </trkpt>
      <trkpt lat="47.36908" lon="-2.3955">
        <ele>-71.599998474121</ele>
        <time>2022-08-07T08:19:03.000Z</time>
      </trkpt>
      <trkpt lat="47.36928" lon="-2.39522">
        <ele>-71.599998474121</ele>
        <time>2022-08-07T08:19:08.000Z</time>
      </trkpt>
      <trkpt lat="47.3695" lon="-2.39495">
        <ele>-71.599998474121</ele>
        <time>2022-08-07T08:19:14.000Z</time>
      </trkpt>
      <trkpt lat="47.36957" lon="-2.39488">
        <ele>-71.599998474121</ele>
        <time>2022-08-07T08:19:16.000Z</time>
      </trkpt>
      <trkpt lat="47.36975" lon="-2.39473">
        <ele>-71.599998474121</ele>
        <time>2022-08-07T08:19:20.000Z</time>
      </trkpt>
      <trkpt lat="47.3698" lon="-2.3947">
        <ele>-71.199996948242</ele>
        <time>2022-08-07T08:19:21.000Z</time>
      </trkpt>
      <trkpt lat="47.36985" lon="-2.39466">
        <ele>-70.800003051758</ele>
        <time>2022-08-07T08:19:22.000Z</time>
      </trkpt>
      <trkpt lat="47.36989" lon="-2.39462">
        <ele>-70.400001525879</ele>
        <time>2022-08-07T08:19:23.000Z</time>
      </trkpt>
      <trkpt lat="47.36994" lon="-2.39457">
        <ele>-70</ele>
        <time>2022-08-07T08:19:24.000Z</time>
      </trkpt>
      <trkpt lat="47.36999" lon="-2.39453">
        <ele>-69.599998474121</ele>
        <time>2022-08-07T08:19:25.000Z</time>
      </trkpt>
      <trkpt lat="47.3702" lon="-2.39432">
        <ele>-69.599998474121</ele>
        <time>2022-08-07T08:19:30.000Z</time>
      </trkpt>
      <trkpt lat="47.37037" lon="-2.39412">
        <ele>-69.599998474121</ele>
        <time>2022-08-07T08:19:34.000Z</time>
      </trkpt>
      <trkpt lat="47.37068" lon="-2.39381">
        <ele>-69.599998474121</ele>
        <time>2022-08-07T08:19:41.000Z</time>
      </trkpt>
      <trkpt lat="47.37096" lon="-2.39355">
        <ele>-69.599998474121</ele>
        <time>2022-08-07T08:19:47.000Z</time>
      </trkpt>
      <trkpt lat="47.371" lon="-2.39351">
        <ele>-69.599998474121</ele>
        <time>2022-08-07T08:19:48.000Z</time>
      </trkpt>
      <trkpt lat="47.37129" lon="-2.39322">
        <ele>-69.599998474121</ele>
        <time>2022-08-07T08:19:54.000Z</time>
      </trkpt>
      <trkpt lat="47.37144" lon="-2.39308">
        <ele>-69.599998474121</ele>
        <time>2022-08-07T08:19:57.000Z</time>
      </trkpt>
      <trkpt lat="47.37154" lon="-2.393">
        <ele>-69.599998474121</ele>
        <time>2022-08-07T08:19:59.000Z</time>
      </trkpt>
      <trkpt lat="47.37183" lon="-2.39274">
        <ele>-69.599998474121</ele>
        <time>2022-08-07T08:20:05.000Z</time>
      </trkpt>
      <trkpt lat="47.37206" lon="-2.39253">
        <ele>-69.599998474121</ele>
        <time>2022-08-07T08:20:10.000Z</time>
      </trkpt>
      <trkpt lat="47.37236" lon="-2.39227">
        <ele>-69.599998474121</ele>
        <time>2022-08-07T08:20:16.000Z</time>
      </trkpt>
      <trkpt lat="47.37255" lon="-2.39209">
        <ele>-69.599998474121</ele>
        <time>2022-08-07T08:20:20.000Z</time>
      </trkpt>
      <trkpt lat="47.3726" lon="-2.39205">
        <ele>-69.599998474121</ele>
        <time>2022-08-07T08:20:21.000Z</time>
      </trkpt>
      <trkpt lat="47.37288" lon="-2.39178">
        <ele>-69.599998474121</ele>
        <time>2022-08-07T08:20:27.000Z</time>
      </trkpt>
      <trkpt lat="47.37292" lon="-2.39174">
        <ele>-69.599998474121</ele>
        <time>2022-08-07T08:20:28.000Z</time>
      </trkpt>
      <trkpt lat="47.37301" lon="-2.39164">
        <ele>-69.599998474121</ele>
        <time>2022-08-07T08:20:31.000Z</time>
      </trkpt>
      <trkpt lat="47.37306" lon="-2.39162">
        <ele>-69.599998474121</ele>
        <time>2022-08-07T08:20:34.000Z</time>
      </trkpt>
      <trkpt lat="47.3731" lon="-2.39155">
        <ele>-69.599998474121</ele>
        <time>2022-08-07T08:23:04.000Z</time>
      </trkpt>
      <trkpt lat="47.37308" lon="-2.39136">
        <ele>-69.599998474121</ele>
        <time>2022-08-07T08:23:08.000Z</time>
      </trkpt>
      <trkpt lat="47.37306" lon="-2.39124">
        <ele>-69.599998474121</ele>
        <time>2022-08-07T08:23:10.000Z</time>
      </trkpt>
      <trkpt lat="47.37304" lon="-2.39107">
        <ele>-69.599998474121</ele>
        <time>2022-08-07T08:23:13.000Z</time>
      </trkpt>
      <trkpt lat="47.37301" lon="-2.39079">
        <ele>-69.599998474121</ele>
        <time>2022-08-07T08:23:17.000Z</time>
      </trkpt>
      <trkpt lat="47.37299" lon="-2.39072">
        <ele>-69.599998474121</ele>
        <time>2022-08-07T08:23:18.000Z</time>
      </trkpt>
      <trkpt lat="47.37298" lon="-2.39051">
        <ele>-69.599998474121</ele>
        <time>2022-08-07T08:23:21.000Z</time>
      </trkpt>
      <trkpt lat="47.37295" lon="-2.39029">
        <ele>-69.599998474121</ele>
        <time>2022-08-07T08:23:24.000Z</time>
      </trkpt>
      <trkpt lat="47.37295" lon="-2.39021">
        <ele>-69.599998474121</ele>
        <time>2022-08-07T08:23:25.000Z</time>
      </trkpt>
      <trkpt lat="47.37297" lon="-2.39013">
        <ele>-69.599998474121</ele>
        <time>2022-08-07T08:23:26.000Z</time>
      </trkpt>
      <trkpt lat="47.37298" lon="-2.38995">
        <ele>-69.599998474121</ele>
        <time>2022-08-07T08:23:28.000Z</time>
      </trkpt>
      <trkpt lat="47.37291" lon="-2.38934">
        <ele>-69.599998474121</ele>
        <time>2022-08-07T08:23:35.000Z</time>
      </trkpt>
      <trkpt lat="47.37278" lon="-2.38884">
        <ele>-69.599998474121</ele>
        <time>2022-08-07T08:23:41.000Z</time>
      </trkpt>
      <trkpt lat="47.37268" lon="-2.38842">
        <ele>-69.599998474121</ele>
        <time>2022-08-07T08:23:46.000Z</time>
      </trkpt>
      <trkpt lat="47.37266" lon="-2.38833">
        <ele>-69.599998474121</ele>
        <time>2022-08-07T08:23:47.000Z</time>
      </trkpt>
      <trkpt lat="47.37253" lon="-2.38789">
        <ele>-69.599998474121</ele>
        <time>2022-08-07T08:23:52.000Z</time>
      </trkpt>
      <trkpt lat="47.37236" lon="-2.38744">
        <ele>-69.599998474121</ele>
        <time>2022-08-07T08:23:57.000Z</time>
      </trkpt>
      <trkpt lat="47.37229" lon="-2.38725">
        <ele>-69.599998474121</ele>
        <time>2022-08-07T08:23:59.000Z</time>
      </trkpt>
      <trkpt lat="47.37208" lon="-2.38676">
        <ele>-69.599998474121</ele>
        <time>2022-08-07T08:24:05.000Z</time>
      </trkpt>
      <trkpt lat="47.37182" lon="-2.38609">
        <ele>-69.599998474121</ele>
        <time>2022-08-07T08:24:13.000Z</time>
      </trkpt>
      <trkpt lat="47.37163" lon="-2.38566">
        <ele>-70</ele>
        <time>2022-08-07T08:24:18.000Z</time>
      </trkpt>
      <trkpt lat="47.37159" lon="-2.38557">
        <ele>-70.400001525879</ele>
        <time>2022-08-07T08:24:19.000Z</time>
      </trkpt>
      <trkpt lat="47.37156" lon="-2.3855">
        <ele>-71</ele>
        <time>2022-08-07T08:24:20.000Z</time>
      </trkpt>
      <trkpt lat="47.37151" lon="-2.38542">
        <ele>-71.400001525879</ele>
        <time>2022-08-07T08:24:21.000Z</time>
      </trkpt>
      <trkpt lat="47.37146" lon="-2.38535">
        <ele>-71.800003051758</ele>
        <time>2022-08-07T08:24:22.000Z</time>
      </trkpt>
      <trkpt lat="47.37141" lon="-2.38528">
        <ele>-71.800003051758</ele>
        <time>2022-08-07T08:24:23.000Z</time>
      </trkpt>
      <trkpt lat="47.37117" lon="-2.38507">
        <ele>-71.800003051758</ele>
        <time>2022-08-07T08:24:27.000Z</time>
      </trkpt>
      <trkpt lat="47.37111" lon="-2.38503">
        <ele>-71.800003051758</ele>
        <time>2022-08-07T08:24:28.000Z</time>
      </trkpt>
      <trkpt lat="47.37091" lon="-2.38488">
        <ele>-72.199996948242</ele>
        <time>2022-08-07T08:24:31.000Z</time>
      </trkpt>
      <trkpt lat="47.37085" lon="-2.38484">
        <ele>-72.599998474121</ele>
        <time>2022-08-07T08:24:32.000Z</time>
      </trkpt>
      <trkpt lat="47.37078" lon="-2.38479">
        <ele>-73</ele>
        <time>2022-08-07T08:24:33.000Z</time>
      </trkpt>
      <trkpt lat="47.37072" lon="-2.38475">
        <ele>-73.400001525879</ele>
        <time>2022-08-07T08:24:34.000Z</time>
      </trkpt>
      <trkpt lat="47.37066" lon="-2.38472">
        <ele>-73.800003051758</ele>
        <time>2022-08-07T08:24:35.000Z</time>
      </trkpt>
      <trkpt lat="47.37062" lon="-2.38467">
        <ele>-73.800003051758</ele>
        <time>2022-08-07T08:24:36.000Z</time>
      </trkpt>
      <trkpt lat="47.37059" lon="-2.38454">
        <ele>-74.199996948242</ele>
        <time>2022-08-07T08:24:38.000Z</time>
      </trkpt>
      <trkpt lat="47.3706" lon="-2.38446">
        <ele>-74.599998474121</ele>
        <time>2022-08-07T08:24:39.000Z</time>
      </trkpt>
      <trkpt lat="47.37061" lon="-2.3844">
        <ele>-75</ele>
        <time>2022-08-07T08:24:40.000Z</time>
      </trkpt>
      <trkpt lat="47.37064" lon="-2.38433">
        <ele>-75.400001525879</ele>
        <time>2022-08-07T08:24:41.000Z</time>
      </trkpt>
      <trkpt lat="47.37067" lon="-2.38427">
        <ele>-75.800003051758</ele>
        <time>2022-08-07T08:24:42.000Z</time>
      </trkpt>
      <trkpt lat="47.37079" lon="-2.38409">
        <ele>-75.800003051758</ele>
        <time>2022-08-07T08:24:45.000Z</time>
      </trkpt>
      <trkpt lat="47.37085" lon="-2.38398">
        <ele>-75.800003051758</ele>
        <time>2022-08-07T08:24:47.000Z</time>
      </trkpt>
      <trkpt lat="47.37095" lon="-2.3839">
        <ele>-75.800003051758</ele>
        <time>2022-08-07T08:24:49.000Z</time>
      </trkpt>
      <trkpt lat="47.37117" lon="-2.38375">
        <ele>-75.800003051758</ele>
        <time>2022-08-07T08:24:54.000Z</time>
      </trkpt>
      <trkpt lat="47.37141" lon="-2.38366">
        <ele>-75.800003051758</ele>
        <time>2022-08-07T08:24:59.000Z</time>
      </trkpt>
      <trkpt lat="47.37177" lon="-2.38355">
        <ele>-75.400001525879</ele>
        <time>2022-08-07T08:25:06.000Z</time>
      </trkpt>
      <trkpt lat="47.37182" lon="-2.38354">
        <ele>-75</ele>
        <time>2022-08-07T08:25:07.000Z</time>
      </trkpt>
      <trkpt lat="47.37187" lon="-2.38353">
        <ele>-74.599998474121</ele>
        <time>2022-08-07T08:25:08.000Z</time>
      </trkpt>
      <trkpt lat="47.37193" lon="-2.38353">
        <ele>-74.199996948242</ele>
        <time>2022-08-07T08:25:09.000Z</time>
      </trkpt>
      <trkpt lat="47.37199" lon="-2.38353">
        <ele>-73.800003051758</ele>
        <time>2022-08-07T08:25:10.000Z</time>
      </trkpt>
      <trkpt lat="47.37203" lon="-2.38353">
        <ele>-73.800003051758</ele>
        <time>2022-08-07T08:25:11.000Z</time>
      </trkpt>
      <trkpt lat="47.37222" lon="-2.38351">
        <ele>-73.800003051758</ele>
        <time>2022-08-07T08:25:15.000Z</time>
      </trkpt>
      <trkpt lat="47.37243" lon="-2.38342">
        <ele>-73.400001525879</ele>
        <time>2022-08-07T08:25:19.000Z</time>
      </trkpt>
      <trkpt lat="47.37247" lon="-2.38339">
        <ele>-73</ele>
        <time>2022-08-07T08:25:20.000Z</time>
      </trkpt>
      <trkpt lat="47.37252" lon="-2.38337">
        <ele>-72.599998474121</ele>
        <time>2022-08-07T08:25:21.000Z</time>
      </trkpt>
      <trkpt lat="47.37257" lon="-2.38334">
        <ele>-72.199996948242</ele>
        <time>2022-08-07T08:25:22.000Z</time>
      </trkpt>
      <trkpt lat="47.37262" lon="-2.38331">
        <ele>-71.800003051758</ele>
        <time>2022-08-07T08:25:23.000Z</time>
      </trkpt>
      <trkpt lat="47.37286" lon="-2.38317">
        <ele>-71.800003051758</ele>
        <time>2022-08-07T08:25:28.000Z</time>
      </trkpt>
      <trkpt lat="47.37311" lon="-2.38302">
        <ele>-71.800003051758</ele>
        <time>2022-08-07T08:25:33.000Z</time>
      </trkpt>
      <trkpt lat="47.3733" lon="-2.3829">
        <ele>-71.800003051758</ele>
        <time>2022-08-07T08:25:37.000Z</time>
      </trkpt>
      <trkpt lat="47.37335" lon="-2.38287">
        <ele>-71.800003051758</ele>
        <time>2022-08-07T08:25:38.000Z</time>
      </trkpt>
      <trkpt lat="47.37353" lon="-2.38275">
        <ele>-71.800003051758</ele>
        <time>2022-08-07T08:25:42.000Z</time>
      </trkpt>
      <trkpt lat="47.37357" lon="-2.38272">
        <ele>-71.800003051758</ele>
        <time>2022-08-07T08:25:43.000Z</time>
      </trkpt>
      <trkpt lat="47.37373" lon="-2.38262">
        <ele>-71.800003051758</ele>
        <time>2022-08-07T08:25:46.000Z</time>
      </trkpt>
      <trkpt lat="47.37378" lon="-2.38259">
        <ele>-71.800003051758</ele>
        <time>2022-08-07T08:25:47.000Z</time>
      </trkpt>
      <trkpt lat="47.37413" lon="-2.38239">
        <ele>-71.800003051758</ele>
        <time>2022-08-07T08:25:54.000Z</time>
      </trkpt>
      <trkpt lat="47.37447" lon="-2.38218">
        <ele>-71.800003051758</ele>
        <time>2022-08-07T08:26:00.000Z</time>
      </trkpt>
      <trkpt lat="47.37458" lon="-2.3821">
        <ele>-71.800003051758</ele>
        <time>2022-08-07T08:26:02.000Z</time>
      </trkpt>
      <trkpt lat="47.37475" lon="-2.382">
        <ele>-71.800003051758</ele>
        <time>2022-08-07T08:26:05.000Z</time>
      </trkpt>
      <trkpt lat="47.37492" lon="-2.38189">
        <ele>-71.800003051758</ele>
        <time>2022-08-07T08:26:08.000Z</time>
      </trkpt>
      <trkpt lat="47.37503" lon="-2.38182">
        <ele>-71.800003051758</ele>
        <time>2022-08-07T08:26:10.000Z</time>
      </trkpt>
      <trkpt lat="47.37535" lon="-2.38165">
        <ele>-71.800003051758</ele>
        <time>2022-08-07T08:26:16.000Z</time>
      </trkpt>
      <trkpt lat="47.37559" lon="-2.38149">
        <ele>-71.800003051758</ele>
        <time>2022-08-07T08:26:21.000Z</time>
      </trkpt>
      <trkpt lat="47.37585" lon="-2.38136">
        <ele>-71.800003051758</ele>
        <time>2022-08-07T08:26:26.000Z</time>
      </trkpt>
      <trkpt lat="47.37591" lon="-2.38133">
        <ele>-72.199996948242</ele>
        <time>2022-08-07T08:26:27.000Z</time>
      </trkpt>
      <trkpt lat="47.37597" lon="-2.3813">
        <ele>-72.599998474121</ele>
        <time>2022-08-07T08:26:28.000Z</time>
      </trkpt>
      <trkpt lat="47.37603" lon="-2.38127">
        <ele>-73</ele>
        <time>2022-08-07T08:26:29.000Z</time>
      </trkpt>
      <trkpt lat="47.37608" lon="-2.38124">
        <ele>-73.400001525879</ele>
        <time>2022-08-07T08:26:30.000Z</time>
      </trkpt>
      <trkpt lat="47.37614" lon="-2.38121">
        <ele>-73.800003051758</ele>
        <time>2022-08-07T08:26:31.000Z</time>
      </trkpt>
      <trkpt lat="47.37625" lon="-2.38115">
        <ele>-73.800003051758</ele>
        <time>2022-08-07T08:26:33.000Z</time>
      </trkpt>
      <trkpt lat="47.37655" lon="-2.38092">
        <ele>-73.800003051758</ele>
        <time>2022-08-07T08:26:39.000Z</time>
      </trkpt>
      <trkpt lat="47.37685" lon="-2.38064">
        <ele>-73.800003051758</ele>
        <time>2022-08-07T08:26:46.000Z</time>
      </trkpt>
      <trkpt lat="47.37689" lon="-2.38059">
        <ele>-73.400001525879</ele>
        <time>2022-08-07T08:26:47.000Z</time>
      </trkpt>
      <trkpt lat="47.37692" lon="-2.38056">
        <ele>-73</ele>
        <time>2022-08-07T08:26:48.000Z</time>
      </trkpt>
      <trkpt lat="47.37695" lon="-2.38052">
        <ele>-72.599998474121</ele>
        <time>2022-08-07T08:26:49.000Z</time>
      </trkpt>
      <trkpt lat="47.37698" lon="-2.38049">
        <ele>-72</ele>
        <time>2022-08-07T08:26:50.000Z</time>
      </trkpt>
      <trkpt lat="47.377" lon="-2.38046">
        <ele>-71.599998474121</ele>
        <time>2022-08-07T08:26:51.000Z</time>
      </trkpt>
      <trkpt lat="47.37702" lon="-2.38044">
        <ele>-71.599998474121</ele>
        <time>2022-08-07T08:26:52.000Z</time>
      </trkpt>
      <trkpt lat="47.37718" lon="-2.38027">
        <ele>-71.599998474121</ele>
        <time>2022-08-07T08:26:57.000Z</time>
      </trkpt>
      <trkpt lat="47.37731" lon="-2.38019">
        <ele>-71.599998474121</ele>
        <time>2022-08-07T08:27:00.000Z</time>
      </trkpt>
      <trkpt lat="47.37744" lon="-2.38013">
        <ele>-71.599998474121</ele>
        <time>2022-08-07T08:27:03.000Z</time>
      </trkpt>
      <trkpt lat="47.37752" lon="-2.38007">
        <ele>-71.199996948242</ele>
        <time>2022-08-07T08:27:05.000Z</time>
      </trkpt>
      <trkpt lat="47.37757" lon="-2.38004">
        <ele>-70.800003051758</ele>
        <time>2022-08-07T08:27:06.000Z</time>
      </trkpt>
      <trkpt lat="47.37761" lon="-2.38001">
        <ele>-70.400001525879</ele>
        <time>2022-08-07T08:27:07.000Z</time>
      </trkpt>
      <trkpt lat="47.37765" lon="-2.37998">
        <ele>-70</ele>
        <time>2022-08-07T08:27:08.000Z</time>
      </trkpt>
      <trkpt lat="47.37769" lon="-2.37995">
        <ele>-69.599998474121</ele>
        <time>2022-08-07T08:27:09.000Z</time>
      </trkpt>
      <trkpt lat="47.37797" lon="-2.37978">
        <ele>-69.599998474121</ele>
        <time>2022-08-07T08:27:15.000Z</time>
      </trkpt>
      <trkpt lat="47.37834" lon="-2.37954">
        <ele>-69.599998474121</ele>
        <time>2022-08-07T08:27:23.000Z</time>
      </trkpt>
      <trkpt lat="47.37869" lon="-2.37929">
        <ele>-69.599998474121</ele>
        <time>2022-08-07T08:27:30.000Z</time>
      </trkpt>
      <trkpt lat="47.379" lon="-2.37906">
        <ele>-69.599998474121</ele>
        <time>2022-08-07T08:27:36.000Z</time>
      </trkpt>
      <trkpt lat="47.37923" lon="-2.37887">
        <ele>-69.599998474121</ele>
        <time>2022-08-07T08:27:41.000Z</time>
      </trkpt>
      <trkpt lat="47.37929" lon="-2.37883">
        <ele>-69.599998474121</ele>
        <time>2022-08-07T08:27:42.000Z</time>
      </trkpt>
      <trkpt lat="47.37942" lon="-2.37873">
        <ele>-69.599998474121</ele>
        <time>2022-08-07T08:27:45.000Z</time>
      </trkpt>
      <trkpt lat="47.3796" lon="-2.37858">
        <ele>-69.599998474121</ele>
        <time>2022-08-07T08:27:49.000Z</time>
      </trkpt>
      <trkpt lat="47.37975" lon="-2.37847">
        <ele>-69.599998474121</ele>
        <time>2022-08-07T08:27:52.000Z</time>
      </trkpt>
      <trkpt lat="47.37985" lon="-2.3784">
        <ele>-69.599998474121</ele>
        <time>2022-08-07T08:27:54.000Z</time>
      </trkpt>
      <trkpt lat="47.37989" lon="-2.37836">
        <ele>-69.599998474121</ele>
        <time>2022-08-07T08:27:55.000Z</time>
      </trkpt>
      <trkpt lat="47.38" lon="-2.37825">
        <ele>-69.599998474121</ele>
        <time>2022-08-07T08:27:58.000Z</time>
      </trkpt>
      <trkpt lat="47.38013" lon="-2.37814">
        <ele>-69.599998474121</ele>
        <time>2022-08-07T08:28:01.000Z</time>
      </trkpt>
      <trkpt lat="47.38024" lon="-2.37805">
        <ele>-69.599998474121</ele>
        <time>2022-08-07T08:28:03.000Z</time>
      </trkpt>
      <trkpt lat="47.3804" lon="-2.37793">
        <ele>-69.599998474121</ele>
        <time>2022-08-07T08:28:06.000Z</time>
      </trkpt>
      <trkpt lat="47.38056" lon="-2.37779">
        <ele>-69.599998474121</ele>
        <time>2022-08-07T08:28:09.000Z</time>
      </trkpt>
      <trkpt lat="47.38088" lon="-2.37754">
        <ele>-70</ele>
        <time>2022-08-07T08:28:14.000Z</time>
      </trkpt>
      <trkpt lat="47.38094" lon="-2.37748">
        <ele>-70.400001525879</ele>
        <time>2022-08-07T08:28:15.000Z</time>
      </trkpt>
      <trkpt lat="47.38101" lon="-2.37743">
        <ele>-70.800003051758</ele>
        <time>2022-08-07T08:28:16.000Z</time>
      </trkpt>
      <trkpt lat="47.38108" lon="-2.37738">
        <ele>-71.199996948242</ele>
        <time>2022-08-07T08:28:17.000Z</time>
      </trkpt>
      <trkpt lat="47.38115" lon="-2.37733">
        <ele>-71.599998474121</ele>
        <time>2022-08-07T08:28:18.000Z</time>
      </trkpt>
      <trkpt lat="47.38148" lon="-2.37706">
        <ele>-72</ele>
        <time>2022-08-07T08:28:23.000Z</time>
      </trkpt>
      <trkpt lat="47.38154" lon="-2.377">
        <ele>-72.400001525879</ele>
        <time>2022-08-07T08:28:24.000Z</time>
      </trkpt>
      <trkpt lat="47.38161" lon="-2.37695">
        <ele>-72.800003051758</ele>
        <time>2022-08-07T08:28:25.000Z</time>
      </trkpt>
      <trkpt lat="47.38167" lon="-2.37691">
        <ele>-73.199996948242</ele>
        <time>2022-08-07T08:28:26.000Z</time>
      </trkpt>
      <trkpt lat="47.38174" lon="-2.37686">
        <ele>-73.800003051758</ele>
        <time>2022-08-07T08:28:27.000Z</time>
      </trkpt>
      <trkpt lat="47.38179" lon="-2.37681">
        <ele>-73.800003051758</ele>
        <time>2022-08-07T08:28:28.000Z</time>
      </trkpt>
      <trkpt lat="47.38191" lon="-2.37671">
        <ele>-73.800003051758</ele>
        <time>2022-08-07T08:28:30.000Z</time>
      </trkpt>
      <trkpt lat="47.38224" lon="-2.37643">
        <ele>-73.800003051758</ele>
        <time>2022-08-07T08:28:36.000Z</time>
      </trkpt>
      <trkpt lat="47.38239" lon="-2.37632">
        <ele>-74.199996948242</ele>
        <time>2022-08-07T08:28:39.000Z</time>
      </trkpt>
      <trkpt lat="47.38245" lon="-2.3763">
        <ele>-74.599998474121</ele>
        <time>2022-08-07T08:28:40.000Z</time>
      </trkpt>
      <trkpt lat="47.38251" lon="-2.37628">
        <ele>-75</ele>
        <time>2022-08-07T08:28:41.000Z</time>
      </trkpt>
      <trkpt lat="47.38256" lon="-2.37626">
        <ele>-75.400001525879</ele>
        <time>2022-08-07T08:28:42.000Z</time>
      </trkpt>
      <trkpt lat="47.38261" lon="-2.37625">
        <ele>-75.800003051758</ele>
        <time>2022-08-07T08:28:43.000Z</time>
      </trkpt>
      <trkpt lat="47.3827" lon="-2.37623">
        <ele>-75.800003051758</ele>
        <time>2022-08-07T08:28:45.000Z</time>
      </trkpt>
      <trkpt lat="47.38281" lon="-2.37615">
        <ele>-75.800003051758</ele>
        <time>2022-08-07T08:28:48.000Z</time>
      </trkpt>
      <trkpt lat="47.38287" lon="-2.37613">
        <ele>-75.800003051758</ele>
        <time>2022-08-07T08:28:49.000Z</time>
      </trkpt>
      <trkpt lat="47.38309" lon="-2.37603">
        <ele>-76.199996948242</ele>
        <time>2022-08-07T08:28:53.000Z</time>
      </trkpt>
      <trkpt lat="47.38315" lon="-2.37601">
        <ele>-76.599998474121</ele>
        <time>2022-08-07T08:28:54.000Z</time>
      </trkpt>
      <trkpt lat="47.3832" lon="-2.37598">
        <ele>-77.400001525879</ele>
        <time>2022-08-07T08:28:55.000Z</time>
      </trkpt>
      <trkpt lat="47.38327" lon="-2.37595">
        <ele>-78</ele>
        <time>2022-08-07T08:28:56.000Z</time>
      </trkpt>
      <trkpt lat="47.38347" lon="-2.37586">
        <ele>-78</ele>
        <time>2022-08-07T08:29:00.000Z</time>
      </trkpt>
      <trkpt lat="47.38355" lon="-2.37572">
        <ele>-78</ele>
        <time>2022-08-07T08:29:03.000Z</time>
      </trkpt>
      <trkpt lat="47.38355" lon="-2.37557">
        <ele>-78</ele>
        <time>2022-08-07T08:29:05.000Z</time>
      </trkpt>
      <trkpt lat="47.38355" lon="-2.37543">
        <ele>-78</ele>
        <time>2022-08-07T08:29:07.000Z</time>
      </trkpt>
      <trkpt lat="47.38356" lon="-2.37536">
        <ele>-78</ele>
        <time>2022-08-07T08:29:08.000Z</time>
      </trkpt>
      <trkpt lat="47.38356" lon="-2.37529">
        <ele>-78.400001525879</ele>
        <time>2022-08-07T08:29:09.000Z</time>
      </trkpt>
      <trkpt lat="47.38356" lon="-2.37522">
        <ele>-78.800003051758</ele>
        <time>2022-08-07T08:29:10.000Z</time>
      </trkpt>
      <trkpt lat="47.38356" lon="-2.37515">
        <ele>-79.199996948242</ele>
        <time>2022-08-07T08:29:11.000Z</time>
      </trkpt>
      <trkpt lat="47.38356" lon="-2.37507">
        <ele>-79.599998474121</ele>
        <time>2022-08-07T08:29:12.000Z</time>
      </trkpt>
      <trkpt lat="47.38356" lon="-2.37499">
        <ele>-80</ele>
        <time>2022-08-07T08:29:13.000Z</time>
      </trkpt>
      <trkpt lat="47.38355" lon="-2.37491">
        <ele>-80</ele>
        <time>2022-08-07T08:29:14.000Z</time>
      </trkpt>
      <trkpt lat="47.38353" lon="-2.37475">
        <ele>-80</ele>
        <time>2022-08-07T08:29:16.000Z</time>
      </trkpt>
      <trkpt lat="47.38345" lon="-2.3743">
        <ele>-80</ele>
        <time>2022-08-07T08:29:22.000Z</time>
      </trkpt>
      <trkpt lat="47.38343" lon="-2.37418">
        <ele>-80</ele>
        <time>2022-08-07T08:29:24.000Z</time>
      </trkpt>
      <trkpt lat="47.38342" lon="-2.37405">
        <ele>-80</ele>
        <time>2022-08-07T08:29:26.000Z</time>
      </trkpt>
      <trkpt lat="47.3834" lon="-2.37385">
        <ele>-80</ele>
        <time>2022-08-07T08:29:29.000Z</time>
      </trkpt>
      <trkpt lat="47.38338" lon="-2.37379">
        <ele>-80</ele>
        <time>2022-08-07T08:29:30.000Z</time>
      </trkpt>
      <trkpt lat="47.38335" lon="-2.37355">
        <ele>-80</ele>
        <time>2022-08-07T08:29:35.000Z</time>
      </trkpt>
      <trkpt lat="47.38331" lon="-2.37343">
        <ele>-80</ele>
        <time>2022-08-07T08:29:39.000Z</time>
      </trkpt>
      <trkpt lat="47.38327" lon="-2.37331">
        <ele>-80</ele>
        <time>2022-08-07T08:29:43.000Z</time>
      </trkpt>
      <trkpt lat="47.38326" lon="-2.37323">
        <ele>-80</ele>
        <time>2022-08-07T08:29:46.000Z</time>
      </trkpt>
      <trkpt lat="47.38326" lon="-2.37316">
        <ele>-80</ele>
        <time>2022-08-07T08:29:48.000Z</time>
      </trkpt>
      <trkpt lat="47.38324" lon="-2.37305">
        <ele>-80</ele>
        <time>2022-08-07T08:29:51.000Z</time>
      </trkpt>
      <trkpt lat="47.38324" lon="-2.37301">
        <ele>-80</ele>
        <time>2022-08-07T08:29:52.000Z</time>
      </trkpt>
      <trkpt lat="47.38323" lon="-2.37297">
        <ele>-80</ele>
        <time>2022-08-07T08:29:53.000Z</time>
      </trkpt>
      <trkpt lat="47.38316" lon="-2.3728">
        <ele>-80</ele>
        <time>2022-08-07T08:29:57.000Z</time>
      </trkpt>
      <trkpt lat="47.38313" lon="-2.37274">
        <ele>-80</ele>
        <time>2022-08-07T08:29:59.000Z</time>
      </trkpt>
      <trkpt lat="47.38312" lon="-2.37269">
        <ele>-80</ele>
        <time>2022-08-07T08:30:01.000Z</time>
      </trkpt>
      <trkpt lat="47.3831" lon="-2.37267">
        <ele>-80</ele>
        <time>2022-08-07T08:30:02.000Z</time>
      </trkpt>
      <trkpt lat="47.38301" lon="-2.37254">
        <ele>-80</ele>
        <time>2022-08-07T08:30:06.000Z</time>
      </trkpt>
      <trkpt lat="47.38298" lon="-2.37252">
        <ele>-80.599998474121</ele>
        <time>2022-08-07T08:30:07.000Z</time>
      </trkpt>
      <trkpt lat="47.38295" lon="-2.37249">
        <ele>-81</ele>
        <time>2022-08-07T08:30:08.000Z</time>
      </trkpt>
      <trkpt lat="47.38293" lon="-2.37247">
        <ele>-81.800003051758</ele>
        <time>2022-08-07T08:30:09.000Z</time>
      </trkpt>
      <trkpt lat="47.38291" lon="-2.37245">
        <ele>-82.199996948242</ele>
        <time>2022-08-07T08:30:10.000Z</time>
      </trkpt>
      <trkpt lat="47.38288" lon="-2.37242">
        <ele>-82.199996948242</ele>
        <time>2022-08-07T08:30:11.000Z</time>
      </trkpt>
      <trkpt lat="47.38271" lon="-2.37237">
        <ele>-82.199996948242</ele>
        <time>2022-08-07T08:30:16.000Z</time>
      </trkpt>
      <trkpt lat="47.38259" lon="-2.37228">
        <ele>-82.199996948242</ele>
        <time>2022-08-07T08:30:19.000Z</time>
      </trkpt>
      <trkpt lat="47.38255" lon="-2.37223">
        <ele>-82.199996948242</ele>
        <time>2022-08-07T08:30:20.000Z</time>
      </trkpt>
      <trkpt lat="47.38245" lon="-2.37204">
        <ele>-82.199996948242</ele>
        <time>2022-08-07T08:30:23.000Z</time>
      </trkpt>
      <trkpt lat="47.38242" lon="-2.37198">
        <ele>-82.199996948242</ele>
        <time>2022-08-07T08:30:24.000Z</time>
      </trkpt>
      <trkpt lat="47.38222" lon="-2.37165">
        <ele>-82.199996948242</ele>
        <time>2022-08-07T08:30:31.000Z</time>
      </trkpt>
      <trkpt lat="47.38216" lon="-2.37154">
        <ele>-82.199996948242</ele>
        <time>2022-08-07T08:30:33.000Z</time>
      </trkpt>
      <trkpt lat="47.3821" lon="-2.37147">
        <ele>-82.199996948242</ele>
        <time>2022-08-07T08:30:35.000Z</time>
      </trkpt>
      <trkpt lat="47.38205" lon="-2.37138">
        <ele>-81.800003051758</ele>
        <time>2022-08-07T08:30:37.000Z</time>
      </trkpt>
      <trkpt lat="47.38202" lon="-2.37134">
        <ele>-81.400001525879</ele>
        <time>2022-08-07T08:30:38.000Z</time>
      </trkpt>
      <trkpt lat="47.38199" lon="-2.3713">
        <ele>-80.800003051758</ele>
        <time>2022-08-07T08:30:39.000Z</time>
      </trkpt>
      <trkpt lat="47.38196" lon="-2.37126">
        <ele>-80.400001525879</ele>
        <time>2022-08-07T08:30:40.000Z</time>
      </trkpt>
      <trkpt lat="47.38194" lon="-2.37122">
        <ele>-80</ele>
        <time>2022-08-07T08:30:41.000Z</time>
      </trkpt>
      <trkpt lat="47.3818" lon="-2.37093">
        <ele>-80</ele>
        <time>2022-08-07T08:30:46.000Z</time>
      </trkpt>
      <trkpt lat="47.38175" lon="-2.37079">
        <ele>-79.599998474121</ele>
        <time>2022-08-07T08:30:48.000Z</time>
      </trkpt>
      <trkpt lat="47.38172" lon="-2.37075">
        <ele>-79.199996948242</ele>
        <time>2022-08-07T08:30:49.000Z</time>
      </trkpt>
      <trkpt lat="47.38169" lon="-2.37069">
        <ele>-78.800003051758</ele>
        <time>2022-08-07T08:30:50.000Z</time>
      </trkpt>
      <trkpt lat="47.38167" lon="-2.37063">
        <ele>-78.400001525879</ele>
        <time>2022-08-07T08:30:51.000Z</time>
      </trkpt>
      <trkpt lat="47.38165" lon="-2.37056">
        <ele>-78</ele>
        <time>2022-08-07T08:30:52.000Z</time>
      </trkpt>
      <trkpt lat="47.38156" lon="-2.37032">
        <ele>-78</ele>
        <time>2022-08-07T08:30:56.000Z</time>
      </trkpt>
      <trkpt lat="47.38144" lon="-2.37">
        <ele>-78</ele>
        <time>2022-08-07T08:31:02.000Z</time>
      </trkpt>
      <trkpt lat="47.38142" lon="-2.36995">
        <ele>-78</ele>
        <time>2022-08-07T08:31:03.000Z</time>
      </trkpt>
      <trkpt lat="47.38136" lon="-2.36972">
        <ele>-78</ele>
        <time>2022-08-07T08:31:07.000Z</time>
      </trkpt>
      <trkpt lat="47.38133" lon="-2.36967">
        <ele>-78</ele>
        <time>2022-08-07T08:31:08.000Z</time>
      </trkpt>
      <trkpt lat="47.38124" lon="-2.36949">
        <ele>-78</ele>
        <time>2022-08-07T08:31:11.000Z</time>
      </trkpt>
      <trkpt lat="47.38113" lon="-2.36922">
        <ele>-78</ele>
        <time>2022-08-07T08:31:16.000Z</time>
      </trkpt>
      <trkpt lat="47.38109" lon="-2.36912">
        <ele>-78</ele>
        <time>2022-08-07T08:31:19.000Z</time>
      </trkpt>
      <trkpt lat="47.38109" lon="-2.3691">
        <ele>-78</ele>
        <time>2022-08-07T08:31:20.000Z</time>
      </trkpt>
      <trkpt lat="47.3811" lon="-2.36907">
        <ele>-78</ele>
        <time>2022-08-07T08:31:22.000Z</time>
      </trkpt>
      <trkpt lat="47.38112" lon="-2.36904">
        <ele>-78</ele>
        <time>2022-08-07T08:31:50.000Z</time>
      </trkpt>
      <trkpt lat="47.38118" lon="-2.36901">
        <ele>-78</ele>
        <time>2022-08-07T08:31:53.000Z</time>
      </trkpt>
      <trkpt lat="47.38121" lon="-2.36899">
        <ele>-78</ele>
        <time>2022-08-07T08:31:54.000Z</time>
      </trkpt>
      <trkpt lat="47.38133" lon="-2.36891">
        <ele>-78</ele>
        <time>2022-08-07T08:31:58.000Z</time>
      </trkpt>
      <trkpt lat="47.38149" lon="-2.36882">
        <ele>-78</ele>
        <time>2022-08-07T08:32:02.000Z</time>
      </trkpt>
      <trkpt lat="47.38158" lon="-2.36876">
        <ele>-78</ele>
        <time>2022-08-07T08:32:04.000Z</time>
      </trkpt>
      <trkpt lat="47.38184" lon="-2.3686">
        <ele>-78</ele>
        <time>2022-08-07T08:32:09.000Z</time>
      </trkpt>
      <trkpt lat="47.38208" lon="-2.36846">
        <ele>-78.400001525879</ele>
        <time>2022-08-07T08:32:13.000Z</time>
      </trkpt>
      <trkpt lat="47.38215" lon="-2.36842">
        <ele>-78.800003051758</ele>
        <time>2022-08-07T08:32:14.000Z</time>
      </trkpt>
      <trkpt lat="47.38221" lon="-2.36838">
        <ele>-79.199996948242</ele>
        <time>2022-08-07T08:32:15.000Z</time>
      </trkpt>
      <trkpt lat="47.38228" lon="-2.36835">
        <ele>-79.599998474121</ele>
        <time>2022-08-07T08:32:16.000Z</time>
      </trkpt>
      <trkpt lat="47.38235" lon="-2.36831">
        <ele>-80</ele>
        <time>2022-08-07T08:32:17.000Z</time>
      </trkpt>
      <trkpt lat="47.38259" lon="-2.36816">
        <ele>-80</ele>
        <time>2022-08-07T08:32:21.000Z</time>
      </trkpt>
      <trkpt lat="47.38266" lon="-2.36814">
        <ele>-80.400001525879</ele>
        <time>2022-08-07T08:32:22.000Z</time>
      </trkpt>
      <trkpt lat="47.38274" lon="-2.36811">
        <ele>-80.800003051758</ele>
        <time>2022-08-07T08:32:23.000Z</time>
      </trkpt>
      <trkpt lat="47.3828" lon="-2.36808">
        <ele>-81.199996948242</ele>
        <time>2022-08-07T08:32:24.000Z</time>
      </trkpt>
      <trkpt lat="47.38286" lon="-2.36806">
        <ele>-81.599998474121</ele>
        <time>2022-08-07T08:32:25.000Z</time>
      </trkpt>
      <trkpt lat="47.38291" lon="-2.36804">
        <ele>-82</ele>
        <time>2022-08-07T08:32:26.000Z</time>
      </trkpt>
      <trkpt lat="47.38296" lon="-2.36803">
        <ele>-82</ele>
        <time>2022-08-07T08:32:27.000Z</time>
      </trkpt>
      <trkpt lat="47.38301" lon="-2.36802">
        <ele>-82</ele>
        <time>2022-08-07T08:32:28.000Z</time>
      </trkpt>
      <trkpt lat="47.38307" lon="-2.36802">
        <ele>-82</ele>
        <time>2022-08-07T08:32:29.000Z</time>
      </trkpt>
      <trkpt lat="47.38321" lon="-2.36798">
        <ele>-82</ele>
        <time>2022-08-07T08:32:32.000Z</time>
      </trkpt>
      <trkpt lat="47.38327" lon="-2.36795">
        <ele>-82</ele>
        <time>2022-08-07T08:32:33.000Z</time>
      </trkpt>
      <trkpt lat="47.38346" lon="-2.36789">
        <ele>-82</ele>
        <time>2022-08-07T08:32:36.000Z</time>
      </trkpt>
      <trkpt lat="47.3835" lon="-2.36784">
        <ele>-82</ele>
        <time>2022-08-07T08:32:37.000Z</time>
      </trkpt>
      <trkpt lat="47.38364" lon="-2.36757">
        <ele>-82</ele>
        <time>2022-08-07T08:32:41.000Z</time>
      </trkpt>
      <trkpt lat="47.38373" lon="-2.36727">
        <ele>-82</ele>
        <time>2022-08-07T08:32:45.000Z</time>
      </trkpt>
      <trkpt lat="47.38385" lon="-2.3668">
        <ele>-82</ele>
        <time>2022-08-07T08:32:51.000Z</time>
      </trkpt>
      <trkpt lat="47.38392" lon="-2.36657">
        <ele>-82</ele>
        <time>2022-08-07T08:32:54.000Z</time>
      </trkpt>
      <trkpt lat="47.38399" lon="-2.36643">
        <ele>-82</ele>
        <time>2022-08-07T08:32:56.000Z</time>
      </trkpt>
      <trkpt lat="47.38401" lon="-2.36634">
        <ele>-82</ele>
        <time>2022-08-07T08:32:57.000Z</time>
      </trkpt>
      <trkpt lat="47.38407" lon="-2.36622">
        <ele>-82</ele>
        <time>2022-08-07T08:32:59.000Z</time>
      </trkpt>
      <trkpt lat="47.38428" lon="-2.36598">
        <ele>-82</ele>
        <time>2022-08-07T08:33:04.000Z</time>
      </trkpt>
      <trkpt lat="47.38441" lon="-2.36592">
        <ele>-82</ele>
        <time>2022-08-07T08:33:06.000Z</time>
      </trkpt>
      <trkpt lat="47.38447" lon="-2.36588">
        <ele>-82</ele>
        <time>2022-08-07T08:33:07.000Z</time>
      </trkpt>
      <trkpt lat="47.38455" lon="-2.36585">
        <ele>-82</ele>
        <time>2022-08-07T08:33:08.000Z</time>
      </trkpt>
      <trkpt lat="47.38483" lon="-2.36571">
        <ele>-82</ele>
        <time>2022-08-07T08:33:12.000Z</time>
      </trkpt>
      <trkpt lat="47.38495" lon="-2.36562">
        <ele>-82</ele>
        <time>2022-08-07T08:33:14.000Z</time>
      </trkpt>
      <trkpt lat="47.38501" lon="-2.36556">
        <ele>-82</ele>
        <time>2022-08-07T08:33:15.000Z</time>
      </trkpt>
      <trkpt lat="47.38514" lon="-2.36541">
        <ele>-82</ele>
        <time>2022-08-07T08:33:18.000Z</time>
      </trkpt>
      <trkpt lat="47.38524" lon="-2.36528">
        <ele>-82</ele>
        <time>2022-08-07T08:33:20.000Z</time>
      </trkpt>
      <trkpt lat="47.38533" lon="-2.36517">
        <ele>-82</ele>
        <time>2022-08-07T08:33:22.000Z</time>
      </trkpt>
      <trkpt lat="47.38541" lon="-2.36496">
        <ele>-82</ele>
        <time>2022-08-07T08:33:25.000Z</time>
      </trkpt>
      <trkpt lat="47.38544" lon="-2.36489">
        <ele>-82</ele>
        <time>2022-08-07T08:33:26.000Z</time>
      </trkpt>
      <trkpt lat="47.38563" lon="-2.36451">
        <ele>-82</ele>
        <time>2022-08-07T08:33:31.000Z</time>
      </trkpt>
      <trkpt lat="47.38566" lon="-2.36445">
        <ele>-82</ele>
        <time>2022-08-07T08:33:32.000Z</time>
      </trkpt>
      <trkpt lat="47.38581" lon="-2.36415">
        <ele>-82</ele>
        <time>2022-08-07T08:33:36.000Z</time>
      </trkpt>
      <trkpt lat="47.38598" lon="-2.36375">
        <ele>-82</ele>
        <time>2022-08-07T08:33:41.000Z</time>
      </trkpt>
      <trkpt lat="47.38611" lon="-2.3634">
        <ele>-82</ele>
        <time>2022-08-07T08:33:45.000Z</time>
      </trkpt>
      <trkpt lat="47.38613" lon="-2.36332">
        <ele>-82</ele>
        <time>2022-08-07T08:33:46.000Z</time>
      </trkpt>
      <trkpt lat="47.38615" lon="-2.36314">
        <ele>-82</ele>
        <time>2022-08-07T08:33:48.000Z</time>
      </trkpt>
      <trkpt lat="47.38615" lon="-2.36295">
        <ele>-82</ele>
        <time>2022-08-07T08:33:50.000Z</time>
      </trkpt>
      <trkpt lat="47.38607" lon="-2.36272">
        <ele>-82</ele>
        <time>2022-08-07T08:33:53.000Z</time>
      </trkpt>
      <trkpt lat="47.38591" lon="-2.36265">
        <ele>-82</ele>
        <time>2022-08-07T08:33:56.000Z</time>
      </trkpt>
      <trkpt lat="47.38585" lon="-2.36264">
        <ele>-82</ele>
        <time>2022-08-07T08:33:57.000Z</time>
      </trkpt>
      <trkpt lat="47.38568" lon="-2.36265">
        <ele>-82</ele>
        <time>2022-08-07T08:34:00.000Z</time>
      </trkpt>
      <trkpt lat="47.38556" lon="-2.36268">
        <ele>-82</ele>
        <time>2022-08-07T08:34:02.000Z</time>
      </trkpt>
      <trkpt lat="47.38545" lon="-2.36265">
        <ele>-82</ele>
        <time>2022-08-07T08:34:04.000Z</time>
      </trkpt>
      <trkpt lat="47.38534" lon="-2.36264">
        <ele>-82</ele>
        <time>2022-08-07T08:34:06.000Z</time>
      </trkpt>
      <trkpt lat="47.38522" lon="-2.36262">
        <ele>-82</ele>
        <time>2022-08-07T08:34:08.000Z</time>
      </trkpt>
      <trkpt lat="47.38517" lon="-2.3626">
        <ele>-82</ele>
        <time>2022-08-07T08:34:09.000Z</time>
      </trkpt>
      <trkpt lat="47.3849" lon="-2.36253">
        <ele>-82</ele>
        <time>2022-08-07T08:34:14.000Z</time>
      </trkpt>
      <trkpt lat="47.38484" lon="-2.36254">
        <ele>-82</ele>
        <time>2022-08-07T08:34:15.000Z</time>
      </trkpt>
      <trkpt lat="47.38475" lon="-2.3626">
        <ele>-82</ele>
        <time>2022-08-07T08:34:17.000Z</time>
      </trkpt>
      <trkpt lat="47.38467" lon="-2.36269">
        <ele>-82</ele>
        <time>2022-08-07T08:34:20.000Z</time>
      </trkpt>
      <trkpt lat="47.38454" lon="-2.36267">
        <ele>-82</ele>
        <time>2022-08-07T08:34:23.000Z</time>
      </trkpt>
      <trkpt lat="47.38444" lon="-2.36263">
        <ele>-82</ele>
        <time>2022-08-07T08:34:26.000Z</time>
      </trkpt>
      <trkpt lat="47.38434" lon="-2.36253">
        <ele>-82</ele>
        <time>2022-08-07T08:34:30.000Z</time>
      </trkpt>
      <trkpt lat="47.38427" lon="-2.36237">
        <ele>-82</ele>
        <time>2022-08-07T08:34:34.000Z</time>
      </trkpt>
      <trkpt lat="47.38428" lon="-2.36235">
        <ele>-82</ele>
        <time>2022-08-07T08:34:35.000Z</time>
      </trkpt>
      <trkpt lat="47.38425" lon="-2.36222">
        <ele>-82</ele>
        <time>2022-08-07T08:34:39.000Z</time>
      </trkpt>
      <trkpt lat="47.38423" lon="-2.36222">
        <ele>-82</ele>
        <time>2022-08-07T08:34:40.000Z</time>
      </trkpt>
      <trkpt lat="47.38419" lon="-2.3622">
        <ele>-82</ele>
        <time>2022-08-07T08:34:42.000Z</time>
      </trkpt>
      <trkpt lat="47.38408" lon="-2.3621">
        <ele>-82</ele>
        <time>2022-08-07T08:34:46.000Z</time>
      </trkpt>
      <trkpt lat="47.38397" lon="-2.362">
        <ele>-82</ele>
        <time>2022-08-07T08:34:49.000Z</time>
      </trkpt>
      <trkpt lat="47.38392" lon="-2.36198">
        <ele>-82</ele>
        <time>2022-08-07T08:34:50.000Z</time>
      </trkpt>
      <trkpt lat="47.38388" lon="-2.36194">
        <ele>-82</ele>
        <time>2022-08-07T08:34:51.000Z</time>
      </trkpt>
      <trkpt lat="47.38377" lon="-2.36187">
        <ele>-82</ele>
        <time>2022-08-07T08:34:53.000Z</time>
      </trkpt>
      <trkpt lat="47.38373" lon="-2.3618">
        <ele>-82</ele>
        <time>2022-08-07T08:34:54.000Z</time>
      </trkpt>
      <trkpt lat="47.38365" lon="-2.36158">
        <ele>-82</ele>
        <time>2022-08-07T08:34:57.000Z</time>
      </trkpt>
      <trkpt lat="47.38363" lon="-2.3615">
        <ele>-82</ele>
        <time>2022-08-07T08:34:58.000Z</time>
      </trkpt>
      <trkpt lat="47.38344" lon="-2.36104">
        <ele>-82</ele>
        <time>2022-08-07T08:35:04.000Z</time>
      </trkpt>
      <trkpt lat="47.38331" lon="-2.36064">
        <ele>-82</ele>
        <time>2022-08-07T08:35:09.000Z</time>
      </trkpt>
      <trkpt lat="47.38323" lon="-2.3604">
        <ele>-82</ele>
        <time>2022-08-07T08:35:12.000Z</time>
      </trkpt>
      <trkpt lat="47.38318" lon="-2.36015">
        <ele>-82</ele>
        <time>2022-08-07T08:35:15.000Z</time>
      </trkpt>
      <trkpt lat="47.38306" lon="-2.35967">
        <ele>-82</ele>
        <time>2022-08-07T08:35:21.000Z</time>
      </trkpt>
      <trkpt lat="47.38302" lon="-2.35952">
        <ele>-82</ele>
        <time>2022-08-07T08:35:23.000Z</time>
      </trkpt>
      <trkpt lat="47.38295" lon="-2.3593">
        <ele>-82</ele>
        <time>2022-08-07T08:35:26.000Z</time>
      </trkpt>
      <trkpt lat="47.38281" lon="-2.35928">
        <ele>-82</ele>
        <time>2022-08-07T08:35:29.000Z</time>
      </trkpt>
      <trkpt lat="47.38271" lon="-2.35934">
        <ele>-82</ele>
        <time>2022-08-07T08:35:31.000Z</time>
      </trkpt>
      <trkpt lat="47.38264" lon="-2.35938">
        <ele>-82</ele>
        <time>2022-08-07T08:35:33.000Z</time>
      </trkpt>
      <trkpt lat="47.38249" lon="-2.35947">
        <ele>-82</ele>
        <time>2022-08-07T08:35:37.000Z</time>
      </trkpt>
      <trkpt lat="47.38245" lon="-2.3595">
        <ele>-82</ele>
        <time>2022-08-07T08:35:38.000Z</time>
      </trkpt>
      <trkpt lat="47.38237" lon="-2.35955">
        <ele>-81.599998474121</ele>
        <time>2022-08-07T08:35:40.000Z</time>
      </trkpt>
      <trkpt lat="47.38234" lon="-2.35958">
        <ele>-81.199996948242</ele>
        <time>2022-08-07T08:35:41.000Z</time>
      </trkpt>
      <trkpt lat="47.3823" lon="-2.35961">
        <ele>-80.800003051758</ele>
        <time>2022-08-07T08:35:42.000Z</time>
      </trkpt>
      <trkpt lat="47.38226" lon="-2.35963">
        <ele>-80.400001525879</ele>
        <time>2022-08-07T08:35:43.000Z</time>
      </trkpt>
      <trkpt lat="47.38222" lon="-2.35966">
        <ele>-80</ele>
        <time>2022-08-07T08:35:44.000Z</time>
      </trkpt>
      <trkpt lat="47.38218" lon="-2.35968">
        <ele>-80</ele>
        <time>2022-08-07T08:35:45.000Z</time>
      </trkpt>
      <trkpt lat="47.38189" lon="-2.35989">
        <ele>-80</ele>
        <time>2022-08-07T08:35:53.000Z</time>
      </trkpt>
      <trkpt lat="47.38161" lon="-2.36009">
        <ele>-80</ele>
        <time>2022-08-07T08:36:00.000Z</time>
      </trkpt>
      <trkpt lat="47.38138" lon="-2.36026">
        <ele>-80</ele>
        <time>2022-08-07T08:36:06.000Z</time>
      </trkpt>
      <trkpt lat="47.38134" lon="-2.36028">
        <ele>-80</ele>
        <time>2022-08-07T08:36:07.000Z</time>
      </trkpt>
      <trkpt lat="47.38113" lon="-2.36039">
        <ele>-80</ele>
        <time>2022-08-07T08:36:12.000Z</time>
      </trkpt>
      <trkpt lat="47.3809" lon="-2.36047">
        <ele>-80</ele>
        <time>2022-08-07T08:36:17.000Z</time>
      </trkpt>
      <trkpt lat="47.3806" lon="-2.36056">
        <ele>-80</ele>
        <time>2022-08-07T08:36:24.000Z</time>
      </trkpt>
      <trkpt lat="47.38052" lon="-2.36059">
        <ele>-80</ele>
        <time>2022-08-07T08:36:26.000Z</time>
      </trkpt>
      <trkpt lat="47.38044" lon="-2.36062">
        <ele>-80</ele>
        <time>2022-08-07T08:36:28.000Z</time>
      </trkpt>
      <trkpt lat="47.38036" lon="-2.36065">
        <ele>-80</ele>
        <time>2022-08-07T08:36:30.000Z</time>
      </trkpt>
      <trkpt lat="47.38018" lon="-2.36071">
        <ele>-80</ele>
        <time>2022-08-07T08:36:34.000Z</time>
      </trkpt>
      <trkpt lat="47.38013" lon="-2.36073">
        <ele>-80</ele>
        <time>2022-08-07T08:36:35.000Z</time>
      </trkpt>
      <trkpt lat="47.37983" lon="-2.36085">
        <ele>-80</ele>
        <time>2022-08-07T08:36:41.000Z</time>
      </trkpt>
      <trkpt lat="47.37979" lon="-2.36087">
        <ele>-80</ele>
        <time>2022-08-07T08:36:42.000Z</time>
      </trkpt>
      <trkpt lat="47.37961" lon="-2.36096">
        <ele>-80</ele>
        <time>2022-08-07T08:36:46.000Z</time>
      </trkpt>
      <trkpt lat="47.37945" lon="-2.36105">
        <ele>-79.599998474121</ele>
        <time>2022-08-07T08:36:50.000Z</time>
      </trkpt>
      <trkpt lat="47.3794" lon="-2.36107">
        <ele>-79.199996948242</ele>
        <time>2022-08-07T08:36:51.000Z</time>
      </trkpt>
      <trkpt lat="47.37935" lon="-2.3611">
        <ele>-78.800003051758</ele>
        <time>2022-08-07T08:36:52.000Z</time>
      </trkpt>
      <trkpt lat="47.37931" lon="-2.36113">
        <ele>-78.400001525879</ele>
        <time>2022-08-07T08:36:53.000Z</time>
      </trkpt>
      <trkpt lat="47.37926" lon="-2.36115">
        <ele>-78</ele>
        <time>2022-08-07T08:36:54.000Z</time>
      </trkpt>
      <trkpt lat="47.37917" lon="-2.3612">
        <ele>-78</ele>
        <time>2022-08-07T08:36:56.000Z</time>
      </trkpt>
      <trkpt lat="47.37903" lon="-2.36125">
        <ele>-78</ele>
        <time>2022-08-07T08:36:59.000Z</time>
      </trkpt>
      <trkpt lat="47.37893" lon="-2.36126">
        <ele>-78</ele>
        <time>2022-08-07T08:37:01.000Z</time>
      </trkpt>
      <trkpt lat="47.3787" lon="-2.36115">
        <ele>-78</ele>
        <time>2022-08-07T08:37:06.000Z</time>
      </trkpt>
      <trkpt lat="47.37865" lon="-2.36113">
        <ele>-78</ele>
        <time>2022-08-07T08:37:07.000Z</time>
      </trkpt>
      <trkpt lat="47.37851" lon="-2.36107">
        <ele>-77.599998474121</ele>
        <time>2022-08-07T08:37:10.000Z</time>
      </trkpt>
      <trkpt lat="47.37846" lon="-2.36105">
        <ele>-77.199996948242</ele>
        <time>2022-08-07T08:37:11.000Z</time>
      </trkpt>
      <trkpt lat="47.37841" lon="-2.36103">
        <ele>-76.800003051758</ele>
        <time>2022-08-07T08:37:12.000Z</time>
      </trkpt>
      <trkpt lat="47.37836" lon="-2.36101">
        <ele>-76.199996948242</ele>
        <time>2022-08-07T08:37:13.000Z</time>
      </trkpt>
      <trkpt lat="47.37832" lon="-2.36099">
        <ele>-75.800003051758</ele>
        <time>2022-08-07T08:37:14.000Z</time>
      </trkpt>
      <trkpt lat="47.37817" lon="-2.36092">
        <ele>-75.800003051758</ele>
        <time>2022-08-07T08:37:17.000Z</time>
      </trkpt>
      <trkpt lat="47.37808" lon="-2.36087">
        <ele>-75.800003051758</ele>
        <time>2022-08-07T08:37:19.000Z</time>
      </trkpt>
      <trkpt lat="47.37804" lon="-2.36086">
        <ele>-75.800003051758</ele>
        <time>2022-08-07T08:37:20.000Z</time>
      </trkpt>
      <trkpt lat="47.37787" lon="-2.36078">
        <ele>-75.800003051758</ele>
        <time>2022-08-07T08:37:24.000Z</time>
      </trkpt>
      <trkpt lat="47.37769" lon="-2.36069">
        <ele>-75.800003051758</ele>
        <time>2022-08-07T08:37:28.000Z</time>
      </trkpt>
      <trkpt lat="47.3776" lon="-2.36063">
        <ele>-75.800003051758</ele>
        <time>2022-08-07T08:37:30.000Z</time>
      </trkpt>
      <trkpt lat="47.3773" lon="-2.36045">
        <ele>-75.800003051758</ele>
        <time>2022-08-07T08:37:37.000Z</time>
      </trkpt>
      <trkpt lat="47.37702" lon="-2.36029">
        <ele>-75.800003051758</ele>
        <time>2022-08-07T08:37:43.000Z</time>
      </trkpt>
      <trkpt lat="47.37698" lon="-2.36027">
        <ele>-75.800003051758</ele>
        <time>2022-08-07T08:37:44.000Z</time>
      </trkpt>
      <trkpt lat="47.37678" lon="-2.3602">
        <ele>-75.800003051758</ele>
        <time>2022-08-07T08:37:48.000Z</time>
      </trkpt>
      <trkpt lat="47.3766" lon="-2.36014">
        <ele>-75.800003051758</ele>
        <time>2022-08-07T08:37:52.000Z</time>
      </trkpt>
      <trkpt lat="47.37652" lon="-2.36011">
        <ele>-75.800003051758</ele>
        <time>2022-08-07T08:37:54.000Z</time>
      </trkpt>
      <trkpt lat="47.37648" lon="-2.36011">
        <ele>-75.800003051758</ele>
        <time>2022-08-07T08:37:55.000Z</time>
      </trkpt>
      <trkpt lat="47.3764" lon="-2.36019">
        <ele>-75.800003051758</ele>
        <time>2022-08-07T08:37:57.000Z</time>
      </trkpt>
      <trkpt lat="47.37639" lon="-2.36025">
        <ele>-76.199996948242</ele>
        <time>2022-08-07T08:37:58.000Z</time>
      </trkpt>
      <trkpt lat="47.37639" lon="-2.36032">
        <ele>-76.599998474121</ele>
        <time>2022-08-07T08:37:59.000Z</time>
      </trkpt>
      <trkpt lat="47.37638" lon="-2.36038">
        <ele>-77</ele>
        <time>2022-08-07T08:38:00.000Z</time>
      </trkpt>
      <trkpt lat="47.37637" lon="-2.36044">
        <ele>-77.599998474121</ele>
        <time>2022-08-07T08:38:01.000Z</time>
      </trkpt>
      <trkpt lat="47.37633" lon="-2.36048">
        <ele>-78</ele>
        <time>2022-08-07T08:38:02.000Z</time>
      </trkpt>
      <trkpt lat="47.37629" lon="-2.3605">
        <ele>-78</ele>
        <time>2022-08-07T08:38:03.000Z</time>
      </trkpt>
      <trkpt lat="47.37621" lon="-2.36051">
        <ele>-78</ele>
        <time>2022-08-07T08:38:05.000Z</time>
      </trkpt>
      <trkpt lat="47.37608" lon="-2.36052">
        <ele>-78</ele>
        <time>2022-08-07T08:38:08.000Z</time>
      </trkpt>
      <trkpt lat="47.37595" lon="-2.36054">
        <ele>-78</ele>
        <time>2022-08-07T08:38:11.000Z</time>
      </trkpt>
      <trkpt lat="47.3758" lon="-2.36058">
        <ele>-78</ele>
        <time>2022-08-07T08:38:14.000Z</time>
      </trkpt>
      <trkpt lat="47.37543" lon="-2.36072">
        <ele>-78</ele>
        <time>2022-08-07T08:38:21.000Z</time>
      </trkpt>
      <trkpt lat="47.37537" lon="-2.36074">
        <ele>-78</ele>
        <time>2022-08-07T08:38:22.000Z</time>
      </trkpt>
      <trkpt lat="47.37499" lon="-2.3609">
        <ele>-78</ele>
        <time>2022-08-07T08:38:29.000Z</time>
      </trkpt>
      <trkpt lat="47.37461" lon="-2.36113">
        <ele>-78</ele>
        <time>2022-08-07T08:38:36.000Z</time>
      </trkpt>
      <trkpt lat="47.37442" lon="-2.36125">
        <ele>-78.400001525879</ele>
        <time>2022-08-07T08:38:39.000Z</time>
      </trkpt>
      <trkpt lat="47.37436" lon="-2.3613">
        <ele>-79</ele>
        <time>2022-08-07T08:38:40.000Z</time>
      </trkpt>
      <trkpt lat="47.3743" lon="-2.36135">
        <ele>-79.400001525879</ele>
        <time>2022-08-07T08:38:41.000Z</time>
      </trkpt>
      <trkpt lat="47.37424" lon="-2.36139">
        <ele>-80</ele>
        <time>2022-08-07T08:38:42.000Z</time>
      </trkpt>
      <trkpt lat="47.37419" lon="-2.36142">
        <ele>-80.400001525879</ele>
        <time>2022-08-07T08:38:43.000Z</time>
      </trkpt>
      <trkpt lat="47.37412" lon="-2.36138">
        <ele>-80.400001525879</ele>
        <time>2022-08-07T08:38:45.000Z</time>
      </trkpt>
      <trkpt lat="47.37408" lon="-2.36133">
        <ele>-80.400001525879</ele>
        <time>2022-08-07T08:38:46.000Z</time>
      </trkpt>
      <trkpt lat="47.37404" lon="-2.36128">
        <ele>-80.400001525879</ele>
        <time>2022-08-07T08:38:47.000Z</time>
      </trkpt>
      <trkpt lat="47.37396" lon="-2.36118">
        <ele>-80.400001525879</ele>
        <time>2022-08-07T08:38:49.000Z</time>
      </trkpt>
      <trkpt lat="47.37393" lon="-2.36113">
        <ele>-80.400001525879</ele>
        <time>2022-08-07T08:38:50.000Z</time>
      </trkpt>
      <trkpt lat="47.3738" lon="-2.36109">
        <ele>-80.800003051758</ele>
        <time>2022-08-07T08:38:53.000Z</time>
      </trkpt>
      <trkpt lat="47.37375" lon="-2.36112">
        <ele>-81.400001525879</ele>
        <time>2022-08-07T08:38:54.000Z</time>
      </trkpt>
      <trkpt lat="47.3737" lon="-2.36115">
        <ele>-81.800003051758</ele>
        <time>2022-08-07T08:38:55.000Z</time>
      </trkpt>
      <trkpt lat="47.37366" lon="-2.36118">
        <ele>-82.199996948242</ele>
        <time>2022-08-07T08:38:56.000Z</time>
      </trkpt>
      <trkpt lat="47.37362" lon="-2.36122">
        <ele>-82.599998474121</ele>
        <time>2022-08-07T08:38:57.000Z</time>
      </trkpt>
      <trkpt lat="47.37354" lon="-2.36127">
        <ele>-82.599998474121</ele>
        <time>2022-08-07T08:38:59.000Z</time>
      </trkpt>
      <trkpt lat="47.37338" lon="-2.36121">
        <ele>-82.599998474121</ele>
        <time>2022-08-07T08:39:03.000Z</time>
      </trkpt>
      <trkpt lat="47.37318" lon="-2.36119">
        <ele>-82.599998474121</ele>
        <time>2022-08-07T08:39:08.000Z</time>
      </trkpt>
      <trkpt lat="47.3731" lon="-2.3612">
        <ele>-82.599998474121</ele>
        <time>2022-08-07T08:39:10.000Z</time>
      </trkpt>
      <trkpt lat="47.373" lon="-2.36123">
        <ele>-82.599998474121</ele>
        <time>2022-08-07T08:39:12.000Z</time>
      </trkpt>
      <trkpt lat="47.37297" lon="-2.36126">
        <ele>-82.599998474121</ele>
        <time>2022-08-07T08:39:13.000Z</time>
      </trkpt>
      <trkpt lat="47.37291" lon="-2.3613">
        <ele>-82.599998474121</ele>
        <time>2022-08-07T08:39:16.000Z</time>
      </trkpt>
      <trkpt lat="47.37288" lon="-2.36132">
        <ele>-82.599998474121</ele>
        <time>2022-08-07T08:39:19.000Z</time>
      </trkpt>
      <trkpt lat="47.37276" lon="-2.36126">
        <ele>-82.599998474121</ele>
        <time>2022-08-07T08:39:37.000Z</time>
      </trkpt>
      <trkpt lat="47.3727" lon="-2.36123">
        <ele>-82.599998474121</ele>
        <time>2022-08-07T08:39:41.000Z</time>
      </trkpt>
      <trkpt lat="47.37269" lon="-2.36122">
        <ele>-82.599998474121</ele>
        <time>2022-08-07T08:39:43.000Z</time>
      </trkpt>
      <trkpt lat="47.37268" lon="-2.36122">
        <ele>-82.599998474121</ele>
        <time>2022-08-07T08:39:44.000Z</time>
      </trkpt>
      <trkpt lat="47.37261" lon="-2.36115">
        <ele>-84.599998474121</ele>
        <time>2022-08-07T08:40:11.000Z</time>
      </trkpt>
      <trkpt lat="47.37258" lon="-2.36111">
        <ele>-84.599998474121</ele>
        <time>2022-08-07T08:40:14.000Z</time>
      </trkpt>
      <trkpt lat="47.37252" lon="-2.36107">
        <ele>-84.599998474121</ele>
        <time>2022-08-07T08:40:22.000Z</time>
      </trkpt>
      <trkpt lat="47.37246" lon="-2.36105">
        <ele>-84.599998474121</ele>
        <time>2022-08-07T08:40:28.000Z</time>
      </trkpt>
      <trkpt lat="47.37239" lon="-2.361">
        <ele>-84.599998474121</ele>
        <time>2022-08-07T08:40:35.000Z</time>
      </trkpt>
      <trkpt lat="47.37238" lon="-2.36098">
        <ele>-84.599998474121</ele>
        <time>2022-08-07T08:40:37.000Z</time>
      </trkpt>
      <trkpt lat="47.37211" lon="-2.36089">
        <ele>-82.400001525879</ele>
        <time>2022-08-07T08:53:26.000Z</time>
      </trkpt>
      <trkpt lat="47.37208" lon="-2.36089">
        <ele>-82.400001525879</ele>
        <time>2022-08-07T08:53:28.000Z</time>
      </trkpt>
      <trkpt lat="47.37202" lon="-2.36099">
        <ele>-82.400001525879</ele>
        <time>2022-08-07T08:53:32.000Z</time>
      </trkpt>
      <trkpt lat="47.372" lon="-2.36106">
        <ele>-82.400001525879</ele>
        <time>2022-08-07T08:53:34.000Z</time>
      </trkpt>
      <trkpt lat="47.37193" lon="-2.36119">
        <ele>-82.400001525879</ele>
        <time>2022-08-07T08:53:38.000Z</time>
      </trkpt>
      <trkpt lat="47.37181" lon="-2.3614">
        <ele>-82.400001525879</ele>
        <time>2022-08-07T08:53:43.000Z</time>
      </trkpt>
      <trkpt lat="47.3717" lon="-2.36166">
        <ele>-82.400001525879</ele>
        <time>2022-08-07T08:53:48.000Z</time>
      </trkpt>
      <trkpt lat="47.3716" lon="-2.36185">
        <ele>-82.400001525879</ele>
        <time>2022-08-07T08:53:52.000Z</time>
      </trkpt>
      <trkpt lat="47.37154" lon="-2.362">
        <ele>-82.400001525879</ele>
        <time>2022-08-07T08:53:55.000Z</time>
      </trkpt>
      <trkpt lat="47.37141" lon="-2.3623">
        <ele>-82.400001525879</ele>
        <time>2022-08-07T08:54:01.000Z</time>
      </trkpt>
      <trkpt lat="47.37124" lon="-2.36265">
        <ele>-82.400001525879</ele>
        <time>2022-08-07T08:54:08.000Z</time>
      </trkpt>
      <trkpt lat="47.37107" lon="-2.36299">
        <ele>-82.400001525879</ele>
        <time>2022-08-07T08:54:15.000Z</time>
      </trkpt>
      <trkpt lat="47.37105" lon="-2.36304">
        <ele>-82</ele>
        <time>2022-08-07T08:54:16.000Z</time>
      </trkpt>
      <trkpt lat="47.37102" lon="-2.3631">
        <ele>-81.599998474121</ele>
        <time>2022-08-07T08:54:17.000Z</time>
      </trkpt>
      <trkpt lat="47.371" lon="-2.36315">
        <ele>-81.199996948242</ele>
        <time>2022-08-07T08:54:18.000Z</time>
      </trkpt>
      <trkpt lat="47.37098" lon="-2.3632">
        <ele>-80.800003051758</ele>
        <time>2022-08-07T08:54:19.000Z</time>
      </trkpt>
      <trkpt lat="47.37095" lon="-2.36326">
        <ele>-80.400001525879</ele>
        <time>2022-08-07T08:54:20.000Z</time>
      </trkpt>
      <trkpt lat="47.37081" lon="-2.36352">
        <ele>-80.400001525879</ele>
        <time>2022-08-07T08:54:25.000Z</time>
      </trkpt>
      <trkpt lat="47.37075" lon="-2.36361">
        <ele>-80.400001525879</ele>
        <time>2022-08-07T08:54:27.000Z</time>
      </trkpt>
      <trkpt lat="47.37061" lon="-2.36368">
        <ele>-80.400001525879</ele>
        <time>2022-08-07T08:54:30.000Z</time>
      </trkpt>
      <trkpt lat="47.37045" lon="-2.36369">
        <ele>-80.400001525879</ele>
        <time>2022-08-07T08:54:33.000Z</time>
      </trkpt>
      <trkpt lat="47.37035" lon="-2.36369">
        <ele>-80.400001525879</ele>
        <time>2022-08-07T08:54:35.000Z</time>
      </trkpt>
      <trkpt lat="47.37002" lon="-2.36372">
        <ele>-80.400001525879</ele>
        <time>2022-08-07T08:54:41.000Z</time>
      </trkpt>
      <trkpt lat="47.36969" lon="-2.36372">
        <ele>-80.400001525879</ele>
        <time>2022-08-07T08:54:47.000Z</time>
      </trkpt>
      <trkpt lat="47.36933" lon="-2.36372">
        <ele>-80.400001525879</ele>
        <time>2022-08-07T08:54:54.000Z</time>
      </trkpt>
      <trkpt lat="47.36897" lon="-2.36374">
        <ele>-80.400001525879</ele>
        <time>2022-08-07T08:55:01.000Z</time>
      </trkpt>
      <trkpt lat="47.36866" lon="-2.36373">
        <ele>-80.400001525879</ele>
        <time>2022-08-07T08:55:07.000Z</time>
      </trkpt>
      <trkpt lat="47.36842" lon="-2.36372">
        <ele>-80.400001525879</ele>
        <time>2022-08-07T08:55:12.000Z</time>
      </trkpt>
      <trkpt lat="47.36828" lon="-2.36372">
        <ele>-80.400001525879</ele>
        <time>2022-08-07T08:55:15.000Z</time>
      </trkpt>
      <trkpt lat="47.36818" lon="-2.36375">
        <ele>-80.400001525879</ele>
        <time>2022-08-07T08:55:17.000Z</time>
      </trkpt>
      <trkpt lat="47.36809" lon="-2.36376">
        <ele>-80.400001525879</ele>
        <time>2022-08-07T08:55:19.000Z</time>
      </trkpt>
      <trkpt lat="47.36794" lon="-2.36376">
        <ele>-80.400001525879</ele>
        <time>2022-08-07T08:55:22.000Z</time>
      </trkpt>
      <trkpt lat="47.36759" lon="-2.36377">
        <ele>-80.400001525879</ele>
        <time>2022-08-07T08:55:29.000Z</time>
      </trkpt>
      <trkpt lat="47.36755" lon="-2.36378">
        <ele>-80.400001525879</ele>
        <time>2022-08-07T08:55:30.000Z</time>
      </trkpt>
      <trkpt lat="47.36742" lon="-2.36386">
        <ele>-80.400001525879</ele>
        <time>2022-08-07T08:55:33.000Z</time>
      </trkpt>
      <trkpt lat="47.36731" lon="-2.364">
        <ele>-80.400001525879</ele>
        <time>2022-08-07T08:55:36.000Z</time>
      </trkpt>
      <trkpt lat="47.36728" lon="-2.36405">
        <ele>-80</ele>
        <time>2022-08-07T08:55:37.000Z</time>
      </trkpt>
      <trkpt lat="47.36724" lon="-2.3641">
        <ele>-79.599998474121</ele>
        <time>2022-08-07T08:55:38.000Z</time>
      </trkpt>
      <trkpt lat="47.3672" lon="-2.36416">
        <ele>-79.199996948242</ele>
        <time>2022-08-07T08:55:39.000Z</time>
      </trkpt>
      <trkpt lat="47.36717" lon="-2.36421">
        <ele>-78.800003051758</ele>
        <time>2022-08-07T08:55:40.000Z</time>
      </trkpt>
      <trkpt lat="47.36713" lon="-2.36426">
        <ele>-78.400001525879</ele>
        <time>2022-08-07T08:55:41.000Z</time>
      </trkpt>
      <trkpt lat="47.36695" lon="-2.36444">
        <ele>-78.400001525879</ele>
        <time>2022-08-07T08:55:45.000Z</time>
      </trkpt>
      <trkpt lat="47.36668" lon="-2.36465">
        <ele>-78.400001525879</ele>
        <time>2022-08-07T08:55:51.000Z</time>
      </trkpt>
      <trkpt lat="47.36649" lon="-2.36477">
        <ele>-78</ele>
        <time>2022-08-07T08:55:55.000Z</time>
      </trkpt>
      <trkpt lat="47.36644" lon="-2.36479">
        <ele>-77.599998474121</ele>
        <time>2022-08-07T08:55:56.000Z</time>
      </trkpt>
      <trkpt lat="47.3664" lon="-2.36482">
        <ele>-77</ele>
        <time>2022-08-07T08:55:57.000Z</time>
      </trkpt>
      <trkpt lat="47.36635" lon="-2.36485">
        <ele>-76.599998474121</ele>
        <time>2022-08-07T08:55:58.000Z</time>
      </trkpt>
      <trkpt lat="47.36631" lon="-2.36488">
        <ele>-76.199996948242</ele>
        <time>2022-08-07T08:55:59.000Z</time>
      </trkpt>
      <trkpt lat="47.36599" lon="-2.36506">
        <ele>-76.199996948242</ele>
        <time>2022-08-07T08:56:06.000Z</time>
      </trkpt>
      <trkpt lat="47.36595" lon="-2.36508">
        <ele>-75.800003051758</ele>
        <time>2022-08-07T08:56:07.000Z</time>
      </trkpt>
      <trkpt lat="47.3659" lon="-2.36511">
        <ele>-75.400001525879</ele>
        <time>2022-08-07T08:56:08.000Z</time>
      </trkpt>
      <trkpt lat="47.36585" lon="-2.36514">
        <ele>-74.800003051758</ele>
        <time>2022-08-07T08:56:09.000Z</time>
      </trkpt>
      <trkpt lat="47.3658" lon="-2.36516">
        <ele>-74.400001525879</ele>
        <time>2022-08-07T08:56:10.000Z</time>
      </trkpt>
      <trkpt lat="47.36576" lon="-2.36517">
        <ele>-74</ele>
        <time>2022-08-07T08:56:11.000Z</time>
      </trkpt>
      <trkpt lat="47.36572" lon="-2.36517">
        <ele>-74</ele>
        <time>2022-08-07T08:56:12.000Z</time>
      </trkpt>
      <trkpt lat="47.36566" lon="-2.36508">
        <ele>-74</ele>
        <time>2022-08-07T08:56:14.000Z</time>
      </trkpt>
      <trkpt lat="47.36563" lon="-2.36494">
        <ele>-73.599998474121</ele>
        <time>2022-08-07T08:56:16.000Z</time>
      </trkpt>
      <trkpt lat="47.3656" lon="-2.36487">
        <ele>-73</ele>
        <time>2022-08-07T08:56:17.000Z</time>
      </trkpt>
      <trkpt lat="47.36558" lon="-2.3648">
        <ele>-72.599998474121</ele>
        <time>2022-08-07T08:56:18.000Z</time>
      </trkpt>
      <trkpt lat="47.36555" lon="-2.36473">
        <ele>-72.199996948242</ele>
        <time>2022-08-07T08:56:19.000Z</time>
      </trkpt>
      <trkpt lat="47.36552" lon="-2.36466">
        <ele>-71.800003051758</ele>
        <time>2022-08-07T08:56:20.000Z</time>
      </trkpt>
      <trkpt lat="47.36537" lon="-2.3643">
        <ele>-71.800003051758</ele>
        <time>2022-08-07T08:56:25.000Z</time>
      </trkpt>
      <trkpt lat="47.36532" lon="-2.36416">
        <ele>-71.800003051758</ele>
        <time>2022-08-07T08:56:27.000Z</time>
      </trkpt>
      <trkpt lat="47.36523" lon="-2.36386">
        <ele>-72.199996948242</ele>
        <time>2022-08-07T08:56:31.000Z</time>
      </trkpt>
      <trkpt lat="47.36521" lon="-2.36378">
        <ele>-72.599998474121</ele>
        <time>2022-08-07T08:56:32.000Z</time>
      </trkpt>
      <trkpt lat="47.36519" lon="-2.36371">
        <ele>-73.199996948242</ele>
        <time>2022-08-07T08:56:33.000Z</time>
      </trkpt>
      <trkpt lat="47.36516" lon="-2.36364">
        <ele>-73.599998474121</ele>
        <time>2022-08-07T08:56:34.000Z</time>
      </trkpt>
      <trkpt lat="47.36514" lon="-2.36356">
        <ele>-74</ele>
        <time>2022-08-07T08:56:35.000Z</time>
      </trkpt>
      <trkpt lat="47.36511" lon="-2.3635">
        <ele>-74</ele>
        <time>2022-08-07T08:56:36.000Z</time>
      </trkpt>
      <trkpt lat="47.36507" lon="-2.36336">
        <ele>-74</ele>
        <time>2022-08-07T08:56:38.000Z</time>
      </trkpt>
      <trkpt lat="47.36497" lon="-2.36307">
        <ele>-74</ele>
        <time>2022-08-07T08:56:43.000Z</time>
      </trkpt>
      <trkpt lat="47.3649" lon="-2.36282">
        <ele>-74</ele>
        <time>2022-08-07T08:56:47.000Z</time>
      </trkpt>
      <trkpt lat="47.36482" lon="-2.36253">
        <ele>-74</ele>
        <time>2022-08-07T08:56:52.000Z</time>
      </trkpt>
      <trkpt lat="47.36473" lon="-2.36234">
        <ele>-74</ele>
        <time>2022-08-07T08:56:57.000Z</time>
      </trkpt>
      <trkpt lat="47.36472" lon="-2.36233">
        <ele>-74</ele>
        <time>2022-08-07T08:56:58.000Z</time>
      </trkpt>
      <trkpt lat="47.36468" lon="-2.36231">
        <ele>-74</ele>
        <time>2022-08-07T08:57:02.000Z</time>
      </trkpt>
      <trkpt lat="47.36464" lon="-2.36223">
        <ele>-73.599998474121</ele>
        <time>2022-08-07T08:57:05.000Z</time>
      </trkpt>
      <trkpt lat="47.36464" lon="-2.36219">
        <ele>-73.199996948242</ele>
        <time>2022-08-07T08:57:06.000Z</time>
      </trkpt>
      <trkpt lat="47.36464" lon="-2.36214">
        <ele>-72.800003051758</ele>
        <time>2022-08-07T08:57:07.000Z</time>
      </trkpt>
      <trkpt lat="47.36464" lon="-2.36209">
        <ele>-72.400001525879</ele>
        <time>2022-08-07T08:57:08.000Z</time>
      </trkpt>
      <trkpt lat="47.36464" lon="-2.36203">
        <ele>-72</ele>
        <time>2022-08-07T08:57:09.000Z</time>
      </trkpt>
      <trkpt lat="47.36461" lon="-2.36193">
        <ele>-72</ele>
        <time>2022-08-07T08:57:11.000Z</time>
      </trkpt>
      <trkpt lat="47.36451" lon="-2.36157">
        <ele>-72</ele>
        <time>2022-08-07T08:57:18.000Z</time>
      </trkpt>
      <trkpt lat="47.3644" lon="-2.36115">
        <ele>-72</ele>
        <time>2022-08-07T08:57:26.000Z</time>
      </trkpt>
      <trkpt lat="47.36439" lon="-2.3611">
        <ele>-72</ele>
        <time>2022-08-07T08:57:27.000Z</time>
      </trkpt>
      <trkpt lat="47.3644" lon="-2.36091">
        <ele>-72</ele>
        <time>2022-08-07T08:57:30.000Z</time>
      </trkpt>
      <trkpt lat="47.36449" lon="-2.36073">
        <ele>-72</ele>
        <time>2022-08-07T08:57:33.000Z</time>
      </trkpt>
      <trkpt lat="47.36453" lon="-2.36067">
        <ele>-72</ele>
        <time>2022-08-07T08:57:34.000Z</time>
      </trkpt>
      <trkpt lat="47.36476" lon="-2.36027">
        <ele>-72.400001525879</ele>
        <time>2022-08-07T08:57:40.000Z</time>
      </trkpt>
      <trkpt lat="47.36481" lon="-2.36021">
        <ele>-72.800003051758</ele>
        <time>2022-08-07T08:57:41.000Z</time>
      </trkpt>
      <trkpt lat="47.36486" lon="-2.36015">
        <ele>-73.199996948242</ele>
        <time>2022-08-07T08:57:42.000Z</time>
      </trkpt>
      <trkpt lat="47.3649" lon="-2.36009">
        <ele>-73.599998474121</ele>
        <time>2022-08-07T08:57:43.000Z</time>
      </trkpt>
      <trkpt lat="47.36496" lon="-2.36004">
        <ele>-74</ele>
        <time>2022-08-07T08:57:44.000Z</time>
      </trkpt>
      <trkpt lat="47.36501" lon="-2.35997">
        <ele>-74</ele>
        <time>2022-08-07T08:57:45.000Z</time>
      </trkpt>
      <trkpt lat="47.36506" lon="-2.35991">
        <ele>-74</ele>
        <time>2022-08-07T08:57:46.000Z</time>
      </trkpt>
      <trkpt lat="47.36517" lon="-2.35977">
        <ele>-74.400001525879</ele>
        <time>2022-08-07T08:57:48.000Z</time>
      </trkpt>
      <trkpt lat="47.36522" lon="-2.35971">
        <ele>-74.800003051758</ele>
        <time>2022-08-07T08:57:49.000Z</time>
      </trkpt>
      <trkpt lat="47.36528" lon="-2.35965">
        <ele>-75.400001525879</ele>
        <time>2022-08-07T08:57:50.000Z</time>
      </trkpt>
      <trkpt lat="47.36533" lon="-2.35959">
        <ele>-75.800003051758</ele>
        <time>2022-08-07T08:57:51.000Z</time>
      </trkpt>
      <trkpt lat="47.36538" lon="-2.35952">
        <ele>-76.199996948242</ele>
        <time>2022-08-07T08:57:52.000Z</time>
      </trkpt>
      <trkpt lat="47.36543" lon="-2.35945">
        <ele>-76.199996948242</ele>
        <time>2022-08-07T08:57:53.000Z</time>
      </trkpt>
      <trkpt lat="47.36572" lon="-2.35904">
        <ele>-76.199996948242</ele>
        <time>2022-08-07T08:57:59.000Z</time>
      </trkpt>
      <trkpt lat="47.36581" lon="-2.35892">
        <ele>-76.199996948242</ele>
        <time>2022-08-07T08:58:01.000Z</time>
      </trkpt>
      <trkpt lat="47.36584" lon="-2.35877">
        <ele>-76.199996948242</ele>
        <time>2022-08-07T08:58:03.000Z</time>
      </trkpt>
      <trkpt lat="47.36582" lon="-2.35852">
        <ele>-76.199996948242</ele>
        <time>2022-08-07T08:58:06.000Z</time>
      </trkpt>
      <trkpt lat="47.36579" lon="-2.35837">
        <ele>-76.199996948242</ele>
        <time>2022-08-07T08:58:08.000Z</time>
      </trkpt>
      <trkpt lat="47.36573" lon="-2.35808">
        <ele>-76.199996948242</ele>
        <time>2022-08-07T08:58:12.000Z</time>
      </trkpt>
      <trkpt lat="47.36568" lon="-2.35787">
        <ele>-76.599998474121</ele>
        <time>2022-08-07T08:58:15.000Z</time>
      </trkpt>
      <trkpt lat="47.36566" lon="-2.35779">
        <ele>-77</ele>
        <time>2022-08-07T08:58:16.000Z</time>
      </trkpt>
      <trkpt lat="47.36563" lon="-2.35772">
        <ele>-77.400001525879</ele>
        <time>2022-08-07T08:58:17.000Z</time>
      </trkpt>
      <trkpt lat="47.3656" lon="-2.35764">
        <ele>-78</ele>
        <time>2022-08-07T08:58:18.000Z</time>
      </trkpt>
      <trkpt lat="47.36558" lon="-2.35756">
        <ele>-78.400001525879</ele>
        <time>2022-08-07T08:58:19.000Z</time>
      </trkpt>
      <trkpt lat="47.36544" lon="-2.35717">
        <ele>-78.400001525879</ele>
        <time>2022-08-07T08:58:24.000Z</time>
      </trkpt>
      <trkpt lat="47.36527" lon="-2.3567">
        <ele>-78.400001525879</ele>
        <time>2022-08-07T08:58:30.000Z</time>
      </trkpt>
      <trkpt lat="47.36507" lon="-2.35612">
        <ele>-78.400001525879</ele>
        <time>2022-08-07T08:58:37.000Z</time>
      </trkpt>
      <trkpt lat="47.36485" lon="-2.35544">
        <ele>-78.400001525879</ele>
        <time>2022-08-07T08:58:45.000Z</time>
      </trkpt>
      <trkpt lat="47.36478" lon="-2.3552">
        <ele>-78.400001525879</ele>
        <time>2022-08-07T08:58:48.000Z</time>
      </trkpt>
      <trkpt lat="47.36481" lon="-2.35506">
        <ele>-78.400001525879</ele>
        <time>2022-08-07T08:58:50.000Z</time>
      </trkpt>
      <trkpt lat="47.36493" lon="-2.35488">
        <ele>-78.400001525879</ele>
        <time>2022-08-07T08:58:53.000Z</time>
      </trkpt>
      <trkpt lat="47.36498" lon="-2.35481">
        <ele>-78.400001525879</ele>
        <time>2022-08-07T08:58:54.000Z</time>
      </trkpt>
      <trkpt lat="47.36522" lon="-2.35439">
        <ele>-78.400001525879</ele>
        <time>2022-08-07T08:59:00.000Z</time>
      </trkpt>
      <trkpt lat="47.36535" lon="-2.35418">
        <ele>-78.400001525879</ele>
        <time>2022-08-07T08:59:03.000Z</time>
      </trkpt>
      <trkpt lat="47.36543" lon="-2.35405">
        <ele>-78.400001525879</ele>
        <time>2022-08-07T08:59:05.000Z</time>
      </trkpt>
      <trkpt lat="47.36568" lon="-2.35363">
        <ele>-78.400001525879</ele>
        <time>2022-08-07T08:59:11.000Z</time>
      </trkpt>
      <trkpt lat="47.36592" lon="-2.35323">
        <ele>-79.199996948242</ele>
        <time>2022-08-07T08:59:17.000Z</time>
      </trkpt>
      <trkpt lat="47.36596" lon="-2.35316">
        <ele>-79.599998474121</ele>
        <time>2022-08-07T08:59:18.000Z</time>
      </trkpt>
      <trkpt lat="47.366" lon="-2.3531">
        <ele>-80</ele>
        <time>2022-08-07T08:59:19.000Z</time>
      </trkpt>
      <trkpt lat="47.36604" lon="-2.35303">
        <ele>-80.400001525879</ele>
        <time>2022-08-07T08:59:20.000Z</time>
      </trkpt>
      <trkpt lat="47.36631" lon="-2.35256">
        <ele>-80.400001525879</ele>
        <time>2022-08-07T08:59:27.000Z</time>
      </trkpt>
      <trkpt lat="47.36639" lon="-2.35238">
        <ele>-80.400001525879</ele>
        <time>2022-08-07T08:59:30.000Z</time>
      </trkpt>
      <trkpt lat="47.36639" lon="-2.3523">
        <ele>-80.400001525879</ele>
        <time>2022-08-07T08:59:31.000Z</time>
      </trkpt>
      <trkpt lat="47.36631" lon="-2.35211">
        <ele>-80.400001525879</ele>
        <time>2022-08-07T08:59:34.000Z</time>
      </trkpt>
      <trkpt lat="47.36627" lon="-2.35205">
        <ele>-80.400001525879</ele>
        <time>2022-08-07T08:59:35.000Z</time>
      </trkpt>
      <trkpt lat="47.36624" lon="-2.352">
        <ele>-80.400001525879</ele>
        <time>2022-08-07T08:59:36.000Z</time>
      </trkpt>
      <trkpt lat="47.36612" lon="-2.35181">
        <ele>-80.400001525879</ele>
        <time>2022-08-07T08:59:39.000Z</time>
      </trkpt>
      <trkpt lat="47.36584" lon="-2.35137">
        <ele>-80.400001525879</ele>
        <time>2022-08-07T08:59:46.000Z</time>
      </trkpt>
      <trkpt lat="47.36574" lon="-2.35119">
        <ele>-80.400001525879</ele>
        <time>2022-08-07T08:59:49.000Z</time>
      </trkpt>
      <trkpt lat="47.36563" lon="-2.35101">
        <ele>-80.400001525879</ele>
        <time>2022-08-07T08:59:52.000Z</time>
      </trkpt>
      <trkpt lat="47.36557" lon="-2.35089">
        <ele>-80.400001525879</ele>
        <time>2022-08-07T08:59:54.000Z</time>
      </trkpt>
      <trkpt lat="47.3655" lon="-2.35078">
        <ele>-80.400001525879</ele>
        <time>2022-08-07T08:59:56.000Z</time>
      </trkpt>
      <trkpt lat="47.36542" lon="-2.35067">
        <ele>-80.400001525879</ele>
        <time>2022-08-07T08:59:58.000Z</time>
      </trkpt>
      <trkpt lat="47.36532" lon="-2.3505">
        <ele>-80.400001525879</ele>
        <time>2022-08-07T09:00:01.000Z</time>
      </trkpt>
      <trkpt lat="47.36509" lon="-2.35009">
        <ele>-80.400001525879</ele>
        <time>2022-08-07T09:00:08.000Z</time>
      </trkpt>
      <trkpt lat="47.36503" lon="-2.34995">
        <ele>-80</ele>
        <time>2022-08-07T09:00:11.000Z</time>
      </trkpt>
      <trkpt lat="47.36502" lon="-2.34991">
        <ele>-79.599998474121</ele>
        <time>2022-08-07T09:00:12.000Z</time>
      </trkpt>
      <trkpt lat="47.36499" lon="-2.34988">
        <ele>-79.199996948242</ele>
        <time>2022-08-07T09:00:13.000Z</time>
      </trkpt>
      <trkpt lat="47.36496" lon="-2.34988">
        <ele>-78.800003051758</ele>
        <time>2022-08-07T09:00:14.000Z</time>
      </trkpt>
      <trkpt lat="47.36494" lon="-2.34992">
        <ele>-78.400001525879</ele>
        <time>2022-08-07T09:00:15.000Z</time>
      </trkpt>
      <trkpt lat="47.36493" lon="-2.34997">
        <ele>-78.400001525879</ele>
        <time>2022-08-07T09:00:16.000Z</time>
      </trkpt>
      <trkpt lat="47.365" lon="-2.35008">
        <ele>-78.400001525879</ele>
        <time>2022-08-07T09:00:19.000Z</time>
      </trkpt>
      <trkpt lat="47.36503" lon="-2.35013">
        <ele>-78.400001525879</ele>
        <time>2022-08-07T09:00:20.000Z</time>
      </trkpt>
      <trkpt lat="47.36511" lon="-2.35026">
        <ele>-78.400001525879</ele>
        <time>2022-08-07T09:00:23.000Z</time>
      </trkpt>
      <trkpt lat="47.36517" lon="-2.35035">
        <ele>-78.400001525879</ele>
        <time>2022-08-07T09:00:25.000Z</time>
      </trkpt>
      <trkpt lat="47.36531" lon="-2.3506">
        <ele>-78.400001525879</ele>
        <time>2022-08-07T09:00:31.000Z</time>
      </trkpt>
      <trkpt lat="47.36541" lon="-2.35075">
        <ele>-78.400001525879</ele>
        <time>2022-08-07T09:00:36.000Z</time>
      </trkpt>
      <trkpt lat="47.36546" lon="-2.35089">
        <ele>-78.400001525879</ele>
        <time>2022-08-07T09:00:40.000Z</time>
      </trkpt>
      <trkpt lat="47.36544" lon="-2.35094">
        <ele>-78.400001525879</ele>
        <time>2022-08-07T09:00:42.000Z</time>
      </trkpt>
      <trkpt lat="47.36541" lon="-2.35095">
        <ele>-78.400001525879</ele>
        <time>2022-08-07T09:00:43.000Z</time>
      </trkpt>
      <trkpt lat="47.36526" lon="-2.351">
        <ele>-78.400001525879</ele>
        <time>2022-08-07T09:00:47.000Z</time>
      </trkpt>
      <trkpt lat="47.36522" lon="-2.35101">
        <ele>-78.400001525879</ele>
        <time>2022-08-07T09:00:48.000Z</time>
      </trkpt>
      <trkpt lat="47.36513" lon="-2.35103">
        <ele>-78.400001525879</ele>
        <time>2022-08-07T09:00:50.000Z</time>
      </trkpt>
      <trkpt lat="47.36496" lon="-2.35105">
        <ele>-78.400001525879</ele>
        <time>2022-08-07T09:00:54.000Z</time>
      </trkpt>
      <trkpt lat="47.36487" lon="-2.35099">
        <ele>-78.400001525879</ele>
        <time>2022-08-07T09:00:57.000Z</time>
      </trkpt>
      <trkpt lat="47.36462" lon="-2.35085">
        <ele>-78.400001525879</ele>
        <time>2022-08-07T09:01:03.000Z</time>
      </trkpt>
      <trkpt lat="47.3644" lon="-2.35075">
        <ele>-78.400001525879</ele>
        <time>2022-08-07T09:01:09.000Z</time>
      </trkpt>
      <trkpt lat="47.36426" lon="-2.35067">
        <ele>-78.400001525879</ele>
        <time>2022-08-07T09:01:15.000Z</time>
      </trkpt>
      <trkpt lat="47.36423" lon="-2.35064">
        <ele>-78.400001525879</ele>
        <time>2022-08-07T09:01:18.000Z</time>
      </trkpt>
      <trkpt lat="47.36422" lon="-2.35063">
        <ele>-78.400001525879</ele>
        <time>2022-08-07T09:01:20.000Z</time>
      </trkpt>
      <trkpt lat="47.36411" lon="-2.35079">
        <ele>-78.400001525879</ele>
        <time>2022-08-07T09:01:53.000Z</time>
      </trkpt>
      <trkpt lat="47.36407" lon="-2.35079">
        <ele>-78.400001525879</ele>
        <time>2022-08-07T09:01:55.000Z</time>
      </trkpt>
      <trkpt lat="47.364" lon="-2.35076">
        <ele>-78.400001525879</ele>
        <time>2022-08-07T09:01:58.000Z</time>
      </trkpt>
      <trkpt lat="47.36396" lon="-2.3507">
        <ele>-78.400001525879</ele>
        <time>2022-08-07T09:02:00.000Z</time>
      </trkpt>
      <trkpt lat="47.36388" lon="-2.35055">
        <ele>-78.400001525879</ele>
        <time>2022-08-07T09:02:05.000Z</time>
      </trkpt>
      <trkpt lat="47.36383" lon="-2.35042">
        <ele>-78.400001525879</ele>
        <time>2022-08-07T09:02:09.000Z</time>
      </trkpt>
      <trkpt lat="47.3638" lon="-2.35039">
        <ele>-78.400001525879</ele>
        <time>2022-08-07T09:02:11.000Z</time>
      </trkpt>
      <trkpt lat="47.36375" lon="-2.35038">
        <ele>-78.400001525879</ele>
        <time>2022-08-07T09:02:13.000Z</time>
      </trkpt>
      <trkpt lat="47.36369" lon="-2.35034">
        <ele>-78.400001525879</ele>
        <time>2022-08-07T09:02:15.000Z</time>
      </trkpt>
      <trkpt lat="47.36362" lon="-2.35028">
        <ele>-78.400001525879</ele>
        <time>2022-08-07T09:02:17.000Z</time>
      </trkpt>
      <trkpt lat="47.36352" lon="-2.35021">
        <ele>-78.400001525879</ele>
        <time>2022-08-07T09:02:23.000Z</time>
      </trkpt>
      <trkpt lat="47.36352" lon="-2.35021">
        <ele>-78.400001525879</ele>
        <time>2022-08-07T09:02:24.000Z</time>
      </trkpt>
      <trkpt lat="47.36349" lon="-2.35021">
        <ele>-78.400001525879</ele>
        <time>2022-08-07T09:03:30.000Z</time>
      </trkpt>
      <trkpt lat="47.36346" lon="-2.35022">
        <ele>-78.400001525879</ele>
        <time>2022-08-07T09:03:32.000Z</time>
      </trkpt>
      <trkpt lat="47.36337" lon="-2.35027">
        <ele>-78.400001525879</ele>
        <time>2022-08-07T09:03:37.000Z</time>
      </trkpt>
      <trkpt lat="47.36321" lon="-2.35026">
        <ele>-78.400001525879</ele>
        <time>2022-08-07T09:03:43.000Z</time>
      </trkpt>
      <trkpt lat="47.36311" lon="-2.35013">
        <ele>-78.400001525879</ele>
        <time>2022-08-07T09:03:48.000Z</time>
      </trkpt>
      <trkpt lat="47.36308" lon="-2.35012">
        <ele>-78.400001525879</ele>
        <time>2022-08-07T09:03:49.000Z</time>
      </trkpt>
      <trkpt lat="47.36299" lon="-2.35007">
        <ele>-78.400001525879</ele>
        <time>2022-08-07T09:03:52.000Z</time>
      </trkpt>
      <trkpt lat="47.3629" lon="-2.34987">
        <ele>-78.400001525879</ele>
        <time>2022-08-07T09:03:56.000Z</time>
      </trkpt>
      <trkpt lat="47.36287" lon="-2.34974">
        <ele>-78.400001525879</ele>
        <time>2022-08-07T09:03:58.000Z</time>
      </trkpt>
      <trkpt lat="47.36286" lon="-2.34966">
        <ele>-78.400001525879</ele>
        <time>2022-08-07T09:03:59.000Z</time>
      </trkpt>
      <trkpt lat="47.36284" lon="-2.34946">
        <ele>-78.400001525879</ele>
        <time>2022-08-07T09:04:02.000Z</time>
      </trkpt>
      <trkpt lat="47.3628" lon="-2.34934">
        <ele>-78.400001525879</ele>
        <time>2022-08-07T09:04:04.000Z</time>
      </trkpt>
      <trkpt lat="47.36271" lon="-2.34933">
        <ele>-78</ele>
        <time>2022-08-07T09:04:06.000Z</time>
      </trkpt>
      <trkpt lat="47.36268" lon="-2.34937">
        <ele>-77.599998474121</ele>
        <time>2022-08-07T09:04:07.000Z</time>
      </trkpt>
      <trkpt lat="47.36266" lon="-2.34943">
        <ele>-77.199996948242</ele>
        <time>2022-08-07T09:04:08.000Z</time>
      </trkpt>
      <trkpt lat="47.36263" lon="-2.34949">
        <ele>-76.800003051758</ele>
        <time>2022-08-07T09:04:09.000Z</time>
      </trkpt>
      <trkpt lat="47.36261" lon="-2.34955">
        <ele>-76.400001525879</ele>
        <time>2022-08-07T09:04:10.000Z</time>
      </trkpt>
      <trkpt lat="47.36243" lon="-2.34994">
        <ele>-76.400001525879</ele>
        <time>2022-08-07T09:04:16.000Z</time>
      </trkpt>
      <trkpt lat="47.36216" lon="-2.35046">
        <ele>-76.400001525879</ele>
        <time>2022-08-07T09:04:24.000Z</time>
      </trkpt>
      <trkpt lat="47.36211" lon="-2.35051">
        <ele>-76.400001525879</ele>
        <time>2022-08-07T09:04:25.000Z</time>
      </trkpt>
      <trkpt lat="47.36193" lon="-2.35072">
        <ele>-76.400001525879</ele>
        <time>2022-08-07T09:04:29.000Z</time>
      </trkpt>
      <trkpt lat="47.36169" lon="-2.35095">
        <ele>-76.400001525879</ele>
        <time>2022-08-07T09:04:34.000Z</time>
      </trkpt>
      <trkpt lat="47.36137" lon="-2.35131">
        <ele>-76.400001525879</ele>
        <time>2022-08-07T09:04:41.000Z</time>
      </trkpt>
      <trkpt lat="47.36107" lon="-2.35166">
        <ele>-76.400001525879</ele>
        <time>2022-08-07T09:04:48.000Z</time>
      </trkpt>
      <trkpt lat="47.36098" lon="-2.35171">
        <ele>-76.400001525879</ele>
        <time>2022-08-07T09:04:50.000Z</time>
      </trkpt>
      <trkpt lat="47.36093" lon="-2.35168">
        <ele>-76.400001525879</ele>
        <time>2022-08-07T09:04:51.000Z</time>
      </trkpt>
      <trkpt lat="47.3609" lon="-2.35153">
        <ele>-76.400001525879</ele>
        <time>2022-08-07T09:04:53.000Z</time>
      </trkpt>
      <trkpt lat="47.36091" lon="-2.35129">
        <ele>-76.400001525879</ele>
        <time>2022-08-07T09:04:56.000Z</time>
      </trkpt>
      <trkpt lat="47.36093" lon="-2.35114">
        <ele>-76.400001525879</ele>
        <time>2022-08-07T09:04:58.000Z</time>
      </trkpt>
      <trkpt lat="47.36094" lon="-2.35097">
        <ele>-76.400001525879</ele>
        <time>2022-08-07T09:05:00.000Z</time>
      </trkpt>
      <trkpt lat="47.36097" lon="-2.3504">
        <ele>-76.400001525879</ele>
        <time>2022-08-07T09:05:07.000Z</time>
      </trkpt>
      <trkpt lat="47.36096" lon="-2.34999">
        <ele>-76.400001525879</ele>
        <time>2022-08-07T09:05:12.000Z</time>
      </trkpt>
      <trkpt lat="47.36095" lon="-2.34991">
        <ele>-76.400001525879</ele>
        <time>2022-08-07T09:05:13.000Z</time>
      </trkpt>
      <trkpt lat="47.36085" lon="-2.34932">
        <ele>-76.400001525879</ele>
        <time>2022-08-07T09:05:20.000Z</time>
      </trkpt>
      <trkpt lat="47.36085" lon="-2.34907">
        <ele>-76.400001525879</ele>
        <time>2022-08-07T09:05:23.000Z</time>
      </trkpt>
      <trkpt lat="47.36084" lon="-2.34885">
        <ele>-76.400001525879</ele>
        <time>2022-08-07T09:05:26.000Z</time>
      </trkpt>
      <trkpt lat="47.36071" lon="-2.34876">
        <ele>-76.400001525879</ele>
        <time>2022-08-07T09:05:29.000Z</time>
      </trkpt>
      <trkpt lat="47.36054" lon="-2.34876">
        <ele>-76.400001525879</ele>
        <time>2022-08-07T09:05:32.000Z</time>
      </trkpt>
      <trkpt lat="47.36049" lon="-2.34876">
        <ele>-76.400001525879</ele>
        <time>2022-08-07T09:05:33.000Z</time>
      </trkpt>
      <trkpt lat="47.3602" lon="-2.34872">
        <ele>-76.400001525879</ele>
        <time>2022-08-07T09:05:38.000Z</time>
      </trkpt>
      <trkpt lat="47.35973" lon="-2.34869">
        <ele>-76.400001525879</ele>
        <time>2022-08-07T09:05:46.000Z</time>
      </trkpt>
      <trkpt lat="47.35925" lon="-2.34861">
        <ele>-76.400001525879</ele>
        <time>2022-08-07T09:05:54.000Z</time>
      </trkpt>
      <trkpt lat="47.35912" lon="-2.34842">
        <ele>-76.400001525879</ele>
        <time>2022-08-07T09:05:57.000Z</time>
      </trkpt>
      <trkpt lat="47.35905" lon="-2.34827">
        <ele>-75.800003051758</ele>
        <time>2022-08-07T09:05:59.000Z</time>
      </trkpt>
      <trkpt lat="47.35902" lon="-2.3482">
        <ele>-75.400001525879</ele>
        <time>2022-08-07T09:06:00.000Z</time>
      </trkpt>
      <trkpt lat="47.35899" lon="-2.34812">
        <ele>-75</ele>
        <time>2022-08-07T09:06:01.000Z</time>
      </trkpt>
      <trkpt lat="47.35896" lon="-2.34805">
        <ele>-74.599998474121</ele>
        <time>2022-08-07T09:06:02.000Z</time>
      </trkpt>
      <trkpt lat="47.35893" lon="-2.34797">
        <ele>-74.199996948242</ele>
        <time>2022-08-07T09:06:03.000Z</time>
      </trkpt>
      <trkpt lat="47.35875" lon="-2.34755">
        <ele>-74.199996948242</ele>
        <time>2022-08-07T09:06:09.000Z</time>
      </trkpt>
      <trkpt lat="47.35855" lon="-2.34706">
        <ele>-74.199996948242</ele>
        <time>2022-08-07T09:06:16.000Z</time>
      </trkpt>
      <trkpt lat="47.35832" lon="-2.34651">
        <ele>-74.199996948242</ele>
        <time>2022-08-07T09:06:24.000Z</time>
      </trkpt>
      <trkpt lat="47.35829" lon="-2.34644">
        <ele>-74.199996948242</ele>
        <time>2022-08-07T09:06:25.000Z</time>
      </trkpt>
      <trkpt lat="47.35823" lon="-2.34631">
        <ele>-74.199996948242</ele>
        <time>2022-08-07T09:06:27.000Z</time>
      </trkpt>
      <trkpt lat="47.35817" lon="-2.34618">
        <ele>-74.199996948242</ele>
        <time>2022-08-07T09:06:29.000Z</time>
      </trkpt>
      <trkpt lat="47.35797" lon="-2.3457">
        <ele>-74.199996948242</ele>
        <time>2022-08-07T09:06:36.000Z</time>
      </trkpt>
      <trkpt lat="47.35791" lon="-2.34529">
        <ele>-74.199996948242</ele>
        <time>2022-08-07T09:06:41.000Z</time>
      </trkpt>
      <trkpt lat="47.35784" lon="-2.34471">
        <ele>-74.199996948242</ele>
        <time>2022-08-07T09:06:48.000Z</time>
      </trkpt>
      <trkpt lat="47.35777" lon="-2.34406">
        <ele>-74.199996948242</ele>
        <time>2022-08-07T09:06:56.000Z</time>
      </trkpt>
      <trkpt lat="47.35769" lon="-2.34347">
        <ele>-74.199996948242</ele>
        <time>2022-08-07T09:07:04.000Z</time>
      </trkpt>
      <trkpt lat="47.35766" lon="-2.34333">
        <ele>-73.800003051758</ele>
        <time>2022-08-07T09:07:06.000Z</time>
      </trkpt>
      <trkpt lat="47.35765" lon="-2.34326">
        <ele>-73.400001525879</ele>
        <time>2022-08-07T09:07:07.000Z</time>
      </trkpt>
      <trkpt lat="47.35764" lon="-2.34319">
        <ele>-73</ele>
        <time>2022-08-07T09:07:08.000Z</time>
      </trkpt>
      <trkpt lat="47.35764" lon="-2.34313">
        <ele>-72.599998474121</ele>
        <time>2022-08-07T09:07:09.000Z</time>
      </trkpt>
      <trkpt lat="47.35763" lon="-2.34306">
        <ele>-72</ele>
        <time>2022-08-07T09:07:10.000Z</time>
      </trkpt>
      <trkpt lat="47.35762" lon="-2.34286">
        <ele>-72</ele>
        <time>2022-08-07T09:07:13.000Z</time>
      </trkpt>
      <trkpt lat="47.35763" lon="-2.34252">
        <ele>-71.599998474121</ele>
        <time>2022-08-07T09:07:18.000Z</time>
      </trkpt>
      <trkpt lat="47.35763" lon="-2.34246">
        <ele>-71.199996948242</ele>
        <time>2022-08-07T09:07:19.000Z</time>
      </trkpt>
      <trkpt lat="47.35763" lon="-2.34241">
        <ele>-70.800003051758</ele>
        <time>2022-08-07T09:07:20.000Z</time>
      </trkpt>
      <trkpt lat="47.35764" lon="-2.34235">
        <ele>-70.400001525879</ele>
        <time>2022-08-07T09:07:21.000Z</time>
      </trkpt>
      <trkpt lat="47.35764" lon="-2.3423">
        <ele>-70</ele>
        <time>2022-08-07T09:07:22.000Z</time>
      </trkpt>
      <trkpt lat="47.35764" lon="-2.34216">
        <ele>-70</ele>
        <time>2022-08-07T09:07:25.000Z</time>
      </trkpt>
      <trkpt lat="47.35763" lon="-2.34212">
        <ele>-70</ele>
        <time>2022-08-07T09:07:26.000Z</time>
      </trkpt>
      <trkpt lat="47.35755" lon="-2.34206">
        <ele>-70</ele>
        <time>2022-08-07T09:07:29.000Z</time>
      </trkpt>
      <trkpt lat="47.35751" lon="-2.34207">
        <ele>-70</ele>
        <time>2022-08-07T09:07:30.000Z</time>
      </trkpt>
      <trkpt lat="47.35725" lon="-2.34213">
        <ele>-70</ele>
        <time>2022-08-07T09:07:35.000Z</time>
      </trkpt>
      <trkpt lat="47.3572" lon="-2.34214">
        <ele>-70</ele>
        <time>2022-08-07T09:07:36.000Z</time>
      </trkpt>
      <trkpt lat="47.35696" lon="-2.34212">
        <ele>-70</ele>
        <time>2022-08-07T09:07:40.000Z</time>
      </trkpt>
      <trkpt lat="47.3569" lon="-2.3421">
        <ele>-70.400001525879</ele>
        <time>2022-08-07T09:07:41.000Z</time>
      </trkpt>
      <trkpt lat="47.35683" lon="-2.34209">
        <ele>-71</ele>
        <time>2022-08-07T09:07:42.000Z</time>
      </trkpt>
      <trkpt lat="47.35677" lon="-2.34207">
        <ele>-71.400001525879</ele>
        <time>2022-08-07T09:07:43.000Z</time>
      </trkpt>
      <trkpt lat="47.3567" lon="-2.34205">
        <ele>-71.800003051758</ele>
        <time>2022-08-07T09:07:44.000Z</time>
      </trkpt>
      <trkpt lat="47.35664" lon="-2.34202">
        <ele>-72.199996948242</ele>
        <time>2022-08-07T09:07:45.000Z</time>
      </trkpt>
      <trkpt lat="47.35638" lon="-2.34194">
        <ele>-72.199996948242</ele>
        <time>2022-08-07T09:07:49.000Z</time>
      </trkpt>
      <trkpt lat="47.35618" lon="-2.3419">
        <ele>-72.199996948242</ele>
        <time>2022-08-07T09:07:52.000Z</time>
      </trkpt>
      <trkpt lat="47.35604" lon="-2.34189">
        <ele>-73.199996948242</ele>
        <time>2022-08-07T09:07:54.000Z</time>
      </trkpt>
      <trkpt lat="47.35597" lon="-2.34187">
        <ele>-73.599998474121</ele>
        <time>2022-08-07T09:07:55.000Z</time>
      </trkpt>
      <trkpt lat="47.35591" lon="-2.34186">
        <ele>-74</ele>
        <time>2022-08-07T09:07:56.000Z</time>
      </trkpt>
      <trkpt lat="47.35584" lon="-2.34184">
        <ele>-74.599998474121</ele>
        <time>2022-08-07T09:07:57.000Z</time>
      </trkpt>
      <trkpt lat="47.35569" lon="-2.34194">
        <ele>-74.599998474121</ele>
        <time>2022-08-07T09:08:00.000Z</time>
      </trkpt>
      <trkpt lat="47.35565" lon="-2.34219">
        <ele>-75</ele>
        <time>2022-08-07T09:08:03.000Z</time>
      </trkpt>
      <trkpt lat="47.35565" lon="-2.34229">
        <ele>-75.400001525879</ele>
        <time>2022-08-07T09:08:04.000Z</time>
      </trkpt>
      <trkpt lat="47.35564" lon="-2.34238">
        <ele>-75.800003051758</ele>
        <time>2022-08-07T09:08:05.000Z</time>
      </trkpt>
      <trkpt lat="47.35564" lon="-2.34247">
        <ele>-76.199996948242</ele>
        <time>2022-08-07T09:08:06.000Z</time>
      </trkpt>
      <trkpt lat="47.35564" lon="-2.34257">
        <ele>-76.599998474121</ele>
        <time>2022-08-07T09:08:07.000Z</time>
      </trkpt>
      <trkpt lat="47.35561" lon="-2.34296">
        <ele>-76.599998474121</ele>
        <time>2022-08-07T09:08:11.000Z</time>
      </trkpt>
      <trkpt lat="47.35552" lon="-2.3436">
        <ele>-76.599998474121</ele>
        <time>2022-08-07T09:08:18.000Z</time>
      </trkpt>
      <trkpt lat="47.35548" lon="-2.34385">
        <ele>-77</ele>
        <time>2022-08-07T09:08:21.000Z</time>
      </trkpt>
      <trkpt lat="47.35546" lon="-2.34394">
        <ele>-77.400001525879</ele>
        <time>2022-08-07T09:08:22.000Z</time>
      </trkpt>
      <trkpt lat="47.35544" lon="-2.34402">
        <ele>-77.800003051758</ele>
        <time>2022-08-07T09:08:23.000Z</time>
      </trkpt>
      <trkpt lat="47.35543" lon="-2.3441">
        <ele>-78.400001525879</ele>
        <time>2022-08-07T09:08:24.000Z</time>
      </trkpt>
      <trkpt lat="47.3554" lon="-2.34418">
        <ele>-78.800003051758</ele>
        <time>2022-08-07T09:08:25.000Z</time>
      </trkpt>
      <trkpt lat="47.35538" lon="-2.34426">
        <ele>-78.800003051758</ele>
        <time>2022-08-07T09:08:26.000Z</time>
      </trkpt>
      <trkpt lat="47.35533" lon="-2.34462">
        <ele>-78.800003051758</ele>
        <time>2022-08-07T09:08:30.000Z</time>
      </trkpt>
      <trkpt lat="47.35527" lon="-2.34502">
        <ele>-79.199996948242</ele>
        <time>2022-08-07T09:08:34.000Z</time>
      </trkpt>
      <trkpt lat="47.35525" lon="-2.34512">
        <ele>-79.599998474121</ele>
        <time>2022-08-07T09:08:35.000Z</time>
      </trkpt>
      <trkpt lat="47.35523" lon="-2.34521">
        <ele>-80</ele>
        <time>2022-08-07T09:08:36.000Z</time>
      </trkpt>
      <trkpt lat="47.35521" lon="-2.3453">
        <ele>-80.400001525879</ele>
        <time>2022-08-07T09:08:37.000Z</time>
      </trkpt>
      <trkpt lat="47.35519" lon="-2.34539">
        <ele>-80.800003051758</ele>
        <time>2022-08-07T09:08:38.000Z</time>
      </trkpt>
      <trkpt lat="47.35517" lon="-2.34547">
        <ele>-80.800003051758</ele>
        <time>2022-08-07T09:08:39.000Z</time>
      </trkpt>
      <trkpt lat="47.3551" lon="-2.34562">
        <ele>-80.800003051758</ele>
        <time>2022-08-07T09:08:41.000Z</time>
      </trkpt>
      <trkpt lat="47.35488" lon="-2.34609">
        <ele>-80.800003051758</ele>
        <time>2022-08-07T09:08:47.000Z</time>
      </trkpt>
      <trkpt lat="47.35466" lon="-2.34662">
        <ele>-80.800003051758</ele>
        <time>2022-08-07T09:08:54.000Z</time>
      </trkpt>
      <trkpt lat="47.35447" lon="-2.34705">
        <ele>-80.400001525879</ele>
        <time>2022-08-07T09:09:00.000Z</time>
      </trkpt>
      <trkpt lat="47.35443" lon="-2.34707">
        <ele>-80</ele>
        <time>2022-08-07T09:09:01.000Z</time>
      </trkpt>
      <trkpt lat="47.35439" lon="-2.34706">
        <ele>-79.400001525879</ele>
        <time>2022-08-07T09:09:02.000Z</time>
      </trkpt>
      <trkpt lat="47.35435" lon="-2.34702">
        <ele>-79</ele>
        <time>2022-08-07T09:09:03.000Z</time>
      </trkpt>
      <trkpt lat="47.35432" lon="-2.34697">
        <ele>-78.599998474121</ele>
        <time>2022-08-07T09:09:04.000Z</time>
      </trkpt>
      <trkpt lat="47.35429" lon="-2.34692">
        <ele>-78.599998474121</ele>
        <time>2022-08-07T09:09:05.000Z</time>
      </trkpt>
      <trkpt lat="47.35413" lon="-2.34658">
        <ele>-78.599998474121</ele>
        <time>2022-08-07T09:09:10.000Z</time>
      </trkpt>
      <trkpt lat="47.35396" lon="-2.3461">
        <ele>-78.599998474121</ele>
        <time>2022-08-07T09:09:16.000Z</time>
      </trkpt>
      <trkpt lat="47.35393" lon="-2.34601">
        <ele>-78.599998474121</ele>
        <time>2022-08-07T09:09:17.000Z</time>
      </trkpt>
      <trkpt lat="47.35379" lon="-2.34569">
        <ele>-78.599998474121</ele>
        <time>2022-08-07T09:09:21.000Z</time>
      </trkpt>
      <trkpt lat="47.35376" lon="-2.34561">
        <ele>-78.599998474121</ele>
        <time>2022-08-07T09:09:22.000Z</time>
      </trkpt>
      <trkpt lat="47.35363" lon="-2.34533">
        <ele>-78.599998474121</ele>
        <time>2022-08-07T09:09:26.000Z</time>
      </trkpt>
      <trkpt lat="47.35355" lon="-2.34521">
        <ele>-78.599998474121</ele>
        <time>2022-08-07T09:09:28.000Z</time>
      </trkpt>
      <trkpt lat="47.35337" lon="-2.345">
        <ele>-78.599998474121</ele>
        <time>2022-08-07T09:09:32.000Z</time>
      </trkpt>
      <trkpt lat="47.35331" lon="-2.34496">
        <ele>-78.599998474121</ele>
        <time>2022-08-07T09:09:33.000Z</time>
      </trkpt>
      <trkpt lat="47.35321" lon="-2.34488">
        <ele>-78.599998474121</ele>
        <time>2022-08-07T09:09:35.000Z</time>
      </trkpt>
      <trkpt lat="47.35304" lon="-2.34479">
        <ele>-78.599998474121</ele>
        <time>2022-08-07T09:09:38.000Z</time>
      </trkpt>
      <trkpt lat="47.35298" lon="-2.34477">
        <ele>-78.599998474121</ele>
        <time>2022-08-07T09:09:39.000Z</time>
      </trkpt>
      <trkpt lat="47.35277" lon="-2.34477">
        <ele>-78.599998474121</ele>
        <time>2022-08-07T09:09:42.000Z</time>
      </trkpt>
      <trkpt lat="47.35245" lon="-2.3449">
        <ele>-78.599998474121</ele>
        <time>2022-08-07T09:09:47.000Z</time>
      </trkpt>
      <trkpt lat="47.35208" lon="-2.34504">
        <ele>-78.599998474121</ele>
        <time>2022-08-07T09:09:53.000Z</time>
      </trkpt>
      <trkpt lat="47.3519" lon="-2.34508">
        <ele>-78.599998474121</ele>
        <time>2022-08-07T09:09:56.000Z</time>
      </trkpt>
      <trkpt lat="47.35175" lon="-2.34517">
        <ele>-78.599998474121</ele>
        <time>2022-08-07T09:09:59.000Z</time>
      </trkpt>
      <trkpt lat="47.3517" lon="-2.34519">
        <ele>-78.599998474121</ele>
        <time>2022-08-07T09:10:00.000Z</time>
      </trkpt>
      <trkpt lat="47.35148" lon="-2.34528">
        <ele>-78.599998474121</ele>
        <time>2022-08-07T09:10:04.000Z</time>
      </trkpt>
      <trkpt lat="47.35127" lon="-2.34536">
        <ele>-78.599998474121</ele>
        <time>2022-08-07T09:10:08.000Z</time>
      </trkpt>
      <trkpt lat="47.35096" lon="-2.34548">
        <ele>-78.199996948242</ele>
        <time>2022-08-07T09:10:14.000Z</time>
      </trkpt>
      <trkpt lat="47.35092" lon="-2.3455">
        <ele>-77.800003051758</ele>
        <time>2022-08-07T09:10:15.000Z</time>
      </trkpt>
      <trkpt lat="47.35089" lon="-2.3455">
        <ele>-77.400001525879</ele>
        <time>2022-08-07T09:10:16.000Z</time>
      </trkpt>
      <trkpt lat="47.35086" lon="-2.34548">
        <ele>-77</ele>
        <time>2022-08-07T09:10:17.000Z</time>
      </trkpt>
      <trkpt lat="47.35084" lon="-2.34546">
        <ele>-76.599998474121</ele>
        <time>2022-08-07T09:10:18.000Z</time>
      </trkpt>
      <trkpt lat="47.35081" lon="-2.34538">
        <ele>-76.599998474121</ele>
        <time>2022-08-07T09:10:21.000Z</time>
      </trkpt>
      <trkpt lat="47.3508" lon="-2.34534">
        <ele>-76.599998474121</ele>
        <time>2022-08-07T09:10:22.000Z</time>
      </trkpt>
      <trkpt lat="47.35077" lon="-2.34524">
        <ele>-77</ele>
        <time>2022-08-07T09:10:24.000Z</time>
      </trkpt>
      <trkpt lat="47.35075" lon="-2.34518">
        <ele>-77.400001525879</ele>
        <time>2022-08-07T09:10:25.000Z</time>
      </trkpt>
      <trkpt lat="47.35072" lon="-2.34513">
        <ele>-77.800003051758</ele>
        <time>2022-08-07T09:10:26.000Z</time>
      </trkpt>
      <trkpt lat="47.35069" lon="-2.34509">
        <ele>-78.199996948242</ele>
        <time>2022-08-07T09:10:27.000Z</time>
      </trkpt>
      <trkpt lat="47.35067" lon="-2.34506">
        <ele>-78.599998474121</ele>
        <time>2022-08-07T09:10:28.000Z</time>
      </trkpt>
      <trkpt lat="47.35065" lon="-2.34503">
        <ele>-79</ele>
        <time>2022-08-07T09:10:29.000Z</time>
      </trkpt>
      <trkpt lat="47.35063" lon="-2.34501">
        <ele>-79.599998474121</ele>
        <time>2022-08-07T09:10:30.000Z</time>
      </trkpt>
      <trkpt lat="47.35061" lon="-2.345">
        <ele>-80</ele>
        <time>2022-08-07T09:10:31.000Z</time>
      </trkpt>
      <trkpt lat="47.3506" lon="-2.34499">
        <ele>-80.400001525879</ele>
        <time>2022-08-07T09:10:32.000Z</time>
      </trkpt>
      <trkpt lat="47.3506" lon="-2.34499">
        <ele>-81</ele>
        <time>2022-08-07T09:10:33.000Z</time>
      </trkpt>
      <trkpt lat="47.35054" lon="-2.34494">
        <ele>-81</ele>
        <time>2022-08-07T09:11:40.000Z</time>
      </trkpt>
      <trkpt lat="47.35053" lon="-2.34493">
        <ele>-81.400001525879</ele>
        <time>2022-08-07T09:11:41.000Z</time>
      </trkpt>
      <trkpt lat="47.35052" lon="-2.34493">
        <ele>-81.800003051758</ele>
        <time>2022-08-07T09:11:42.000Z</time>
      </trkpt>
      <trkpt lat="47.35052" lon="-2.34493">
        <ele>-82.199996948242</ele>
        <time>2022-08-07T09:11:43.000Z</time>
      </trkpt>
      <trkpt lat="47.35052" lon="-2.34493">
        <ele>-82.599998474121</ele>
        <time>2022-08-07T09:11:44.000Z</time>
      </trkpt>
      <trkpt lat="47.35051" lon="-2.34493">
        <ele>-83</ele>
        <time>2022-08-07T09:11:45.000Z</time>
      </trkpt>
      <trkpt lat="47.35051" lon="-2.34493">
        <ele>-83</ele>
        <time>2022-08-07T09:11:49.000Z</time>
      </trkpt>
      <trkpt lat="47.35051" lon="-2.34493">
        <ele>-83</ele>
        <time>2022-08-07T09:11:50.000Z</time>
      </trkpt>
      <trkpt lat="47.35051" lon="-2.34493">
        <ele>-83</ele>
        <time>2022-08-07T09:11:53.000Z</time>
      </trkpt>
      <trkpt lat="47.35048" lon="-2.34493">
        <ele>-83</ele>
        <time>2022-08-07T09:11:55.000Z</time>
      </trkpt>
      <trkpt lat="47.35042" lon="-2.34481">
        <ele>-83</ele>
        <time>2022-08-07T09:11:59.000Z</time>
      </trkpt>
      <trkpt lat="47.35036" lon="-2.34475">
        <ele>-83</ele>
        <time>2022-08-07T09:12:01.000Z</time>
      </trkpt>
      <trkpt lat="47.35031" lon="-2.34474">
        <ele>-83</ele>
        <time>2022-08-07T09:12:03.000Z</time>
      </trkpt>
      <trkpt lat="47.35025" lon="-2.34472">
        <ele>-82.599998474121</ele>
        <time>2022-08-07T09:12:06.000Z</time>
      </trkpt>
      <trkpt lat="47.35024" lon="-2.34471">
        <ele>-82.199996948242</ele>
        <time>2022-08-07T09:12:07.000Z</time>
      </trkpt>
      <trkpt lat="47.35021" lon="-2.3447">
        <ele>-81.800003051758</ele>
        <time>2022-08-07T09:12:08.000Z</time>
      </trkpt>
      <trkpt lat="47.35019" lon="-2.34468">
        <ele>-81.199996948242</ele>
        <time>2022-08-07T09:12:09.000Z</time>
      </trkpt>
      <trkpt lat="47.35016" lon="-2.34466">
        <ele>-80.800003051758</ele>
        <time>2022-08-07T09:12:10.000Z</time>
      </trkpt>
      <trkpt lat="47.3501" lon="-2.34458">
        <ele>-80.400001525879</ele>
        <time>2022-08-07T09:12:13.000Z</time>
      </trkpt>
      <trkpt lat="47.35009" lon="-2.34454">
        <ele>-80</ele>
        <time>2022-08-07T09:12:14.000Z</time>
      </trkpt>
      <trkpt lat="47.35007" lon="-2.34451">
        <ele>-79.599998474121</ele>
        <time>2022-08-07T09:12:15.000Z</time>
      </trkpt>
      <trkpt lat="47.35006" lon="-2.34446">
        <ele>-79.199996948242</ele>
        <time>2022-08-07T09:12:16.000Z</time>
      </trkpt>
      <trkpt lat="47.35004" lon="-2.34442">
        <ele>-78.800003051758</ele>
        <time>2022-08-07T09:12:17.000Z</time>
      </trkpt>
      <trkpt lat="47.35" lon="-2.34423">
        <ele>-78.800003051758</ele>
        <time>2022-08-07T09:12:21.000Z</time>
      </trkpt>
      <trkpt lat="47.34999" lon="-2.34418">
        <ele>-78.400001525879</ele>
        <time>2022-08-07T09:12:22.000Z</time>
      </trkpt>
      <trkpt lat="47.34999" lon="-2.34414">
        <ele>-78</ele>
        <time>2022-08-07T09:12:23.000Z</time>
      </trkpt>
      <trkpt lat="47.34998" lon="-2.3441">
        <ele>-77.599998474121</ele>
        <time>2022-08-07T09:12:24.000Z</time>
      </trkpt>
      <trkpt lat="47.34998" lon="-2.34406">
        <ele>-77.199996948242</ele>
        <time>2022-08-07T09:12:25.000Z</time>
      </trkpt>
      <trkpt lat="47.34996" lon="-2.34402">
        <ele>-76.599998474121</ele>
        <time>2022-08-07T09:12:26.000Z</time>
      </trkpt>
      <trkpt lat="47.34996" lon="-2.34399">
        <ele>-76.599998474121</ele>
        <time>2022-08-07T09:12:27.000Z</time>
      </trkpt>
      <trkpt lat="47.34992" lon="-2.34382">
        <ele>-76.599998474121</ele>
        <time>2022-08-07T09:12:32.000Z</time>
      </trkpt>
      <trkpt lat="47.34992" lon="-2.34375">
        <ele>-76.599998474121</ele>
        <time>2022-08-07T09:12:34.000Z</time>
      </trkpt>
      <trkpt lat="47.34995" lon="-2.34372">
        <ele>-76.599998474121</ele>
        <time>2022-08-07T09:12:36.000Z</time>
      </trkpt>
      <trkpt lat="47.3501" lon="-2.34367">
        <ele>-76.599998474121</ele>
        <time>2022-08-07T09:12:42.000Z</time>
      </trkpt>
      <trkpt lat="47.35017" lon="-2.34358">
        <ele>-76.599998474121</ele>
        <time>2022-08-07T09:12:47.000Z</time>
      </trkpt>
      <trkpt lat="47.35017" lon="-2.34356">
        <ele>-76.599998474121</ele>
        <time>2022-08-07T09:12:48.000Z</time>
      </trkpt>
      <trkpt lat="47.35015" lon="-2.34349">
        <ele>-76.599998474121</ele>
        <time>2022-08-07T09:12:50.000Z</time>
      </trkpt>
      <trkpt lat="47.35009" lon="-2.34334">
        <ele>-76.599998474121</ele>
        <time>2022-08-07T09:12:54.000Z</time>
      </trkpt>
      <trkpt lat="47.35004" lon="-2.34319">
        <ele>-76.599998474121</ele>
        <time>2022-08-07T09:12:58.000Z</time>
      </trkpt>
      <trkpt lat="47.35002" lon="-2.34309">
        <ele>-76.199996948242</ele>
        <time>2022-08-07T09:13:00.000Z</time>
      </trkpt>
      <trkpt lat="47.35" lon="-2.34305">
        <ele>-75.800003051758</ele>
        <time>2022-08-07T09:13:01.000Z</time>
      </trkpt>
      <trkpt lat="47.34999" lon="-2.34301">
        <ele>-75.400001525879</ele>
        <time>2022-08-07T09:13:02.000Z</time>
      </trkpt>
      <trkpt lat="47.34998" lon="-2.34297">
        <ele>-75</ele>
        <time>2022-08-07T09:13:03.000Z</time>
      </trkpt>
      <trkpt lat="47.34996" lon="-2.34292">
        <ele>-74.599998474121</ele>
        <time>2022-08-07T09:13:04.000Z</time>
      </trkpt>
      <trkpt lat="47.34989" lon="-2.3427">
        <ele>-74.599998474121</ele>
        <time>2022-08-07T09:13:09.000Z</time>
      </trkpt>
      <trkpt lat="47.34988" lon="-2.34266">
        <ele>-74.199996948242</ele>
        <time>2022-08-07T09:13:10.000Z</time>
      </trkpt>
      <trkpt lat="47.34987" lon="-2.34262">
        <ele>-73.800003051758</ele>
        <time>2022-08-07T09:13:11.000Z</time>
      </trkpt>
      <trkpt lat="47.34986" lon="-2.34258">
        <ele>-73.400001525879</ele>
        <time>2022-08-07T09:13:12.000Z</time>
      </trkpt>
      <trkpt lat="47.34984" lon="-2.34254">
        <ele>-73</ele>
        <time>2022-08-07T09:13:13.000Z</time>
      </trkpt>
      <trkpt lat="47.34983" lon="-2.34249">
        <ele>-72.599998474121</ele>
        <time>2022-08-07T09:13:14.000Z</time>
      </trkpt>
      <trkpt lat="47.34983" lon="-2.34245">
        <ele>-72.599998474121</ele>
        <time>2022-08-07T09:13:15.000Z</time>
      </trkpt>
      <trkpt lat="47.34982" lon="-2.34237">
        <ele>-72.199996948242</ele>
        <time>2022-08-07T09:13:17.000Z</time>
      </trkpt>
      <trkpt lat="47.34982" lon="-2.34232">
        <ele>-71.800003051758</ele>
        <time>2022-08-07T09:13:18.000Z</time>
      </trkpt>
      <trkpt lat="47.34981" lon="-2.34227">
        <ele>-71.400001525879</ele>
        <time>2022-08-07T09:13:19.000Z</time>
      </trkpt>
      <trkpt lat="47.3498" lon="-2.34222">
        <ele>-71</ele>
        <time>2022-08-07T09:13:20.000Z</time>
      </trkpt>
      <trkpt lat="47.34978" lon="-2.34217">
        <ele>-70.599998474121</ele>
        <time>2022-08-07T09:13:21.000Z</time>
      </trkpt>
      <trkpt lat="47.34971" lon="-2.34204">
        <ele>-70.599998474121</ele>
        <time>2022-08-07T09:13:25.000Z</time>
      </trkpt>
      <trkpt lat="47.34969" lon="-2.34201">
        <ele>-70</ele>
        <time>2022-08-07T09:13:26.000Z</time>
      </trkpt>
      <trkpt lat="47.34967" lon="-2.34199">
        <ele>-69.599998474121</ele>
        <time>2022-08-07T09:13:27.000Z</time>
      </trkpt>
      <trkpt lat="47.34964" lon="-2.34199">
        <ele>-69</ele>
        <time>2022-08-07T09:13:28.000Z</time>
      </trkpt>
      <trkpt lat="47.34962" lon="-2.34199">
        <ele>-68.599998474121</ele>
        <time>2022-08-07T09:13:29.000Z</time>
      </trkpt>
      <trkpt lat="47.34959" lon="-2.34199">
        <ele>-68</ele>
        <time>2022-08-07T09:13:30.000Z</time>
      </trkpt>
      <trkpt lat="47.34943" lon="-2.34202">
        <ele>-68</ele>
        <time>2022-08-07T09:13:35.000Z</time>
      </trkpt>
      <trkpt lat="47.34926" lon="-2.34209">
        <ele>-67.599998474121</ele>
        <time>2022-08-07T09:13:41.000Z</time>
      </trkpt>
      <trkpt lat="47.34923" lon="-2.34209">
        <ele>-66.800003051758</ele>
        <time>2022-08-07T09:13:42.000Z</time>
      </trkpt>
      <trkpt lat="47.3492" lon="-2.34209">
        <ele>-66.400001525879</ele>
        <time>2022-08-07T09:13:43.000Z</time>
      </trkpt>
      <trkpt lat="47.34917" lon="-2.34209">
        <ele>-66</ele>
        <time>2022-08-07T09:13:44.000Z</time>
      </trkpt>
      <trkpt lat="47.34905" lon="-2.34209">
        <ele>-66</ele>
        <time>2022-08-07T09:13:49.000Z</time>
      </trkpt>
      <trkpt lat="47.34898" lon="-2.34207">
        <ele>-65.599998474121</ele>
        <time>2022-08-07T09:13:52.000Z</time>
      </trkpt>
      <trkpt lat="47.34895" lon="-2.34206">
        <ele>-65.199996948242</ele>
        <time>2022-08-07T09:13:53.000Z</time>
      </trkpt>
      <trkpt lat="47.34893" lon="-2.34206">
        <ele>-64.800003051758</ele>
        <time>2022-08-07T09:13:54.000Z</time>
      </trkpt>
      <trkpt lat="47.34891" lon="-2.34206">
        <ele>-64.199996948242</ele>
        <time>2022-08-07T09:13:55.000Z</time>
      </trkpt>
      <trkpt lat="47.34889" lon="-2.34205">
        <ele>-63.799999237061</ele>
        <time>2022-08-07T09:13:56.000Z</time>
      </trkpt>
      <trkpt lat="47.34884" lon="-2.342">
        <ele>-63.400001525879</ele>
        <time>2022-08-07T09:14:00.000Z</time>
      </trkpt>
      <trkpt lat="47.34883" lon="-2.34198">
        <ele>-63</ele>
        <time>2022-08-07T09:14:01.000Z</time>
      </trkpt>
      <trkpt lat="47.34881" lon="-2.34198">
        <ele>-62.599998474121</ele>
        <time>2022-08-07T09:14:02.000Z</time>
      </trkpt>
      <trkpt lat="47.34879" lon="-2.34198">
        <ele>-62.200000762939</ele>
        <time>2022-08-07T09:14:03.000Z</time>
      </trkpt>
      <trkpt lat="47.34877" lon="-2.34199">
        <ele>-61.799999237061</ele>
        <time>2022-08-07T09:14:04.000Z</time>
      </trkpt>
      <trkpt lat="47.34874" lon="-2.34208">
        <ele>-61.799999237061</ele>
        <time>2022-08-07T09:14:08.000Z</time>
      </trkpt>
      <trkpt lat="47.34874" lon="-2.34211">
        <ele>-62.200000762939</ele>
        <time>2022-08-07T09:14:09.000Z</time>
      </trkpt>
      <trkpt lat="47.34873" lon="-2.34215">
        <ele>-62.599998474121</ele>
        <time>2022-08-07T09:14:10.000Z</time>
      </trkpt>
      <trkpt lat="47.34872" lon="-2.34219">
        <ele>-63</ele>
        <time>2022-08-07T09:14:11.000Z</time>
      </trkpt>
      <trkpt lat="47.34872" lon="-2.34223">
        <ele>-63.400001525879</ele>
        <time>2022-08-07T09:14:12.000Z</time>
      </trkpt>
      <trkpt lat="47.3487" lon="-2.34227">
        <ele>-63.799999237061</ele>
        <time>2022-08-07T09:14:13.000Z</time>
      </trkpt>
      <trkpt lat="47.34862" lon="-2.34236">
        <ele>-63.799999237061</ele>
        <time>2022-08-07T09:14:16.000Z</time>
      </trkpt>
      <trkpt lat="47.3486" lon="-2.34238">
        <ele>-64.400001525879</ele>
        <time>2022-08-07T09:14:17.000Z</time>
      </trkpt>
      <trkpt lat="47.34858" lon="-2.34238">
        <ele>-64.800003051758</ele>
        <time>2022-08-07T09:14:18.000Z</time>
      </trkpt>
      <trkpt lat="47.34856" lon="-2.34237">
        <ele>-65.400001525879</ele>
        <time>2022-08-07T09:14:19.000Z</time>
      </trkpt>
      <trkpt lat="47.34854" lon="-2.34236">
        <ele>-65.800003051758</ele>
        <time>2022-08-07T09:14:20.000Z</time>
      </trkpt>
      <trkpt lat="47.34851" lon="-2.34235">
        <ele>-66.199996948242</ele>
        <time>2022-08-07T09:14:21.000Z</time>
      </trkpt>
      <trkpt lat="47.34845" lon="-2.34232">
        <ele>-66.599998474121</ele>
        <time>2022-08-07T09:14:23.000Z</time>
      </trkpt>
      <trkpt lat="47.34842" lon="-2.34231">
        <ele>-67</ele>
        <time>2022-08-07T09:14:24.000Z</time>
      </trkpt>
      <trkpt lat="47.3484" lon="-2.34231">
        <ele>-67.599998474121</ele>
        <time>2022-08-07T09:14:25.000Z</time>
      </trkpt>
      <trkpt lat="47.34838" lon="-2.34231">
        <ele>-68</ele>
        <time>2022-08-07T09:14:26.000Z</time>
      </trkpt>
      <trkpt lat="47.34836" lon="-2.34232">
        <ele>-68.400001525879</ele>
        <time>2022-08-07T09:14:27.000Z</time>
      </trkpt>
      <trkpt lat="47.34835" lon="-2.34232">
        <ele>-68.400001525879</ele>
        <time>2022-08-07T09:14:28.000Z</time>
      </trkpt>
      <trkpt lat="47.34823" lon="-2.34233">
        <ele>-68.400001525879</ele>
        <time>2022-08-07T09:14:32.000Z</time>
      </trkpt>
      <trkpt lat="47.34815" lon="-2.34233">
        <ele>-68.800003051758</ele>
        <time>2022-08-07T09:14:34.000Z</time>
      </trkpt>
      <trkpt lat="47.34811" lon="-2.34234">
        <ele>-69.199996948242</ele>
        <time>2022-08-07T09:14:35.000Z</time>
      </trkpt>
      <trkpt lat="47.34806" lon="-2.34235">
        <ele>-69.599998474121</ele>
        <time>2022-08-07T09:14:36.000Z</time>
      </trkpt>
      <trkpt lat="47.34801" lon="-2.34236">
        <ele>-70</ele>
        <time>2022-08-07T09:14:37.000Z</time>
      </trkpt>
      <trkpt lat="47.34797" lon="-2.34237">
        <ele>-70.400001525879</ele>
        <time>2022-08-07T09:14:38.000Z</time>
      </trkpt>
      <trkpt lat="47.34788" lon="-2.34241">
        <ele>-70.400001525879</ele>
        <time>2022-08-07T09:14:41.000Z</time>
      </trkpt>
      <trkpt lat="47.34786" lon="-2.34244">
        <ele>-70.400001525879</ele>
        <time>2022-08-07T09:14:42.000Z</time>
      </trkpt>
      <trkpt lat="47.34785" lon="-2.34248">
        <ele>-70.400001525879</ele>
        <time>2022-08-07T09:14:44.000Z</time>
      </trkpt>
      <trkpt lat="47.34784" lon="-2.34252">
        <ele>-70.400001525879</ele>
        <time>2022-08-07T09:14:46.000Z</time>
      </trkpt>
      <trkpt lat="47.34785" lon="-2.34254">
        <ele>-70.400001525879</ele>
        <time>2022-08-07T09:14:47.000Z</time>
      </trkpt>
      <trkpt lat="47.34785" lon="-2.3426">
        <ele>-70.400001525879</ele>
        <time>2022-08-07T09:14:49.000Z</time>
      </trkpt>
      <trkpt lat="47.34784" lon="-2.34277">
        <ele>-70.400001525879</ele>
        <time>2022-08-07T09:14:56.000Z</time>
      </trkpt>
      <trkpt lat="47.34782" lon="-2.3428">
        <ele>-70.400001525879</ele>
        <time>2022-08-07T09:14:57.000Z</time>
      </trkpt>
      <trkpt lat="47.34778" lon="-2.34286">
        <ele>-70.400001525879</ele>
        <time>2022-08-07T09:15:00.000Z</time>
      </trkpt>
      <trkpt lat="47.34782" lon="-2.34297">
        <ele>-70.400001525879</ele>
        <time>2022-08-07T09:15:04.000Z</time>
      </trkpt>
      <trkpt lat="47.34787" lon="-2.34323">
        <ele>-70.400001525879</ele>
        <time>2022-08-07T09:15:10.000Z</time>
      </trkpt>
      <trkpt lat="47.34786" lon="-2.34344">
        <ele>-70.400001525879</ele>
        <time>2022-08-07T09:15:14.000Z</time>
      </trkpt>
      <trkpt lat="47.34785" lon="-2.34358">
        <ele>-70.400001525879</ele>
        <time>2022-08-07T09:15:18.000Z</time>
      </trkpt>
      <trkpt lat="47.34786" lon="-2.34373">
        <ele>-70.400001525879</ele>
        <time>2022-08-07T09:15:22.000Z</time>
      </trkpt>
      <trkpt lat="47.34783" lon="-2.34388">
        <ele>-70.400001525879</ele>
        <time>2022-08-07T09:15:25.000Z</time>
      </trkpt>
      <trkpt lat="47.34781" lon="-2.34393">
        <ele>-70.400001525879</ele>
        <time>2022-08-07T09:15:26.000Z</time>
      </trkpt>
      <trkpt lat="47.34779" lon="-2.34398">
        <ele>-70.800003051758</ele>
        <time>2022-08-07T09:15:27.000Z</time>
      </trkpt>
      <trkpt lat="47.34776" lon="-2.34402">
        <ele>-71.199996948242</ele>
        <time>2022-08-07T09:15:28.000Z</time>
      </trkpt>
      <trkpt lat="47.34774" lon="-2.34407">
        <ele>-71.599998474121</ele>
        <time>2022-08-07T09:15:29.000Z</time>
      </trkpt>
      <trkpt lat="47.34772" lon="-2.34412">
        <ele>-72</ele>
        <time>2022-08-07T09:15:30.000Z</time>
      </trkpt>
      <trkpt lat="47.3477" lon="-2.34416">
        <ele>-72.599998474121</ele>
        <time>2022-08-07T09:15:31.000Z</time>
      </trkpt>
      <trkpt lat="47.34762" lon="-2.34431">
        <ele>-72.599998474121</ele>
        <time>2022-08-07T09:15:34.000Z</time>
      </trkpt>
      <trkpt lat="47.34755" lon="-2.34449">
        <ele>-72.599998474121</ele>
        <time>2022-08-07T09:15:37.000Z</time>
      </trkpt>
      <trkpt lat="47.34751" lon="-2.3446">
        <ele>-72.599998474121</ele>
        <time>2022-08-07T09:15:39.000Z</time>
      </trkpt>
      <trkpt lat="47.34743" lon="-2.34479">
        <ele>-72.599998474121</ele>
        <time>2022-08-07T09:15:43.000Z</time>
      </trkpt>
      <trkpt lat="47.34724" lon="-2.34489">
        <ele>-72.599998474121</ele>
        <time>2022-08-07T09:15:48.000Z</time>
      </trkpt>
      <trkpt lat="47.3472" lon="-2.3449">
        <ele>-72.599998474121</ele>
        <time>2022-08-07T09:15:49.000Z</time>
      </trkpt>
      <trkpt lat="47.34703" lon="-2.34499">
        <ele>-72.599998474121</ele>
        <time>2022-08-07T09:15:54.000Z</time>
      </trkpt>
      <trkpt lat="47.34678" lon="-2.3451">
        <ele>-72.599998474121</ele>
        <time>2022-08-07T09:16:01.000Z</time>
      </trkpt>
      <trkpt lat="47.34657" lon="-2.34516">
        <ele>-72.599998474121</ele>
        <time>2022-08-07T09:16:07.000Z</time>
      </trkpt>
      <trkpt lat="47.34638" lon="-2.34522">
        <ele>-72.599998474121</ele>
        <time>2022-08-07T09:16:12.000Z</time>
      </trkpt>
      <trkpt lat="47.34624" lon="-2.34526">
        <ele>-72.599998474121</ele>
        <time>2022-08-07T09:16:16.000Z</time>
      </trkpt>
      <trkpt lat="47.3461" lon="-2.34533">
        <ele>-72.599998474121</ele>
        <time>2022-08-07T09:16:21.000Z</time>
      </trkpt>
      <trkpt lat="47.34609" lon="-2.34538">
        <ele>-72.599998474121</ele>
        <time>2022-08-07T09:16:22.000Z</time>
      </trkpt>
      <trkpt lat="47.34613" lon="-2.3456">
        <ele>-72.599998474121</ele>
        <time>2022-08-07T09:16:26.000Z</time>
      </trkpt>
      <trkpt lat="47.3462" lon="-2.34598">
        <ele>-72.599998474121</ele>
        <time>2022-08-07T09:16:31.000Z</time>
      </trkpt>
      <trkpt lat="47.3463" lon="-2.34653">
        <ele>-73</ele>
        <time>2022-08-07T09:16:37.000Z</time>
      </trkpt>
      <trkpt lat="47.34632" lon="-2.34663">
        <ele>-73.400001525879</ele>
        <time>2022-08-07T09:16:38.000Z</time>
      </trkpt>
      <trkpt lat="47.34634" lon="-2.34674">
        <ele>-74</ele>
        <time>2022-08-07T09:16:39.000Z</time>
      </trkpt>
      <trkpt lat="47.34636" lon="-2.34684">
        <ele>-74.400001525879</ele>
        <time>2022-08-07T09:16:40.000Z</time>
      </trkpt>
      <trkpt lat="47.34637" lon="-2.34695">
        <ele>-75</ele>
        <time>2022-08-07T09:16:41.000Z</time>
      </trkpt>
      <trkpt lat="47.3464" lon="-2.34717">
        <ele>-75</ele>
        <time>2022-08-07T09:16:43.000Z</time>
      </trkpt>
      <trkpt lat="47.34637" lon="-2.34758">
        <ele>-75</ele>
        <time>2022-08-07T09:16:47.000Z</time>
      </trkpt>
      <trkpt lat="47.34625" lon="-2.34796">
        <ele>-75</ele>
        <time>2022-08-07T09:16:51.000Z</time>
      </trkpt>
      <trkpt lat="47.34621" lon="-2.34805">
        <ele>-75</ele>
        <time>2022-08-07T09:16:52.000Z</time>
      </trkpt>
      <trkpt lat="47.34613" lon="-2.34823">
        <ele>-75.400001525879</ele>
        <time>2022-08-07T09:16:54.000Z</time>
      </trkpt>
      <trkpt lat="47.34609" lon="-2.34832">
        <ele>-75.800003051758</ele>
        <time>2022-08-07T09:16:55.000Z</time>
      </trkpt>
      <trkpt lat="47.34605" lon="-2.34841">
        <ele>-76.199996948242</ele>
        <time>2022-08-07T09:16:56.000Z</time>
      </trkpt>
      <trkpt lat="47.34601" lon="-2.3485">
        <ele>-76.599998474121</ele>
        <time>2022-08-07T09:16:57.000Z</time>
      </trkpt>
      <trkpt lat="47.34597" lon="-2.34859">
        <ele>-77</ele>
        <time>2022-08-07T09:16:58.000Z</time>
      </trkpt>
      <trkpt lat="47.34593" lon="-2.34868">
        <ele>-77</ele>
        <time>2022-08-07T09:16:59.000Z</time>
      </trkpt>
      <trkpt lat="47.34578" lon="-2.34904">
        <ele>-77</ele>
        <time>2022-08-07T09:17:04.000Z</time>
      </trkpt>
      <trkpt lat="47.34579" lon="-2.3492">
        <ele>-77</ele>
        <time>2022-08-07T09:17:07.000Z</time>
      </trkpt>
      <trkpt lat="47.34582" lon="-2.34929">
        <ele>-77</ele>
        <time>2022-08-07T09:17:09.000Z</time>
      </trkpt>
      <trkpt lat="47.34587" lon="-2.34941">
        <ele>-77</ele>
        <time>2022-08-07T09:17:11.000Z</time>
      </trkpt>
      <trkpt lat="47.34594" lon="-2.34954">
        <ele>-77</ele>
        <time>2022-08-07T09:17:13.000Z</time>
      </trkpt>
      <trkpt lat="47.34602" lon="-2.34965">
        <ele>-77</ele>
        <time>2022-08-07T09:17:15.000Z</time>
      </trkpt>
      <trkpt lat="47.3462" lon="-2.34991">
        <ele>-77</ele>
        <time>2022-08-07T09:17:20.000Z</time>
      </trkpt>
      <trkpt lat="47.34642" lon="-2.35024">
        <ele>-77</ele>
        <time>2022-08-07T09:17:26.000Z</time>
      </trkpt>
      <trkpt lat="47.34655" lon="-2.35028">
        <ele>-77</ele>
        <time>2022-08-07T09:17:29.000Z</time>
      </trkpt>
      <trkpt lat="47.34659" lon="-2.35028">
        <ele>-77</ele>
        <time>2022-08-07T09:17:30.000Z</time>
      </trkpt>
      <trkpt lat="47.34671" lon="-2.35028">
        <ele>-77</ele>
        <time>2022-08-07T09:17:34.000Z</time>
      </trkpt>
      <trkpt lat="47.34673" lon="-2.3503">
        <ele>-77</ele>
        <time>2022-08-07T09:17:35.000Z</time>
      </trkpt>
      <trkpt lat="47.34677" lon="-2.35037">
        <ele>-77</ele>
        <time>2022-08-07T09:17:38.000Z</time>
      </trkpt>
      <trkpt lat="47.34685" lon="-2.35054">
        <ele>-77</ele>
        <time>2022-08-07T09:17:42.000Z</time>
      </trkpt>
      <trkpt lat="47.34689" lon="-2.35059">
        <ele>-77</ele>
        <time>2022-08-07T09:17:43.000Z</time>
      </trkpt>
      <trkpt lat="47.34702" lon="-2.35072">
        <ele>-77</ele>
        <time>2022-08-07T09:17:46.000Z</time>
      </trkpt>
      <trkpt lat="47.34705" lon="-2.35076">
        <ele>-77</ele>
        <time>2022-08-07T09:17:47.000Z</time>
      </trkpt>
      <trkpt lat="47.34709" lon="-2.35081">
        <ele>-77</ele>
        <time>2022-08-07T09:17:48.000Z</time>
      </trkpt>
      <trkpt lat="47.3472" lon="-2.35099">
        <ele>-77</ele>
        <time>2022-08-07T09:17:51.000Z</time>
      </trkpt>
      <trkpt lat="47.34724" lon="-2.35106">
        <ele>-77</ele>
        <time>2022-08-07T09:17:52.000Z</time>
      </trkpt>
      <trkpt lat="47.34731" lon="-2.35115">
        <ele>-77</ele>
        <time>2022-08-07T09:17:54.000Z</time>
      </trkpt>
      <trkpt lat="47.34734" lon="-2.35118">
        <ele>-77</ele>
        <time>2022-08-07T09:17:55.000Z</time>
      </trkpt>
      <trkpt lat="47.34745" lon="-2.35141">
        <ele>-77</ele>
        <time>2022-08-07T09:17:59.000Z</time>
      </trkpt>
      <trkpt lat="47.34752" lon="-2.35161">
        <ele>-77</ele>
        <time>2022-08-07T09:18:02.000Z</time>
      </trkpt>
      <trkpt lat="47.34753" lon="-2.35168">
        <ele>-77</ele>
        <time>2022-08-07T09:18:03.000Z</time>
      </trkpt>
      <trkpt lat="47.34755" lon="-2.35204">
        <ele>-77</ele>
        <time>2022-08-07T09:18:08.000Z</time>
      </trkpt>
      <trkpt lat="47.34752" lon="-2.3524">
        <ele>-77</ele>
        <time>2022-08-07T09:18:13.000Z</time>
      </trkpt>
      <trkpt lat="47.34745" lon="-2.35278">
        <ele>-77</ele>
        <time>2022-08-07T09:18:19.000Z</time>
      </trkpt>
      <trkpt lat="47.34737" lon="-2.35297">
        <ele>-77</ele>
        <time>2022-08-07T09:18:23.000Z</time>
      </trkpt>
      <trkpt lat="47.34734" lon="-2.35305">
        <ele>-76.599998474121</ele>
        <time>2022-08-07T09:18:25.000Z</time>
      </trkpt>
      <trkpt lat="47.34731" lon="-2.3531">
        <ele>-76.199996948242</ele>
        <time>2022-08-07T09:18:26.000Z</time>
      </trkpt>
      <trkpt lat="47.34731" lon="-2.35315">
        <ele>-75.599998474121</ele>
        <time>2022-08-07T09:18:27.000Z</time>
      </trkpt>
      <trkpt lat="47.3473" lon="-2.35319">
        <ele>-75.199996948242</ele>
        <time>2022-08-07T09:18:28.000Z</time>
      </trkpt>
      <trkpt lat="47.34729" lon="-2.35324">
        <ele>-74.800003051758</ele>
        <time>2022-08-07T09:18:29.000Z</time>
      </trkpt>
      <trkpt lat="47.34729" lon="-2.3534">
        <ele>-74.800003051758</ele>
        <time>2022-08-07T09:18:32.000Z</time>
      </trkpt>
      <trkpt lat="47.34728" lon="-2.35355">
        <ele>-74.800003051758</ele>
        <time>2022-08-07T09:18:35.000Z</time>
      </trkpt>
      <trkpt lat="47.34726" lon="-2.35359">
        <ele>-74.800003051758</ele>
        <time>2022-08-07T09:18:36.000Z</time>
      </trkpt>
      <trkpt lat="47.34713" lon="-2.35382">
        <ele>-74.800003051758</ele>
        <time>2022-08-07T09:18:41.000Z</time>
      </trkpt>
      <trkpt lat="47.34702" lon="-2.35395">
        <ele>-74.800003051758</ele>
        <time>2022-08-07T09:18:44.000Z</time>
      </trkpt>
      <trkpt lat="47.34698" lon="-2.35397">
        <ele>-74.800003051758</ele>
        <time>2022-08-07T09:18:45.000Z</time>
      </trkpt>
      <trkpt lat="47.34681" lon="-2.354">
        <ele>-74.800003051758</ele>
        <time>2022-08-07T09:18:49.000Z</time>
      </trkpt>
      <trkpt lat="47.34666" lon="-2.35404">
        <ele>-74.800003051758</ele>
        <time>2022-08-07T09:18:53.000Z</time>
      </trkpt>
      <trkpt lat="47.3465" lon="-2.35403">
        <ele>-74.800003051758</ele>
        <time>2022-08-07T09:18:57.000Z</time>
      </trkpt>
      <trkpt lat="47.34633" lon="-2.35387">
        <ele>-74.800003051758</ele>
        <time>2022-08-07T09:19:04.000Z</time>
      </trkpt>
      <trkpt lat="47.34631" lon="-2.35386">
        <ele>-74.800003051758</ele>
        <time>2022-08-07T09:19:05.000Z</time>
      </trkpt>
      <trkpt lat="47.34626" lon="-2.35383">
        <ele>-74.800003051758</ele>
        <time>2022-08-07T09:19:09.000Z</time>
      </trkpt>
      <trkpt lat="47.34624" lon="-2.35384">
        <ele>-74.800003051758</ele>
        <time>2022-08-07T09:19:17.000Z</time>
      </trkpt>
      <trkpt lat="47.3462" lon="-2.35382">
        <ele>-74.800003051758</ele>
        <time>2022-08-07T09:19:19.000Z</time>
      </trkpt>
      <trkpt lat="47.34614" lon="-2.3538">
        <ele>-74.800003051758</ele>
        <time>2022-08-07T09:19:21.000Z</time>
      </trkpt>
      <trkpt lat="47.34605" lon="-2.35374">
        <ele>-74.800003051758</ele>
        <time>2022-08-07T09:19:24.000Z</time>
      </trkpt>
      <trkpt lat="47.34594" lon="-2.35375">
        <ele>-74.800003051758</ele>
        <time>2022-08-07T09:19:28.000Z</time>
      </trkpt>
      <trkpt lat="47.34578" lon="-2.35372">
        <ele>-74.800003051758</ele>
        <time>2022-08-07T09:19:33.000Z</time>
      </trkpt>
      <trkpt lat="47.3456" lon="-2.3537">
        <ele>-74.800003051758</ele>
        <time>2022-08-07T09:19:38.000Z</time>
      </trkpt>
      <trkpt lat="47.34547" lon="-2.3537">
        <ele>-74.800003051758</ele>
        <time>2022-08-07T09:19:41.000Z</time>
      </trkpt>
      <trkpt lat="47.34534" lon="-2.35374">
        <ele>-74.800003051758</ele>
        <time>2022-08-07T09:19:44.000Z</time>
      </trkpt>
      <trkpt lat="47.3453" lon="-2.35377">
        <ele>-74.800003051758</ele>
        <time>2022-08-07T09:19:45.000Z</time>
      </trkpt>
      <trkpt lat="47.34518" lon="-2.35384">
        <ele>-74.800003051758</ele>
        <time>2022-08-07T09:19:48.000Z</time>
      </trkpt>
      <trkpt lat="47.34501" lon="-2.35388">
        <ele>-74.800003051758</ele>
        <time>2022-08-07T09:19:52.000Z</time>
      </trkpt>
      <trkpt lat="47.34497" lon="-2.35389">
        <ele>-74.800003051758</ele>
        <time>2022-08-07T09:19:53.000Z</time>
      </trkpt>
      <trkpt lat="47.34479" lon="-2.354">
        <ele>-75.199996948242</ele>
        <time>2022-08-07T09:19:58.000Z</time>
      </trkpt>
      <trkpt lat="47.34476" lon="-2.35403">
        <ele>-75.599998474121</ele>
        <time>2022-08-07T09:19:59.000Z</time>
      </trkpt>
      <trkpt lat="47.34473" lon="-2.35405">
        <ele>-76</ele>
        <time>2022-08-07T09:20:00.000Z</time>
      </trkpt>
      <trkpt lat="47.3447" lon="-2.35406">
        <ele>-76.400001525879</ele>
        <time>2022-08-07T09:20:01.000Z</time>
      </trkpt>
      <trkpt lat="47.34467" lon="-2.35405">
        <ele>-76.800003051758</ele>
        <time>2022-08-07T09:20:02.000Z</time>
      </trkpt>
      <trkpt lat="47.34464" lon="-2.35403">
        <ele>-76.800003051758</ele>
        <time>2022-08-07T09:20:03.000Z</time>
      </trkpt>
      <trkpt lat="47.34448" lon="-2.35401">
        <ele>-76.800003051758</ele>
        <time>2022-08-07T09:20:08.000Z</time>
      </trkpt>
      <trkpt lat="47.34437" lon="-2.35399">
        <ele>-76.800003051758</ele>
        <time>2022-08-07T09:20:12.000Z</time>
      </trkpt>
      <trkpt lat="47.34434" lon="-2.354">
        <ele>-76.800003051758</ele>
        <time>2022-08-07T09:20:13.000Z</time>
      </trkpt>
      <trkpt lat="47.34427" lon="-2.35404">
        <ele>-76.800003051758</ele>
        <time>2022-08-07T09:20:17.000Z</time>
      </trkpt>
      <trkpt lat="47.34422" lon="-2.35421">
        <ele>-76.800003051758</ele>
        <time>2022-08-07T09:20:21.000Z</time>
      </trkpt>
      <trkpt lat="47.34411" lon="-2.35453">
        <ele>-76.800003051758</ele>
        <time>2022-08-07T09:20:26.000Z</time>
      </trkpt>
      <trkpt lat="47.34408" lon="-2.3546">
        <ele>-76.800003051758</ele>
        <time>2022-08-07T09:20:27.000Z</time>
      </trkpt>
      <trkpt lat="47.34384" lon="-2.35501">
        <ele>-76.800003051758</ele>
        <time>2022-08-07T09:20:33.000Z</time>
      </trkpt>
      <trkpt lat="47.34358" lon="-2.35541">
        <ele>-76.800003051758</ele>
        <time>2022-08-07T09:20:39.000Z</time>
      </trkpt>
      <trkpt lat="47.34324" lon="-2.35589">
        <ele>-76.800003051758</ele>
        <time>2022-08-07T09:20:46.000Z</time>
      </trkpt>
      <trkpt lat="47.34294" lon="-2.35631">
        <ele>-76.800003051758</ele>
        <time>2022-08-07T09:20:52.000Z</time>
      </trkpt>
      <trkpt lat="47.34263" lon="-2.35674">
        <ele>-76.800003051758</ele>
        <time>2022-08-07T09:20:59.000Z</time>
      </trkpt>
      <trkpt lat="47.3425" lon="-2.35691">
        <ele>-76.800003051758</ele>
        <time>2022-08-07T09:21:02.000Z</time>
      </trkpt>
      <trkpt lat="47.34238" lon="-2.35708">
        <ele>-76.800003051758</ele>
        <time>2022-08-07T09:21:05.000Z</time>
      </trkpt>
      <trkpt lat="47.34235" lon="-2.35714">
        <ele>-76.800003051758</ele>
        <time>2022-08-07T09:21:06.000Z</time>
      </trkpt>
      <trkpt lat="47.34225" lon="-2.35732">
        <ele>-76.800003051758</ele>
        <time>2022-08-07T09:21:09.000Z</time>
      </trkpt>
      <trkpt lat="47.34222" lon="-2.35732">
        <ele>-76.800003051758</ele>
        <time>2022-08-07T09:21:10.000Z</time>
      </trkpt>
      <trkpt lat="47.34211" lon="-2.35724">
        <ele>-76.800003051758</ele>
        <time>2022-08-07T09:21:14.000Z</time>
      </trkpt>
      <trkpt lat="47.34209" lon="-2.3572">
        <ele>-76.400001525879</ele>
        <time>2022-08-07T09:21:15.000Z</time>
      </trkpt>
      <trkpt lat="47.34208" lon="-2.35716">
        <ele>-76</ele>
        <time>2022-08-07T09:21:16.000Z</time>
      </trkpt>
      <trkpt lat="47.34207" lon="-2.35713">
        <ele>-75.599998474121</ele>
        <time>2022-08-07T09:21:17.000Z</time>
      </trkpt>
      <trkpt lat="47.34207" lon="-2.35711">
        <ele>-75</ele>
        <time>2022-08-07T09:21:18.000Z</time>
      </trkpt>
      <trkpt lat="47.34205" lon="-2.35707">
        <ele>-74.599998474121</ele>
        <time>2022-08-07T09:21:19.000Z</time>
      </trkpt>
      <trkpt lat="47.34203" lon="-2.35704">
        <ele>-74</ele>
        <time>2022-08-07T09:21:20.000Z</time>
      </trkpt>
      <trkpt lat="47.34201" lon="-2.35701">
        <ele>-73.599998474121</ele>
        <time>2022-08-07T09:21:21.000Z</time>
      </trkpt>
      <trkpt lat="47.34199" lon="-2.35698">
        <ele>-73</ele>
        <time>2022-08-07T09:21:22.000Z</time>
      </trkpt>
      <trkpt lat="47.34196" lon="-2.35695">
        <ele>-72.400001525879</ele>
        <time>2022-08-07T09:21:23.000Z</time>
      </trkpt>
      <trkpt lat="47.34193" lon="-2.35691">
        <ele>-72</ele>
        <time>2022-08-07T09:21:24.000Z</time>
      </trkpt>
      <trkpt lat="47.34191" lon="-2.35687">
        <ele>-71.599998474121</ele>
        <time>2022-08-07T09:21:25.000Z</time>
      </trkpt>
      <trkpt lat="47.34188" lon="-2.35684">
        <ele>-71.199996948242</ele>
        <time>2022-08-07T09:21:26.000Z</time>
      </trkpt>
      <trkpt lat="47.34186" lon="-2.3568">
        <ele>-70.800003051758</ele>
        <time>2022-08-07T09:21:27.000Z</time>
      </trkpt>
      <trkpt lat="47.34184" lon="-2.35676">
        <ele>-70.400001525879</ele>
        <time>2022-08-07T09:21:28.000Z</time>
      </trkpt>
      <trkpt lat="47.34172" lon="-2.35655">
        <ele>-70</ele>
        <time>2022-08-07T09:21:33.000Z</time>
      </trkpt>
      <trkpt lat="47.3417" lon="-2.3565">
        <ele>-69.400001525879</ele>
        <time>2022-08-07T09:21:34.000Z</time>
      </trkpt>
      <trkpt lat="47.34167" lon="-2.35646">
        <ele>-69</ele>
        <time>2022-08-07T09:21:35.000Z</time>
      </trkpt>
      <trkpt lat="47.34165" lon="-2.35641">
        <ele>-68.599998474121</ele>
        <time>2022-08-07T09:21:36.000Z</time>
      </trkpt>
      <trkpt lat="47.34162" lon="-2.35637">
        <ele>-68.199996948242</ele>
        <time>2022-08-07T09:21:37.000Z</time>
      </trkpt>
      <trkpt lat="47.34157" lon="-2.35627">
        <ele>-68.199996948242</ele>
        <time>2022-08-07T09:21:39.000Z</time>
      </trkpt>
      <trkpt lat="47.34143" lon="-2.35602">
        <ele>-68.199996948242</ele>
        <time>2022-08-07T09:21:44.000Z</time>
      </trkpt>
      <trkpt lat="47.34137" lon="-2.35591">
        <ele>-68.199996948242</ele>
        <time>2022-08-07T09:21:46.000Z</time>
      </trkpt>
      <trkpt lat="47.34127" lon="-2.35565">
        <ele>-68.199996948242</ele>
        <time>2022-08-07T09:21:50.000Z</time>
      </trkpt>
      <trkpt lat="47.34111" lon="-2.35514">
        <ele>-68.199996948242</ele>
        <time>2022-08-07T09:21:57.000Z</time>
      </trkpt>
      <trkpt lat="47.34092" lon="-2.35464">
        <ele>-68.199996948242</ele>
        <time>2022-08-07T09:22:04.000Z</time>
      </trkpt>
      <trkpt lat="47.34073" lon="-2.35414">
        <ele>-68.199996948242</ele>
        <time>2022-08-07T09:22:11.000Z</time>
      </trkpt>
      <trkpt lat="47.34064" lon="-2.35394">
        <ele>-68.199996948242</ele>
        <time>2022-08-07T09:22:14.000Z</time>
      </trkpt>
      <trkpt lat="47.34056" lon="-2.35376">
        <ele>-68.199996948242</ele>
        <time>2022-08-07T09:22:17.000Z</time>
      </trkpt>
      <trkpt lat="47.34048" lon="-2.35363">
        <ele>-68.199996948242</ele>
        <time>2022-08-07T09:22:20.000Z</time>
      </trkpt>
      <trkpt lat="47.34043" lon="-2.35354">
        <ele>-68.199996948242</ele>
        <time>2022-08-07T09:22:22.000Z</time>
      </trkpt>
      <trkpt lat="47.34017" lon="-2.35327">
        <ele>-68.199996948242</ele>
        <time>2022-08-07T09:22:29.000Z</time>
      </trkpt>
      <trkpt lat="47.34005" lon="-2.35316">
        <ele>-67.800003051758</ele>
        <time>2022-08-07T09:22:32.000Z</time>
      </trkpt>
      <trkpt lat="47.34001" lon="-2.35312">
        <ele>-67.400001525879</ele>
        <time>2022-08-07T09:22:33.000Z</time>
      </trkpt>
      <trkpt lat="47.33998" lon="-2.35309">
        <ele>-67</ele>
        <time>2022-08-07T09:22:34.000Z</time>
      </trkpt>
      <trkpt lat="47.33994" lon="-2.35305">
        <ele>-66.599998474121</ele>
        <time>2022-08-07T09:22:35.000Z</time>
      </trkpt>
      <trkpt lat="47.3399" lon="-2.35301">
        <ele>-66.199996948242</ele>
        <time>2022-08-07T09:22:36.000Z</time>
      </trkpt>
      <trkpt lat="47.33975" lon="-2.35285">
        <ele>-66.199996948242</ele>
        <time>2022-08-07T09:22:40.000Z</time>
      </trkpt>
      <trkpt lat="47.33968" lon="-2.35278">
        <ele>-66.199996948242</ele>
        <time>2022-08-07T09:22:42.000Z</time>
      </trkpt>
      <trkpt lat="47.33965" lon="-2.35274">
        <ele>-65.800003051758</ele>
        <time>2022-08-07T09:22:43.000Z</time>
      </trkpt>
      <trkpt lat="47.33961" lon="-2.35271">
        <ele>-64.800003051758</ele>
        <time>2022-08-07T09:22:44.000Z</time>
      </trkpt>
      <trkpt lat="47.33958" lon="-2.35267">
        <ele>-64.400001525879</ele>
        <time>2022-08-07T09:22:45.000Z</time>
      </trkpt>
      <trkpt lat="47.33955" lon="-2.35263">
        <ele>-64</ele>
        <time>2022-08-07T09:22:46.000Z</time>
      </trkpt>
      <trkpt lat="47.33952" lon="-2.35258">
        <ele>-64</ele>
        <time>2022-08-07T09:22:47.000Z</time>
      </trkpt>
      <trkpt lat="47.33944" lon="-2.35236">
        <ele>-64</ele>
        <time>2022-08-07T09:22:51.000Z</time>
      </trkpt>
      <trkpt lat="47.33941" lon="-2.3523">
        <ele>-64</ele>
        <time>2022-08-07T09:22:52.000Z</time>
      </trkpt>
      <trkpt lat="47.33929" lon="-2.35203">
        <ele>-64</ele>
        <time>2022-08-07T09:22:57.000Z</time>
      </trkpt>
      <trkpt lat="47.33926" lon="-2.35198">
        <ele>-63.599998474121</ele>
        <time>2022-08-07T09:22:58.000Z</time>
      </trkpt>
      <trkpt lat="47.33922" lon="-2.35193">
        <ele>-63.200000762939</ele>
        <time>2022-08-07T09:22:59.000Z</time>
      </trkpt>
      <trkpt lat="47.33918" lon="-2.35189">
        <ele>-62.799999237061</ele>
        <time>2022-08-07T09:23:00.000Z</time>
      </trkpt>
      <trkpt lat="47.33915" lon="-2.35184">
        <ele>-62.400001525879</ele>
        <time>2022-08-07T09:23:01.000Z</time>
      </trkpt>
      <trkpt lat="47.33911" lon="-2.3518">
        <ele>-62</ele>
        <time>2022-08-07T09:23:02.000Z</time>
      </trkpt>
      <trkpt lat="47.33906" lon="-2.35176">
        <ele>-62</ele>
        <time>2022-08-07T09:23:03.000Z</time>
      </trkpt>
      <trkpt lat="47.33893" lon="-2.35164">
        <ele>-62</ele>
        <time>2022-08-07T09:23:06.000Z</time>
      </trkpt>
      <trkpt lat="47.33879" lon="-2.35153">
        <ele>-62</ele>
        <time>2022-08-07T09:23:09.000Z</time>
      </trkpt>
      <trkpt lat="47.33851" lon="-2.35128">
        <ele>-62</ele>
        <time>2022-08-07T09:23:16.000Z</time>
      </trkpt>
      <trkpt lat="47.3382" lon="-2.35108">
        <ele>-62</ele>
        <time>2022-08-07T09:23:22.000Z</time>
      </trkpt>
      <trkpt lat="47.33787" lon="-2.35088">
        <ele>-62</ele>
        <time>2022-08-07T09:23:28.000Z</time>
      </trkpt>
      <trkpt lat="47.33781" lon="-2.35084">
        <ele>-62.400001525879</ele>
        <time>2022-08-07T09:23:29.000Z</time>
      </trkpt>
      <trkpt lat="47.33775" lon="-2.35081">
        <ele>-62.799999237061</ele>
        <time>2022-08-07T09:23:30.000Z</time>
      </trkpt>
      <trkpt lat="47.33769" lon="-2.35078">
        <ele>-63.200000762939</ele>
        <time>2022-08-07T09:23:31.000Z</time>
      </trkpt>
      <trkpt lat="47.33763" lon="-2.35074">
        <ele>-63.599998474121</ele>
        <time>2022-08-07T09:23:32.000Z</time>
      </trkpt>
      <trkpt lat="47.33757" lon="-2.35069">
        <ele>-64</ele>
        <time>2022-08-07T09:23:33.000Z</time>
      </trkpt>
      <trkpt lat="47.33747" lon="-2.3506">
        <ele>-64</ele>
        <time>2022-08-07T09:23:35.000Z</time>
      </trkpt>
      <trkpt lat="47.33717" lon="-2.35026">
        <ele>-64</ele>
        <time>2022-08-07T09:23:41.000Z</time>
      </trkpt>
      <trkpt lat="47.33691" lon="-2.34986">
        <ele>-64</ele>
        <time>2022-08-07T09:23:47.000Z</time>
      </trkpt>
      <trkpt lat="47.33679" lon="-2.3497">
        <ele>-64</ele>
        <time>2022-08-07T09:23:50.000Z</time>
      </trkpt>
      <trkpt lat="47.3367" lon="-2.34963">
        <ele>-64</ele>
        <time>2022-08-07T09:23:52.000Z</time>
      </trkpt>
      <trkpt lat="47.33656" lon="-2.34965">
        <ele>-64</ele>
        <time>2022-08-07T09:23:55.000Z</time>
      </trkpt>
      <trkpt lat="47.33641" lon="-2.34963">
        <ele>-64</ele>
        <time>2022-08-07T09:23:59.000Z</time>
      </trkpt>
      <trkpt lat="47.33637" lon="-2.3496">
        <ele>-64</ele>
        <time>2022-08-07T09:24:00.000Z</time>
      </trkpt>
      <trkpt lat="47.33628" lon="-2.34952">
        <ele>-64</ele>
        <time>2022-08-07T09:24:03.000Z</time>
      </trkpt>
      <trkpt lat="47.33625" lon="-2.34949">
        <ele>-64</ele>
        <time>2022-08-07T09:24:04.000Z</time>
      </trkpt>
      <trkpt lat="47.33608" lon="-2.34937">
        <ele>-64</ele>
        <time>2022-08-07T09:24:09.000Z</time>
      </trkpt>
      <trkpt lat="47.3358" lon="-2.34926">
        <ele>-64</ele>
        <time>2022-08-07T09:24:15.000Z</time>
      </trkpt>
      <trkpt lat="47.33575" lon="-2.34925">
        <ele>-64</ele>
        <time>2022-08-07T09:24:16.000Z</time>
      </trkpt>
      <trkpt lat="47.33569" lon="-2.34923">
        <ele>-63.599998474121</ele>
        <time>2022-08-07T09:24:17.000Z</time>
      </trkpt>
      <trkpt lat="47.33564" lon="-2.34923">
        <ele>-63.200000762939</ele>
        <time>2022-08-07T09:24:18.000Z</time>
      </trkpt>
      <trkpt lat="47.33559" lon="-2.34923">
        <ele>-62.599998474121</ele>
        <time>2022-08-07T09:24:19.000Z</time>
      </trkpt>
      <trkpt lat="47.33554" lon="-2.3492">
        <ele>-62.200000762939</ele>
        <time>2022-08-07T09:24:20.000Z</time>
      </trkpt>
      <trkpt lat="47.33549" lon="-2.34917">
        <ele>-61.799999237061</ele>
        <time>2022-08-07T09:24:21.000Z</time>
      </trkpt>
      <trkpt lat="47.33537" lon="-2.34913">
        <ele>-61.799999237061</ele>
        <time>2022-08-07T09:24:23.000Z</time>
      </trkpt>
      <trkpt lat="47.33532" lon="-2.3491">
        <ele>-61.799999237061</ele>
        <time>2022-08-07T09:24:24.000Z</time>
      </trkpt>
      <trkpt lat="47.33514" lon="-2.34903">
        <ele>-61.799999237061</ele>
        <time>2022-08-07T09:24:28.000Z</time>
      </trkpt>
      <trkpt lat="47.3351" lon="-2.34903">
        <ele>-61.799999237061</ele>
        <time>2022-08-07T09:24:29.000Z</time>
      </trkpt>
      <trkpt lat="47.33499" lon="-2.34902">
        <ele>-61.799999237061</ele>
        <time>2022-08-07T09:24:31.000Z</time>
      </trkpt>
      <trkpt lat="47.33488" lon="-2.34905">
        <ele>-61.799999237061</ele>
        <time>2022-08-07T09:24:33.000Z</time>
      </trkpt>
      <trkpt lat="47.33468" lon="-2.3491">
        <ele>-61.799999237061</ele>
        <time>2022-08-07T09:24:37.000Z</time>
      </trkpt>
      <trkpt lat="47.33436" lon="-2.34922">
        <ele>-61.799999237061</ele>
        <time>2022-08-07T09:24:43.000Z</time>
      </trkpt>
      <trkpt lat="47.33407" lon="-2.34932">
        <ele>-61.799999237061</ele>
        <time>2022-08-07T09:24:48.000Z</time>
      </trkpt>
      <trkpt lat="47.33376" lon="-2.34938">
        <ele>-61.799999237061</ele>
        <time>2022-08-07T09:24:53.000Z</time>
      </trkpt>
      <trkpt lat="47.3336" lon="-2.34941">
        <ele>-61.799999237061</ele>
        <time>2022-08-07T09:24:56.000Z</time>
      </trkpt>
      <trkpt lat="47.33346" lon="-2.34943">
        <ele>-61.799999237061</ele>
        <time>2022-08-07T09:24:59.000Z</time>
      </trkpt>
      <trkpt lat="47.33333" lon="-2.34937">
        <ele>-61.799999237061</ele>
        <time>2022-08-07T09:25:03.000Z</time>
      </trkpt>
      <trkpt lat="47.33325" lon="-2.34938">
        <ele>-62.200000762939</ele>
        <time>2022-08-07T09:25:05.000Z</time>
      </trkpt>
      <trkpt lat="47.33322" lon="-2.34939">
        <ele>-62.599998474121</ele>
        <time>2022-08-07T09:25:06.000Z</time>
      </trkpt>
      <trkpt lat="47.33321" lon="-2.34942">
        <ele>-63</ele>
        <time>2022-08-07T09:25:07.000Z</time>
      </trkpt>
      <trkpt lat="47.33318" lon="-2.34943">
        <ele>-63.400001525879</ele>
        <time>2022-08-07T09:25:08.000Z</time>
      </trkpt>
      <trkpt lat="47.33314" lon="-2.34943">
        <ele>-63.799999237061</ele>
        <time>2022-08-07T09:25:09.000Z</time>
      </trkpt>
      <trkpt lat="47.33311" lon="-2.34943">
        <ele>-63.799999237061</ele>
        <time>2022-08-07T09:25:10.000Z</time>
      </trkpt>
      <trkpt lat="47.33294" lon="-2.34944">
        <ele>-63.799999237061</ele>
        <time>2022-08-07T09:25:13.000Z</time>
      </trkpt>
      <trkpt lat="47.33288" lon="-2.34945">
        <ele>-63.799999237061</ele>
        <time>2022-08-07T09:25:14.000Z</time>
      </trkpt>
      <trkpt lat="47.3327" lon="-2.34947">
        <ele>-63.799999237061</ele>
        <time>2022-08-07T09:25:17.000Z</time>
      </trkpt>
      <trkpt lat="47.33258" lon="-2.3495">
        <ele>-63.799999237061</ele>
        <time>2022-08-07T09:25:19.000Z</time>
      </trkpt>
      <trkpt lat="47.33249" lon="-2.34953">
        <ele>-63.799999237061</ele>
        <time>2022-08-07T09:25:21.000Z</time>
      </trkpt>
      <trkpt lat="47.33246" lon="-2.34953">
        <ele>-63.799999237061</ele>
        <time>2022-08-07T09:25:22.000Z</time>
      </trkpt>
      <trkpt lat="47.33233" lon="-2.34959">
        <ele>-63.799999237061</ele>
        <time>2022-08-07T09:25:25.000Z</time>
      </trkpt>
      <trkpt lat="47.33213" lon="-2.34976">
        <ele>-63.799999237061</ele>
        <time>2022-08-07T09:25:30.000Z</time>
      </trkpt>
      <trkpt lat="47.332" lon="-2.34992">
        <ele>-63.799999237061</ele>
        <time>2022-08-07T09:25:34.000Z</time>
      </trkpt>
      <trkpt lat="47.33197" lon="-2.34996">
        <ele>-63.799999237061</ele>
        <time>2022-08-07T09:25:35.000Z</time>
      </trkpt>
      <trkpt lat="47.33181" lon="-2.35012">
        <ele>-63.799999237061</ele>
        <time>2022-08-07T09:25:39.000Z</time>
      </trkpt>
      <trkpt lat="47.33174" lon="-2.35012">
        <ele>-63.799999237061</ele>
        <time>2022-08-07T09:25:41.000Z</time>
      </trkpt>
      <trkpt lat="47.33171" lon="-2.35011">
        <ele>-63.799999237061</ele>
        <time>2022-08-07T09:25:42.000Z</time>
      </trkpt>
      <trkpt lat="47.33154" lon="-2.35007">
        <ele>-63.799999237061</ele>
        <time>2022-08-07T09:25:47.000Z</time>
      </trkpt>
      <trkpt lat="47.33145" lon="-2.35024">
        <ele>-63.799999237061</ele>
        <time>2022-08-07T09:25:51.000Z</time>
      </trkpt>
      <trkpt lat="47.33135" lon="-2.35039">
        <ele>-63.799999237061</ele>
        <time>2022-08-07T09:25:55.000Z</time>
      </trkpt>
      <trkpt lat="47.33129" lon="-2.35049">
        <ele>-63.799999237061</ele>
        <time>2022-08-07T09:25:57.000Z</time>
      </trkpt>
      <trkpt lat="47.3312" lon="-2.35061">
        <ele>-63.799999237061</ele>
        <time>2022-08-07T09:26:00.000Z</time>
      </trkpt>
      <trkpt lat="47.33116" lon="-2.35064">
        <ele>-63.799999237061</ele>
        <time>2022-08-07T09:26:01.000Z</time>
      </trkpt>
      <trkpt lat="47.33109" lon="-2.35075">
        <ele>-63.799999237061</ele>
        <time>2022-08-07T09:26:03.000Z</time>
      </trkpt>
      <trkpt lat="47.33096" lon="-2.35092">
        <ele>-63.799999237061</ele>
        <time>2022-08-07T09:26:07.000Z</time>
      </trkpt>
      <trkpt lat="47.33092" lon="-2.35097">
        <ele>-63.799999237061</ele>
        <time>2022-08-07T09:26:08.000Z</time>
      </trkpt>
      <trkpt lat="47.33089" lon="-2.35103">
        <ele>-63.799999237061</ele>
        <time>2022-08-07T09:26:09.000Z</time>
      </trkpt>
      <trkpt lat="47.33075" lon="-2.35124">
        <ele>-63.799999237061</ele>
        <time>2022-08-07T09:26:13.000Z</time>
      </trkpt>
      <trkpt lat="47.33064" lon="-2.35139">
        <ele>-63.799999237061</ele>
        <time>2022-08-07T09:26:16.000Z</time>
      </trkpt>
      <trkpt lat="47.3306" lon="-2.35144">
        <ele>-63.799999237061</ele>
        <time>2022-08-07T09:26:17.000Z</time>
      </trkpt>
      <trkpt lat="47.33048" lon="-2.3517">
        <ele>-63.799999237061</ele>
        <time>2022-08-07T09:26:21.000Z</time>
      </trkpt>
      <trkpt lat="47.33036" lon="-2.35182">
        <ele>-63.799999237061</ele>
        <time>2022-08-07T09:26:25.000Z</time>
      </trkpt>
      <trkpt lat="47.33026" lon="-2.35175">
        <ele>-63.799999237061</ele>
        <time>2022-08-07T09:26:29.000Z</time>
      </trkpt>
      <trkpt lat="47.33025" lon="-2.35173">
        <ele>-63.799999237061</ele>
        <time>2022-08-07T09:26:31.000Z</time>
      </trkpt>
      <trkpt lat="47.33024" lon="-2.3517">
        <ele>-63.799999237061</ele>
        <time>2022-08-07T09:27:27.000Z</time>
      </trkpt>
      <trkpt lat="47.33023" lon="-2.35167">
        <ele>-63.799999237061</ele>
        <time>2022-08-07T09:27:28.000Z</time>
      </trkpt>
      <trkpt lat="47.33021" lon="-2.35149">
        <ele>-63.799999237061</ele>
        <time>2022-08-07T09:27:32.000Z</time>
      </trkpt>
      <trkpt lat="47.33018" lon="-2.35122">
        <ele>-63.799999237061</ele>
        <time>2022-08-07T09:27:37.000Z</time>
      </trkpt>
      <trkpt lat="47.33015" lon="-2.35099">
        <ele>-63.799999237061</ele>
        <time>2022-08-07T09:27:42.000Z</time>
      </trkpt>
      <trkpt lat="47.33009" lon="-2.35075">
        <ele>-63.799999237061</ele>
        <time>2022-08-07T09:27:48.000Z</time>
      </trkpt>
      <trkpt lat="47.33007" lon="-2.35069">
        <ele>-63.799999237061</ele>
        <time>2022-08-07T09:27:49.000Z</time>
      </trkpt>
      <trkpt lat="47.32996" lon="-2.35048">
        <ele>-63.799999237061</ele>
        <time>2022-08-07T09:27:53.000Z</time>
      </trkpt>
      <trkpt lat="47.3299" lon="-2.3503">
        <ele>-63.799999237061</ele>
        <time>2022-08-07T09:27:56.000Z</time>
      </trkpt>
      <trkpt lat="47.32982" lon="-2.35006">
        <ele>-63.799999237061</ele>
        <time>2022-08-07T09:28:00.000Z</time>
      </trkpt>
      <trkpt lat="47.32975" lon="-2.34978">
        <ele>-63.799999237061</ele>
        <time>2022-08-07T09:28:04.000Z</time>
      </trkpt>
      <trkpt lat="47.32973" lon="-2.34971">
        <ele>-63.799999237061</ele>
        <time>2022-08-07T09:28:05.000Z</time>
      </trkpt>
      <trkpt lat="47.32968" lon="-2.34956">
        <ele>-64.800003051758</ele>
        <time>2022-08-07T09:28:07.000Z</time>
      </trkpt>
      <trkpt lat="47.32965" lon="-2.3495">
        <ele>-65.199996948242</ele>
        <time>2022-08-07T09:28:08.000Z</time>
      </trkpt>
      <trkpt lat="47.32962" lon="-2.34943">
        <ele>-65.599998474121</ele>
        <time>2022-08-07T09:28:09.000Z</time>
      </trkpt>
      <trkpt lat="47.32959" lon="-2.34935">
        <ele>-66</ele>
        <time>2022-08-07T09:28:10.000Z</time>
      </trkpt>
      <trkpt lat="47.32956" lon="-2.34927">
        <ele>-66</ele>
        <time>2022-08-07T09:28:11.000Z</time>
      </trkpt>
      <trkpt lat="47.32946" lon="-2.34895">
        <ele>-66</ele>
        <time>2022-08-07T09:28:15.000Z</time>
      </trkpt>
      <trkpt lat="47.32944" lon="-2.34888">
        <ele>-66</ele>
        <time>2022-08-07T09:28:16.000Z</time>
      </trkpt>
      <trkpt lat="47.32933" lon="-2.3486">
        <ele>-66</ele>
        <time>2022-08-07T09:28:20.000Z</time>
      </trkpt>
      <trkpt lat="47.32931" lon="-2.34853">
        <ele>-66</ele>
        <time>2022-08-07T09:28:21.000Z</time>
      </trkpt>
      <trkpt lat="47.32919" lon="-2.34815">
        <ele>-66</ele>
        <time>2022-08-07T09:28:26.000Z</time>
      </trkpt>
      <trkpt lat="47.32913" lon="-2.34804">
        <ele>-66</ele>
        <time>2022-08-07T09:28:28.000Z</time>
      </trkpt>
      <trkpt lat="47.32906" lon="-2.34796">
        <ele>-66</ele>
        <time>2022-08-07T09:28:30.000Z</time>
      </trkpt>
      <trkpt lat="47.32894" lon="-2.34798">
        <ele>-66</ele>
        <time>2022-08-07T09:28:33.000Z</time>
      </trkpt>
      <trkpt lat="47.32886" lon="-2.34802">
        <ele>-66</ele>
        <time>2022-08-07T09:28:35.000Z</time>
      </trkpt>
      <trkpt lat="47.32872" lon="-2.3481">
        <ele>-66</ele>
        <time>2022-08-07T09:28:38.000Z</time>
      </trkpt>
      <trkpt lat="47.32847" lon="-2.34826">
        <ele>-66</ele>
        <time>2022-08-07T09:28:43.000Z</time>
      </trkpt>
      <trkpt lat="47.32843" lon="-2.34829">
        <ele>-66</ele>
        <time>2022-08-07T09:28:44.000Z</time>
      </trkpt>
      <trkpt lat="47.32827" lon="-2.3484">
        <ele>-66</ele>
        <time>2022-08-07T09:28:47.000Z</time>
      </trkpt>
      <trkpt lat="47.32797" lon="-2.34859">
        <ele>-66</ele>
        <time>2022-08-07T09:28:53.000Z</time>
      </trkpt>
      <trkpt lat="47.32778" lon="-2.34874">
        <ele>-66</ele>
        <time>2022-08-07T09:28:57.000Z</time>
      </trkpt>
      <trkpt lat="47.32769" lon="-2.3488">
        <ele>-66</ele>
        <time>2022-08-07T09:28:59.000Z</time>
      </trkpt>
      <trkpt lat="47.32764" lon="-2.34884">
        <ele>-66</ele>
        <time>2022-08-07T09:29:00.000Z</time>
      </trkpt>
      <trkpt lat="47.32748" lon="-2.34895">
        <ele>-66</ele>
        <time>2022-08-07T09:29:03.000Z</time>
      </trkpt>
      <trkpt lat="47.32715" lon="-2.34919">
        <ele>-66</ele>
        <time>2022-08-07T09:29:10.000Z</time>
      </trkpt>
      <trkpt lat="47.32703" lon="-2.34928">
        <ele>-66</ele>
        <time>2022-08-07T09:29:13.000Z</time>
      </trkpt>
      <trkpt lat="47.32698" lon="-2.34931">
        <ele>-66</ele>
        <time>2022-08-07T09:29:14.000Z</time>
      </trkpt>
      <trkpt lat="47.32672" lon="-2.3495">
        <ele>-66</ele>
        <time>2022-08-07T09:29:20.000Z</time>
      </trkpt>
      <trkpt lat="47.32666" lon="-2.34952">
        <ele>-65.599998474121</ele>
        <time>2022-08-07T09:29:24.000Z</time>
      </trkpt>
      <trkpt lat="47.32665" lon="-2.34952">
        <ele>-65.199996948242</ele>
        <time>2022-08-07T09:29:25.000Z</time>
      </trkpt>
      <trkpt lat="47.32665" lon="-2.34952">
        <ele>-64.800003051758</ele>
        <time>2022-08-07T09:29:26.000Z</time>
      </trkpt>
      <trkpt lat="47.32663" lon="-2.34952">
        <ele>-64.400001525879</ele>
        <time>2022-08-07T09:29:27.000Z</time>
      </trkpt>
      <trkpt lat="47.32661" lon="-2.34953">
        <ele>-64</ele>
        <time>2022-08-07T09:29:28.000Z</time>
      </trkpt>
      <trkpt lat="47.32656" lon="-2.34956">
        <ele>-64</ele>
        <time>2022-08-07T09:29:30.000Z</time>
      </trkpt>
      <trkpt lat="47.32642" lon="-2.34969">
        <ele>-64</ele>
        <time>2022-08-07T09:29:34.000Z</time>
      </trkpt>
      <trkpt lat="47.32637" lon="-2.34972">
        <ele>-64</ele>
        <time>2022-08-07T09:29:35.000Z</time>
      </trkpt>
      <trkpt lat="47.32619" lon="-2.34982">
        <ele>-64</ele>
        <time>2022-08-07T09:29:39.000Z</time>
      </trkpt>
      <trkpt lat="47.32614" lon="-2.34984">
        <ele>-64</ele>
        <time>2022-08-07T09:29:40.000Z</time>
      </trkpt>
      <trkpt lat="47.32594" lon="-2.34995">
        <ele>-64</ele>
        <time>2022-08-07T09:29:44.000Z</time>
      </trkpt>
      <trkpt lat="47.3259" lon="-2.34997">
        <ele>-64</ele>
        <time>2022-08-07T09:29:45.000Z</time>
      </trkpt>
      <trkpt lat="47.32576" lon="-2.35005">
        <ele>-64</ele>
        <time>2022-08-07T09:29:48.000Z</time>
      </trkpt>
      <trkpt lat="47.32572" lon="-2.35007">
        <ele>-63.599998474121</ele>
        <time>2022-08-07T09:29:49.000Z</time>
      </trkpt>
      <trkpt lat="47.32566" lon="-2.35009">
        <ele>-63.200000762939</ele>
        <time>2022-08-07T09:29:50.000Z</time>
      </trkpt>
      <trkpt lat="47.32562" lon="-2.35011">
        <ele>-62.799999237061</ele>
        <time>2022-08-07T09:29:51.000Z</time>
      </trkpt>
      <trkpt lat="47.32556" lon="-2.35012">
        <ele>-62.400001525879</ele>
        <time>2022-08-07T09:29:52.000Z</time>
      </trkpt>
      <trkpt lat="47.3255" lon="-2.35014">
        <ele>-61.799999237061</ele>
        <time>2022-08-07T09:29:53.000Z</time>
      </trkpt>
      <trkpt lat="47.32539" lon="-2.35017">
        <ele>-61.799999237061</ele>
        <time>2022-08-07T09:29:55.000Z</time>
      </trkpt>
      <trkpt lat="47.32522" lon="-2.35024">
        <ele>-61.799999237061</ele>
        <time>2022-08-07T09:29:58.000Z</time>
      </trkpt>
      <trkpt lat="47.32512" lon="-2.35025">
        <ele>-61.799999237061</ele>
        <time>2022-08-07T09:30:00.000Z</time>
      </trkpt>
      <trkpt lat="47.3249" lon="-2.35031">
        <ele>-61.799999237061</ele>
        <time>2022-08-07T09:30:04.000Z</time>
      </trkpt>
      <trkpt lat="47.32453" lon="-2.35041">
        <ele>-61.799999237061</ele>
        <time>2022-08-07T09:30:10.000Z</time>
      </trkpt>
      <trkpt lat="47.3242" lon="-2.35049">
        <ele>-61.799999237061</ele>
        <time>2022-08-07T09:30:16.000Z</time>
      </trkpt>
      <trkpt lat="47.32396" lon="-2.35051">
        <ele>-61.799999237061</ele>
        <time>2022-08-07T09:30:20.000Z</time>
      </trkpt>
      <trkpt lat="47.32391" lon="-2.35051">
        <ele>-61.799999237061</ele>
        <time>2022-08-07T09:30:21.000Z</time>
      </trkpt>
      <trkpt lat="47.32361" lon="-2.35051">
        <ele>-61.799999237061</ele>
        <time>2022-08-07T09:30:26.000Z</time>
      </trkpt>
      <trkpt lat="47.32357" lon="-2.35048">
        <ele>-61.799999237061</ele>
        <time>2022-08-07T09:30:27.000Z</time>
      </trkpt>
      <trkpt lat="47.32346" lon="-2.35047">
        <ele>-61.799999237061</ele>
        <time>2022-08-07T09:30:29.000Z</time>
      </trkpt>
      <trkpt lat="47.32334" lon="-2.35046">
        <ele>-61.799999237061</ele>
        <time>2022-08-07T09:30:31.000Z</time>
      </trkpt>
      <trkpt lat="47.32316" lon="-2.35047">
        <ele>-61.799999237061</ele>
        <time>2022-08-07T09:30:34.000Z</time>
      </trkpt>
      <trkpt lat="47.323" lon="-2.35047">
        <ele>-61.799999237061</ele>
        <time>2022-08-07T09:30:37.000Z</time>
      </trkpt>
      <trkpt lat="47.32288" lon="-2.35046">
        <ele>-61.799999237061</ele>
        <time>2022-08-07T09:30:39.000Z</time>
      </trkpt>
      <trkpt lat="47.32281" lon="-2.35047">
        <ele>-61.799999237061</ele>
        <time>2022-08-07T09:30:40.000Z</time>
      </trkpt>
      <trkpt lat="47.32255" lon="-2.35049">
        <ele>-61.799999237061</ele>
        <time>2022-08-07T09:30:44.000Z</time>
      </trkpt>
      <trkpt lat="47.3225" lon="-2.3505">
        <ele>-61.799999237061</ele>
        <time>2022-08-07T09:30:45.000Z</time>
      </trkpt>
      <trkpt lat="47.32235" lon="-2.35053">
        <ele>-62.400001525879</ele>
        <time>2022-08-07T09:30:48.000Z</time>
      </trkpt>
      <trkpt lat="47.32229" lon="-2.35054">
        <ele>-62.799999237061</ele>
        <time>2022-08-07T09:30:49.000Z</time>
      </trkpt>
      <trkpt lat="47.32222" lon="-2.35054">
        <ele>-63.200000762939</ele>
        <time>2022-08-07T09:30:50.000Z</time>
      </trkpt>
      <trkpt lat="47.32215" lon="-2.35056">
        <ele>-63.599998474121</ele>
        <time>2022-08-07T09:30:51.000Z</time>
      </trkpt>
      <trkpt lat="47.32209" lon="-2.35056">
        <ele>-64</ele>
        <time>2022-08-07T09:30:52.000Z</time>
      </trkpt>
      <trkpt lat="47.32176" lon="-2.35059">
        <ele>-64</ele>
        <time>2022-08-07T09:30:57.000Z</time>
      </trkpt>
      <trkpt lat="47.32147" lon="-2.35061">
        <ele>-64</ele>
        <time>2022-08-07T09:31:02.000Z</time>
      </trkpt>
      <trkpt lat="47.32134" lon="-2.35062">
        <ele>-64</ele>
        <time>2022-08-07T09:31:04.000Z</time>
      </trkpt>
      <trkpt lat="47.32115" lon="-2.35063">
        <ele>-64</ele>
        <time>2022-08-07T09:31:07.000Z</time>
      </trkpt>
      <trkpt lat="47.32081" lon="-2.35063">
        <ele>-64</ele>
        <time>2022-08-07T09:31:13.000Z</time>
      </trkpt>
      <trkpt lat="47.32064" lon="-2.35062">
        <ele>-64.400001525879</ele>
        <time>2022-08-07T09:31:16.000Z</time>
      </trkpt>
      <trkpt lat="47.32059" lon="-2.35062">
        <ele>-64.800003051758</ele>
        <time>2022-08-07T09:31:17.000Z</time>
      </trkpt>
      <trkpt lat="47.32054" lon="-2.35061">
        <ele>-65.199996948242</ele>
        <time>2022-08-07T09:31:18.000Z</time>
      </trkpt>
      <trkpt lat="47.32049" lon="-2.35061">
        <ele>-65.599998474121</ele>
        <time>2022-08-07T09:31:19.000Z</time>
      </trkpt>
      <trkpt lat="47.32045" lon="-2.35062">
        <ele>-66</ele>
        <time>2022-08-07T09:31:20.000Z</time>
      </trkpt>
      <trkpt lat="47.3204" lon="-2.35069">
        <ele>-66</ele>
        <time>2022-08-07T09:31:22.000Z</time>
      </trkpt>
      <trkpt lat="47.32045" lon="-2.35084">
        <ele>-66</ele>
        <time>2022-08-07T09:31:25.000Z</time>
      </trkpt>
      <trkpt lat="47.32047" lon="-2.3509">
        <ele>-66</ele>
        <time>2022-08-07T09:31:26.000Z</time>
      </trkpt>
      <trkpt lat="47.3205" lon="-2.35103">
        <ele>-66</ele>
        <time>2022-08-07T09:31:28.000Z</time>
      </trkpt>
      <trkpt lat="47.32049" lon="-2.35116">
        <ele>-66</ele>
        <time>2022-08-07T09:31:30.000Z</time>
      </trkpt>
      <trkpt lat="47.3204" lon="-2.3513">
        <ele>-66</ele>
        <time>2022-08-07T09:31:33.000Z</time>
      </trkpt>
      <trkpt lat="47.32024" lon="-2.35148">
        <ele>-66</ele>
        <time>2022-08-07T09:31:37.000Z</time>
      </trkpt>
      <trkpt lat="47.32007" lon="-2.35161">
        <ele>-66</ele>
        <time>2022-08-07T09:31:40.000Z</time>
      </trkpt>
      <trkpt lat="47.32002" lon="-2.35166">
        <ele>-66</ele>
        <time>2022-08-07T09:31:41.000Z</time>
      </trkpt>
      <trkpt lat="47.31987" lon="-2.3518">
        <ele>-66</ele>
        <time>2022-08-07T09:31:44.000Z</time>
      </trkpt>
      <trkpt lat="47.31982" lon="-2.35184">
        <ele>-66</ele>
        <time>2022-08-07T09:31:45.000Z</time>
      </trkpt>
      <trkpt lat="47.31977" lon="-2.35189">
        <ele>-66</ele>
        <time>2022-08-07T09:31:46.000Z</time>
      </trkpt>
      <trkpt lat="47.31957" lon="-2.35205">
        <ele>-66</ele>
        <time>2022-08-07T09:31:50.000Z</time>
      </trkpt>
      <trkpt lat="47.31953" lon="-2.35209">
        <ele>-66</ele>
        <time>2022-08-07T09:31:51.000Z</time>
      </trkpt>
      <trkpt lat="47.31939" lon="-2.35215">
        <ele>-66</ele>
        <time>2022-08-07T09:31:53.000Z</time>
      </trkpt>
      <trkpt lat="47.31934" lon="-2.3522">
        <ele>-66</ele>
        <time>2022-08-07T09:31:54.000Z</time>
      </trkpt>
      <trkpt lat="47.31927" lon="-2.35229">
        <ele>-66</ele>
        <time>2022-08-07T09:31:56.000Z</time>
      </trkpt>
      <trkpt lat="47.31902" lon="-2.35257">
        <ele>-66</ele>
        <time>2022-08-07T09:32:02.000Z</time>
      </trkpt>
      <trkpt lat="47.31893" lon="-2.35265">
        <ele>-65.599998474121</ele>
        <time>2022-08-07T09:32:04.000Z</time>
      </trkpt>
      <trkpt lat="47.31888" lon="-2.35268">
        <ele>-65.199996948242</ele>
        <time>2022-08-07T09:32:05.000Z</time>
      </trkpt>
      <trkpt lat="47.31883" lon="-2.35272">
        <ele>-64.800003051758</ele>
        <time>2022-08-07T09:32:06.000Z</time>
      </trkpt>
      <trkpt lat="47.3188" lon="-2.35276">
        <ele>-64.400001525879</ele>
        <time>2022-08-07T09:32:07.000Z</time>
      </trkpt>
      <trkpt lat="47.31875" lon="-2.3528">
        <ele>-64</ele>
        <time>2022-08-07T09:32:08.000Z</time>
      </trkpt>
      <trkpt lat="47.31858" lon="-2.35292">
        <ele>-64</ele>
        <time>2022-08-07T09:32:11.000Z</time>
      </trkpt>
      <trkpt lat="47.31853" lon="-2.35297">
        <ele>-64</ele>
        <time>2022-08-07T09:32:12.000Z</time>
      </trkpt>
      <trkpt lat="47.31839" lon="-2.35305">
        <ele>-64</ele>
        <time>2022-08-07T09:32:15.000Z</time>
      </trkpt>
      <trkpt lat="47.31826" lon="-2.35315">
        <ele>-63.400001525879</ele>
        <time>2022-08-07T09:32:18.000Z</time>
      </trkpt>
      <trkpt lat="47.31821" lon="-2.35319">
        <ele>-63</ele>
        <time>2022-08-07T09:32:19.000Z</time>
      </trkpt>
      <trkpt lat="47.31817" lon="-2.35321">
        <ele>-62.599998474121</ele>
        <time>2022-08-07T09:32:20.000Z</time>
      </trkpt>
      <trkpt lat="47.31813" lon="-2.35323">
        <ele>-62.200000762939</ele>
        <time>2022-08-07T09:32:21.000Z</time>
      </trkpt>
      <trkpt lat="47.31808" lon="-2.35325">
        <ele>-61.799999237061</ele>
        <time>2022-08-07T09:32:22.000Z</time>
      </trkpt>
      <trkpt lat="47.31803" lon="-2.35329">
        <ele>-61.799999237061</ele>
        <time>2022-08-07T09:32:23.000Z</time>
      </trkpt>
      <trkpt lat="47.31795" lon="-2.35335">
        <ele>-61.799999237061</ele>
        <time>2022-08-07T09:32:25.000Z</time>
      </trkpt>
      <trkpt lat="47.31775" lon="-2.35349">
        <ele>-61.799999237061</ele>
        <time>2022-08-07T09:32:30.000Z</time>
      </trkpt>
      <trkpt lat="47.31772" lon="-2.35353">
        <ele>-61.400001525879</ele>
        <time>2022-08-07T09:32:31.000Z</time>
      </trkpt>
      <trkpt lat="47.31769" lon="-2.35357">
        <ele>-61</ele>
        <time>2022-08-07T09:32:32.000Z</time>
      </trkpt>
      <trkpt lat="47.31768" lon="-2.35361">
        <ele>-60.599998474121</ele>
        <time>2022-08-07T09:32:33.000Z</time>
      </trkpt>
      <trkpt lat="47.31767" lon="-2.35366">
        <ele>-60.200000762939</ele>
        <time>2022-08-07T09:32:34.000Z</time>
      </trkpt>
      <trkpt lat="47.31767" lon="-2.35371">
        <ele>-59.799999237061</ele>
        <time>2022-08-07T09:32:35.000Z</time>
      </trkpt>
      <trkpt lat="47.31766" lon="-2.35383">
        <ele>-59.799999237061</ele>
        <time>2022-08-07T09:32:38.000Z</time>
      </trkpt>
      <trkpt lat="47.3177" lon="-2.35403">
        <ele>-59.799999237061</ele>
        <time>2022-08-07T09:32:42.000Z</time>
      </trkpt>
      <trkpt lat="47.31782" lon="-2.35422">
        <ele>-59.799999237061</ele>
        <time>2022-08-07T09:32:46.000Z</time>
      </trkpt>
      <trkpt lat="47.31785" lon="-2.35428">
        <ele>-60.200000762939</ele>
        <time>2022-08-07T09:32:47.000Z</time>
      </trkpt>
      <trkpt lat="47.31787" lon="-2.35435">
        <ele>-60.599998474121</ele>
        <time>2022-08-07T09:32:48.000Z</time>
      </trkpt>
      <trkpt lat="47.31788" lon="-2.35442">
        <ele>-61</ele>
        <time>2022-08-07T09:32:49.000Z</time>
      </trkpt>
      <trkpt lat="47.31791" lon="-2.35449">
        <ele>-61.400001525879</ele>
        <time>2022-08-07T09:32:50.000Z</time>
      </trkpt>
      <trkpt lat="47.31794" lon="-2.35456">
        <ele>-61.799999237061</ele>
        <time>2022-08-07T09:32:51.000Z</time>
      </trkpt>
      <trkpt lat="47.31807" lon="-2.3549">
        <ele>-61.799999237061</ele>
        <time>2022-08-07T09:32:56.000Z</time>
      </trkpt>
      <trkpt lat="47.31812" lon="-2.35503">
        <ele>-61.799999237061</ele>
        <time>2022-08-07T09:32:58.000Z</time>
      </trkpt>
      <trkpt lat="47.31816" lon="-2.35515">
        <ele>-61.799999237061</ele>
        <time>2022-08-07T09:33:00.000Z</time>
      </trkpt>
      <trkpt lat="47.31821" lon="-2.35542">
        <ele>-61.799999237061</ele>
        <time>2022-08-07T09:33:05.000Z</time>
      </trkpt>
      <trkpt lat="47.31826" lon="-2.35551">
        <ele>-61.799999237061</ele>
        <time>2022-08-07T09:33:07.000Z</time>
      </trkpt>
      <trkpt lat="47.31825" lon="-2.35564">
        <ele>-61.799999237061</ele>
        <time>2022-08-07T09:33:09.000Z</time>
      </trkpt>
      <trkpt lat="47.31819" lon="-2.35586">
        <ele>-61.799999237061</ele>
        <time>2022-08-07T09:33:12.000Z</time>
      </trkpt>
      <trkpt lat="47.31815" lon="-2.35593">
        <ele>-61.799999237061</ele>
        <time>2022-08-07T09:33:13.000Z</time>
      </trkpt>
      <trkpt lat="47.31807" lon="-2.35612">
        <ele>-61.799999237061</ele>
        <time>2022-08-07T09:33:16.000Z</time>
      </trkpt>
      <trkpt lat="47.31804" lon="-2.35619">
        <ele>-61.799999237061</ele>
        <time>2022-08-07T09:33:17.000Z</time>
      </trkpt>
      <trkpt lat="47.318" lon="-2.35633">
        <ele>-61.799999237061</ele>
        <time>2022-08-07T09:33:19.000Z</time>
      </trkpt>
      <trkpt lat="47.31799" lon="-2.35646">
        <ele>-61.799999237061</ele>
        <time>2022-08-07T09:33:21.000Z</time>
      </trkpt>
      <trkpt lat="47.31794" lon="-2.35683">
        <ele>-61.799999237061</ele>
        <time>2022-08-07T09:33:26.000Z</time>
      </trkpt>
      <trkpt lat="47.31793" lon="-2.35691">
        <ele>-61.400001525879</ele>
        <time>2022-08-07T09:33:27.000Z</time>
      </trkpt>
      <trkpt lat="47.31793" lon="-2.35698">
        <ele>-61</ele>
        <time>2022-08-07T09:33:28.000Z</time>
      </trkpt>
      <trkpt lat="47.31793" lon="-2.35704">
        <ele>-60.599998474121</ele>
        <time>2022-08-07T09:33:29.000Z</time>
      </trkpt>
      <trkpt lat="47.31792" lon="-2.3571">
        <ele>-60.200000762939</ele>
        <time>2022-08-07T09:33:30.000Z</time>
      </trkpt>
      <trkpt lat="47.31792" lon="-2.35717">
        <ele>-59.799999237061</ele>
        <time>2022-08-07T09:33:31.000Z</time>
      </trkpt>
      <trkpt lat="47.31791" lon="-2.35731">
        <ele>-59.799999237061</ele>
        <time>2022-08-07T09:33:33.000Z</time>
      </trkpt>
      <trkpt lat="47.31793" lon="-2.35771">
        <ele>-59.400001525879</ele>
        <time>2022-08-07T09:33:39.000Z</time>
      </trkpt>
      <trkpt lat="47.31794" lon="-2.35778">
        <ele>-58.799999237061</ele>
        <time>2022-08-07T09:33:40.000Z</time>
      </trkpt>
      <trkpt lat="47.31797" lon="-2.35784">
        <ele>-58.400001525879</ele>
        <time>2022-08-07T09:33:41.000Z</time>
      </trkpt>
      <trkpt lat="47.31799" lon="-2.3579">
        <ele>-58</ele>
        <time>2022-08-07T09:33:42.000Z</time>
      </trkpt>
      <trkpt lat="47.31803" lon="-2.35796">
        <ele>-57.599998474121</ele>
        <time>2022-08-07T09:33:43.000Z</time>
      </trkpt>
      <trkpt lat="47.31806" lon="-2.35801">
        <ele>-57.599998474121</ele>
        <time>2022-08-07T09:33:44.000Z</time>
      </trkpt>
      <trkpt lat="47.31812" lon="-2.35811">
        <ele>-57.599998474121</ele>
        <time>2022-08-07T09:33:46.000Z</time>
      </trkpt>
      <trkpt lat="47.31819" lon="-2.3583">
        <ele>-57.599998474121</ele>
        <time>2022-08-07T09:33:49.000Z</time>
      </trkpt>
      <trkpt lat="47.31825" lon="-2.35852">
        <ele>-57.599998474121</ele>
        <time>2022-08-07T09:33:52.000Z</time>
      </trkpt>
      <trkpt lat="47.31825" lon="-2.3586">
        <ele>-57.599998474121</ele>
        <time>2022-08-07T09:33:53.000Z</time>
      </trkpt>
      <trkpt lat="47.31814" lon="-2.35876">
        <ele>-57.599998474121</ele>
        <time>2022-08-07T09:33:56.000Z</time>
      </trkpt>
      <trkpt lat="47.31809" lon="-2.35879">
        <ele>-57.599998474121</ele>
        <time>2022-08-07T09:33:57.000Z</time>
      </trkpt>
      <trkpt lat="47.31778" lon="-2.35898">
        <ele>-57.599998474121</ele>
        <time>2022-08-07T09:34:03.000Z</time>
      </trkpt>
      <trkpt lat="47.3176" lon="-2.35912">
        <ele>-57.599998474121</ele>
        <time>2022-08-07T09:34:07.000Z</time>
      </trkpt>
      <trkpt lat="47.31745" lon="-2.35921">
        <ele>-57.599998474121</ele>
        <time>2022-08-07T09:34:10.000Z</time>
      </trkpt>
      <trkpt lat="47.31734" lon="-2.35928">
        <ele>-57.599998474121</ele>
        <time>2022-08-07T09:34:12.000Z</time>
      </trkpt>
      <trkpt lat="47.31713" lon="-2.35941">
        <ele>-56.799999237061</ele>
        <time>2022-08-07T09:34:16.000Z</time>
      </trkpt>
      <trkpt lat="47.31707" lon="-2.35944">
        <ele>-56.400001525879</ele>
        <time>2022-08-07T09:34:17.000Z</time>
      </trkpt>
      <trkpt lat="47.31702" lon="-2.35946">
        <ele>-56</ele>
        <time>2022-08-07T09:34:18.000Z</time>
      </trkpt>
      <trkpt lat="47.31697" lon="-2.35948">
        <ele>-55.400001525879</ele>
        <time>2022-08-07T09:34:19.000Z</time>
      </trkpt>
      <trkpt lat="47.31677" lon="-2.3596">
        <ele>-55.400001525879</ele>
        <time>2022-08-07T09:34:23.000Z</time>
      </trkpt>
      <trkpt lat="47.31649" lon="-2.35978">
        <ele>-55.400001525879</ele>
        <time>2022-08-07T09:34:29.000Z</time>
      </trkpt>
      <trkpt lat="47.31636" lon="-2.3599">
        <ele>-55</ele>
        <time>2022-08-07T09:34:32.000Z</time>
      </trkpt>
      <trkpt lat="47.31632" lon="-2.35995">
        <ele>-54.599998474121</ele>
        <time>2022-08-07T09:34:33.000Z</time>
      </trkpt>
      <trkpt lat="47.31628" lon="-2.35999">
        <ele>-54.200000762939</ele>
        <time>2022-08-07T09:34:34.000Z</time>
      </trkpt>
      <trkpt lat="47.31623" lon="-2.36004">
        <ele>-53.799999237061</ele>
        <time>2022-08-07T09:34:35.000Z</time>
      </trkpt>
      <trkpt lat="47.31619" lon="-2.36009">
        <ele>-53.400001525879</ele>
        <time>2022-08-07T09:34:36.000Z</time>
      </trkpt>
      <trkpt lat="47.31598" lon="-2.36031">
        <ele>-53.400001525879</ele>
        <time>2022-08-07T09:34:41.000Z</time>
      </trkpt>
      <trkpt lat="47.31594" lon="-2.36035">
        <ele>-53.400001525879</ele>
        <time>2022-08-07T09:34:42.000Z</time>
      </trkpt>
      <trkpt lat="47.31581" lon="-2.36047">
        <ele>-53.400001525879</ele>
        <time>2022-08-07T09:34:45.000Z</time>
      </trkpt>
      <trkpt lat="47.31573" lon="-2.36055">
        <ele>-53.400001525879</ele>
        <time>2022-08-07T09:34:47.000Z</time>
      </trkpt>
      <trkpt lat="47.31556" lon="-2.36072">
        <ele>-53.400001525879</ele>
        <time>2022-08-07T09:34:51.000Z</time>
      </trkpt>
      <trkpt lat="47.31551" lon="-2.36076">
        <ele>-52.799999237061</ele>
        <time>2022-08-07T09:34:52.000Z</time>
      </trkpt>
      <trkpt lat="47.31548" lon="-2.3608">
        <ele>-52.400001525879</ele>
        <time>2022-08-07T09:34:53.000Z</time>
      </trkpt>
      <trkpt lat="47.31544" lon="-2.36086">
        <ele>-52</ele>
        <time>2022-08-07T09:34:54.000Z</time>
      </trkpt>
      <trkpt lat="47.3154" lon="-2.36091">
        <ele>-51.599998474121</ele>
        <time>2022-08-07T09:34:55.000Z</time>
      </trkpt>
      <trkpt lat="47.31536" lon="-2.36095">
        <ele>-51.200000762939</ele>
        <time>2022-08-07T09:34:56.000Z</time>
      </trkpt>
      <trkpt lat="47.31531" lon="-2.361">
        <ele>-51.200000762939</ele>
        <time>2022-08-07T09:34:57.000Z</time>
      </trkpt>
      <trkpt lat="47.31518" lon="-2.36115">
        <ele>-51.200000762939</ele>
        <time>2022-08-07T09:35:00.000Z</time>
      </trkpt>
      <trkpt lat="47.31494" lon="-2.36142">
        <ele>-51.200000762939</ele>
        <time>2022-08-07T09:35:06.000Z</time>
      </trkpt>
      <trkpt lat="47.31473" lon="-2.36167">
        <ele>-51.200000762939</ele>
        <time>2022-08-07T09:35:12.000Z</time>
      </trkpt>
      <trkpt lat="47.31467" lon="-2.36173">
        <ele>-51.200000762939</ele>
        <time>2022-08-07T09:35:16.000Z</time>
      </trkpt>
      <trkpt lat="47.31464" lon="-2.36175">
        <ele>-51.200000762939</ele>
        <time>2022-08-07T09:35:49.000Z</time>
      </trkpt>
      <trkpt lat="47.31459" lon="-2.36176">
        <ele>-51.200000762939</ele>
        <time>2022-08-07T09:35:52.000Z</time>
      </trkpt>
      <trkpt lat="47.31445" lon="-2.36182">
        <ele>-51.200000762939</ele>
        <time>2022-08-07T09:35:56.000Z</time>
      </trkpt>
      <trkpt lat="47.3143" lon="-2.36194">
        <ele>-51.200000762939</ele>
        <time>2022-08-07T09:36:01.000Z</time>
      </trkpt>
      <trkpt lat="47.31404" lon="-2.36208">
        <ele>-51.200000762939</ele>
        <time>2022-08-07T09:36:08.000Z</time>
      </trkpt>
      <trkpt lat="47.3138" lon="-2.36216">
        <ele>-51.200000762939</ele>
        <time>2022-08-07T09:36:13.000Z</time>
      </trkpt>
      <trkpt lat="47.31364" lon="-2.36232">
        <ele>-51.200000762939</ele>
        <time>2022-08-07T09:36:17.000Z</time>
      </trkpt>
      <trkpt lat="47.31361" lon="-2.36237">
        <ele>-51.200000762939</ele>
        <time>2022-08-07T09:36:18.000Z</time>
      </trkpt>
      <trkpt lat="47.31346" lon="-2.36257">
        <ele>-51.200000762939</ele>
        <time>2022-08-07T09:36:22.000Z</time>
      </trkpt>
      <trkpt lat="47.31342" lon="-2.36261">
        <ele>-51.200000762939</ele>
        <time>2022-08-07T09:36:23.000Z</time>
      </trkpt>
      <trkpt lat="47.3131" lon="-2.3629">
        <ele>-51.200000762939</ele>
        <time>2022-08-07T09:36:30.000Z</time>
      </trkpt>
      <trkpt lat="47.31277" lon="-2.36307">
        <ele>-51.200000762939</ele>
        <time>2022-08-07T09:36:36.000Z</time>
      </trkpt>
      <trkpt lat="47.31254" lon="-2.36318">
        <ele>-51.200000762939</ele>
        <time>2022-08-07T09:36:40.000Z</time>
      </trkpt>
      <trkpt lat="47.31244" lon="-2.36326">
        <ele>-51.200000762939</ele>
        <time>2022-08-07T09:36:42.000Z</time>
      </trkpt>
      <trkpt lat="47.31211" lon="-2.36346">
        <ele>-51.200000762939</ele>
        <time>2022-08-07T09:36:48.000Z</time>
      </trkpt>
      <trkpt lat="47.31187" lon="-2.3636">
        <ele>-51.200000762939</ele>
        <time>2022-08-07T09:36:52.000Z</time>
      </trkpt>
      <trkpt lat="47.31181" lon="-2.36364">
        <ele>-51.599998474121</ele>
        <time>2022-08-07T09:36:53.000Z</time>
      </trkpt>
      <trkpt lat="47.31175" lon="-2.36368">
        <ele>-52</ele>
        <time>2022-08-07T09:36:54.000Z</time>
      </trkpt>
      <trkpt lat="47.31169" lon="-2.36372">
        <ele>-52.599998474121</ele>
        <time>2022-08-07T09:36:55.000Z</time>
      </trkpt>
      <trkpt lat="47.31163" lon="-2.36376">
        <ele>-53</ele>
        <time>2022-08-07T09:36:56.000Z</time>
      </trkpt>
      <trkpt lat="47.31158" lon="-2.3638">
        <ele>-53.400001525879</ele>
        <time>2022-08-07T09:36:57.000Z</time>
      </trkpt>
      <trkpt lat="47.31152" lon="-2.36384">
        <ele>-53.400001525879</ele>
        <time>2022-08-07T09:36:58.000Z</time>
      </trkpt>
      <trkpt lat="47.31125" lon="-2.364">
        <ele>-53.400001525879</ele>
        <time>2022-08-07T09:37:03.000Z</time>
      </trkpt>
      <trkpt lat="47.31101" lon="-2.36416">
        <ele>-53.400001525879</ele>
        <time>2022-08-07T09:37:09.000Z</time>
      </trkpt>
      <trkpt lat="47.31086" lon="-2.36417">
        <ele>-53.400001525879</ele>
        <time>2022-08-07T09:37:13.000Z</time>
      </trkpt>
      <trkpt lat="47.31081" lon="-2.36418">
        <ele>-53.400001525879</ele>
        <time>2022-08-07T09:37:14.000Z</time>
      </trkpt>
      <trkpt lat="47.31062" lon="-2.36422">
        <ele>-53.400001525879</ele>
        <time>2022-08-07T09:37:18.000Z</time>
      </trkpt>
      <trkpt lat="47.31053" lon="-2.36423">
        <ele>-53.400001525879</ele>
        <time>2022-08-07T09:37:20.000Z</time>
      </trkpt>
      <trkpt lat="47.31038" lon="-2.36425">
        <ele>-53.400001525879</ele>
        <time>2022-08-07T09:37:23.000Z</time>
      </trkpt>
      <trkpt lat="47.31032" lon="-2.36427">
        <ele>-53.400001525879</ele>
        <time>2022-08-07T09:37:24.000Z</time>
      </trkpt>
      <trkpt lat="47.31005" lon="-2.36435">
        <ele>-53.400001525879</ele>
        <time>2022-08-07T09:37:29.000Z</time>
      </trkpt>
      <trkpt lat="47.30973" lon="-2.36451">
        <ele>-53.400001525879</ele>
        <time>2022-08-07T09:37:35.000Z</time>
      </trkpt>
      <trkpt lat="47.30952" lon="-2.36458">
        <ele>-53.400001525879</ele>
        <time>2022-08-07T09:37:39.000Z</time>
      </trkpt>
      <trkpt lat="47.30942" lon="-2.3646">
        <ele>-53.400001525879</ele>
        <time>2022-08-07T09:37:41.000Z</time>
      </trkpt>
      <trkpt lat="47.30924" lon="-2.36464">
        <ele>-53</ele>
        <time>2022-08-07T09:37:44.000Z</time>
      </trkpt>
      <trkpt lat="47.30918" lon="-2.36466">
        <ele>-52.599998474121</ele>
        <time>2022-08-07T09:37:45.000Z</time>
      </trkpt>
      <trkpt lat="47.30911" lon="-2.36468">
        <ele>-52.200000762939</ele>
        <time>2022-08-07T09:37:46.000Z</time>
      </trkpt>
      <trkpt lat="47.30905" lon="-2.3647">
        <ele>-51.799999237061</ele>
        <time>2022-08-07T09:37:47.000Z</time>
      </trkpt>
      <trkpt lat="47.30899" lon="-2.36473">
        <ele>-51.400001525879</ele>
        <time>2022-08-07T09:37:48.000Z</time>
      </trkpt>
      <trkpt lat="47.30881" lon="-2.36479">
        <ele>-51.400001525879</ele>
        <time>2022-08-07T09:37:51.000Z</time>
      </trkpt>
      <trkpt lat="47.30842" lon="-2.36486">
        <ele>-51.400001525879</ele>
        <time>2022-08-07T09:37:58.000Z</time>
      </trkpt>
      <trkpt lat="47.30829" lon="-2.36486">
        <ele>-51.400001525879</ele>
        <time>2022-08-07T09:38:01.000Z</time>
      </trkpt>
      <trkpt lat="47.30821" lon="-2.36481">
        <ele>-51.400001525879</ele>
        <time>2022-08-07T09:38:03.000Z</time>
      </trkpt>
      <trkpt lat="47.30813" lon="-2.36474">
        <ele>-51.400001525879</ele>
        <time>2022-08-07T09:38:05.000Z</time>
      </trkpt>
      <trkpt lat="47.30809" lon="-2.36472">
        <ele>-51.400001525879</ele>
        <time>2022-08-07T09:38:06.000Z</time>
      </trkpt>
      <trkpt lat="47.30802" lon="-2.36471">
        <ele>-51.400001525879</ele>
        <time>2022-08-07T09:38:08.000Z</time>
      </trkpt>
      <trkpt lat="47.30791" lon="-2.3648">
        <ele>-51.400001525879</ele>
        <time>2022-08-07T09:38:12.000Z</time>
      </trkpt>
      <trkpt lat="47.30786" lon="-2.36482">
        <ele>-51.400001525879</ele>
        <time>2022-08-07T09:38:14.000Z</time>
      </trkpt>
      <trkpt lat="47.30767" lon="-2.36487">
        <ele>-51</ele>
        <time>2022-08-07T09:38:20.000Z</time>
      </trkpt>
      <trkpt lat="47.30764" lon="-2.36488">
        <ele>-50.200000762939</ele>
        <time>2022-08-07T09:38:21.000Z</time>
      </trkpt>
      <trkpt lat="47.3076" lon="-2.36489">
        <ele>-49.799999237061</ele>
        <time>2022-08-07T09:38:22.000Z</time>
      </trkpt>
      <trkpt lat="47.30757" lon="-2.36491">
        <ele>-49.400001525879</ele>
        <time>2022-08-07T09:38:23.000Z</time>
      </trkpt>
      <trkpt lat="47.30733" lon="-2.365">
        <ele>-49.400001525879</ele>
        <time>2022-08-07T09:38:30.000Z</time>
      </trkpt>
      <trkpt lat="47.30709" lon="-2.36517">
        <ele>-49.400001525879</ele>
        <time>2022-08-07T09:38:37.000Z</time>
      </trkpt>
      <trkpt lat="47.30698" lon="-2.36521">
        <ele>-49.400001525879</ele>
        <time>2022-08-07T09:38:40.000Z</time>
      </trkpt>
      <trkpt lat="47.30695" lon="-2.36516">
        <ele>-49.400001525879</ele>
        <time>2022-08-07T09:38:41.000Z</time>
      </trkpt>
      <trkpt lat="47.30686" lon="-2.36512">
        <ele>-49.400001525879</ele>
        <time>2022-08-07T09:38:44.000Z</time>
      </trkpt>
      <trkpt lat="47.30682" lon="-2.36515">
        <ele>-49</ele>
        <time>2022-08-07T09:38:45.000Z</time>
      </trkpt>
      <trkpt lat="47.30677" lon="-2.36517">
        <ele>-48.200000762939</ele>
        <time>2022-08-07T09:38:46.000Z</time>
      </trkpt>
      <trkpt lat="47.30672" lon="-2.36519">
        <ele>-47.799999237061</ele>
        <time>2022-08-07T09:38:47.000Z</time>
      </trkpt>
      <trkpt lat="47.30668" lon="-2.36521">
        <ele>-47.400001525879</ele>
        <time>2022-08-07T09:38:48.000Z</time>
      </trkpt>
      <trkpt lat="47.30635" lon="-2.36539">
        <ele>-47.400001525879</ele>
        <time>2022-08-07T09:38:55.000Z</time>
      </trkpt>
      <trkpt lat="47.30615" lon="-2.36543">
        <ele>-47.400001525879</ele>
        <time>2022-08-07T09:38:59.000Z</time>
      </trkpt>
      <trkpt lat="47.30588" lon="-2.36549">
        <ele>-47.400001525879</ele>
        <time>2022-08-07T09:39:04.000Z</time>
      </trkpt>
      <trkpt lat="47.30561" lon="-2.36565">
        <ele>-47.400001525879</ele>
        <time>2022-08-07T09:39:09.000Z</time>
      </trkpt>
      <trkpt lat="47.30538" lon="-2.36584">
        <ele>-47.400001525879</ele>
        <time>2022-08-07T09:39:14.000Z</time>
      </trkpt>
      <trkpt lat="47.30518" lon="-2.36596">
        <ele>-47.400001525879</ele>
        <time>2022-08-07T09:39:18.000Z</time>
      </trkpt>
      <trkpt lat="47.30508" lon="-2.36598">
        <ele>-47.400001525879</ele>
        <time>2022-08-07T09:39:20.000Z</time>
      </trkpt>
      <trkpt lat="47.30493" lon="-2.36603">
        <ele>-47.400001525879</ele>
        <time>2022-08-07T09:39:23.000Z</time>
      </trkpt>
      <trkpt lat="47.30483" lon="-2.36608">
        <ele>-47.400001525879</ele>
        <time>2022-08-07T09:39:25.000Z</time>
      </trkpt>
      <trkpt lat="47.30457" lon="-2.36623">
        <ele>-47.400001525879</ele>
        <time>2022-08-07T09:39:30.000Z</time>
      </trkpt>
      <trkpt lat="47.30422" lon="-2.36652">
        <ele>-47.400001525879</ele>
        <time>2022-08-07T09:39:37.000Z</time>
      </trkpt>
      <trkpt lat="47.30394" lon="-2.36657">
        <ele>-47.400001525879</ele>
        <time>2022-08-07T09:39:42.000Z</time>
      </trkpt>
      <trkpt lat="47.30381" lon="-2.36657">
        <ele>-47.400001525879</ele>
        <time>2022-08-07T09:39:44.000Z</time>
      </trkpt>
      <trkpt lat="47.30362" lon="-2.36654">
        <ele>-47.400001525879</ele>
        <time>2022-08-07T09:39:47.000Z</time>
      </trkpt>
      <trkpt lat="47.30331" lon="-2.36649">
        <ele>-47.400001525879</ele>
        <time>2022-08-07T09:39:52.000Z</time>
      </trkpt>
      <trkpt lat="47.30326" lon="-2.36647">
        <ele>-47.400001525879</ele>
        <time>2022-08-07T09:39:53.000Z</time>
      </trkpt>
      <trkpt lat="47.30312" lon="-2.36646">
        <ele>-47.400001525879</ele>
        <time>2022-08-07T09:39:55.000Z</time>
      </trkpt>
      <trkpt lat="47.303" lon="-2.36648">
        <ele>-47.400001525879</ele>
        <time>2022-08-07T09:39:57.000Z</time>
      </trkpt>
      <trkpt lat="47.30295" lon="-2.36652">
        <ele>-47.400001525879</ele>
        <time>2022-08-07T09:39:58.000Z</time>
      </trkpt>
      <trkpt lat="47.30283" lon="-2.36657">
        <ele>-47.400001525879</ele>
        <time>2022-08-07T09:40:00.000Z</time>
      </trkpt>
      <trkpt lat="47.30278" lon="-2.36659">
        <ele>-47.400001525879</ele>
        <time>2022-08-07T09:40:01.000Z</time>
      </trkpt>
      <trkpt lat="47.30255" lon="-2.36665">
        <ele>-47.400001525879</ele>
        <time>2022-08-07T09:40:05.000Z</time>
      </trkpt>
      <trkpt lat="47.30216" lon="-2.36671">
        <ele>-47.400001525879</ele>
        <time>2022-08-07T09:40:12.000Z</time>
      </trkpt>
      <trkpt lat="47.3019" lon="-2.36677">
        <ele>-47.400001525879</ele>
        <time>2022-08-07T09:40:18.000Z</time>
      </trkpt>
      <trkpt lat="47.30178" lon="-2.36682">
        <ele>-47.400001525879</ele>
        <time>2022-08-07T09:40:24.000Z</time>
      </trkpt>
      <trkpt lat="47.30176" lon="-2.36684">
        <ele>-47.400001525879</ele>
        <time>2022-08-07T09:40:26.000Z</time>
      </trkpt>
      <trkpt lat="47.30176" lon="-2.36684">
        <ele>-47.400001525879</ele>
        <time>2022-08-07T09:41:08.000Z</time>
      </trkpt>
      <trkpt lat="47.30174" lon="-2.36684">
        <ele>-47.400001525879</ele>
        <time>2022-08-07T09:41:09.000Z</time>
      </trkpt>
      <trkpt lat="47.3017" lon="-2.36684">
        <ele>-47.400001525879</ele>
        <time>2022-08-07T09:41:11.000Z</time>
      </trkpt>
      <trkpt lat="47.3016" lon="-2.36684">
        <ele>-47.799999237061</ele>
        <time>2022-08-07T09:41:14.000Z</time>
      </trkpt>
      <trkpt lat="47.30156" lon="-2.36684">
        <ele>-48.200000762939</ele>
        <time>2022-08-07T09:41:15.000Z</time>
      </trkpt>
      <trkpt lat="47.30151" lon="-2.36686">
        <ele>-48.599998474121</ele>
        <time>2022-08-07T09:41:16.000Z</time>
      </trkpt>
      <trkpt lat="47.30146" lon="-2.36688">
        <ele>-49</ele>
        <time>2022-08-07T09:41:17.000Z</time>
      </trkpt>
      <trkpt lat="47.30141" lon="-2.3669">
        <ele>-49.599998474121</ele>
        <time>2022-08-07T09:41:18.000Z</time>
      </trkpt>
      <trkpt lat="47.30137" lon="-2.36692">
        <ele>-50</ele>
        <time>2022-08-07T09:41:19.000Z</time>
      </trkpt>
      <trkpt lat="47.30132" lon="-2.36695">
        <ele>-50.599998474121</ele>
        <time>2022-08-07T09:41:20.000Z</time>
      </trkpt>
      <trkpt lat="47.30128" lon="-2.36698">
        <ele>-51.200000762939</ele>
        <time>2022-08-07T09:41:21.000Z</time>
      </trkpt>
      <trkpt lat="47.30122" lon="-2.36705">
        <ele>-51.599998474121</ele>
        <time>2022-08-07T09:41:22.000Z</time>
      </trkpt>
      <trkpt lat="47.30107" lon="-2.3672">
        <ele>-51.599998474121</ele>
        <time>2022-08-07T09:41:25.000Z</time>
      </trkpt>
      <trkpt lat="47.30102" lon="-2.36724">
        <ele>-51.599998474121</ele>
        <time>2022-08-07T09:41:26.000Z</time>
      </trkpt>
      <trkpt lat="47.30088" lon="-2.36736">
        <ele>-51.200000762939</ele>
        <time>2022-08-07T09:41:29.000Z</time>
      </trkpt>
      <trkpt lat="47.30084" lon="-2.3674">
        <ele>-50.799999237061</ele>
        <time>2022-08-07T09:41:30.000Z</time>
      </trkpt>
      <trkpt lat="47.3008" lon="-2.36744">
        <ele>-50.400001525879</ele>
        <time>2022-08-07T09:41:31.000Z</time>
      </trkpt>
      <trkpt lat="47.30076" lon="-2.36749">
        <ele>-50</ele>
        <time>2022-08-07T09:41:32.000Z</time>
      </trkpt>
      <trkpt lat="47.30072" lon="-2.36753">
        <ele>-49.599998474121</ele>
        <time>2022-08-07T09:41:33.000Z</time>
      </trkpt>
      <trkpt lat="47.30036" lon="-2.36796">
        <ele>-49.599998474121</ele>
        <time>2022-08-07T09:41:42.000Z</time>
      </trkpt>
      <trkpt lat="47.29998" lon="-2.36841">
        <ele>-49.599998474121</ele>
        <time>2022-08-07T09:41:50.000Z</time>
      </trkpt>
      <trkpt lat="47.29965" lon="-2.36882">
        <ele>-49.599998474121</ele>
        <time>2022-08-07T09:41:57.000Z</time>
      </trkpt>
      <trkpt lat="47.29935" lon="-2.36916">
        <ele>-49.599998474121</ele>
        <time>2022-08-07T09:42:04.000Z</time>
      </trkpt>
      <trkpt lat="47.29914" lon="-2.36945">
        <ele>-49.599998474121</ele>
        <time>2022-08-07T09:42:10.000Z</time>
      </trkpt>
      <trkpt lat="47.299" lon="-2.36972">
        <ele>-49.599998474121</ele>
        <time>2022-08-07T09:42:15.000Z</time>
      </trkpt>
      <trkpt lat="47.29885" lon="-2.36974">
        <ele>-49.599998474121</ele>
        <time>2022-08-07T09:42:18.000Z</time>
      </trkpt>
      <trkpt lat="47.29866" lon="-2.3699">
        <ele>-49.200000762939</ele>
        <time>2022-08-07T09:42:22.000Z</time>
      </trkpt>
      <trkpt lat="47.29862" lon="-2.36995">
        <ele>-48.799999237061</ele>
        <time>2022-08-07T09:42:23.000Z</time>
      </trkpt>
      <trkpt lat="47.29857" lon="-2.37">
        <ele>-48.200000762939</ele>
        <time>2022-08-07T09:42:24.000Z</time>
      </trkpt>
      <trkpt lat="47.29853" lon="-2.37005">
        <ele>-47.799999237061</ele>
        <time>2022-08-07T09:42:25.000Z</time>
      </trkpt>
      <trkpt lat="47.29848" lon="-2.37011">
        <ele>-47.400001525879</ele>
        <time>2022-08-07T09:42:26.000Z</time>
      </trkpt>
      <trkpt lat="47.29839" lon="-2.37022">
        <ele>-47.400001525879</ele>
        <time>2022-08-07T09:42:28.000Z</time>
      </trkpt>
      <trkpt lat="47.29822" lon="-2.37048">
        <ele>-47.400001525879</ele>
        <time>2022-08-07T09:42:32.000Z</time>
      </trkpt>
      <trkpt lat="47.29815" lon="-2.37064">
        <ele>-47.400001525879</ele>
        <time>2022-08-07T09:42:34.000Z</time>
      </trkpt>
      <trkpt lat="47.29812" lon="-2.37072">
        <ele>-47.400001525879</ele>
        <time>2022-08-07T09:42:35.000Z</time>
      </trkpt>
      <trkpt lat="47.29807" lon="-2.37098">
        <ele>-47.400001525879</ele>
        <time>2022-08-07T09:42:38.000Z</time>
      </trkpt>
      <trkpt lat="47.29798" lon="-2.3714">
        <ele>-47.400001525879</ele>
        <time>2022-08-07T09:42:43.000Z</time>
      </trkpt>
      <trkpt lat="47.29794" lon="-2.37148">
        <ele>-47.400001525879</ele>
        <time>2022-08-07T09:42:44.000Z</time>
      </trkpt>
      <trkpt lat="47.29776" lon="-2.37171">
        <ele>-47.400001525879</ele>
        <time>2022-08-07T09:42:48.000Z</time>
      </trkpt>
      <trkpt lat="47.29748" lon="-2.37185">
        <ele>-47.400001525879</ele>
        <time>2022-08-07T09:42:53.000Z</time>
      </trkpt>
      <trkpt lat="47.29742" lon="-2.37186">
        <ele>-47.400001525879</ele>
        <time>2022-08-07T09:42:54.000Z</time>
      </trkpt>
      <trkpt lat="47.29725" lon="-2.37187">
        <ele>-47.400001525879</ele>
        <time>2022-08-07T09:42:57.000Z</time>
      </trkpt>
      <trkpt lat="47.29718" lon="-2.37188">
        <ele>-47.400001525879</ele>
        <time>2022-08-07T09:42:58.000Z</time>
      </trkpt>
      <trkpt lat="47.297" lon="-2.37195">
        <ele>-47.400001525879</ele>
        <time>2022-08-07T09:43:01.000Z</time>
      </trkpt>
      <trkpt lat="47.29681" lon="-2.37203">
        <ele>-47.400001525879</ele>
        <time>2022-08-07T09:43:04.000Z</time>
      </trkpt>
      <trkpt lat="47.29663" lon="-2.37211">
        <ele>-47.799999237061</ele>
        <time>2022-08-07T09:43:07.000Z</time>
      </trkpt>
      <trkpt lat="47.29657" lon="-2.37213">
        <ele>-48.200000762939</ele>
        <time>2022-08-07T09:43:08.000Z</time>
      </trkpt>
      <trkpt lat="47.29651" lon="-2.37215">
        <ele>-48.599998474121</ele>
        <time>2022-08-07T09:43:09.000Z</time>
      </trkpt>
      <trkpt lat="47.29645" lon="-2.37218">
        <ele>-49</ele>
        <time>2022-08-07T09:43:10.000Z</time>
      </trkpt>
      <trkpt lat="47.29638" lon="-2.3722">
        <ele>-49.400001525879</ele>
        <time>2022-08-07T09:43:11.000Z</time>
      </trkpt>
      <trkpt lat="47.29632" lon="-2.37223">
        <ele>-49.400001525879</ele>
        <time>2022-08-07T09:43:12.000Z</time>
      </trkpt>
      <trkpt lat="47.29595" lon="-2.37244">
        <ele>-50</ele>
        <time>2022-08-07T09:43:18.000Z</time>
      </trkpt>
      <trkpt lat="47.29588" lon="-2.37248">
        <ele>-50.400001525879</ele>
        <time>2022-08-07T09:43:19.000Z</time>
      </trkpt>
      <trkpt lat="47.29582" lon="-2.37251">
        <ele>-50.799999237061</ele>
        <time>2022-08-07T09:43:20.000Z</time>
      </trkpt>
      <trkpt lat="47.29575" lon="-2.37255">
        <ele>-51.200000762939</ele>
        <time>2022-08-07T09:43:21.000Z</time>
      </trkpt>
      <trkpt lat="47.29569" lon="-2.37259">
        <ele>-51.599998474121</ele>
        <time>2022-08-07T09:43:22.000Z</time>
      </trkpt>
      <trkpt lat="47.29542" lon="-2.37273">
        <ele>-51.599998474121</ele>
        <time>2022-08-07T09:43:26.000Z</time>
      </trkpt>
      <trkpt lat="47.29521" lon="-2.37284">
        <ele>-52.200000762939</ele>
        <time>2022-08-07T09:43:29.000Z</time>
      </trkpt>
      <trkpt lat="47.29514" lon="-2.37286">
        <ele>-52.599998474121</ele>
        <time>2022-08-07T09:43:30.000Z</time>
      </trkpt>
      <trkpt lat="47.29507" lon="-2.37286">
        <ele>-53</ele>
        <time>2022-08-07T09:43:31.000Z</time>
      </trkpt>
      <trkpt lat="47.295" lon="-2.37287">
        <ele>-53.400001525879</ele>
        <time>2022-08-07T09:43:32.000Z</time>
      </trkpt>
      <trkpt lat="47.29495" lon="-2.37287">
        <ele>-53.799999237061</ele>
        <time>2022-08-07T09:43:33.000Z</time>
      </trkpt>
      <trkpt lat="47.29486" lon="-2.37288">
        <ele>-53.799999237061</ele>
        <time>2022-08-07T09:43:35.000Z</time>
      </trkpt>
      <trkpt lat="47.29481" lon="-2.3729">
        <ele>-53.799999237061</ele>
        <time>2022-08-07T09:43:37.000Z</time>
      </trkpt>
      <trkpt lat="47.29481" lon="-2.3729">
        <ele>-53.799999237061</ele>
        <time>2022-08-07T09:43:38.000Z</time>
      </trkpt>
      <trkpt lat="47.29481" lon="-2.37291">
        <ele>-56</ele>
        <time>2022-08-07T09:43:42.000Z</time>
      </trkpt>
      <trkpt lat="47.29481" lon="-2.37297">
        <ele>-56</ele>
        <time>2022-08-07T09:43:44.000Z</time>
      </trkpt>
      <trkpt lat="47.29486" lon="-2.37303">
        <ele>-56</ele>
        <time>2022-08-07T09:43:46.000Z</time>
      </trkpt>
      <trkpt lat="47.29491" lon="-2.3731">
        <ele>-56</ele>
        <time>2022-08-07T09:43:48.000Z</time>
      </trkpt>
      <trkpt lat="47.29513" lon="-2.3734">
        <ele>-56</ele>
        <time>2022-08-07T09:43:54.000Z</time>
      </trkpt>
      <trkpt lat="47.29543" lon="-2.37375">
        <ele>-56</ele>
        <time>2022-08-07T09:44:01.000Z</time>
      </trkpt>
      <trkpt lat="47.29555" lon="-2.37392">
        <ele>-55.400001525879</ele>
        <time>2022-08-07T09:44:04.000Z</time>
      </trkpt>
      <trkpt lat="47.29558" lon="-2.37397">
        <ele>-55</ele>
        <time>2022-08-07T09:44:05.000Z</time>
      </trkpt>
      <trkpt lat="47.29562" lon="-2.37403">
        <ele>-54.599998474121</ele>
        <time>2022-08-07T09:44:06.000Z</time>
      </trkpt>
      <trkpt lat="47.29566" lon="-2.37408">
        <ele>-54.200000762939</ele>
        <time>2022-08-07T09:44:07.000Z</time>
      </trkpt>
      <trkpt lat="47.2957" lon="-2.37414">
        <ele>-53.599998474121</ele>
        <time>2022-08-07T09:44:08.000Z</time>
      </trkpt>
      <trkpt lat="47.29583" lon="-2.3744">
        <ele>-53.599998474121</ele>
        <time>2022-08-07T09:44:13.000Z</time>
      </trkpt>
      <trkpt lat="47.29599" lon="-2.37469">
        <ele>-53.599998474121</ele>
        <time>2022-08-07T09:44:19.000Z</time>
      </trkpt>
      <trkpt lat="47.29603" lon="-2.37474">
        <ele>-53.599998474121</ele>
        <time>2022-08-07T09:44:20.000Z</time>
      </trkpt>
      <trkpt lat="47.29626" lon="-2.37498">
        <ele>-54.599998474121</ele>
        <time>2022-08-07T09:44:25.000Z</time>
      </trkpt>
      <trkpt lat="47.29631" lon="-2.37502">
        <ele>-55</ele>
        <time>2022-08-07T09:44:26.000Z</time>
      </trkpt>
      <trkpt lat="47.29637" lon="-2.37506">
        <ele>-55.400001525879</ele>
        <time>2022-08-07T09:44:27.000Z</time>
      </trkpt>
      <trkpt lat="47.29643" lon="-2.3751">
        <ele>-55.799999237061</ele>
        <time>2022-08-07T09:44:28.000Z</time>
      </trkpt>
      <trkpt lat="47.29663" lon="-2.37523">
        <ele>-55.799999237061</ele>
        <time>2022-08-07T09:44:31.000Z</time>
      </trkpt>
      <trkpt lat="47.29698" lon="-2.37553">
        <ele>-55.799999237061</ele>
        <time>2022-08-07T09:44:37.000Z</time>
      </trkpt>
      <trkpt lat="47.29721" lon="-2.37579">
        <ele>-55.799999237061</ele>
        <time>2022-08-07T09:44:42.000Z</time>
      </trkpt>
      <trkpt lat="47.29754" lon="-2.37625">
        <ele>-55</ele>
        <time>2022-08-07T09:44:50.000Z</time>
      </trkpt>
      <trkpt lat="47.29758" lon="-2.37631">
        <ele>-54.599998474121</ele>
        <time>2022-08-07T09:44:51.000Z</time>
      </trkpt>
      <trkpt lat="47.29762" lon="-2.37636">
        <ele>-54</ele>
        <time>2022-08-07T09:44:52.000Z</time>
      </trkpt>
      <trkpt lat="47.29766" lon="-2.37642">
        <ele>-53.599998474121</ele>
        <time>2022-08-07T09:44:53.000Z</time>
      </trkpt>
      <trkpt lat="47.29778" lon="-2.37658">
        <ele>-53.599998474121</ele>
        <time>2022-08-07T09:44:56.000Z</time>
      </trkpt>
      <trkpt lat="47.29801" lon="-2.37692">
        <ele>-53.599998474121</ele>
        <time>2022-08-07T09:45:02.000Z</time>
      </trkpt>
      <trkpt lat="47.29834" lon="-2.37747">
        <ele>-53.599998474121</ele>
        <time>2022-08-07T09:45:11.000Z</time>
      </trkpt>
      <trkpt lat="47.2986" lon="-2.37786">
        <ele>-53.599998474121</ele>
        <time>2022-08-07T09:45:17.000Z</time>
      </trkpt>
      <trkpt lat="47.29869" lon="-2.37805">
        <ele>-54.200000762939</ele>
        <time>2022-08-07T09:45:20.000Z</time>
      </trkpt>
      <trkpt lat="47.29869" lon="-2.37811">
        <ele>-54.599998474121</ele>
        <time>2022-08-07T09:45:21.000Z</time>
      </trkpt>
      <trkpt lat="47.29868" lon="-2.37818">
        <ele>-55</ele>
        <time>2022-08-07T09:45:22.000Z</time>
      </trkpt>
      <trkpt lat="47.29866" lon="-2.37825">
        <ele>-55.400001525879</ele>
        <time>2022-08-07T09:45:23.000Z</time>
      </trkpt>
      <trkpt lat="47.29864" lon="-2.3783">
        <ele>-55.799999237061</ele>
        <time>2022-08-07T09:45:24.000Z</time>
      </trkpt>
      <trkpt lat="47.29862" lon="-2.37836">
        <ele>-55.799999237061</ele>
        <time>2022-08-07T09:45:25.000Z</time>
      </trkpt>
      <trkpt lat="47.29853" lon="-2.37856">
        <ele>-55.799999237061</ele>
        <time>2022-08-07T09:45:28.000Z</time>
      </trkpt>
      <trkpt lat="47.29846" lon="-2.37868">
        <ele>-55.799999237061</ele>
        <time>2022-08-07T09:45:30.000Z</time>
      </trkpt>
      <trkpt lat="47.29833" lon="-2.37881">
        <ele>-55.799999237061</ele>
        <time>2022-08-07T09:45:33.000Z</time>
      </trkpt>
      <trkpt lat="47.2982" lon="-2.37891">
        <ele>-55.799999237061</ele>
        <time>2022-08-07T09:45:36.000Z</time>
      </trkpt>
      <trkpt lat="47.29805" lon="-2.37899">
        <ele>-55.799999237061</ele>
        <time>2022-08-07T09:45:39.000Z</time>
      </trkpt>
      <trkpt lat="47.2978" lon="-2.37913">
        <ele>-55.799999237061</ele>
        <time>2022-08-07T09:45:44.000Z</time>
      </trkpt>
      <trkpt lat="47.29754" lon="-2.37935">
        <ele>-55.799999237061</ele>
        <time>2022-08-07T09:45:49.000Z</time>
      </trkpt>
      <trkpt lat="47.29738" lon="-2.37965">
        <ele>-55.799999237061</ele>
        <time>2022-08-07T09:45:53.000Z</time>
      </trkpt>
      <trkpt lat="47.29732" lon="-2.37981">
        <ele>-56.400001525879</ele>
        <time>2022-08-07T09:45:55.000Z</time>
      </trkpt>
      <trkpt lat="47.29729" lon="-2.37988">
        <ele>-56.799999237061</ele>
        <time>2022-08-07T09:45:56.000Z</time>
      </trkpt>
      <trkpt lat="47.29728" lon="-2.37995">
        <ele>-57.200000762939</ele>
        <time>2022-08-07T09:45:57.000Z</time>
      </trkpt>
      <trkpt lat="47.29727" lon="-2.38001">
        <ele>-57.799999237061</ele>
        <time>2022-08-07T09:45:58.000Z</time>
      </trkpt>
      <trkpt lat="47.29728" lon="-2.38008">
        <ele>-58.599998474121</ele>
        <time>2022-08-07T09:45:59.000Z</time>
      </trkpt>
      <trkpt lat="47.29728" lon="-2.38015">
        <ele>-59.200000762939</ele>
        <time>2022-08-07T09:46:00.000Z</time>
      </trkpt>
      <trkpt lat="47.29729" lon="-2.38021">
        <ele>-59.799999237061</ele>
        <time>2022-08-07T09:46:01.000Z</time>
      </trkpt>
      <trkpt lat="47.2973" lon="-2.38027">
        <ele>-60.599998474121</ele>
        <time>2022-08-07T09:46:02.000Z</time>
      </trkpt>
      <trkpt lat="47.2973" lon="-2.38033">
        <ele>-61.400001525879</ele>
        <time>2022-08-07T09:46:03.000Z</time>
      </trkpt>
      <trkpt lat="47.29729" lon="-2.38037">
        <ele>-62.599998474121</ele>
        <time>2022-08-07T09:46:04.000Z</time>
      </trkpt>
      <trkpt lat="47.29727" lon="-2.3804">
        <ele>-63.200000762939</ele>
        <time>2022-08-07T09:46:05.000Z</time>
      </trkpt>
      <trkpt lat="47.29723" lon="-2.38043">
        <ele>-63.799999237061</ele>
        <time>2022-08-07T09:46:06.000Z</time>
      </trkpt>
      <trkpt lat="47.29717" lon="-2.38048">
        <ele>-64.400001525879</ele>
        <time>2022-08-07T09:46:07.000Z</time>
      </trkpt>
      <trkpt lat="47.29711" lon="-2.38053">
        <ele>-64.800003051758</ele>
        <time>2022-08-07T09:46:08.000Z</time>
      </trkpt>
      <trkpt lat="47.29705" lon="-2.38058">
        <ele>-65.400001525879</ele>
        <time>2022-08-07T09:46:09.000Z</time>
      </trkpt>
      <trkpt lat="47.29698" lon="-2.38064">
        <ele>-66.199996948242</ele>
        <time>2022-08-07T09:46:10.000Z</time>
      </trkpt>
      <trkpt lat="47.29691" lon="-2.3807">
        <ele>-67</ele>
        <time>2022-08-07T09:46:11.000Z</time>
      </trkpt>
      <trkpt lat="47.29683" lon="-2.38076">
        <ele>-68.199996948242</ele>
        <time>2022-08-07T09:46:12.000Z</time>
      </trkpt>
      <trkpt lat="47.29675" lon="-2.38081">
        <ele>-69.199996948242</ele>
        <time>2022-08-07T09:46:13.000Z</time>
      </trkpt>
      <trkpt lat="47.29666" lon="-2.38086">
        <ele>-70.199996948242</ele>
        <time>2022-08-07T09:46:14.000Z</time>
      </trkpt>
      <trkpt lat="47.29657" lon="-2.3809">
        <ele>-71.199996948242</ele>
        <time>2022-08-07T09:46:15.000Z</time>
      </trkpt>
      <trkpt lat="47.29649" lon="-2.38095">
        <ele>-72</ele>
        <time>2022-08-07T09:46:16.000Z</time>
      </trkpt>
      <trkpt lat="47.2964" lon="-2.381">
        <ele>-73</ele>
        <time>2022-08-07T09:46:17.000Z</time>
      </trkpt>
      <trkpt lat="47.29632" lon="-2.38105">
        <ele>-73.800003051758</ele>
        <time>2022-08-07T09:46:18.000Z</time>
      </trkpt>
      <trkpt lat="47.29623" lon="-2.38109">
        <ele>-74.599998474121</ele>
        <time>2022-08-07T09:46:19.000Z</time>
      </trkpt>
      <trkpt lat="47.29615" lon="-2.38112">
        <ele>-75.199996948242</ele>
        <time>2022-08-07T09:46:20.000Z</time>
      </trkpt>
      <trkpt lat="47.29606" lon="-2.38114">
        <ele>-75.800003051758</ele>
        <time>2022-08-07T09:46:21.000Z</time>
      </trkpt>
      <trkpt lat="47.29597" lon="-2.38117">
        <ele>-76.599998474121</ele>
        <time>2022-08-07T09:46:22.000Z</time>
      </trkpt>
      <trkpt lat="47.29588" lon="-2.38119">
        <ele>-77.199996948242</ele>
        <time>2022-08-07T09:46:23.000Z</time>
      </trkpt>
      <trkpt lat="47.2957" lon="-2.38122">
        <ele>-77.800003051758</ele>
        <time>2022-08-07T09:46:25.000Z</time>
      </trkpt>
      <trkpt lat="47.29561" lon="-2.38124">
        <ele>-78.199996948242</ele>
        <time>2022-08-07T09:46:26.000Z</time>
      </trkpt>
      <trkpt lat="47.29552" lon="-2.38125">
        <ele>-78.599998474121</ele>
        <time>2022-08-07T09:46:27.000Z</time>
      </trkpt>
      <trkpt lat="47.29543" lon="-2.38126">
        <ele>-79</ele>
        <time>2022-08-07T09:46:28.000Z</time>
      </trkpt>
      <trkpt lat="47.29534" lon="-2.38126">
        <ele>-79.400001525879</ele>
        <time>2022-08-07T09:46:29.000Z</time>
      </trkpt>
      <trkpt lat="47.29524" lon="-2.38125">
        <ele>-80</ele>
        <time>2022-08-07T09:46:30.000Z</time>
      </trkpt>
      <trkpt lat="47.29515" lon="-2.38125">
        <ele>-80.400001525879</ele>
        <time>2022-08-07T09:46:31.000Z</time>
      </trkpt>
      <trkpt lat="47.29505" lon="-2.38123">
        <ele>-80.800003051758</ele>
        <time>2022-08-07T09:46:32.000Z</time>
      </trkpt>
      <trkpt lat="47.29497" lon="-2.38123">
        <ele>-81.400001525879</ele>
        <time>2022-08-07T09:46:33.000Z</time>
      </trkpt>
      <trkpt lat="47.2949" lon="-2.38124">
        <ele>-81.800003051758</ele>
        <time>2022-08-07T09:46:34.000Z</time>
      </trkpt>
      <trkpt lat="47.29482" lon="-2.38128">
        <ele>-81.800003051758</ele>
        <time>2022-08-07T09:46:36.000Z</time>
      </trkpt>
      <trkpt lat="47.29475" lon="-2.38134">
        <ele>-81.800003051758</ele>
        <time>2022-08-07T09:46:39.000Z</time>
      </trkpt>
      <trkpt lat="47.29473" lon="-2.38136">
        <ele>-82.199996948242</ele>
        <time>2022-08-07T09:46:40.000Z</time>
      </trkpt>
      <trkpt lat="47.29471" lon="-2.38138">
        <ele>-82.599998474121</ele>
        <time>2022-08-07T09:46:41.000Z</time>
      </trkpt>
      <trkpt lat="47.29468" lon="-2.3814">
        <ele>-83</ele>
        <time>2022-08-07T09:46:42.000Z</time>
      </trkpt>
      <trkpt lat="47.29465" lon="-2.38143">
        <ele>-83.400001525879</ele>
        <time>2022-08-07T09:46:43.000Z</time>
      </trkpt>
      <trkpt lat="47.29462" lon="-2.38145">
        <ele>-83.800003051758</ele>
        <time>2022-08-07T09:46:44.000Z</time>
      </trkpt>
      <trkpt lat="47.29459" lon="-2.38146">
        <ele>-83.800003051758</ele>
        <time>2022-08-07T09:46:45.000Z</time>
      </trkpt>
      <trkpt lat="47.29446" lon="-2.38143">
        <ele>-83.800003051758</ele>
        <time>2022-08-07T09:46:49.000Z</time>
      </trkpt>
      <trkpt lat="47.29444" lon="-2.38138">
        <ele>-83.800003051758</ele>
        <time>2022-08-07T09:46:50.000Z</time>
      </trkpt>
      <trkpt lat="47.2944" lon="-2.38127">
        <ele>-83.800003051758</ele>
        <time>2022-08-07T09:46:52.000Z</time>
      </trkpt>
      <trkpt lat="47.29437" lon="-2.3812">
        <ele>-83.800003051758</ele>
        <time>2022-08-07T09:46:53.000Z</time>
      </trkpt>
      <trkpt lat="47.29428" lon="-2.381">
        <ele>-83.800003051758</ele>
        <time>2022-08-07T09:46:56.000Z</time>
      </trkpt>
      <trkpt lat="47.29425" lon="-2.38092">
        <ele>-83.800003051758</ele>
        <time>2022-08-07T09:46:57.000Z</time>
      </trkpt>
      <trkpt lat="47.29414" lon="-2.38061">
        <ele>-83.800003051758</ele>
        <time>2022-08-07T09:47:01.000Z</time>
      </trkpt>
      <trkpt lat="47.29392" lon="-2.38001">
        <ele>-83.800003051758</ele>
        <time>2022-08-07T09:47:09.000Z</time>
      </trkpt>
      <trkpt lat="47.29375" lon="-2.37951">
        <ele>-83.800003051758</ele>
        <time>2022-08-07T09:47:16.000Z</time>
      </trkpt>
      <trkpt lat="47.29361" lon="-2.3791">
        <ele>-83.800003051758</ele>
        <time>2022-08-07T09:47:22.000Z</time>
      </trkpt>
      <trkpt lat="47.29356" lon="-2.37896">
        <ele>-83.400001525879</ele>
        <time>2022-08-07T09:47:24.000Z</time>
      </trkpt>
      <trkpt lat="47.29353" lon="-2.37889">
        <ele>-83</ele>
        <time>2022-08-07T09:47:25.000Z</time>
      </trkpt>
      <trkpt lat="47.29351" lon="-2.37882">
        <ele>-82.599998474121</ele>
        <time>2022-08-07T09:47:26.000Z</time>
      </trkpt>
      <trkpt lat="47.29348" lon="-2.37875">
        <ele>-82.199996948242</ele>
        <time>2022-08-07T09:47:27.000Z</time>
      </trkpt>
      <trkpt lat="47.29345" lon="-2.37869">
        <ele>-81.800003051758</ele>
        <time>2022-08-07T09:47:28.000Z</time>
      </trkpt>
      <trkpt lat="47.29343" lon="-2.37862">
        <ele>-81.800003051758</ele>
        <time>2022-08-07T09:47:29.000Z</time>
      </trkpt>
      <trkpt lat="47.29338" lon="-2.37838">
        <ele>-81.800003051758</ele>
        <time>2022-08-07T09:47:32.000Z</time>
      </trkpt>
      <trkpt lat="47.29335" lon="-2.37822">
        <ele>-81.800003051758</ele>
        <time>2022-08-07T09:47:34.000Z</time>
      </trkpt>
      <trkpt lat="47.29334" lon="-2.37815">
        <ele>-81.400001525879</ele>
        <time>2022-08-07T09:47:35.000Z</time>
      </trkpt>
      <trkpt lat="47.29334" lon="-2.37807">
        <ele>-81</ele>
        <time>2022-08-07T09:47:36.000Z</time>
      </trkpt>
      <trkpt lat="47.29333" lon="-2.37799">
        <ele>-80.400001525879</ele>
        <time>2022-08-07T09:47:37.000Z</time>
      </trkpt>
      <trkpt lat="47.29333" lon="-2.37791">
        <ele>-80</ele>
        <time>2022-08-07T09:47:38.000Z</time>
      </trkpt>
      <trkpt lat="47.29333" lon="-2.37783">
        <ele>-79.599998474121</ele>
        <time>2022-08-07T09:47:39.000Z</time>
      </trkpt>
      <trkpt lat="47.29332" lon="-2.37776">
        <ele>-79.599998474121</ele>
        <time>2022-08-07T09:47:40.000Z</time>
      </trkpt>
      <trkpt lat="47.29331" lon="-2.3775">
        <ele>-79.199996948242</ele>
        <time>2022-08-07T09:47:44.000Z</time>
      </trkpt>
      <trkpt lat="47.29331" lon="-2.37745">
        <ele>-78.800003051758</ele>
        <time>2022-08-07T09:47:45.000Z</time>
      </trkpt>
      <trkpt lat="47.29331" lon="-2.3774">
        <ele>-78.400001525879</ele>
        <time>2022-08-07T09:47:46.000Z</time>
      </trkpt>
      <trkpt lat="47.2933" lon="-2.37736">
        <ele>-77.800003051758</ele>
        <time>2022-08-07T09:47:47.000Z</time>
      </trkpt>
      <trkpt lat="47.29328" lon="-2.37734">
        <ele>-77.400001525879</ele>
        <time>2022-08-07T09:47:48.000Z</time>
      </trkpt>
      <trkpt lat="47.29326" lon="-2.37733">
        <ele>-77.400001525879</ele>
        <time>2022-08-07T09:47:49.000Z</time>
      </trkpt>
      <trkpt lat="47.29317" lon="-2.37739">
        <ele>-77.400001525879</ele>
        <time>2022-08-07T09:47:52.000Z</time>
      </trkpt>
      <trkpt lat="47.29305" lon="-2.37745">
        <ele>-77.400001525879</ele>
        <time>2022-08-07T09:47:56.000Z</time>
      </trkpt>
      <trkpt lat="47.29293" lon="-2.37742">
        <ele>-77.400001525879</ele>
        <time>2022-08-07T09:47:58.000Z</time>
      </trkpt>
      <trkpt lat="47.29277" lon="-2.37739">
        <ele>-77.400001525879</ele>
        <time>2022-08-07T09:48:01.000Z</time>
      </trkpt>
      <trkpt lat="47.2926" lon="-2.37736">
        <ele>-77.400001525879</ele>
        <time>2022-08-07T09:48:04.000Z</time>
      </trkpt>
      <trkpt lat="47.2925" lon="-2.3773">
        <ele>-77.400001525879</ele>
        <time>2022-08-07T09:48:06.000Z</time>
      </trkpt>
      <trkpt lat="47.29245" lon="-2.37729">
        <ele>-78</ele>
        <time>2022-08-07T09:48:07.000Z</time>
      </trkpt>
      <trkpt lat="47.2924" lon="-2.37728">
        <ele>-78.400001525879</ele>
        <time>2022-08-07T09:48:08.000Z</time>
      </trkpt>
      <trkpt lat="47.29235" lon="-2.37727">
        <ele>-79.199996948242</ele>
        <time>2022-08-07T09:48:09.000Z</time>
      </trkpt>
      <trkpt lat="47.29229" lon="-2.37727">
        <ele>-79.599998474121</ele>
        <time>2022-08-07T09:48:10.000Z</time>
      </trkpt>
      <trkpt lat="47.29224" lon="-2.37728">
        <ele>-80</ele>
        <time>2022-08-07T09:48:11.000Z</time>
      </trkpt>
      <trkpt lat="47.29218" lon="-2.37731">
        <ele>-80.599998474121</ele>
        <time>2022-08-07T09:48:12.000Z</time>
      </trkpt>
      <trkpt lat="47.29212" lon="-2.37736">
        <ele>-81</ele>
        <time>2022-08-07T09:48:13.000Z</time>
      </trkpt>
      <trkpt lat="47.29206" lon="-2.37742">
        <ele>-81.400001525879</ele>
        <time>2022-08-07T09:48:14.000Z</time>
      </trkpt>
      <trkpt lat="47.292" lon="-2.3775">
        <ele>-82</ele>
        <time>2022-08-07T09:48:15.000Z</time>
      </trkpt>
      <trkpt lat="47.29186" lon="-2.37775">
        <ele>-82.400001525879</ele>
        <time>2022-08-07T09:48:18.000Z</time>
      </trkpt>
      <trkpt lat="47.29181" lon="-2.37784">
        <ele>-82.800003051758</ele>
        <time>2022-08-07T09:48:19.000Z</time>
      </trkpt>
      <trkpt lat="47.29177" lon="-2.37793">
        <ele>-83.400001525879</ele>
        <time>2022-08-07T09:48:20.000Z</time>
      </trkpt>
      <trkpt lat="47.29173" lon="-2.37801">
        <ele>-83.800003051758</ele>
        <time>2022-08-07T09:48:21.000Z</time>
      </trkpt>
      <trkpt lat="47.29169" lon="-2.3781">
        <ele>-84.199996948242</ele>
        <time>2022-08-07T09:48:22.000Z</time>
      </trkpt>
      <trkpt lat="47.29154" lon="-2.37843">
        <ele>-84.199996948242</ele>
        <time>2022-08-07T09:48:26.000Z</time>
      </trkpt>
      <trkpt lat="47.29125" lon="-2.37899">
        <ele>-84.599998474121</ele>
        <time>2022-08-07T09:48:33.000Z</time>
      </trkpt>
      <trkpt lat="47.29121" lon="-2.37908">
        <ele>-85.599998474121</ele>
        <time>2022-08-07T09:48:34.000Z</time>
      </trkpt>
      <trkpt lat="47.29117" lon="-2.37916">
        <ele>-86</ele>
        <time>2022-08-07T09:48:35.000Z</time>
      </trkpt>
      <trkpt lat="47.29114" lon="-2.37924">
        <ele>-86.400001525879</ele>
        <time>2022-08-07T09:48:36.000Z</time>
      </trkpt>
      <trkpt lat="47.29105" lon="-2.37939">
        <ele>-86.400001525879</ele>
        <time>2022-08-07T09:48:38.000Z</time>
      </trkpt>
      <trkpt lat="47.29076" lon="-2.37986">
        <ele>-86.400001525879</ele>
        <time>2022-08-07T09:48:44.000Z</time>
      </trkpt>
      <trkpt lat="47.29072" lon="-2.37993">
        <ele>-86.400001525879</ele>
        <time>2022-08-07T09:48:45.000Z</time>
      </trkpt>
      <trkpt lat="47.2906" lon="-2.38014">
        <ele>-86.400001525879</ele>
        <time>2022-08-07T09:48:48.000Z</time>
      </trkpt>
      <trkpt lat="47.29052" lon="-2.38026">
        <ele>-86.400001525879</ele>
        <time>2022-08-07T09:48:50.000Z</time>
      </trkpt>
      <trkpt lat="47.29041" lon="-2.3805">
        <ele>-86.400001525879</ele>
        <time>2022-08-07T09:48:53.000Z</time>
      </trkpt>
      <trkpt lat="47.29041" lon="-2.38078">
        <ele>-86.400001525879</ele>
        <time>2022-08-07T09:48:56.000Z</time>
      </trkpt>
      <trkpt lat="47.29046" lon="-2.38095">
        <ele>-86.400001525879</ele>
        <time>2022-08-07T09:48:58.000Z</time>
      </trkpt>
      <trkpt lat="47.29051" lon="-2.3812">
        <ele>-86.400001525879</ele>
        <time>2022-08-07T09:49:01.000Z</time>
      </trkpt>
      <trkpt lat="47.29064" lon="-2.38178">
        <ele>-86.400001525879</ele>
        <time>2022-08-07T09:49:08.000Z</time>
      </trkpt>
      <trkpt lat="47.29068" lon="-2.38203">
        <ele>-86.400001525879</ele>
        <time>2022-08-07T09:49:11.000Z</time>
      </trkpt>
      <trkpt lat="47.29063" lon="-2.38218">
        <ele>-86.400001525879</ele>
        <time>2022-08-07T09:49:13.000Z</time>
      </trkpt>
      <trkpt lat="47.2905" lon="-2.38235">
        <ele>-86.400001525879</ele>
        <time>2022-08-07T09:49:16.000Z</time>
      </trkpt>
      <trkpt lat="47.29035" lon="-2.38246">
        <ele>-86.400001525879</ele>
        <time>2022-08-07T09:49:19.000Z</time>
      </trkpt>
      <trkpt lat="47.29029" lon="-2.38253">
        <ele>-86.400001525879</ele>
        <time>2022-08-07T09:49:21.000Z</time>
      </trkpt>
      <trkpt lat="47.2903" lon="-2.38267">
        <ele>-86.400001525879</ele>
        <time>2022-08-07T09:49:24.000Z</time>
      </trkpt>
      <trkpt lat="47.29032" lon="-2.38275">
        <ele>-86.400001525879</ele>
        <time>2022-08-07T09:49:26.000Z</time>
      </trkpt>
      <trkpt lat="47.29035" lon="-2.38286">
        <ele>-86.400001525879</ele>
        <time>2022-08-07T09:49:29.000Z</time>
      </trkpt>
      <trkpt lat="47.2904" lon="-2.38309">
        <ele>-86.400001525879</ele>
        <time>2022-08-07T09:49:33.000Z</time>
      </trkpt>
      <trkpt lat="47.29041" lon="-2.38315">
        <ele>-86.400001525879</ele>
        <time>2022-08-07T09:49:34.000Z</time>
      </trkpt>
      <trkpt lat="47.29044" lon="-2.38333">
        <ele>-86.400001525879</ele>
        <time>2022-08-07T09:49:37.000Z</time>
      </trkpt>
      <trkpt lat="47.2905" lon="-2.38341">
        <ele>-86.400001525879</ele>
        <time>2022-08-07T09:49:39.000Z</time>
      </trkpt>
      <trkpt lat="47.2907" lon="-2.38369">
        <ele>-86.400001525879</ele>
        <time>2022-08-07T09:49:45.000Z</time>
      </trkpt>
      <trkpt lat="47.29077" lon="-2.38375">
        <ele>-86.400001525879</ele>
        <time>2022-08-07T09:49:47.000Z</time>
      </trkpt>
      <trkpt lat="47.29081" lon="-2.38373">
        <ele>-86.400001525879</ele>
        <time>2022-08-07T09:49:48.000Z</time>
      </trkpt>
      <trkpt lat="47.29095" lon="-2.38365">
        <ele>-86.400001525879</ele>
        <time>2022-08-07T09:49:52.000Z</time>
      </trkpt>
      <trkpt lat="47.29105" lon="-2.38363">
        <ele>-86.400001525879</ele>
        <time>2022-08-07T09:49:55.000Z</time>
      </trkpt>
      <trkpt lat="47.29108" lon="-2.38364">
        <ele>-86.400001525879</ele>
        <time>2022-08-07T09:49:56.000Z</time>
      </trkpt>
      <trkpt lat="47.29118" lon="-2.38368">
        <ele>-86.400001525879</ele>
        <time>2022-08-07T09:49:59.000Z</time>
      </trkpt>
      <trkpt lat="47.2912" lon="-2.38372">
        <ele>-86.400001525879</ele>
        <time>2022-08-07T09:50:00.000Z</time>
      </trkpt>
      <trkpt lat="47.29118" lon="-2.38391">
        <ele>-86.400001525879</ele>
        <time>2022-08-07T09:50:03.000Z</time>
      </trkpt>
      <trkpt lat="47.29105" lon="-2.38434">
        <ele>-86.400001525879</ele>
        <time>2022-08-07T09:50:10.000Z</time>
      </trkpt>
      <trkpt lat="47.29101" lon="-2.38455">
        <ele>-86.400001525879</ele>
        <time>2022-08-07T09:50:13.000Z</time>
      </trkpt>
      <trkpt lat="47.29098" lon="-2.3847">
        <ele>-86.400001525879</ele>
        <time>2022-08-07T09:50:15.000Z</time>
      </trkpt>
      <trkpt lat="47.29095" lon="-2.38477">
        <ele>-86.400001525879</ele>
        <time>2022-08-07T09:50:16.000Z</time>
      </trkpt>
      <trkpt lat="47.29091" lon="-2.3849">
        <ele>-86.400001525879</ele>
        <time>2022-08-07T09:50:18.000Z</time>
      </trkpt>
      <trkpt lat="47.29081" lon="-2.38506">
        <ele>-86.400001525879</ele>
        <time>2022-08-07T09:50:21.000Z</time>
      </trkpt>
      <trkpt lat="47.29074" lon="-2.38515">
        <ele>-86.400001525879</ele>
        <time>2022-08-07T09:50:23.000Z</time>
      </trkpt>
      <trkpt lat="47.29061" lon="-2.38525">
        <ele>-86.400001525879</ele>
        <time>2022-08-07T09:50:26.000Z</time>
      </trkpt>
      <trkpt lat="47.29051" lon="-2.38529">
        <ele>-86.400001525879</ele>
        <time>2022-08-07T09:50:28.000Z</time>
      </trkpt>
      <trkpt lat="47.29035" lon="-2.38533">
        <ele>-86.400001525879</ele>
        <time>2022-08-07T09:50:31.000Z</time>
      </trkpt>
      <trkpt lat="47.29024" lon="-2.38533">
        <ele>-86.400001525879</ele>
        <time>2022-08-07T09:50:33.000Z</time>
      </trkpt>
      <trkpt lat="47.29017" lon="-2.38523">
        <ele>-86.400001525879</ele>
        <time>2022-08-07T09:50:35.000Z</time>
      </trkpt>
      <trkpt lat="47.29011" lon="-2.38502">
        <ele>-86.400001525879</ele>
        <time>2022-08-07T09:50:38.000Z</time>
      </trkpt>
      <trkpt lat="47.2901" lon="-2.38494">
        <ele>-86.400001525879</ele>
        <time>2022-08-07T09:50:39.000Z</time>
      </trkpt>
      <trkpt lat="47.29008" lon="-2.38478">
        <ele>-86.400001525879</ele>
        <time>2022-08-07T09:50:41.000Z</time>
      </trkpt>
      <trkpt lat="47.29008" lon="-2.38464">
        <ele>-86.400001525879</ele>
        <time>2022-08-07T09:50:43.000Z</time>
      </trkpt>
      <trkpt lat="47.29007" lon="-2.3845">
        <ele>-86.400001525879</ele>
        <time>2022-08-07T09:50:45.000Z</time>
      </trkpt>
      <trkpt lat="47.29002" lon="-2.3844">
        <ele>-86.400001525879</ele>
        <time>2022-08-07T09:50:47.000Z</time>
      </trkpt>
      <trkpt lat="47.28988" lon="-2.38436">
        <ele>-86.400001525879</ele>
        <time>2022-08-07T09:50:51.000Z</time>
      </trkpt>
      <trkpt lat="47.28978" lon="-2.38441">
        <ele>-86.400001525879</ele>
        <time>2022-08-07T09:50:54.000Z</time>
      </trkpt>
      <trkpt lat="47.28971" lon="-2.38443">
        <ele>-86.400001525879</ele>
        <time>2022-08-07T09:50:56.000Z</time>
      </trkpt>
      <trkpt lat="47.28956" lon="-2.38446">
        <ele>-86.400001525879</ele>
        <time>2022-08-07T09:51:00.000Z</time>
      </trkpt>
      <trkpt lat="47.28946" lon="-2.38445">
        <ele>-86.400001525879</ele>
        <time>2022-08-07T09:51:04.000Z</time>
      </trkpt>
      <trkpt lat="47.28944" lon="-2.38443">
        <ele>-86.400001525879</ele>
        <time>2022-08-07T09:51:05.000Z</time>
      </trkpt>
      <trkpt lat="47.28938" lon="-2.38428">
        <ele>-85.800003051758</ele>
        <time>2022-08-07T09:51:09.000Z</time>
      </trkpt>
      <trkpt lat="47.28939" lon="-2.38422">
        <ele>-85.400001525879</ele>
        <time>2022-08-07T09:51:10.000Z</time>
      </trkpt>
      <trkpt lat="47.28938" lon="-2.38416">
        <ele>-85</ele>
        <time>2022-08-07T09:51:11.000Z</time>
      </trkpt>
      <trkpt lat="47.28938" lon="-2.3841">
        <ele>-84.599998474121</ele>
        <time>2022-08-07T09:51:12.000Z</time>
      </trkpt>
      <trkpt lat="47.28938" lon="-2.38404">
        <ele>-84.199996948242</ele>
        <time>2022-08-07T09:51:13.000Z</time>
      </trkpt>
      <trkpt lat="47.28937" lon="-2.38391">
        <ele>-84.199996948242</ele>
        <time>2022-08-07T09:51:15.000Z</time>
      </trkpt>
      <trkpt lat="47.28934" lon="-2.38351">
        <ele>-84.199996948242</ele>
        <time>2022-08-07T09:51:21.000Z</time>
      </trkpt>
      <trkpt lat="47.28932" lon="-2.38303">
        <ele>-84.199996948242</ele>
        <time>2022-08-07T09:51:27.000Z</time>
      </trkpt>
      <trkpt lat="47.28935" lon="-2.38241">
        <ele>-84.199996948242</ele>
        <time>2022-08-07T09:51:35.000Z</time>
      </trkpt>
      <trkpt lat="47.28933" lon="-2.38234">
        <ele>-84.199996948242</ele>
        <time>2022-08-07T09:51:36.000Z</time>
      </trkpt>
      <trkpt lat="47.28918" lon="-2.38217">
        <ele>-84.199996948242</ele>
        <time>2022-08-07T09:51:40.000Z</time>
      </trkpt>
      <trkpt lat="47.28909" lon="-2.38209">
        <ele>-84.199996948242</ele>
        <time>2022-08-07T09:51:42.000Z</time>
      </trkpt>
      <trkpt lat="47.28901" lon="-2.382">
        <ele>-84.199996948242</ele>
        <time>2022-08-07T09:51:44.000Z</time>
      </trkpt>
      <trkpt lat="47.289" lon="-2.38193">
        <ele>-84.199996948242</ele>
        <time>2022-08-07T09:51:45.000Z</time>
      </trkpt>
      <trkpt lat="47.28901" lon="-2.38169">
        <ele>-84.199996948242</ele>
        <time>2022-08-07T09:51:48.000Z</time>
      </trkpt>
      <trkpt lat="47.28905" lon="-2.38102">
        <ele>-84.199996948242</ele>
        <time>2022-08-07T09:51:56.000Z</time>
      </trkpt>
      <trkpt lat="47.28907" lon="-2.38029">
        <ele>-84.199996948242</ele>
        <time>2022-08-07T09:52:04.000Z</time>
      </trkpt>
      <trkpt lat="47.28912" lon="-2.37958">
        <ele>-84.199996948242</ele>
        <time>2022-08-07T09:52:12.000Z</time>
      </trkpt>
      <trkpt lat="47.28916" lon="-2.37906">
        <ele>-84.199996948242</ele>
        <time>2022-08-07T09:52:18.000Z</time>
      </trkpt>
      <trkpt lat="47.2892" lon="-2.37854">
        <ele>-84.199996948242</ele>
        <time>2022-08-07T09:52:24.000Z</time>
      </trkpt>
      <trkpt lat="47.28926" lon="-2.37794">
        <ele>-84.199996948242</ele>
        <time>2022-08-07T09:52:31.000Z</time>
      </trkpt>
      <trkpt lat="47.28929" lon="-2.37745">
        <ele>-84.199996948242</ele>
        <time>2022-08-07T09:52:37.000Z</time>
      </trkpt>
      <trkpt lat="47.28934" lon="-2.37679">
        <ele>-84.199996948242</ele>
        <time>2022-08-07T09:52:45.000Z</time>
      </trkpt>
      <trkpt lat="47.28933" lon="-2.37657">
        <ele>-84.199996948242</ele>
        <time>2022-08-07T09:52:48.000Z</time>
      </trkpt>
      <trkpt lat="47.2893" lon="-2.37651">
        <ele>-84.199996948242</ele>
        <time>2022-08-07T09:52:49.000Z</time>
      </trkpt>
      <trkpt lat="47.28915" lon="-2.37647">
        <ele>-84.199996948242</ele>
        <time>2022-08-07T09:52:52.000Z</time>
      </trkpt>
      <trkpt lat="47.2891" lon="-2.37648">
        <ele>-84.199996948242</ele>
        <time>2022-08-07T09:52:53.000Z</time>
      </trkpt>
      <trkpt lat="47.2889" lon="-2.37651">
        <ele>-84.199996948242</ele>
        <time>2022-08-07T09:52:58.000Z</time>
      </trkpt>
      <trkpt lat="47.2887" lon="-2.37653">
        <ele>-84.199996948242</ele>
        <time>2022-08-07T09:53:05.000Z</time>
      </trkpt>
      <trkpt lat="47.28863" lon="-2.37649">
        <ele>-84.199996948242</ele>
        <time>2022-08-07T09:53:07.000Z</time>
      </trkpt>
      <trkpt lat="47.2886" lon="-2.37645">
        <ele>-84.199996948242</ele>
        <time>2022-08-07T09:53:08.000Z</time>
      </trkpt>
      <trkpt lat="47.28858" lon="-2.3764">
        <ele>-83.800003051758</ele>
        <time>2022-08-07T09:53:09.000Z</time>
      </trkpt>
      <trkpt lat="47.28856" lon="-2.37636">
        <ele>-83.400001525879</ele>
        <time>2022-08-07T09:53:10.000Z</time>
      </trkpt>
      <trkpt lat="47.28855" lon="-2.37631">
        <ele>-82.800003051758</ele>
        <time>2022-08-07T09:53:11.000Z</time>
      </trkpt>
      <trkpt lat="47.28853" lon="-2.37625">
        <ele>-82.400001525879</ele>
        <time>2022-08-07T09:53:12.000Z</time>
      </trkpt>
      <trkpt lat="47.28852" lon="-2.37618">
        <ele>-82</ele>
        <time>2022-08-07T09:53:13.000Z</time>
      </trkpt>
      <trkpt lat="47.28852" lon="-2.37597">
        <ele>-82</ele>
        <time>2022-08-07T09:53:16.000Z</time>
      </trkpt>
      <trkpt lat="47.28859" lon="-2.37579">
        <ele>-82</ele>
        <time>2022-08-07T09:53:19.000Z</time>
      </trkpt>
      <trkpt lat="47.28862" lon="-2.37573">
        <ele>-82</ele>
        <time>2022-08-07T09:53:20.000Z</time>
      </trkpt>
      <trkpt lat="47.28865" lon="-2.37568">
        <ele>-82</ele>
        <time>2022-08-07T09:53:21.000Z</time>
      </trkpt>
      <trkpt lat="47.28873" lon="-2.37552">
        <ele>-82</ele>
        <time>2022-08-07T09:53:24.000Z</time>
      </trkpt>
      <trkpt lat="47.28877" lon="-2.37542">
        <ele>-82</ele>
        <time>2022-08-07T09:53:26.000Z</time>
      </trkpt>
      <trkpt lat="47.28881" lon="-2.37524">
        <ele>-82</ele>
        <time>2022-08-07T09:53:29.000Z</time>
      </trkpt>
      <trkpt lat="47.28877" lon="-2.37486">
        <ele>-82</ele>
        <time>2022-08-07T09:53:34.000Z</time>
      </trkpt>
      <trkpt lat="47.28872" lon="-2.37458">
        <ele>-82</ele>
        <time>2022-08-07T09:53:38.000Z</time>
      </trkpt>
      <trkpt lat="47.2887" lon="-2.37445">
        <ele>-82</ele>
        <time>2022-08-07T09:53:40.000Z</time>
      </trkpt>
      <trkpt lat="47.28866" lon="-2.37397">
        <ele>-82</ele>
        <time>2022-08-07T09:53:46.000Z</time>
      </trkpt>
      <trkpt lat="47.28864" lon="-2.37375">
        <ele>-82</ele>
        <time>2022-08-07T09:53:49.000Z</time>
      </trkpt>
      <trkpt lat="47.28863" lon="-2.37359">
        <ele>-82</ele>
        <time>2022-08-07T09:53:51.000Z</time>
      </trkpt>
      <trkpt lat="47.2886" lon="-2.37312">
        <ele>-82</ele>
        <time>2022-08-07T09:53:57.000Z</time>
      </trkpt>
      <trkpt lat="47.28855" lon="-2.37269">
        <ele>-82</ele>
        <time>2022-08-07T09:54:03.000Z</time>
      </trkpt>
      <trkpt lat="47.28853" lon="-2.37256">
        <ele>-82</ele>
        <time>2022-08-07T09:54:05.000Z</time>
      </trkpt>
      <trkpt lat="47.28846" lon="-2.37238">
        <ele>-82</ele>
        <time>2022-08-07T09:54:08.000Z</time>
      </trkpt>
      <trkpt lat="47.28844" lon="-2.37232">
        <ele>-82</ele>
        <time>2022-08-07T09:54:09.000Z</time>
      </trkpt>
      <trkpt lat="47.28842" lon="-2.37214">
        <ele>-82</ele>
        <time>2022-08-07T09:54:12.000Z</time>
      </trkpt>
      <trkpt lat="47.28842" lon="-2.37207">
        <ele>-82</ele>
        <time>2022-08-07T09:54:13.000Z</time>
      </trkpt>
      <trkpt lat="47.28838" lon="-2.37187">
        <ele>-82</ele>
        <time>2022-08-07T09:54:16.000Z</time>
      </trkpt>
      <trkpt lat="47.2883" lon="-2.37155">
        <ele>-82</ele>
        <time>2022-08-07T09:54:21.000Z</time>
      </trkpt>
      <trkpt lat="47.28827" lon="-2.37127">
        <ele>-81.599998474121</ele>
        <time>2022-08-07T09:54:26.000Z</time>
      </trkpt>
      <trkpt lat="47.28827" lon="-2.37122">
        <ele>-81.199996948242</ele>
        <time>2022-08-07T09:54:27.000Z</time>
      </trkpt>
      <trkpt lat="47.28828" lon="-2.37118">
        <ele>-80.800003051758</ele>
        <time>2022-08-07T09:54:28.000Z</time>
      </trkpt>
      <trkpt lat="47.28827" lon="-2.37114">
        <ele>-80.400001525879</ele>
        <time>2022-08-07T09:54:29.000Z</time>
      </trkpt>
      <trkpt lat="47.28826" lon="-2.37112">
        <ele>-79.800003051758</ele>
        <time>2022-08-07T09:54:30.000Z</time>
      </trkpt>
      <trkpt lat="47.28823" lon="-2.37113">
        <ele>-79.800003051758</ele>
        <time>2022-08-07T09:54:33.000Z</time>
      </trkpt>
      <trkpt lat="47.28821" lon="-2.37115">
        <ele>-79.400001525879</ele>
        <time>2022-08-07T09:54:34.000Z</time>
      </trkpt>
      <trkpt lat="47.2882" lon="-2.37116">
        <ele>-79</ele>
        <time>2022-08-07T09:54:35.000Z</time>
      </trkpt>
      <trkpt lat="47.28819" lon="-2.37117">
        <ele>-78.599998474121</ele>
        <time>2022-08-07T09:54:36.000Z</time>
      </trkpt>
      <trkpt lat="47.28817" lon="-2.37118">
        <ele>-78.199996948242</ele>
        <time>2022-08-07T09:54:37.000Z</time>
      </trkpt>
      <trkpt lat="47.28815" lon="-2.37119">
        <ele>-77.800003051758</ele>
        <time>2022-08-07T09:54:38.000Z</time>
      </trkpt>
      <trkpt lat="47.28812" lon="-2.3712">
        <ele>-77.400001525879</ele>
        <time>2022-08-07T09:54:39.000Z</time>
      </trkpt>
      <trkpt lat="47.28809" lon="-2.3712">
        <ele>-77</ele>
        <time>2022-08-07T09:54:40.000Z</time>
      </trkpt>
      <trkpt lat="47.28807" lon="-2.3712">
        <ele>-76.599998474121</ele>
        <time>2022-08-07T09:54:41.000Z</time>
      </trkpt>
      <trkpt lat="47.28806" lon="-2.3712">
        <ele>-76.199996948242</ele>
        <time>2022-08-07T09:54:42.000Z</time>
      </trkpt>
      <trkpt lat="47.28804" lon="-2.3712">
        <ele>-75.800003051758</ele>
        <time>2022-08-07T09:54:43.000Z</time>
      </trkpt>
      <trkpt lat="47.28797" lon="-2.37116">
        <ele>-75.400001525879</ele>
        <time>2022-08-07T09:54:46.000Z</time>
      </trkpt>
      <trkpt lat="47.28796" lon="-2.37113">
        <ele>-75</ele>
        <time>2022-08-07T09:54:47.000Z</time>
      </trkpt>
      <trkpt lat="47.28795" lon="-2.3711">
        <ele>-74.599998474121</ele>
        <time>2022-08-07T09:54:48.000Z</time>
      </trkpt>
      <trkpt lat="47.28794" lon="-2.37107">
        <ele>-74.199996948242</ele>
        <time>2022-08-07T09:54:49.000Z</time>
      </trkpt>
      <trkpt lat="47.28794" lon="-2.37103">
        <ele>-73.800003051758</ele>
        <time>2022-08-07T09:54:50.000Z</time>
      </trkpt>
      <trkpt lat="47.28793" lon="-2.37099">
        <ele>-73.800003051758</ele>
        <time>2022-08-07T09:54:51.000Z</time>
      </trkpt>
      <trkpt lat="47.28793" lon="-2.37094">
        <ele>-73.800003051758</ele>
        <time>2022-08-07T09:54:52.000Z</time>
      </trkpt>
      <trkpt lat="47.28791" lon="-2.37081">
        <ele>-73.400001525879</ele>
        <time>2022-08-07T09:54:56.000Z</time>
      </trkpt>
      <trkpt lat="47.2879" lon="-2.37077">
        <ele>-73</ele>
        <time>2022-08-07T09:54:57.000Z</time>
      </trkpt>
      <trkpt lat="47.28789" lon="-2.37074">
        <ele>-72.599998474121</ele>
        <time>2022-08-07T09:54:58.000Z</time>
      </trkpt>
      <trkpt lat="47.28788" lon="-2.3707">
        <ele>-72.199996948242</ele>
        <time>2022-08-07T09:54:59.000Z</time>
      </trkpt>
      <trkpt lat="47.28787" lon="-2.37066">
        <ele>-71.599998474121</ele>
        <time>2022-08-07T09:55:00.000Z</time>
      </trkpt>
      <trkpt lat="47.28785" lon="-2.37063">
        <ele>-71.599998474121</ele>
        <time>2022-08-07T09:55:01.000Z</time>
      </trkpt>
      <trkpt lat="47.2878" lon="-2.37046">
        <ele>-71.599998474121</ele>
        <time>2022-08-07T09:55:06.000Z</time>
      </trkpt>
      <trkpt lat="47.28778" lon="-2.37038">
        <ele>-70.800003051758</ele>
        <time>2022-08-07T09:55:08.000Z</time>
      </trkpt>
      <trkpt lat="47.28776" lon="-2.37035">
        <ele>-70.400001525879</ele>
        <time>2022-08-07T09:55:09.000Z</time>
      </trkpt>
      <trkpt lat="47.28775" lon="-2.3703">
        <ele>-70</ele>
        <time>2022-08-07T09:55:10.000Z</time>
      </trkpt>
      <trkpt lat="47.28775" lon="-2.37027">
        <ele>-69.599998474121</ele>
        <time>2022-08-07T09:55:11.000Z</time>
      </trkpt>
      <trkpt lat="47.2877" lon="-2.37015">
        <ele>-69.599998474121</ele>
        <time>2022-08-07T09:55:15.000Z</time>
      </trkpt>
      <trkpt lat="47.28767" lon="-2.3701">
        <ele>-69.599998474121</ele>
        <time>2022-08-07T09:55:17.000Z</time>
      </trkpt>
      <trkpt lat="47.28763" lon="-2.37003">
        <ele>-69.599998474121</ele>
        <time>2022-08-07T09:55:19.000Z</time>
      </trkpt>
      <trkpt lat="47.28757" lon="-2.36982">
        <ele>-69.599998474121</ele>
        <time>2022-08-07T09:55:24.000Z</time>
      </trkpt>
      <trkpt lat="47.28755" lon="-2.36963">
        <ele>-69.599998474121</ele>
        <time>2022-08-07T09:55:27.000Z</time>
      </trkpt>
      <trkpt lat="47.28752" lon="-2.36955">
        <ele>-70.199996948242</ele>
        <time>2022-08-07T09:55:28.000Z</time>
      </trkpt>
      <trkpt lat="47.28746" lon="-2.36946">
        <ele>-70.800003051758</ele>
        <time>2022-08-07T09:55:29.000Z</time>
      </trkpt>
      <trkpt lat="47.28742" lon="-2.36938">
        <ele>-71.199996948242</ele>
        <time>2022-08-07T09:55:30.000Z</time>
      </trkpt>
      <trkpt lat="47.28737" lon="-2.36932">
        <ele>-71.800003051758</ele>
        <time>2022-08-07T09:55:31.000Z</time>
      </trkpt>
      <trkpt lat="47.28732" lon="-2.36928">
        <ele>-72.400001525879</ele>
        <time>2022-08-07T09:55:32.000Z</time>
      </trkpt>
      <trkpt lat="47.28727" lon="-2.36924">
        <ele>-72.400001525879</ele>
        <time>2022-08-07T09:55:33.000Z</time>
      </trkpt>
      <trkpt lat="47.28717" lon="-2.36918">
        <ele>-72.400001525879</ele>
        <time>2022-08-07T09:55:36.000Z</time>
      </trkpt>
      <trkpt lat="47.28714" lon="-2.36916">
        <ele>-72.400001525879</ele>
        <time>2022-08-07T09:55:37.000Z</time>
      </trkpt>
      <trkpt lat="47.28713" lon="-2.36913">
        <ele>-72.400001525879</ele>
        <time>2022-08-07T09:55:38.000Z</time>
      </trkpt>
      <trkpt lat="47.28711" lon="-2.36907">
        <ele>-72.400001525879</ele>
        <time>2022-08-07T09:55:40.000Z</time>
      </trkpt>
      <trkpt lat="47.287" lon="-2.36882">
        <ele>-72.400001525879</ele>
        <time>2022-08-07T09:55:47.000Z</time>
      </trkpt>
      <trkpt lat="47.28696" lon="-2.36874">
        <ele>-72</ele>
        <time>2022-08-07T09:55:49.000Z</time>
      </trkpt>
      <trkpt lat="47.28692" lon="-2.36869">
        <ele>-71.599998474121</ele>
        <time>2022-08-07T09:55:50.000Z</time>
      </trkpt>
      <trkpt lat="47.2869" lon="-2.36864">
        <ele>-71.199996948242</ele>
        <time>2022-08-07T09:55:51.000Z</time>
      </trkpt>
      <trkpt lat="47.28688" lon="-2.36858">
        <ele>-70.800003051758</ele>
        <time>2022-08-07T09:55:52.000Z</time>
      </trkpt>
      <trkpt lat="47.28686" lon="-2.36854">
        <ele>-70.400001525879</ele>
        <time>2022-08-07T09:55:53.000Z</time>
      </trkpt>
      <trkpt lat="47.28677" lon="-2.3683">
        <ele>-70.400001525879</ele>
        <time>2022-08-07T09:55:58.000Z</time>
      </trkpt>
      <trkpt lat="47.28675" lon="-2.36825">
        <ele>-70</ele>
        <time>2022-08-07T09:55:59.000Z</time>
      </trkpt>
      <trkpt lat="47.28673" lon="-2.36821">
        <ele>-69.599998474121</ele>
        <time>2022-08-07T09:56:00.000Z</time>
      </trkpt>
      <trkpt lat="47.28672" lon="-2.36817">
        <ele>-69.199996948242</ele>
        <time>2022-08-07T09:56:01.000Z</time>
      </trkpt>
      <trkpt lat="47.28668" lon="-2.36813">
        <ele>-68.800003051758</ele>
        <time>2022-08-07T09:56:02.000Z</time>
      </trkpt>
      <trkpt lat="47.28664" lon="-2.36811">
        <ele>-68.400001525879</ele>
        <time>2022-08-07T09:56:03.000Z</time>
      </trkpt>
      <trkpt lat="47.28662" lon="-2.36811">
        <ele>-68.400001525879</ele>
        <time>2022-08-07T09:56:04.000Z</time>
      </trkpt>
      <trkpt lat="47.28653" lon="-2.36819">
        <ele>-68.400001525879</ele>
        <time>2022-08-07T09:56:08.000Z</time>
      </trkpt>
      <trkpt lat="47.28641" lon="-2.36831">
        <ele>-68.400001525879</ele>
        <time>2022-08-07T09:56:11.000Z</time>
      </trkpt>
      <trkpt lat="47.28625" lon="-2.36843">
        <ele>-68.400001525879</ele>
        <time>2022-08-07T09:56:14.000Z</time>
      </trkpt>
      <trkpt lat="47.28619" lon="-2.36845">
        <ele>-68.400001525879</ele>
        <time>2022-08-07T09:56:15.000Z</time>
      </trkpt>
      <trkpt lat="47.28604" lon="-2.36841">
        <ele>-68.400001525879</ele>
        <time>2022-08-07T09:56:17.000Z</time>
      </trkpt>
      <trkpt lat="47.28593" lon="-2.36826">
        <ele>-68.400001525879</ele>
        <time>2022-08-07T09:56:20.000Z</time>
      </trkpt>
      <trkpt lat="47.28574" lon="-2.36794">
        <ele>-68.400001525879</ele>
        <time>2022-08-07T09:56:27.000Z</time>
      </trkpt>
      <trkpt lat="47.28557" lon="-2.36762">
        <ele>-68.400001525879</ele>
        <time>2022-08-07T09:56:34.000Z</time>
      </trkpt>
      <trkpt lat="47.28542" lon="-2.36733">
        <ele>-68.400001525879</ele>
        <time>2022-08-07T09:56:41.000Z</time>
      </trkpt>
      <trkpt lat="47.28527" lon="-2.36711">
        <ele>-68.400001525879</ele>
        <time>2022-08-07T09:56:47.000Z</time>
      </trkpt>
      <trkpt lat="47.28523" lon="-2.36705">
        <ele>-67.800003051758</ele>
        <time>2022-08-07T09:56:49.000Z</time>
      </trkpt>
      <trkpt lat="47.28521" lon="-2.36702">
        <ele>-67.400001525879</ele>
        <time>2022-08-07T09:56:50.000Z</time>
      </trkpt>
      <trkpt lat="47.2852" lon="-2.367">
        <ele>-67</ele>
        <time>2022-08-07T09:56:51.000Z</time>
      </trkpt>
      <trkpt lat="47.28518" lon="-2.36697">
        <ele>-66.599998474121</ele>
        <time>2022-08-07T09:56:52.000Z</time>
      </trkpt>
      <trkpt lat="47.28516" lon="-2.36694">
        <ele>-66.199996948242</ele>
        <time>2022-08-07T09:56:53.000Z</time>
      </trkpt>
      <trkpt lat="47.28508" lon="-2.36681">
        <ele>-66.199996948242</ele>
        <time>2022-08-07T09:56:58.000Z</time>
      </trkpt>
      <trkpt lat="47.28502" lon="-2.36673">
        <ele>-65.800003051758</ele>
        <time>2022-08-07T09:57:00.000Z</time>
      </trkpt>
      <trkpt lat="47.285" lon="-2.36669">
        <ele>-65.400001525879</ele>
        <time>2022-08-07T09:57:01.000Z</time>
      </trkpt>
      <trkpt lat="47.28497" lon="-2.36665">
        <ele>-65</ele>
        <time>2022-08-07T09:57:02.000Z</time>
      </trkpt>
      <trkpt lat="47.28495" lon="-2.3666">
        <ele>-64.599998474121</ele>
        <time>2022-08-07T09:57:03.000Z</time>
      </trkpt>
      <trkpt lat="47.28492" lon="-2.36655">
        <ele>-64.199996948242</ele>
        <time>2022-08-07T09:57:04.000Z</time>
      </trkpt>
      <trkpt lat="47.28488" lon="-2.36644">
        <ele>-64.199996948242</ele>
        <time>2022-08-07T09:57:06.000Z</time>
      </trkpt>
      <trkpt lat="47.28481" lon="-2.36627">
        <ele>-64.199996948242</ele>
        <time>2022-08-07T09:57:09.000Z</time>
      </trkpt>
      <trkpt lat="47.28469" lon="-2.36591">
        <ele>-64.199996948242</ele>
        <time>2022-08-07T09:57:15.000Z</time>
      </trkpt>
      <trkpt lat="47.28467" lon="-2.36585">
        <ele>-64.199996948242</ele>
        <time>2022-08-07T09:57:16.000Z</time>
      </trkpt>
      <trkpt lat="47.28464" lon="-2.36572">
        <ele>-64.199996948242</ele>
        <time>2022-08-07T09:57:18.000Z</time>
      </trkpt>
      <trkpt lat="47.28468" lon="-2.3656">
        <ele>-64.199996948242</ele>
        <time>2022-08-07T09:57:20.000Z</time>
      </trkpt>
      <trkpt lat="47.28484" lon="-2.36542">
        <ele>-64.199996948242</ele>
        <time>2022-08-07T09:57:24.000Z</time>
      </trkpt>
      <trkpt lat="47.2849" lon="-2.36533">
        <ele>-64.199996948242</ele>
        <time>2022-08-07T09:57:26.000Z</time>
      </trkpt>
      <trkpt lat="47.28497" lon="-2.36524">
        <ele>-64.199996948242</ele>
        <time>2022-08-07T09:57:28.000Z</time>
      </trkpt>
      <trkpt lat="47.28501" lon="-2.3652">
        <ele>-64.199996948242</ele>
        <time>2022-08-07T09:57:29.000Z</time>
      </trkpt>
      <trkpt lat="47.28508" lon="-2.36513">
        <ele>-63.799999237061</ele>
        <time>2022-08-07T09:57:31.000Z</time>
      </trkpt>
      <trkpt lat="47.28511" lon="-2.36509">
        <ele>-63.200000762939</ele>
        <time>2022-08-07T09:57:32.000Z</time>
      </trkpt>
      <trkpt lat="47.28514" lon="-2.36506">
        <ele>-62.799999237061</ele>
        <time>2022-08-07T09:57:33.000Z</time>
      </trkpt>
      <trkpt lat="47.28516" lon="-2.36501">
        <ele>-62.400001525879</ele>
        <time>2022-08-07T09:57:34.000Z</time>
      </trkpt>
      <trkpt lat="47.28518" lon="-2.36496">
        <ele>-61.799999237061</ele>
        <time>2022-08-07T09:57:35.000Z</time>
      </trkpt>
      <trkpt lat="47.28517" lon="-2.36491">
        <ele>-61.799999237061</ele>
        <time>2022-08-07T09:57:36.000Z</time>
      </trkpt>
      <trkpt lat="47.28515" lon="-2.36486">
        <ele>-61.799999237061</ele>
        <time>2022-08-07T09:57:37.000Z</time>
      </trkpt>
      <trkpt lat="47.28514" lon="-2.36481">
        <ele>-61.400001525879</ele>
        <time>2022-08-07T09:57:39.000Z</time>
      </trkpt>
      <trkpt lat="47.28513" lon="-2.36477">
        <ele>-61</ele>
        <time>2022-08-07T09:57:40.000Z</time>
      </trkpt>
      <trkpt lat="47.28512" lon="-2.36475">
        <ele>-60.599998474121</ele>
        <time>2022-08-07T09:57:41.000Z</time>
      </trkpt>
      <trkpt lat="47.28512" lon="-2.36472">
        <ele>-60.200000762939</ele>
        <time>2022-08-07T09:57:42.000Z</time>
      </trkpt>
      <trkpt lat="47.28511" lon="-2.36469">
        <ele>-59.799999237061</ele>
        <time>2022-08-07T09:57:43.000Z</time>
      </trkpt>
      <trkpt lat="47.28508" lon="-2.36463">
        <ele>-59.799999237061</ele>
        <time>2022-08-07T09:57:44.000Z</time>
      </trkpt>
      <trkpt lat="47.28505" lon="-2.36457">
        <ele>-59.799999237061</ele>
        <time>2022-08-07T09:57:45.000Z</time>
      </trkpt>
      <trkpt lat="47.28495" lon="-2.36444">
        <ele>-59.799999237061</ele>
        <time>2022-08-07T09:57:49.000Z</time>
      </trkpt>
      <trkpt lat="47.28478" lon="-2.3643">
        <ele>-59.799999237061</ele>
        <time>2022-08-07T09:57:55.000Z</time>
      </trkpt>
      <trkpt lat="47.28465" lon="-2.36411">
        <ele>-59.799999237061</ele>
        <time>2022-08-07T09:58:00.000Z</time>
      </trkpt>
      <trkpt lat="47.28448" lon="-2.36384">
        <ele>-59.799999237061</ele>
        <time>2022-08-07T09:58:06.000Z</time>
      </trkpt>
      <trkpt lat="47.28435" lon="-2.36378">
        <ele>-59.799999237061</ele>
        <time>2022-08-07T09:58:09.000Z</time>
      </trkpt>
      <trkpt lat="47.28426" lon="-2.36373">
        <ele>-59.799999237061</ele>
        <time>2022-08-07T09:58:11.000Z</time>
      </trkpt>
      <trkpt lat="47.28419" lon="-2.36366">
        <ele>-59.799999237061</ele>
        <time>2022-08-07T09:58:13.000Z</time>
      </trkpt>
      <trkpt lat="47.28416" lon="-2.36361">
        <ele>-59.799999237061</ele>
        <time>2022-08-07T09:58:14.000Z</time>
      </trkpt>
      <trkpt lat="47.28408" lon="-2.36353">
        <ele>-60.200000762939</ele>
        <time>2022-08-07T09:58:16.000Z</time>
      </trkpt>
      <trkpt lat="47.28404" lon="-2.36349">
        <ele>-60.599998474121</ele>
        <time>2022-08-07T09:58:17.000Z</time>
      </trkpt>
      <trkpt lat="47.28401" lon="-2.36346">
        <ele>-61.200000762939</ele>
        <time>2022-08-07T09:58:18.000Z</time>
      </trkpt>
      <trkpt lat="47.28398" lon="-2.36341">
        <ele>-61.599998474121</ele>
        <time>2022-08-07T09:58:19.000Z</time>
      </trkpt>
      <trkpt lat="47.28395" lon="-2.36335">
        <ele>-62</ele>
        <time>2022-08-07T09:58:20.000Z</time>
      </trkpt>
      <trkpt lat="47.28382" lon="-2.36326">
        <ele>-62</ele>
        <time>2022-08-07T09:58:23.000Z</time>
      </trkpt>
      <trkpt lat="47.28378" lon="-2.36324">
        <ele>-62</ele>
        <time>2022-08-07T09:58:24.000Z</time>
      </trkpt>
      <trkpt lat="47.28371" lon="-2.36316">
        <ele>-62.400001525879</ele>
        <time>2022-08-07T09:58:26.000Z</time>
      </trkpt>
      <trkpt lat="47.28368" lon="-2.3631">
        <ele>-62.799999237061</ele>
        <time>2022-08-07T09:58:27.000Z</time>
      </trkpt>
      <trkpt lat="47.28368" lon="-2.36304">
        <ele>-63.200000762939</ele>
        <time>2022-08-07T09:58:28.000Z</time>
      </trkpt>
      <trkpt lat="47.28369" lon="-2.36298">
        <ele>-63.599998474121</ele>
        <time>2022-08-07T09:58:29.000Z</time>
      </trkpt>
      <trkpt lat="47.28369" lon="-2.36291">
        <ele>-64.199996948242</ele>
        <time>2022-08-07T09:58:30.000Z</time>
      </trkpt>
      <trkpt lat="47.28371" lon="-2.36268">
        <ele>-64.199996948242</ele>
        <time>2022-08-07T09:58:35.000Z</time>
      </trkpt>
      <trkpt lat="47.2837" lon="-2.36267">
        <ele>-64.199996948242</ele>
        <time>2022-08-07T09:58:36.000Z</time>
      </trkpt>
      <trkpt lat="47.28372" lon="-2.36261">
        <ele>-64.199996948242</ele>
        <time>2022-08-07T09:58:41.000Z</time>
      </trkpt>
      <trkpt lat="47.28373" lon="-2.36259">
        <ele>-64.199996948242</ele>
        <time>2022-08-07T09:58:42.000Z</time>
      </trkpt>
      <trkpt lat="47.28381" lon="-2.36246">
        <ele>-63.799999237061</ele>
        <time>2022-08-07T09:58:48.000Z</time>
      </trkpt>
      <trkpt lat="47.28383" lon="-2.36243">
        <ele>-63.400001525879</ele>
        <time>2022-08-07T09:58:49.000Z</time>
      </trkpt>
      <trkpt lat="47.28384" lon="-2.3624">
        <ele>-62.400001525879</ele>
        <time>2022-08-07T09:58:50.000Z</time>
      </trkpt>
      <trkpt lat="47.28387" lon="-2.36235">
        <ele>-62</ele>
        <time>2022-08-07T09:58:51.000Z</time>
      </trkpt>
      <trkpt lat="47.28393" lon="-2.3623">
        <ele>-62</ele>
        <time>2022-08-07T09:58:53.000Z</time>
      </trkpt>
      <trkpt lat="47.284" lon="-2.36224">
        <ele>-61.599998474121</ele>
        <time>2022-08-07T09:58:55.000Z</time>
      </trkpt>
      <trkpt lat="47.28403" lon="-2.36222">
        <ele>-61.200000762939</ele>
        <time>2022-08-07T09:58:56.000Z</time>
      </trkpt>
      <trkpt lat="47.28407" lon="-2.36219">
        <ele>-60.799999237061</ele>
        <time>2022-08-07T09:58:57.000Z</time>
      </trkpt>
      <trkpt lat="47.2841" lon="-2.36217">
        <ele>-60.400001525879</ele>
        <time>2022-08-07T09:58:58.000Z</time>
      </trkpt>
      <trkpt lat="47.28413" lon="-2.36217">
        <ele>-60</ele>
        <time>2022-08-07T09:58:59.000Z</time>
      </trkpt>
      <trkpt lat="47.2843" lon="-2.36209">
        <ele>-60</ele>
        <time>2022-08-07T09:59:05.000Z</time>
      </trkpt>
      <trkpt lat="47.28433" lon="-2.36205">
        <ele>-59.599998474121</ele>
        <time>2022-08-07T09:59:07.000Z</time>
      </trkpt>
      <trkpt lat="47.28435" lon="-2.36205">
        <ele>-59</ele>
        <time>2022-08-07T09:59:08.000Z</time>
      </trkpt>
      <trkpt lat="47.28435" lon="-2.36205">
        <ele>-58.599998474121</ele>
        <time>2022-08-07T09:59:09.000Z</time>
      </trkpt>
      <trkpt lat="47.28437" lon="-2.36204">
        <ele>-57.799999237061</ele>
        <time>2022-08-07T09:59:29.000Z</time>
      </trkpt>
      <trkpt lat="47.2844" lon="-2.36203">
        <ele>-57.799999237061</ele>
        <time>2022-08-07T09:59:32.000Z</time>
      </trkpt>
      <trkpt lat="47.28444" lon="-2.36199">
        <ele>-57.799999237061</ele>
        <time>2022-08-07T09:59:36.000Z</time>
      </trkpt>
      <trkpt lat="47.28443" lon="-2.36197">
        <ele>-57.799999237061</ele>
        <time>2022-08-07T09:59:37.000Z</time>
      </trkpt>
      <trkpt lat="47.2844" lon="-2.36187">
        <ele>-57.799999237061</ele>
        <time>2022-08-07T09:59:41.000Z</time>
      </trkpt>
      <trkpt lat="47.2844" lon="-2.36183">
        <ele>-57.400001525879</ele>
        <time>2022-08-07T09:59:42.000Z</time>
      </trkpt>
      <trkpt lat="47.28441" lon="-2.36179">
        <ele>-57</ele>
        <time>2022-08-07T09:59:43.000Z</time>
      </trkpt>
      <trkpt lat="47.2844" lon="-2.36175">
        <ele>-56.599998474121</ele>
        <time>2022-08-07T09:59:44.000Z</time>
      </trkpt>
      <trkpt lat="47.28441" lon="-2.36172">
        <ele>-56</ele>
        <time>2022-08-07T09:59:45.000Z</time>
      </trkpt>
      <trkpt lat="47.2844" lon="-2.36168">
        <ele>-55.599998474121</ele>
        <time>2022-08-07T09:59:46.000Z</time>
      </trkpt>
      <trkpt lat="47.28434" lon="-2.36157">
        <ele>-55.200000762939</ele>
        <time>2022-08-07T09:59:50.000Z</time>
      </trkpt>
      <trkpt lat="47.28432" lon="-2.36154">
        <ele>-54.799999237061</ele>
        <time>2022-08-07T09:59:51.000Z</time>
      </trkpt>
      <trkpt lat="47.28431" lon="-2.36152">
        <ele>-54.400001525879</ele>
        <time>2022-08-07T09:59:52.000Z</time>
      </trkpt>
      <trkpt lat="47.28431" lon="-2.36148">
        <ele>-54</ele>
        <time>2022-08-07T09:59:53.000Z</time>
      </trkpt>
      <trkpt lat="47.28431" lon="-2.36144">
        <ele>-53.599998474121</ele>
        <time>2022-08-07T09:59:54.000Z</time>
      </trkpt>
      <trkpt lat="47.28432" lon="-2.3614">
        <ele>-53.599998474121</ele>
        <time>2022-08-07T09:59:55.000Z</time>
      </trkpt>
      <trkpt lat="47.2843" lon="-2.36134">
        <ele>-53.599998474121</ele>
        <time>2022-08-07T09:59:57.000Z</time>
      </trkpt>
      <trkpt lat="47.28429" lon="-2.36131">
        <ele>-53.200000762939</ele>
        <time>2022-08-07T09:59:58.000Z</time>
      </trkpt>
      <trkpt lat="47.28429" lon="-2.36127">
        <ele>-52.799999237061</ele>
        <time>2022-08-07T09:59:59.000Z</time>
      </trkpt>
      <trkpt lat="47.2843" lon="-2.36122">
        <ele>-52.400001525879</ele>
        <time>2022-08-07T10:00:00.000Z</time>
      </trkpt>
      <trkpt lat="47.2843" lon="-2.36118">
        <ele>-51.799999237061</ele>
        <time>2022-08-07T10:00:01.000Z</time>
      </trkpt>
      <trkpt lat="47.2843" lon="-2.36115">
        <ele>-51.400001525879</ele>
        <time>2022-08-07T10:00:02.000Z</time>
      </trkpt>
      <trkpt lat="47.2843" lon="-2.36112">
        <ele>-51.400001525879</ele>
        <time>2022-08-07T10:00:03.000Z</time>
      </trkpt>
      <trkpt lat="47.2843" lon="-2.36107">
        <ele>-51.400001525879</ele>
        <time>2022-08-07T10:00:04.000Z</time>
      </trkpt>
      <trkpt lat="47.28431" lon="-2.36091">
        <ele>-51.400001525879</ele>
        <time>2022-08-07T10:00:08.000Z</time>
      </trkpt>
      <trkpt lat="47.28431" lon="-2.36084">
        <ele>-51</ele>
        <time>2022-08-07T10:00:10.000Z</time>
      </trkpt>
      <trkpt lat="47.28431" lon="-2.3608">
        <ele>-50.599998474121</ele>
        <time>2022-08-07T10:00:11.000Z</time>
      </trkpt>
      <trkpt lat="47.28431" lon="-2.36076">
        <ele>-50.200000762939</ele>
        <time>2022-08-07T10:00:12.000Z</time>
      </trkpt>
      <trkpt lat="47.28431" lon="-2.36072">
        <ele>-49.799999237061</ele>
        <time>2022-08-07T10:00:13.000Z</time>
      </trkpt>
      <trkpt lat="47.28431" lon="-2.36069">
        <ele>-49.400001525879</ele>
        <time>2022-08-07T10:00:14.000Z</time>
      </trkpt>
      <trkpt lat="47.28431" lon="-2.36051">
        <ele>-49.400001525879</ele>
        <time>2022-08-07T10:00:19.000Z</time>
      </trkpt>
      <trkpt lat="47.28432" lon="-2.36029">
        <ele>-49.400001525879</ele>
        <time>2022-08-07T10:00:27.000Z</time>
      </trkpt>
      <trkpt lat="47.28433" lon="-2.36028">
        <ele>-49.400001525879</ele>
        <time>2022-08-07T10:00:29.000Z</time>
      </trkpt>
      <trkpt lat="47.28436" lon="-2.36021">
        <ele>-49.400001525879</ele>
        <time>2022-08-07T10:00:33.000Z</time>
      </trkpt>
      <trkpt lat="47.28436" lon="-2.36019">
        <ele>-49.400001525879</ele>
        <time>2022-08-07T10:00:34.000Z</time>
      </trkpt>
      <trkpt lat="47.28444" lon="-2.36006">
        <ele>-49.400001525879</ele>
        <time>2022-08-07T10:00:39.000Z</time>
      </trkpt>
      <trkpt lat="47.28445" lon="-2.36005">
        <ele>-49.400001525879</ele>
        <time>2022-08-07T10:00:41.000Z</time>
      </trkpt>
      <trkpt lat="47.28447" lon="-2.36002">
        <ele>-49.400001525879</ele>
        <time>2022-08-07T10:01:03.000Z</time>
      </trkpt>
      <trkpt lat="47.28447" lon="-2.35999">
        <ele>-49.400001525879</ele>
        <time>2022-08-07T10:01:04.000Z</time>
      </trkpt>
      <trkpt lat="47.28442" lon="-2.35993">
        <ele>-49.400001525879</ele>
        <time>2022-08-07T10:01:09.000Z</time>
      </trkpt>
      <trkpt lat="47.28437" lon="-2.35993">
        <ele>-49.400001525879</ele>
        <time>2022-08-07T10:01:13.000Z</time>
      </trkpt>
      <trkpt lat="47.2843" lon="-2.36001">
        <ele>-49.400001525879</ele>
        <time>2022-08-07T10:01:18.000Z</time>
      </trkpt>
      <trkpt lat="47.28417" lon="-2.36016">
        <ele>-49.400001525879</ele>
        <time>2022-08-07T10:01:22.000Z</time>
      </trkpt>
      <trkpt lat="47.28405" lon="-2.36019">
        <ele>-49.400001525879</ele>
        <time>2022-08-07T10:01:25.000Z</time>
      </trkpt>
      <trkpt lat="47.28401" lon="-2.36019">
        <ele>-49.400001525879</ele>
        <time>2022-08-07T10:01:26.000Z</time>
      </trkpt>
      <trkpt lat="47.28391" lon="-2.36018">
        <ele>-49.400001525879</ele>
        <time>2022-08-07T10:01:28.000Z</time>
      </trkpt>
      <trkpt lat="47.28384" lon="-2.36017">
        <ele>-49.799999237061</ele>
        <time>2022-08-07T10:01:29.000Z</time>
      </trkpt>
      <trkpt lat="47.28377" lon="-2.36016">
        <ele>-50.200000762939</ele>
        <time>2022-08-07T10:01:30.000Z</time>
      </trkpt>
      <trkpt lat="47.28369" lon="-2.36017">
        <ele>-50.599998474121</ele>
        <time>2022-08-07T10:01:31.000Z</time>
      </trkpt>
      <trkpt lat="47.28363" lon="-2.36018">
        <ele>-51.200000762939</ele>
        <time>2022-08-07T10:01:32.000Z</time>
      </trkpt>
      <trkpt lat="47.28357" lon="-2.36019">
        <ele>-51.799999237061</ele>
        <time>2022-08-07T10:01:33.000Z</time>
      </trkpt>
      <trkpt lat="47.28352" lon="-2.36022">
        <ele>-52.599998474121</ele>
        <time>2022-08-07T10:01:34.000Z</time>
      </trkpt>
      <trkpt lat="47.28347" lon="-2.36027">
        <ele>-53.200000762939</ele>
        <time>2022-08-07T10:01:35.000Z</time>
      </trkpt>
      <trkpt lat="47.28342" lon="-2.36032">
        <ele>-53.599998474121</ele>
        <time>2022-08-07T10:01:36.000Z</time>
      </trkpt>
      <trkpt lat="47.28338" lon="-2.36037">
        <ele>-54.200000762939</ele>
        <time>2022-08-07T10:01:37.000Z</time>
      </trkpt>
      <trkpt lat="47.28334" lon="-2.36041">
        <ele>-54.799999237061</ele>
        <time>2022-08-07T10:01:38.000Z</time>
      </trkpt>
      <trkpt lat="47.28329" lon="-2.36046">
        <ele>-55.400001525879</ele>
        <time>2022-08-07T10:01:39.000Z</time>
      </trkpt>
      <trkpt lat="47.28325" lon="-2.36049">
        <ele>-56</ele>
        <time>2022-08-07T10:01:40.000Z</time>
      </trkpt>
      <trkpt lat="47.28315" lon="-2.36048">
        <ele>-56</ele>
        <time>2022-08-07T10:01:42.000Z</time>
      </trkpt>
      <trkpt lat="47.28289" lon="-2.36042">
        <ele>-56.400001525879</ele>
        <time>2022-08-07T10:01:47.000Z</time>
      </trkpt>
      <trkpt lat="47.28283" lon="-2.36037">
        <ele>-57</ele>
        <time>2022-08-07T10:01:48.000Z</time>
      </trkpt>
      <trkpt lat="47.28279" lon="-2.36031">
        <ele>-57.400001525879</ele>
        <time>2022-08-07T10:01:49.000Z</time>
      </trkpt>
      <trkpt lat="47.28276" lon="-2.36025">
        <ele>-58.400001525879</ele>
        <time>2022-08-07T10:01:50.000Z</time>
      </trkpt>
      <trkpt lat="47.28275" lon="-2.36021">
        <ele>-59.200000762939</ele>
        <time>2022-08-07T10:01:51.000Z</time>
      </trkpt>
      <trkpt lat="47.28274" lon="-2.36016">
        <ele>-60</ele>
        <time>2022-08-07T10:01:52.000Z</time>
      </trkpt>
      <trkpt lat="47.28273" lon="-2.3601">
        <ele>-61</ele>
        <time>2022-08-07T10:01:53.000Z</time>
      </trkpt>
      <trkpt lat="47.28273" lon="-2.36005">
        <ele>-61.799999237061</ele>
        <time>2022-08-07T10:01:54.000Z</time>
      </trkpt>
      <trkpt lat="47.28274" lon="-2.36">
        <ele>-62.799999237061</ele>
        <time>2022-08-07T10:01:55.000Z</time>
      </trkpt>
      <trkpt lat="47.28275" lon="-2.35994">
        <ele>-63.599998474121</ele>
        <time>2022-08-07T10:01:56.000Z</time>
      </trkpt>
      <trkpt lat="47.28274" lon="-2.35988">
        <ele>-63.599998474121</ele>
        <time>2022-08-07T10:01:57.000Z</time>
      </trkpt>
      <trkpt lat="47.28268" lon="-2.35972">
        <ele>-63.599998474121</ele>
        <time>2022-08-07T10:02:01.000Z</time>
      </trkpt>
      <trkpt lat="47.28258" lon="-2.35955">
        <ele>-63.599998474121</ele>
        <time>2022-08-07T10:02:06.000Z</time>
      </trkpt>
      <trkpt lat="47.28246" lon="-2.35936">
        <ele>-63.599998474121</ele>
        <time>2022-08-07T10:02:11.000Z</time>
      </trkpt>
      <trkpt lat="47.28235" lon="-2.35923">
        <ele>-63.599998474121</ele>
        <time>2022-08-07T10:02:16.000Z</time>
      </trkpt>
      <trkpt lat="47.28222" lon="-2.35917">
        <ele>-63.599998474121</ele>
        <time>2022-08-07T10:02:20.000Z</time>
      </trkpt>
      <trkpt lat="47.28209" lon="-2.35909">
        <ele>-63.599998474121</ele>
        <time>2022-08-07T10:02:24.000Z</time>
      </trkpt>
      <trkpt lat="47.28196" lon="-2.35892">
        <ele>-63.599998474121</ele>
        <time>2022-08-07T10:02:29.000Z</time>
      </trkpt>
      <trkpt lat="47.28187" lon="-2.35866">
        <ele>-63.599998474121</ele>
        <time>2022-08-07T10:02:35.000Z</time>
      </trkpt>
      <trkpt lat="47.28178" lon="-2.35847">
        <ele>-63.599998474121</ele>
        <time>2022-08-07T10:02:40.000Z</time>
      </trkpt>
      <trkpt lat="47.28169" lon="-2.35825">
        <ele>-63.599998474121</ele>
        <time>2022-08-07T10:02:45.000Z</time>
      </trkpt>
      <trkpt lat="47.2816" lon="-2.35808">
        <ele>-63.599998474121</ele>
        <time>2022-08-07T10:02:50.000Z</time>
      </trkpt>
      <trkpt lat="47.28159" lon="-2.35806">
        <ele>-63.599998474121</ele>
        <time>2022-08-07T10:02:51.000Z</time>
      </trkpt>
      <trkpt lat="47.28153" lon="-2.35792">
        <ele>-63.599998474121</ele>
        <time>2022-08-07T10:02:55.000Z</time>
      </trkpt>
      <trkpt lat="47.28148" lon="-2.35783">
        <ele>-63.599998474121</ele>
        <time>2022-08-07T10:02:57.000Z</time>
      </trkpt>
      <trkpt lat="47.28141" lon="-2.35773">
        <ele>-64</ele>
        <time>2022-08-07T10:03:00.000Z</time>
      </trkpt>
      <trkpt lat="47.28139" lon="-2.35772">
        <ele>-64.400001525879</ele>
        <time>2022-08-07T10:03:01.000Z</time>
      </trkpt>
      <trkpt lat="47.28134" lon="-2.35772">
        <ele>-65</ele>
        <time>2022-08-07T10:03:02.000Z</time>
      </trkpt>
      <trkpt lat="47.2813" lon="-2.35772">
        <ele>-65.400001525879</ele>
        <time>2022-08-07T10:03:03.000Z</time>
      </trkpt>
      <trkpt lat="47.28126" lon="-2.35773">
        <ele>-65.800003051758</ele>
        <time>2022-08-07T10:03:04.000Z</time>
      </trkpt>
      <trkpt lat="47.28117" lon="-2.35775">
        <ele>-65.800003051758</ele>
        <time>2022-08-07T10:03:06.000Z</time>
      </trkpt>
      <trkpt lat="47.28115" lon="-2.35778">
        <ele>-65.800003051758</ele>
        <time>2022-08-07T10:03:07.000Z</time>
      </trkpt>
      <trkpt lat="47.28112" lon="-2.35782">
        <ele>-65.800003051758</ele>
        <time>2022-08-07T10:03:08.000Z</time>
      </trkpt>
      <trkpt lat="47.2811" lon="-2.35788">
        <ele>-65.800003051758</ele>
        <time>2022-08-07T10:03:11.000Z</time>
      </trkpt>
      <trkpt lat="47.28109" lon="-2.35791">
        <ele>-65.800003051758</ele>
        <time>2022-08-07T10:03:12.000Z</time>
      </trkpt>
      <trkpt lat="47.28101" lon="-2.3581">
        <ele>-65.800003051758</ele>
        <time>2022-08-07T10:03:18.000Z</time>
      </trkpt>
      <trkpt lat="47.28099" lon="-2.35812">
        <ele>-65.800003051758</ele>
        <time>2022-08-07T10:03:19.000Z</time>
      </trkpt>
      <trkpt lat="47.28089" lon="-2.3581">
        <ele>-65.800003051758</ele>
        <time>2022-08-07T10:03:22.000Z</time>
      </trkpt>
      <trkpt lat="47.28085" lon="-2.35803">
        <ele>-65.800003051758</ele>
        <time>2022-08-07T10:03:25.000Z</time>
      </trkpt>
      <trkpt lat="47.28084" lon="-2.35799">
        <ele>-65.400001525879</ele>
        <time>2022-08-07T10:03:26.000Z</time>
      </trkpt>
      <trkpt lat="47.28084" lon="-2.35798">
        <ele>-65</ele>
        <time>2022-08-07T10:03:27.000Z</time>
      </trkpt>
      <trkpt lat="47.28084" lon="-2.35793">
        <ele>-64.599998474121</ele>
        <time>2022-08-07T10:03:28.000Z</time>
      </trkpt>
      <trkpt lat="47.28083" lon="-2.35788">
        <ele>-64.199996948242</ele>
        <time>2022-08-07T10:03:29.000Z</time>
      </trkpt>
      <trkpt lat="47.28083" lon="-2.35782">
        <ele>-63.799999237061</ele>
        <time>2022-08-07T10:03:30.000Z</time>
      </trkpt>
      <trkpt lat="47.28087" lon="-2.35756">
        <ele>-63.799999237061</ele>
        <time>2022-08-07T10:03:35.000Z</time>
      </trkpt>
      <trkpt lat="47.2809" lon="-2.35735">
        <ele>-63.400001525879</ele>
        <time>2022-08-07T10:03:39.000Z</time>
      </trkpt>
      <trkpt lat="47.28091" lon="-2.3573">
        <ele>-63</ele>
        <time>2022-08-07T10:03:40.000Z</time>
      </trkpt>
      <trkpt lat="47.28091" lon="-2.35724">
        <ele>-62.400001525879</ele>
        <time>2022-08-07T10:03:41.000Z</time>
      </trkpt>
      <trkpt lat="47.2809" lon="-2.35718">
        <ele>-62</ele>
        <time>2022-08-07T10:03:42.000Z</time>
      </trkpt>
      <trkpt lat="47.2809" lon="-2.35714">
        <ele>-61.599998474121</ele>
        <time>2022-08-07T10:03:43.000Z</time>
      </trkpt>
      <trkpt lat="47.28088" lon="-2.35692">
        <ele>-61.599998474121</ele>
        <time>2022-08-07T10:03:46.000Z</time>
      </trkpt>
      <trkpt lat="47.28081" lon="-2.3567">
        <ele>-62</ele>
        <time>2022-08-07T10:03:49.000Z</time>
      </trkpt>
      <trkpt lat="47.2808" lon="-2.35664">
        <ele>-62.599998474121</ele>
        <time>2022-08-07T10:03:50.000Z</time>
      </trkpt>
      <trkpt lat="47.28078" lon="-2.35657">
        <ele>-63</ele>
        <time>2022-08-07T10:03:51.000Z</time>
      </trkpt>
      <trkpt lat="47.28077" lon="-2.35649">
        <ele>-63.400001525879</ele>
        <time>2022-08-07T10:03:52.000Z</time>
      </trkpt>
      <trkpt lat="47.28076" lon="-2.35643">
        <ele>-63.799999237061</ele>
        <time>2022-08-07T10:03:53.000Z</time>
      </trkpt>
      <trkpt lat="47.28074" lon="-2.35636">
        <ele>-64.400001525879</ele>
        <time>2022-08-07T10:03:54.000Z</time>
      </trkpt>
      <trkpt lat="47.28073" lon="-2.35628">
        <ele>-64.800003051758</ele>
        <time>2022-08-07T10:03:55.000Z</time>
      </trkpt>
      <trkpt lat="47.28072" lon="-2.35622">
        <ele>-65.400001525879</ele>
        <time>2022-08-07T10:03:56.000Z</time>
      </trkpt>
      <trkpt lat="47.28069" lon="-2.35619">
        <ele>-66</ele>
        <time>2022-08-07T10:03:57.000Z</time>
      </trkpt>
      <trkpt lat="47.28067" lon="-2.35618">
        <ele>-66</ele>
        <time>2022-08-07T10:03:58.000Z</time>
      </trkpt>
      <trkpt lat="47.28066" lon="-2.35618">
        <ele>-66</ele>
        <time>2022-08-07T10:04:00.000Z</time>
      </trkpt>
      <trkpt lat="47.28064" lon="-2.35615">
        <ele>-66</ele>
        <time>2022-08-07T10:04:01.000Z</time>
      </trkpt>
      <trkpt lat="47.28056" lon="-2.35608">
        <ele>-66</ele>
        <time>2022-08-07T10:04:04.000Z</time>
      </trkpt>
      <trkpt lat="47.28049" lon="-2.35607">
        <ele>-66</ele>
        <time>2022-08-07T10:04:06.000Z</time>
      </trkpt>
      <trkpt lat="47.28033" lon="-2.35609">
        <ele>-66</ele>
        <time>2022-08-07T10:04:11.000Z</time>
      </trkpt>
      <trkpt lat="47.28026" lon="-2.3561">
        <ele>-66.400001525879</ele>
        <time>2022-08-07T10:04:14.000Z</time>
      </trkpt>
      <trkpt lat="47.28023" lon="-2.3561">
        <ele>-66.800003051758</ele>
        <time>2022-08-07T10:04:15.000Z</time>
      </trkpt>
      <trkpt lat="47.2802" lon="-2.3561">
        <ele>-67.199996948242</ele>
        <time>2022-08-07T10:04:16.000Z</time>
      </trkpt>
      <trkpt lat="47.28017" lon="-2.3561">
        <ele>-67.599998474121</ele>
        <time>2022-08-07T10:04:17.000Z</time>
      </trkpt>
      <trkpt lat="47.28015" lon="-2.35611">
        <ele>-68</ele>
        <time>2022-08-07T10:04:18.000Z</time>
      </trkpt>
      <trkpt lat="47.28013" lon="-2.35612">
        <ele>-68</ele>
        <time>2022-08-07T10:04:19.000Z</time>
      </trkpt>
      <trkpt lat="47.27997" lon="-2.35611">
        <ele>-68</ele>
        <time>2022-08-07T10:04:24.000Z</time>
      </trkpt>
      <trkpt lat="47.27981" lon="-2.35604">
        <ele>-68</ele>
        <time>2022-08-07T10:04:28.000Z</time>
      </trkpt>
      <trkpt lat="47.27979" lon="-2.35599">
        <ele>-68</ele>
        <time>2022-08-07T10:04:30.000Z</time>
      </trkpt>
      <trkpt lat="47.27981" lon="-2.35599">
        <ele>-68.800003051758</ele>
        <time>2022-08-07T10:04:32.000Z</time>
      </trkpt>
      <trkpt lat="47.27982" lon="-2.35598">
        <ele>-69.199996948242</ele>
        <time>2022-08-07T10:04:33.000Z</time>
      </trkpt>
      <trkpt lat="47.27982" lon="-2.35598">
        <ele>-69.599998474121</ele>
        <time>2022-08-07T10:04:34.000Z</time>
      </trkpt>
      <trkpt lat="47.27981" lon="-2.35594">
        <ele>-70</ele>
        <time>2022-08-07T10:07:15.000Z</time>
      </trkpt>
      <trkpt lat="47.2798" lon="-2.35593">
        <ele>-70</ele>
        <time>2022-08-07T10:07:16.000Z</time>
      </trkpt>
      <trkpt lat="47.27972" lon="-2.35588">
        <ele>-70</ele>
        <time>2022-08-07T10:07:19.000Z</time>
      </trkpt>
      <trkpt lat="47.27957" lon="-2.35585">
        <ele>-70</ele>
        <time>2022-08-07T10:07:23.000Z</time>
      </trkpt>
      <trkpt lat="47.27945" lon="-2.35589">
        <ele>-70</ele>
        <time>2022-08-07T10:07:26.000Z</time>
      </trkpt>
      <trkpt lat="47.27938" lon="-2.35591">
        <ele>-70</ele>
        <time>2022-08-07T10:07:28.000Z</time>
      </trkpt>
      <trkpt lat="47.27934" lon="-2.35592">
        <ele>-70</ele>
        <time>2022-08-07T10:07:29.000Z</time>
      </trkpt>
      <trkpt lat="47.27913" lon="-2.35596">
        <ele>-70</ele>
        <time>2022-08-07T10:07:34.000Z</time>
      </trkpt>
      <trkpt lat="47.27904" lon="-2.35597">
        <ele>-70.400001525879</ele>
        <time>2022-08-07T10:07:36.000Z</time>
      </trkpt>
      <trkpt lat="47.279" lon="-2.35598">
        <ele>-70.800003051758</ele>
        <time>2022-08-07T10:07:37.000Z</time>
      </trkpt>
      <trkpt lat="47.27895" lon="-2.35599">
        <ele>-71.400001525879</ele>
        <time>2022-08-07T10:07:38.000Z</time>
      </trkpt>
      <trkpt lat="47.27891" lon="-2.35599">
        <ele>-71.800003051758</ele>
        <time>2022-08-07T10:07:39.000Z</time>
      </trkpt>
      <trkpt lat="47.27887" lon="-2.35599">
        <ele>-72.199996948242</ele>
        <time>2022-08-07T10:07:40.000Z</time>
      </trkpt>
      <trkpt lat="47.27866" lon="-2.35603">
        <ele>-72.199996948242</ele>
        <time>2022-08-07T10:07:44.000Z</time>
      </trkpt>
      <trkpt lat="47.2786" lon="-2.35605">
        <ele>-72.599998474121</ele>
        <time>2022-08-07T10:07:45.000Z</time>
      </trkpt>
      <trkpt lat="47.27855" lon="-2.35606">
        <ele>-73</ele>
        <time>2022-08-07T10:07:46.000Z</time>
      </trkpt>
      <trkpt lat="47.27849" lon="-2.35608">
        <ele>-73.400001525879</ele>
        <time>2022-08-07T10:07:47.000Z</time>
      </trkpt>
      <trkpt lat="47.27843" lon="-2.35609">
        <ele>-73.800003051758</ele>
        <time>2022-08-07T10:07:48.000Z</time>
      </trkpt>
      <trkpt lat="47.27837" lon="-2.35611">
        <ele>-74.199996948242</ele>
        <time>2022-08-07T10:07:49.000Z</time>
      </trkpt>
      <trkpt lat="47.27817" lon="-2.35616">
        <ele>-74.199996948242</ele>
        <time>2022-08-07T10:07:52.000Z</time>
      </trkpt>
      <trkpt lat="47.2778" lon="-2.35631">
        <ele>-74.199996948242</ele>
        <time>2022-08-07T10:07:58.000Z</time>
      </trkpt>
      <trkpt lat="47.27769" lon="-2.35641">
        <ele>-74.199996948242</ele>
        <time>2022-08-07T10:08:00.000Z</time>
      </trkpt>
      <trkpt lat="47.27756" lon="-2.35657">
        <ele>-74.599998474121</ele>
        <time>2022-08-07T10:08:03.000Z</time>
      </trkpt>
      <trkpt lat="47.27752" lon="-2.35662">
        <ele>-75</ele>
        <time>2022-08-07T10:08:04.000Z</time>
      </trkpt>
      <trkpt lat="47.27748" lon="-2.35669">
        <ele>-75.400001525879</ele>
        <time>2022-08-07T10:08:05.000Z</time>
      </trkpt>
      <trkpt lat="47.27744" lon="-2.35675">
        <ele>-75.800003051758</ele>
        <time>2022-08-07T10:08:06.000Z</time>
      </trkpt>
      <trkpt lat="47.2774" lon="-2.35682">
        <ele>-76.199996948242</ele>
        <time>2022-08-07T10:08:07.000Z</time>
      </trkpt>
      <trkpt lat="47.27731" lon="-2.35695">
        <ele>-76.199996948242</ele>
        <time>2022-08-07T10:08:09.000Z</time>
      </trkpt>
      <trkpt lat="47.27713" lon="-2.35718">
        <ele>-76.800003051758</ele>
        <time>2022-08-07T10:08:13.000Z</time>
      </trkpt>
      <trkpt lat="47.27707" lon="-2.35723">
        <ele>-77.199996948242</ele>
        <time>2022-08-07T10:08:14.000Z</time>
      </trkpt>
      <trkpt lat="47.27701" lon="-2.35728">
        <ele>-77.599998474121</ele>
        <time>2022-08-07T10:08:15.000Z</time>
      </trkpt>
      <trkpt lat="47.27695" lon="-2.35733">
        <ele>-78</ele>
        <time>2022-08-07T10:08:16.000Z</time>
      </trkpt>
      <trkpt lat="47.2769" lon="-2.35738">
        <ele>-78.400001525879</ele>
        <time>2022-08-07T10:08:17.000Z</time>
      </trkpt>
      <trkpt lat="47.27685" lon="-2.35743">
        <ele>-78.400001525879</ele>
        <time>2022-08-07T10:08:18.000Z</time>
      </trkpt>
      <trkpt lat="47.27671" lon="-2.35742">
        <ele>-78.400001525879</ele>
        <time>2022-08-07T10:08:21.000Z</time>
      </trkpt>
      <trkpt lat="47.27658" lon="-2.35726">
        <ele>-78.400001525879</ele>
        <time>2022-08-07T10:08:24.000Z</time>
      </trkpt>
      <trkpt lat="47.27653" lon="-2.35722">
        <ele>-78.400001525879</ele>
        <time>2022-08-07T10:08:25.000Z</time>
      </trkpt>
      <trkpt lat="47.27648" lon="-2.35718">
        <ele>-78.400001525879</ele>
        <time>2022-08-07T10:08:26.000Z</time>
      </trkpt>
      <trkpt lat="47.27638" lon="-2.35712">
        <ele>-78.400001525879</ele>
        <time>2022-08-07T10:08:28.000Z</time>
      </trkpt>
      <trkpt lat="47.27632" lon="-2.35709">
        <ele>-79</ele>
        <time>2022-08-07T10:08:29.000Z</time>
      </trkpt>
      <trkpt lat="47.27626" lon="-2.35707">
        <ele>-79.400001525879</ele>
        <time>2022-08-07T10:08:30.000Z</time>
      </trkpt>
      <trkpt lat="47.27619" lon="-2.35706">
        <ele>-79.800003051758</ele>
        <time>2022-08-07T10:08:31.000Z</time>
      </trkpt>
      <trkpt lat="47.27611" lon="-2.35705">
        <ele>-80.400001525879</ele>
        <time>2022-08-07T10:08:32.000Z</time>
      </trkpt>
      <trkpt lat="47.27604" lon="-2.35705">
        <ele>-80.800003051758</ele>
        <time>2022-08-07T10:08:33.000Z</time>
      </trkpt>
      <trkpt lat="47.27581" lon="-2.35703">
        <ele>-80.800003051758</ele>
        <time>2022-08-07T10:08:36.000Z</time>
      </trkpt>
      <trkpt lat="47.2753" lon="-2.35694">
        <ele>-81.599998474121</ele>
        <time>2022-08-07T10:08:44.000Z</time>
      </trkpt>
      <trkpt lat="47.27523" lon="-2.35692">
        <ele>-82</ele>
        <time>2022-08-07T10:08:45.000Z</time>
      </trkpt>
      <trkpt lat="47.27517" lon="-2.3569">
        <ele>-82.400001525879</ele>
        <time>2022-08-07T10:08:46.000Z</time>
      </trkpt>
      <trkpt lat="47.27511" lon="-2.35689">
        <ele>-82.800003051758</ele>
        <time>2022-08-07T10:08:47.000Z</time>
      </trkpt>
      <trkpt lat="47.27493" lon="-2.35684">
        <ele>-82.800003051758</ele>
        <time>2022-08-07T10:08:50.000Z</time>
      </trkpt>
      <trkpt lat="47.27481" lon="-2.35681">
        <ele>-82.800003051758</ele>
        <time>2022-08-07T10:08:52.000Z</time>
      </trkpt>
      <trkpt lat="47.27476" lon="-2.3568">
        <ele>-83.400001525879</ele>
        <time>2022-08-07T10:08:53.000Z</time>
      </trkpt>
      <trkpt lat="47.2747" lon="-2.35679">
        <ele>-83.800003051758</ele>
        <time>2022-08-07T10:08:54.000Z</time>
      </trkpt>
      <trkpt lat="47.27465" lon="-2.35678">
        <ele>-84.199996948242</ele>
        <time>2022-08-07T10:08:55.000Z</time>
      </trkpt>
      <trkpt lat="47.27459" lon="-2.35676">
        <ele>-84.599998474121</ele>
        <time>2022-08-07T10:08:56.000Z</time>
      </trkpt>
      <trkpt lat="47.27453" lon="-2.35675">
        <ele>-85.199996948242</ele>
        <time>2022-08-07T10:08:57.000Z</time>
      </trkpt>
      <trkpt lat="47.27425" lon="-2.35668">
        <ele>-85.199996948242</ele>
        <time>2022-08-07T10:09:02.000Z</time>
      </trkpt>
      <trkpt lat="47.2742" lon="-2.35668">
        <ele>-85.199996948242</ele>
        <time>2022-08-07T10:09:03.000Z</time>
      </trkpt>
      <trkpt lat="47.27403" lon="-2.35672">
        <ele>-85.199996948242</ele>
        <time>2022-08-07T10:09:06.000Z</time>
      </trkpt>
      <trkpt lat="47.27382" lon="-2.35684">
        <ele>-85.199996948242</ele>
        <time>2022-08-07T10:09:10.000Z</time>
      </trkpt>
      <trkpt lat="47.27371" lon="-2.35691">
        <ele>-85.199996948242</ele>
        <time>2022-08-07T10:09:12.000Z</time>
      </trkpt>
      <trkpt lat="47.2736" lon="-2.35699">
        <ele>-85.199996948242</ele>
        <time>2022-08-07T10:09:14.000Z</time>
      </trkpt>
      <trkpt lat="47.2733" lon="-2.35725">
        <ele>-85.199996948242</ele>
        <time>2022-08-07T10:09:20.000Z</time>
      </trkpt>
      <trkpt lat="47.2732" lon="-2.3574">
        <ele>-85.199996948242</ele>
        <time>2022-08-07T10:09:23.000Z</time>
      </trkpt>
      <trkpt lat="47.27311" lon="-2.3574">
        <ele>-85.199996948242</ele>
        <time>2022-08-07T10:09:26.000Z</time>
      </trkpt>
      <trkpt lat="47.273" lon="-2.35722">
        <ele>-85.199996948242</ele>
        <time>2022-08-07T10:09:30.000Z</time>
      </trkpt>
      <trkpt lat="47.27296" lon="-2.35711">
        <ele>-85.199996948242</ele>
        <time>2022-08-07T10:09:32.000Z</time>
      </trkpt>
      <trkpt lat="47.27292" lon="-2.357">
        <ele>-85.199996948242</ele>
        <time>2022-08-07T10:09:34.000Z</time>
      </trkpt>
      <trkpt lat="47.27289" lon="-2.35689">
        <ele>-84.800003051758</ele>
        <time>2022-08-07T10:09:36.000Z</time>
      </trkpt>
      <trkpt lat="47.27286" lon="-2.35684">
        <ele>-84.199996948242</ele>
        <time>2022-08-07T10:09:37.000Z</time>
      </trkpt>
      <trkpt lat="47.27284" lon="-2.35679">
        <ele>-83.800003051758</ele>
        <time>2022-08-07T10:09:38.000Z</time>
      </trkpt>
      <trkpt lat="47.27282" lon="-2.35675">
        <ele>-83.400001525879</ele>
        <time>2022-08-07T10:09:39.000Z</time>
      </trkpt>
      <trkpt lat="47.2728" lon="-2.3567">
        <ele>-83</ele>
        <time>2022-08-07T10:09:40.000Z</time>
      </trkpt>
      <trkpt lat="47.27274" lon="-2.35657">
        <ele>-83</ele>
        <time>2022-08-07T10:09:43.000Z</time>
      </trkpt>
      <trkpt lat="47.27269" lon="-2.35645">
        <ele>-83</ele>
        <time>2022-08-07T10:09:47.000Z</time>
      </trkpt>
      <trkpt lat="47.27268" lon="-2.35642">
        <ele>-83</ele>
        <time>2022-08-07T10:09:50.000Z</time>
      </trkpt>
      <trkpt lat="47.27265" lon="-2.35636">
        <ele>-83</ele>
        <time>2022-08-07T10:09:52.000Z</time>
      </trkpt>
      <trkpt lat="47.27261" lon="-2.35628">
        <ele>-83</ele>
        <time>2022-08-07T10:09:54.000Z</time>
      </trkpt>
      <trkpt lat="47.27255" lon="-2.35614">
        <ele>-83</ele>
        <time>2022-08-07T10:09:57.000Z</time>
      </trkpt>
      <trkpt lat="47.27237" lon="-2.35572">
        <ele>-83</ele>
        <time>2022-08-07T10:10:05.000Z</time>
      </trkpt>
      <trkpt lat="47.27219" lon="-2.35531">
        <ele>-83</ele>
        <time>2022-08-07T10:10:12.000Z</time>
      </trkpt>
      <trkpt lat="47.27208" lon="-2.35508">
        <ele>-83</ele>
        <time>2022-08-07T10:10:16.000Z</time>
      </trkpt>
      <trkpt lat="47.27206" lon="-2.35503">
        <ele>-82.599998474121</ele>
        <time>2022-08-07T10:10:17.000Z</time>
      </trkpt>
      <trkpt lat="47.27203" lon="-2.35499">
        <ele>-82.199996948242</ele>
        <time>2022-08-07T10:10:18.000Z</time>
      </trkpt>
      <trkpt lat="47.27201" lon="-2.35495">
        <ele>-81.599998474121</ele>
        <time>2022-08-07T10:10:19.000Z</time>
      </trkpt>
      <trkpt lat="47.27199" lon="-2.35491">
        <ele>-81.199996948242</ele>
        <time>2022-08-07T10:10:20.000Z</time>
      </trkpt>
      <trkpt lat="47.27197" lon="-2.35487">
        <ele>-80.800003051758</ele>
        <time>2022-08-07T10:10:21.000Z</time>
      </trkpt>
      <trkpt lat="47.27189" lon="-2.35469">
        <ele>-80.800003051758</ele>
        <time>2022-08-07T10:10:25.000Z</time>
      </trkpt>
      <trkpt lat="47.27171" lon="-2.35437">
        <ele>-80.800003051758</ele>
        <time>2022-08-07T10:10:31.000Z</time>
      </trkpt>
      <trkpt lat="47.27152" lon="-2.35401">
        <ele>-80.800003051758</ele>
        <time>2022-08-07T10:10:38.000Z</time>
      </trkpt>
      <trkpt lat="47.27129" lon="-2.35357">
        <ele>-80.800003051758</ele>
        <time>2022-08-07T10:10:46.000Z</time>
      </trkpt>
      <trkpt lat="47.271" lon="-2.35314">
        <ele>-80.800003051758</ele>
        <time>2022-08-07T10:10:54.000Z</time>
      </trkpt>
      <trkpt lat="47.2708" lon="-2.35282">
        <ele>-80.800003051758</ele>
        <time>2022-08-07T10:11:00.000Z</time>
      </trkpt>
      <trkpt lat="47.27059" lon="-2.35249">
        <ele>-80.800003051758</ele>
        <time>2022-08-07T10:11:06.000Z</time>
      </trkpt>
      <trkpt lat="47.27053" lon="-2.35237">
        <ele>-80.800003051758</ele>
        <time>2022-08-07T10:11:08.000Z</time>
      </trkpt>
      <trkpt lat="47.27038" lon="-2.35216">
        <ele>-80.800003051758</ele>
        <time>2022-08-07T10:11:12.000Z</time>
      </trkpt>
      <trkpt lat="47.27022" lon="-2.35189">
        <ele>-81.199996948242</ele>
        <time>2022-08-07T10:11:17.000Z</time>
      </trkpt>
      <trkpt lat="47.27018" lon="-2.35184">
        <ele>-81.599998474121</ele>
        <time>2022-08-07T10:11:18.000Z</time>
      </trkpt>
      <trkpt lat="47.27015" lon="-2.35178">
        <ele>-82</ele>
        <time>2022-08-07T10:11:19.000Z</time>
      </trkpt>
      <trkpt lat="47.27011" lon="-2.35173">
        <ele>-82.400001525879</ele>
        <time>2022-08-07T10:11:20.000Z</time>
      </trkpt>
      <trkpt lat="47.27008" lon="-2.35168">
        <ele>-82.800003051758</ele>
        <time>2022-08-07T10:11:21.000Z</time>
      </trkpt>
      <trkpt lat="47.2699" lon="-2.35142">
        <ele>-82.800003051758</ele>
        <time>2022-08-07T10:11:26.000Z</time>
      </trkpt>
      <trkpt lat="47.26961" lon="-2.35097">
        <ele>-82.800003051758</ele>
        <time>2022-08-07T10:11:34.000Z</time>
      </trkpt>
      <trkpt lat="47.26951" lon="-2.35082">
        <ele>-82.800003051758</ele>
        <time>2022-08-07T10:11:37.000Z</time>
      </trkpt>
      <trkpt lat="47.26941" lon="-2.3507">
        <ele>-82.800003051758</ele>
        <time>2022-08-07T10:11:40.000Z</time>
      </trkpt>
      <trkpt lat="47.26923" lon="-2.35042">
        <ele>-82.800003051758</ele>
        <time>2022-08-07T10:11:46.000Z</time>
      </trkpt>
      <trkpt lat="47.26903" lon="-2.35012">
        <ele>-82.800003051758</ele>
        <time>2022-08-07T10:11:52.000Z</time>
      </trkpt>
      <trkpt lat="47.26877" lon="-2.34974">
        <ele>-82.800003051758</ele>
        <time>2022-08-07T10:11:59.000Z</time>
      </trkpt>
      <trkpt lat="47.26854" lon="-2.34938">
        <ele>-82.800003051758</ele>
        <time>2022-08-07T10:12:05.000Z</time>
      </trkpt>
      <trkpt lat="47.26829" lon="-2.34902">
        <ele>-82.800003051758</ele>
        <time>2022-08-07T10:12:11.000Z</time>
      </trkpt>
      <trkpt lat="47.26788" lon="-2.34843">
        <ele>-82.800003051758</ele>
        <time>2022-08-07T10:12:21.000Z</time>
      </trkpt>
      <trkpt lat="47.26769" lon="-2.34818">
        <ele>-82.800003051758</ele>
        <time>2022-08-07T10:12:26.000Z</time>
      </trkpt>
      <trkpt lat="47.26766" lon="-2.34815">
        <ele>-82.800003051758</ele>
        <time>2022-08-07T10:12:27.000Z</time>
      </trkpt>
      <trkpt lat="47.26758" lon="-2.34804">
        <ele>-82.800003051758</ele>
        <time>2022-08-07T10:12:30.000Z</time>
      </trkpt>
      <trkpt lat="47.26756" lon="-2.348">
        <ele>-82.800003051758</ele>
        <time>2022-08-07T10:12:31.000Z</time>
      </trkpt>
      <trkpt lat="47.26739" lon="-2.34779">
        <ele>-82.800003051758</ele>
        <time>2022-08-07T10:12:36.000Z</time>
      </trkpt>
      <trkpt lat="47.26709" lon="-2.34741">
        <ele>-82.800003051758</ele>
        <time>2022-08-07T10:12:43.000Z</time>
      </trkpt>
      <trkpt lat="47.26691" lon="-2.3472">
        <ele>-82.800003051758</ele>
        <time>2022-08-07T10:12:47.000Z</time>
      </trkpt>
      <trkpt lat="47.26678" lon="-2.34706">
        <ele>-82.800003051758</ele>
        <time>2022-08-07T10:12:50.000Z</time>
      </trkpt>
      <trkpt lat="47.26648" lon="-2.34669">
        <ele>-82.800003051758</ele>
        <time>2022-08-07T10:12:58.000Z</time>
      </trkpt>
      <trkpt lat="47.2662" lon="-2.34635">
        <ele>-82.800003051758</ele>
        <time>2022-08-07T10:13:05.000Z</time>
      </trkpt>
      <trkpt lat="47.2659" lon="-2.34598">
        <ele>-82.800003051758</ele>
        <time>2022-08-07T10:13:12.000Z</time>
      </trkpt>
      <trkpt lat="47.26554" lon="-2.34559">
        <ele>-82.800003051758</ele>
        <time>2022-08-07T10:13:20.000Z</time>
      </trkpt>
      <trkpt lat="47.26517" lon="-2.34523">
        <ele>-82.800003051758</ele>
        <time>2022-08-07T10:13:28.000Z</time>
      </trkpt>
      <trkpt lat="47.26482" lon="-2.34498">
        <ele>-82.800003051758</ele>
        <time>2022-08-07T10:13:35.000Z</time>
      </trkpt>
      <trkpt lat="47.26444" lon="-2.34471">
        <ele>-82.800003051758</ele>
        <time>2022-08-07T10:13:43.000Z</time>
      </trkpt>
      <trkpt lat="47.2641" lon="-2.34445">
        <ele>-82.800003051758</ele>
        <time>2022-08-07T10:13:50.000Z</time>
      </trkpt>
      <trkpt lat="47.26372" lon="-2.34412">
        <ele>-82.800003051758</ele>
        <time>2022-08-07T10:13:58.000Z</time>
      </trkpt>
      <trkpt lat="47.2634" lon="-2.34385">
        <ele>-82.800003051758</ele>
        <time>2022-08-07T10:14:05.000Z</time>
      </trkpt>
      <trkpt lat="47.26336" lon="-2.34384">
        <ele>-82.800003051758</ele>
        <time>2022-08-07T10:14:06.000Z</time>
      </trkpt>
      <trkpt lat="47.26327" lon="-2.34382">
        <ele>-82.800003051758</ele>
        <time>2022-08-07T10:14:08.000Z</time>
      </trkpt>
      <trkpt lat="47.26323" lon="-2.3438">
        <ele>-82.800003051758</ele>
        <time>2022-08-07T10:14:09.000Z</time>
      </trkpt>
      <trkpt lat="47.26316" lon="-2.34369">
        <ele>-82.800003051758</ele>
        <time>2022-08-07T10:14:12.000Z</time>
      </trkpt>
      <trkpt lat="47.26303" lon="-2.3435">
        <ele>-82.800003051758</ele>
        <time>2022-08-07T10:14:16.000Z</time>
      </trkpt>
      <trkpt lat="47.26294" lon="-2.3434">
        <ele>-82.800003051758</ele>
        <time>2022-08-07T10:14:18.000Z</time>
      </trkpt>
      <trkpt lat="47.26274" lon="-2.34319">
        <ele>-82.800003051758</ele>
        <time>2022-08-07T10:14:22.000Z</time>
      </trkpt>
      <trkpt lat="47.26243" lon="-2.34285">
        <ele>-82.800003051758</ele>
        <time>2022-08-07T10:14:28.000Z</time>
      </trkpt>
      <trkpt lat="47.26223" lon="-2.34263">
        <ele>-82.800003051758</ele>
        <time>2022-08-07T10:14:32.000Z</time>
      </trkpt>
      <trkpt lat="47.26214" lon="-2.34255">
        <ele>-82.800003051758</ele>
        <time>2022-08-07T10:14:34.000Z</time>
      </trkpt>
      <trkpt lat="47.2618" lon="-2.34221">
        <ele>-82.800003051758</ele>
        <time>2022-08-07T10:14:41.000Z</time>
      </trkpt>
      <trkpt lat="47.26154" lon="-2.34194">
        <ele>-82.800003051758</ele>
        <time>2022-08-07T10:14:47.000Z</time>
      </trkpt>
      <trkpt lat="47.26145" lon="-2.34188">
        <ele>-82.800003051758</ele>
        <time>2022-08-07T10:14:49.000Z</time>
      </trkpt>
      <trkpt lat="47.26125" lon="-2.34176">
        <ele>-82.800003051758</ele>
        <time>2022-08-07T10:14:53.000Z</time>
      </trkpt>
      <trkpt lat="47.26121" lon="-2.34171">
        <ele>-82.800003051758</ele>
        <time>2022-08-07T10:14:54.000Z</time>
      </trkpt>
      <trkpt lat="47.26116" lon="-2.34165">
        <ele>-82.800003051758</ele>
        <time>2022-08-07T10:14:55.000Z</time>
      </trkpt>
      <trkpt lat="47.261" lon="-2.34155">
        <ele>-82.800003051758</ele>
        <time>2022-08-07T10:14:58.000Z</time>
      </trkpt>
      <trkpt lat="47.2606" lon="-2.34136">
        <ele>-82.800003051758</ele>
        <time>2022-08-07T10:15:05.000Z</time>
      </trkpt>
      <trkpt lat="47.26011" lon="-2.34111">
        <ele>-82.800003051758</ele>
        <time>2022-08-07T10:15:14.000Z</time>
      </trkpt>
      <trkpt lat="47.25985" lon="-2.341">
        <ele>-82.800003051758</ele>
        <time>2022-08-07T10:15:19.000Z</time>
      </trkpt>
      <trkpt lat="47.25948" lon="-2.34083">
        <ele>-82.800003051758</ele>
        <time>2022-08-07T10:15:26.000Z</time>
      </trkpt>
      <trkpt lat="47.25927" lon="-2.34077">
        <ele>-82.800003051758</ele>
        <time>2022-08-07T10:15:30.000Z</time>
      </trkpt>
      <trkpt lat="47.25917" lon="-2.34078">
        <ele>-82.800003051758</ele>
        <time>2022-08-07T10:15:32.000Z</time>
      </trkpt>
      <trkpt lat="47.25903" lon="-2.34086">
        <ele>-82.800003051758</ele>
        <time>2022-08-07T10:15:35.000Z</time>
      </trkpt>
      <trkpt lat="47.25895" lon="-2.34077">
        <ele>-82.800003051758</ele>
        <time>2022-08-07T10:15:38.000Z</time>
      </trkpt>
      <trkpt lat="47.25897" lon="-2.34061">
        <ele>-82.800003051758</ele>
        <time>2022-08-07T10:15:41.000Z</time>
      </trkpt>
      <trkpt lat="47.25895" lon="-2.34055">
        <ele>-83.199996948242</ele>
        <time>2022-08-07T10:15:43.000Z</time>
      </trkpt>
      <trkpt lat="47.25893" lon="-2.34055">
        <ele>-83.599998474121</ele>
        <time>2022-08-07T10:15:44.000Z</time>
      </trkpt>
      <trkpt lat="47.25891" lon="-2.34055">
        <ele>-84</ele>
        <time>2022-08-07T10:15:45.000Z</time>
      </trkpt>
      <trkpt lat="47.2589" lon="-2.34057">
        <ele>-84.400001525879</ele>
        <time>2022-08-07T10:15:46.000Z</time>
      </trkpt>
      <trkpt lat="47.25889" lon="-2.34061">
        <ele>-84.800003051758</ele>
        <time>2022-08-07T10:15:47.000Z</time>
      </trkpt>
      <trkpt lat="47.25887" lon="-2.34086">
        <ele>-84.800003051758</ele>
        <time>2022-08-07T10:15:51.000Z</time>
      </trkpt>
      <trkpt lat="47.25877" lon="-2.34135">
        <ele>-84.800003051758</ele>
        <time>2022-08-07T10:15:58.000Z</time>
      </trkpt>
      <trkpt lat="47.25869" lon="-2.34165">
        <ele>-84.800003051758</ele>
        <time>2022-08-07T10:16:04.000Z</time>
      </trkpt>
      <trkpt lat="47.25863" lon="-2.34163">
        <ele>-84.800003051758</ele>
        <time>2022-08-07T10:16:07.000Z</time>
      </trkpt>
      <trkpt lat="47.25851" lon="-2.34161">
        <ele>-84.800003051758</ele>
        <time>2022-08-07T10:16:12.000Z</time>
      </trkpt>
      <trkpt lat="47.25842" lon="-2.34159">
        <ele>-84.400001525879</ele>
        <time>2022-08-07T10:16:15.000Z</time>
      </trkpt>
      <trkpt lat="47.2584" lon="-2.3416">
        <ele>-84</ele>
        <time>2022-08-07T10:16:16.000Z</time>
      </trkpt>
      <trkpt lat="47.25838" lon="-2.34163">
        <ele>-83.599998474121</ele>
        <time>2022-08-07T10:16:17.000Z</time>
      </trkpt>
      <trkpt lat="47.25838" lon="-2.34167">
        <ele>-83.199996948242</ele>
        <time>2022-08-07T10:16:18.000Z</time>
      </trkpt>
      <trkpt lat="47.25837" lon="-2.34171">
        <ele>-82.599998474121</ele>
        <time>2022-08-07T10:16:19.000Z</time>
      </trkpt>
      <trkpt lat="47.25832" lon="-2.34179">
        <ele>-82.599998474121</ele>
        <time>2022-08-07T10:16:21.000Z</time>
      </trkpt>
      <trkpt lat="47.25821" lon="-2.34177">
        <ele>-82.599998474121</ele>
        <time>2022-08-07T10:16:24.000Z</time>
      </trkpt>
      <trkpt lat="47.25816" lon="-2.34178">
        <ele>-82.599998474121</ele>
        <time>2022-08-07T10:16:26.000Z</time>
      </trkpt>
      <trkpt lat="47.25813" lon="-2.34178">
        <ele>-82.599998474121</ele>
        <time>2022-08-07T10:16:28.000Z</time>
      </trkpt>
      <trkpt lat="47.2581" lon="-2.34177">
        <ele>-82.599998474121</ele>
        <time>2022-08-07T10:16:30.000Z</time>
      </trkpt>
      <trkpt lat="47.25805" lon="-2.34174">
        <ele>-82.599998474121</ele>
        <time>2022-08-07T10:16:32.000Z</time>
      </trkpt>
      <trkpt lat="47.25794" lon="-2.34168">
        <ele>-82.599998474121</ele>
        <time>2022-08-07T10:16:36.000Z</time>
      </trkpt>
      <trkpt lat="47.25775" lon="-2.34169">
        <ele>-82.599998474121</ele>
        <time>2022-08-07T10:16:40.000Z</time>
      </trkpt>
      <trkpt lat="47.25757" lon="-2.34177">
        <ele>-83.199996948242</ele>
        <time>2022-08-07T10:16:43.000Z</time>
      </trkpt>
      <trkpt lat="47.25751" lon="-2.34179">
        <ele>-83.599998474121</ele>
        <time>2022-08-07T10:16:44.000Z</time>
      </trkpt>
      <trkpt lat="47.25745" lon="-2.34181">
        <ele>-84</ele>
        <time>2022-08-07T10:16:45.000Z</time>
      </trkpt>
      <trkpt lat="47.25739" lon="-2.34182">
        <ele>-84.400001525879</ele>
        <time>2022-08-07T10:16:46.000Z</time>
      </trkpt>
      <trkpt lat="47.25732" lon="-2.34184">
        <ele>-84.800003051758</ele>
        <time>2022-08-07T10:16:47.000Z</time>
      </trkpt>
      <trkpt lat="47.25703" lon="-2.34189">
        <ele>-84.800003051758</ele>
        <time>2022-08-07T10:16:52.000Z</time>
      </trkpt>
      <trkpt lat="47.25681" lon="-2.34191">
        <ele>-84.800003051758</ele>
        <time>2022-08-07T10:16:56.000Z</time>
      </trkpt>
      <trkpt lat="47.25676" lon="-2.3419">
        <ele>-84.800003051758</ele>
        <time>2022-08-07T10:16:57.000Z</time>
      </trkpt>
      <trkpt lat="47.25664" lon="-2.34177">
        <ele>-84.400001525879</ele>
        <time>2022-08-07T10:17:00.000Z</time>
      </trkpt>
      <trkpt lat="47.2566" lon="-2.34171">
        <ele>-84</ele>
        <time>2022-08-07T10:17:01.000Z</time>
      </trkpt>
      <trkpt lat="47.25657" lon="-2.34164">
        <ele>-83.599998474121</ele>
        <time>2022-08-07T10:17:02.000Z</time>
      </trkpt>
      <trkpt lat="47.25654" lon="-2.34158">
        <ele>-83</ele>
        <time>2022-08-07T10:17:03.000Z</time>
      </trkpt>
      <trkpt lat="47.25651" lon="-2.34152">
        <ele>-82.599998474121</ele>
        <time>2022-08-07T10:17:04.000Z</time>
      </trkpt>
      <trkpt lat="47.25647" lon="-2.34142">
        <ele>-82.599998474121</ele>
        <time>2022-08-07T10:17:06.000Z</time>
      </trkpt>
      <trkpt lat="47.25641" lon="-2.34118">
        <ele>-82.599998474121</ele>
        <time>2022-08-07T10:17:11.000Z</time>
      </trkpt>
      <trkpt lat="47.25638" lon="-2.34085">
        <ele>-82.599998474121</ele>
        <time>2022-08-07T10:17:17.000Z</time>
      </trkpt>
      <trkpt lat="47.25639" lon="-2.34073">
        <ele>-82.199996948242</ele>
        <time>2022-08-07T10:17:19.000Z</time>
      </trkpt>
      <trkpt lat="47.2564" lon="-2.34067">
        <ele>-81.800003051758</ele>
        <time>2022-08-07T10:17:20.000Z</time>
      </trkpt>
      <trkpt lat="47.25641" lon="-2.3406">
        <ele>-81.199996948242</ele>
        <time>2022-08-07T10:17:21.000Z</time>
      </trkpt>
      <trkpt lat="47.25642" lon="-2.34053">
        <ele>-80.400001525879</ele>
        <time>2022-08-07T10:17:22.000Z</time>
      </trkpt>
      <trkpt lat="47.25648" lon="-2.34014">
        <ele>-80.400001525879</ele>
        <time>2022-08-07T10:17:28.000Z</time>
      </trkpt>
      <trkpt lat="47.25649" lon="-2.34008">
        <ele>-80.400001525879</ele>
        <time>2022-08-07T10:17:29.000Z</time>
      </trkpt>
      <trkpt lat="47.25657" lon="-2.33966">
        <ele>-80.400001525879</ele>
        <time>2022-08-07T10:17:35.000Z</time>
      </trkpt>
      <trkpt lat="47.25658" lon="-2.33938">
        <ele>-80.400001525879</ele>
        <time>2022-08-07T10:17:39.000Z</time>
      </trkpt>
      <trkpt lat="47.25657" lon="-2.33931">
        <ele>-80.400001525879</ele>
        <time>2022-08-07T10:17:40.000Z</time>
      </trkpt>
      <trkpt lat="47.25648" lon="-2.33878">
        <ele>-80.400001525879</ele>
        <time>2022-08-07T10:17:47.000Z</time>
      </trkpt>
      <trkpt lat="47.25647" lon="-2.33871">
        <ele>-80.400001525879</ele>
        <time>2022-08-07T10:17:48.000Z</time>
      </trkpt>
      <trkpt lat="47.2564" lon="-2.33837">
        <ele>-80.400001525879</ele>
        <time>2022-08-07T10:17:53.000Z</time>
      </trkpt>
      <trkpt lat="47.25636" lon="-2.33811">
        <ele>-80.400001525879</ele>
        <time>2022-08-07T10:17:57.000Z</time>
      </trkpt>
      <trkpt lat="47.25634" lon="-2.33798">
        <ele>-80.400001525879</ele>
        <time>2022-08-07T10:17:59.000Z</time>
      </trkpt>
      <trkpt lat="47.25627" lon="-2.3378">
        <ele>-80.400001525879</ele>
        <time>2022-08-07T10:18:03.000Z</time>
      </trkpt>
      <trkpt lat="47.25616" lon="-2.33768">
        <ele>-80.400001525879</ele>
        <time>2022-08-07T10:18:07.000Z</time>
      </trkpt>
      <trkpt lat="47.25604" lon="-2.33763">
        <ele>-80.400001525879</ele>
        <time>2022-08-07T10:18:10.000Z</time>
      </trkpt>
      <trkpt lat="47.25599" lon="-2.33762">
        <ele>-80.400001525879</ele>
        <time>2022-08-07T10:18:11.000Z</time>
      </trkpt>
      <trkpt lat="47.25571" lon="-2.33761">
        <ele>-80.400001525879</ele>
        <time>2022-08-07T10:18:17.000Z</time>
      </trkpt>
      <trkpt lat="47.25559" lon="-2.33761">
        <ele>-80.400001525879</ele>
        <time>2022-08-07T10:18:21.000Z</time>
      </trkpt>
      <trkpt lat="47.25554" lon="-2.3376">
        <ele>-80.400001525879</ele>
        <time>2022-08-07T10:18:24.000Z</time>
      </trkpt>
      <trkpt lat="47.25549" lon="-2.3376">
        <ele>-80.400001525879</ele>
        <time>2022-08-07T10:18:27.000Z</time>
      </trkpt>
      <trkpt lat="47.25533" lon="-2.33761">
        <ele>-80.400001525879</ele>
        <time>2022-08-07T10:18:31.000Z</time>
      </trkpt>
      <trkpt lat="47.2551" lon="-2.33761">
        <ele>-80.400001525879</ele>
        <time>2022-08-07T10:18:36.000Z</time>
      </trkpt>
      <trkpt lat="47.25492" lon="-2.33761">
        <ele>-80.400001525879</ele>
        <time>2022-08-07T10:18:40.000Z</time>
      </trkpt>
      <trkpt lat="47.25482" lon="-2.33759">
        <ele>-80.400001525879</ele>
        <time>2022-08-07T10:18:42.000Z</time>
      </trkpt>
      <trkpt lat="47.2547" lon="-2.33754">
        <ele>-80.400001525879</ele>
        <time>2022-08-07T10:18:44.000Z</time>
      </trkpt>
      <trkpt lat="47.25454" lon="-2.33743">
        <ele>-80.400001525879</ele>
        <time>2022-08-07T10:18:47.000Z</time>
      </trkpt>
      <trkpt lat="47.25444" lon="-2.33731">
        <ele>-80.400001525879</ele>
        <time>2022-08-07T10:18:49.000Z</time>
      </trkpt>
      <trkpt lat="47.2544" lon="-2.33724">
        <ele>-80.400001525879</ele>
        <time>2022-08-07T10:18:50.000Z</time>
      </trkpt>
      <trkpt lat="47.25424" lon="-2.33694">
        <ele>-80.400001525879</ele>
        <time>2022-08-07T10:18:54.000Z</time>
      </trkpt>
      <trkpt lat="47.25401" lon="-2.33653">
        <ele>-80.400001525879</ele>
        <time>2022-08-07T10:19:00.000Z</time>
      </trkpt>
      <trkpt lat="47.25399" lon="-2.33646">
        <ele>-80.400001525879</ele>
        <time>2022-08-07T10:19:01.000Z</time>
      </trkpt>
      <trkpt lat="47.25402" lon="-2.33633">
        <ele>-80.400001525879</ele>
        <time>2022-08-07T10:19:03.000Z</time>
      </trkpt>
      <trkpt lat="47.25407" lon="-2.33619">
        <ele>-80.400001525879</ele>
        <time>2022-08-07T10:19:05.000Z</time>
      </trkpt>
      <trkpt lat="47.25405" lon="-2.33603">
        <ele>-80.400001525879</ele>
        <time>2022-08-07T10:19:07.000Z</time>
      </trkpt>
      <trkpt lat="47.25397" lon="-2.33546">
        <ele>-80.400001525879</ele>
        <time>2022-08-07T10:19:14.000Z</time>
      </trkpt>
      <trkpt lat="47.25402" lon="-2.33515">
        <ele>-80.400001525879</ele>
        <time>2022-08-07T10:19:18.000Z</time>
      </trkpt>
      <trkpt lat="47.25404" lon="-2.33508">
        <ele>-80.400001525879</ele>
        <time>2022-08-07T10:19:19.000Z</time>
      </trkpt>
      <trkpt lat="47.25415" lon="-2.33481">
        <ele>-80.400001525879</ele>
        <time>2022-08-07T10:19:23.000Z</time>
      </trkpt>
      <trkpt lat="47.25424" lon="-2.33455">
        <ele>-80.400001525879</ele>
        <time>2022-08-07T10:19:27.000Z</time>
      </trkpt>
      <trkpt lat="47.25426" lon="-2.33433">
        <ele>-80.400001525879</ele>
        <time>2022-08-07T10:19:30.000Z</time>
      </trkpt>
      <trkpt lat="47.25427" lon="-2.33417">
        <ele>-80.400001525879</ele>
        <time>2022-08-07T10:19:32.000Z</time>
      </trkpt>
      <trkpt lat="47.25427" lon="-2.33378">
        <ele>-80.400001525879</ele>
        <time>2022-08-07T10:19:37.000Z</time>
      </trkpt>
      <trkpt lat="47.25429" lon="-2.33347">
        <ele>-80.400001525879</ele>
        <time>2022-08-07T10:19:41.000Z</time>
      </trkpt>
      <trkpt lat="47.25433" lon="-2.33333">
        <ele>-80.400001525879</ele>
        <time>2022-08-07T10:19:43.000Z</time>
      </trkpt>
      <trkpt lat="47.25446" lon="-2.33295">
        <ele>-80.400001525879</ele>
        <time>2022-08-07T10:19:49.000Z</time>
      </trkpt>
      <trkpt lat="47.25446" lon="-2.33288">
        <ele>-80.400001525879</ele>
        <time>2022-08-07T10:19:50.000Z</time>
      </trkpt>
      <trkpt lat="47.25442" lon="-2.33274">
        <ele>-80.400001525879</ele>
        <time>2022-08-07T10:19:52.000Z</time>
      </trkpt>
      <trkpt lat="47.25423" lon="-2.3323">
        <ele>-80.400001525879</ele>
        <time>2022-08-07T10:19:59.000Z</time>
      </trkpt>
      <trkpt lat="47.25407" lon="-2.3319">
        <ele>-80.400001525879</ele>
        <time>2022-08-07T10:20:05.000Z</time>
      </trkpt>
      <trkpt lat="47.25394" lon="-2.3316">
        <ele>-80.400001525879</ele>
        <time>2022-08-07T10:20:10.000Z</time>
      </trkpt>
      <trkpt lat="47.25391" lon="-2.33156">
        <ele>-80.400001525879</ele>
        <time>2022-08-07T10:20:11.000Z</time>
      </trkpt>
      <trkpt lat="47.2538" lon="-2.33138">
        <ele>-80.400001525879</ele>
        <time>2022-08-07T10:20:16.000Z</time>
      </trkpt>
      <trkpt lat="47.25371" lon="-2.33114">
        <ele>-80.400001525879</ele>
        <time>2022-08-07T10:20:22.000Z</time>
      </trkpt>
      <trkpt lat="47.25367" lon="-2.33099">
        <ele>-80.400001525879</ele>
        <time>2022-08-07T10:20:28.000Z</time>
      </trkpt>
      <trkpt lat="47.25366" lon="-2.33095">
        <ele>-80.400001525879</ele>
        <time>2022-08-07T10:20:31.000Z</time>
      </trkpt>
      <trkpt lat="47.25365" lon="-2.3309">
        <ele>-80.400001525879</ele>
        <time>2022-08-07T10:29:51.000Z</time>
      </trkpt>
      <trkpt lat="47.2536" lon="-2.3308">
        <ele>-80.400001525879</ele>
        <time>2022-08-07T10:29:56.000Z</time>
      </trkpt>
      <trkpt lat="47.25356" lon="-2.33071">
        <ele>-80.400001525879</ele>
        <time>2022-08-07T10:29:59.000Z</time>
      </trkpt>
      <trkpt lat="47.25353" lon="-2.33063">
        <ele>-80.400001525879</ele>
        <time>2022-08-07T10:30:01.000Z</time>
      </trkpt>
      <trkpt lat="47.25344" lon="-2.33041">
        <ele>-80.400001525879</ele>
        <time>2022-08-07T10:30:06.000Z</time>
      </trkpt>
      <trkpt lat="47.25331" lon="-2.33008">
        <ele>-80.400001525879</ele>
        <time>2022-08-07T10:30:13.000Z</time>
      </trkpt>
      <trkpt lat="47.25315" lon="-2.32966">
        <ele>-80.400001525879</ele>
        <time>2022-08-07T10:30:21.000Z</time>
      </trkpt>
      <trkpt lat="47.25306" lon="-2.32939">
        <ele>-80.400001525879</ele>
        <time>2022-08-07T10:30:26.000Z</time>
      </trkpt>
      <trkpt lat="47.25305" lon="-2.32928">
        <ele>-80.400001525879</ele>
        <time>2022-08-07T10:30:28.000Z</time>
      </trkpt>
      <trkpt lat="47.25316" lon="-2.3291">
        <ele>-80.400001525879</ele>
        <time>2022-08-07T10:30:32.000Z</time>
      </trkpt>
      <trkpt lat="47.25324" lon="-2.32904">
        <ele>-80.400001525879</ele>
        <time>2022-08-07T10:30:34.000Z</time>
      </trkpt>
      <trkpt lat="47.25328" lon="-2.329">
        <ele>-80.400001525879</ele>
        <time>2022-08-07T10:30:35.000Z</time>
      </trkpt>
      <trkpt lat="47.25339" lon="-2.32887">
        <ele>-80.400001525879</ele>
        <time>2022-08-07T10:30:38.000Z</time>
      </trkpt>
      <trkpt lat="47.25367" lon="-2.32862">
        <ele>-80.400001525879</ele>
        <time>2022-08-07T10:30:45.000Z</time>
      </trkpt>
      <trkpt lat="47.25385" lon="-2.32844">
        <ele>-80.400001525879</ele>
        <time>2022-08-07T10:30:50.000Z</time>
      </trkpt>
      <trkpt lat="47.25392" lon="-2.32835">
        <ele>-80.400001525879</ele>
        <time>2022-08-07T10:30:52.000Z</time>
      </trkpt>
      <trkpt lat="47.25412" lon="-2.32809">
        <ele>-80.400001525879</ele>
        <time>2022-08-07T10:30:58.000Z</time>
      </trkpt>
      <trkpt lat="47.25414" lon="-2.32805">
        <ele>-80.400001525879</ele>
        <time>2022-08-07T10:30:59.000Z</time>
      </trkpt>
      <trkpt lat="47.25429" lon="-2.32775">
        <ele>-80.400001525879</ele>
        <time>2022-08-07T10:31:06.000Z</time>
      </trkpt>
      <trkpt lat="47.25432" lon="-2.3277">
        <ele>-80</ele>
        <time>2022-08-07T10:31:07.000Z</time>
      </trkpt>
      <trkpt lat="47.25435" lon="-2.32766">
        <ele>-79.599998474121</ele>
        <time>2022-08-07T10:31:08.000Z</time>
      </trkpt>
      <trkpt lat="47.25438" lon="-2.32761">
        <ele>-79</ele>
        <time>2022-08-07T10:31:09.000Z</time>
      </trkpt>
      <trkpt lat="47.25441" lon="-2.32756">
        <ele>-78.599998474121</ele>
        <time>2022-08-07T10:31:10.000Z</time>
      </trkpt>
      <trkpt lat="47.25444" lon="-2.32751">
        <ele>-78.199996948242</ele>
        <time>2022-08-07T10:31:11.000Z</time>
      </trkpt>
      <trkpt lat="47.25447" lon="-2.32746">
        <ele>-78.199996948242</ele>
        <time>2022-08-07T10:31:12.000Z</time>
      </trkpt>
      <trkpt lat="47.25454" lon="-2.32738">
        <ele>-78.199996948242</ele>
        <time>2022-08-07T10:31:14.000Z</time>
      </trkpt>
      <trkpt lat="47.25463" lon="-2.32726">
        <ele>-78.199996948242</ele>
        <time>2022-08-07T10:31:17.000Z</time>
      </trkpt>
      <trkpt lat="47.25467" lon="-2.32722">
        <ele>-78.199996948242</ele>
        <time>2022-08-07T10:31:18.000Z</time>
      </trkpt>
      <trkpt lat="47.25483" lon="-2.32698">
        <ele>-78.199996948242</ele>
        <time>2022-08-07T10:31:23.000Z</time>
      </trkpt>
      <trkpt lat="47.25487" lon="-2.32671">
        <ele>-78.199996948242</ele>
        <time>2022-08-07T10:31:27.000Z</time>
      </trkpt>
      <trkpt lat="47.25487" lon="-2.32657">
        <ele>-77.800003051758</ele>
        <time>2022-08-07T10:31:29.000Z</time>
      </trkpt>
      <trkpt lat="47.25485" lon="-2.3265">
        <ele>-77.400001525879</ele>
        <time>2022-08-07T10:31:30.000Z</time>
      </trkpt>
      <trkpt lat="47.25484" lon="-2.32644">
        <ele>-76.599998474121</ele>
        <time>2022-08-07T10:31:31.000Z</time>
      </trkpt>
      <trkpt lat="47.25483" lon="-2.32637">
        <ele>-76.199996948242</ele>
        <time>2022-08-07T10:31:32.000Z</time>
      </trkpt>
      <trkpt lat="47.25474" lon="-2.32584">
        <ele>-76.199996948242</ele>
        <time>2022-08-07T10:31:40.000Z</time>
      </trkpt>
      <trkpt lat="47.25474" lon="-2.32578">
        <ele>-76.199996948242</ele>
        <time>2022-08-07T10:31:41.000Z</time>
      </trkpt>
      <trkpt lat="47.25478" lon="-2.32561">
        <ele>-76.199996948242</ele>
        <time>2022-08-07T10:31:44.000Z</time>
      </trkpt>
      <trkpt lat="47.2549" lon="-2.3255">
        <ele>-76.199996948242</ele>
        <time>2022-08-07T10:31:47.000Z</time>
      </trkpt>
      <trkpt lat="47.25494" lon="-2.32546">
        <ele>-76.199996948242</ele>
        <time>2022-08-07T10:31:48.000Z</time>
      </trkpt>
      <trkpt lat="47.2553" lon="-2.32511">
        <ele>-76.199996948242</ele>
        <time>2022-08-07T10:31:56.000Z</time>
      </trkpt>
      <trkpt lat="47.25541" lon="-2.32502">
        <ele>-76.599998474121</ele>
        <time>2022-08-07T10:31:58.000Z</time>
      </trkpt>
      <trkpt lat="47.25547" lon="-2.32497">
        <ele>-77</ele>
        <time>2022-08-07T10:31:59.000Z</time>
      </trkpt>
      <trkpt lat="47.25552" lon="-2.32492">
        <ele>-77.599998474121</ele>
        <time>2022-08-07T10:32:00.000Z</time>
      </trkpt>
      <trkpt lat="47.25558" lon="-2.32487">
        <ele>-78</ele>
        <time>2022-08-07T10:32:01.000Z</time>
      </trkpt>
      <trkpt lat="47.25564" lon="-2.32482">
        <ele>-78.400001525879</ele>
        <time>2022-08-07T10:32:02.000Z</time>
      </trkpt>
      <trkpt lat="47.25586" lon="-2.32459">
        <ele>-78.800003051758</ele>
        <time>2022-08-07T10:32:06.000Z</time>
      </trkpt>
      <trkpt lat="47.25592" lon="-2.32453">
        <ele>-79.199996948242</ele>
        <time>2022-08-07T10:32:07.000Z</time>
      </trkpt>
      <trkpt lat="47.25597" lon="-2.32447">
        <ele>-79.800003051758</ele>
        <time>2022-08-07T10:32:08.000Z</time>
      </trkpt>
      <trkpt lat="47.25603" lon="-2.32441">
        <ele>-80.199996948242</ele>
        <time>2022-08-07T10:32:09.000Z</time>
      </trkpt>
      <trkpt lat="47.25608" lon="-2.32435">
        <ele>-80.599998474121</ele>
        <time>2022-08-07T10:32:10.000Z</time>
      </trkpt>
      <trkpt lat="47.2562" lon="-2.32424">
        <ele>-81</ele>
        <time>2022-08-07T10:32:12.000Z</time>
      </trkpt>
      <trkpt lat="47.25625" lon="-2.32418">
        <ele>-81.400001525879</ele>
        <time>2022-08-07T10:32:13.000Z</time>
      </trkpt>
      <trkpt lat="47.25631" lon="-2.32412">
        <ele>-81.800003051758</ele>
        <time>2022-08-07T10:32:14.000Z</time>
      </trkpt>
      <trkpt lat="47.25637" lon="-2.32407">
        <ele>-82.199996948242</ele>
        <time>2022-08-07T10:32:15.000Z</time>
      </trkpt>
      <trkpt lat="47.25643" lon="-2.32404">
        <ele>-82.599998474121</ele>
        <time>2022-08-07T10:32:16.000Z</time>
      </trkpt>
      <trkpt lat="47.25649" lon="-2.32404">
        <ele>-82.599998474121</ele>
        <time>2022-08-07T10:32:17.000Z</time>
      </trkpt>
      <trkpt lat="47.25669" lon="-2.32411">
        <ele>-82.599998474121</ele>
        <time>2022-08-07T10:32:21.000Z</time>
      </trkpt>
      <trkpt lat="47.25693" lon="-2.32421">
        <ele>-82.599998474121</ele>
        <time>2022-08-07T10:32:25.000Z</time>
      </trkpt>
      <trkpt lat="47.25699" lon="-2.32422">
        <ele>-82.599998474121</ele>
        <time>2022-08-07T10:32:26.000Z</time>
      </trkpt>
      <trkpt lat="47.25724" lon="-2.32424">
        <ele>-83</ele>
        <time>2022-08-07T10:32:30.000Z</time>
      </trkpt>
      <trkpt lat="47.2573" lon="-2.32423">
        <ele>-83.599998474121</ele>
        <time>2022-08-07T10:32:31.000Z</time>
      </trkpt>
      <trkpt lat="47.25736" lon="-2.32423">
        <ele>-84</ele>
        <time>2022-08-07T10:32:32.000Z</time>
      </trkpt>
      <trkpt lat="47.25742" lon="-2.32424">
        <ele>-84.400001525879</ele>
        <time>2022-08-07T10:32:33.000Z</time>
      </trkpt>
      <trkpt lat="47.25748" lon="-2.32424">
        <ele>-84.800003051758</ele>
        <time>2022-08-07T10:32:34.000Z</time>
      </trkpt>
      <trkpt lat="47.25753" lon="-2.32423">
        <ele>-84.800003051758</ele>
        <time>2022-08-07T10:32:35.000Z</time>
      </trkpt>
      <trkpt lat="47.25762" lon="-2.32421">
        <ele>-84.800003051758</ele>
        <time>2022-08-07T10:32:37.000Z</time>
      </trkpt>
      <trkpt lat="47.25767" lon="-2.3242">
        <ele>-84.800003051758</ele>
        <time>2022-08-07T10:32:40.000Z</time>
      </trkpt>
      <trkpt lat="47.25774" lon="-2.32414">
        <ele>-84.800003051758</ele>
        <time>2022-08-07T10:32:43.000Z</time>
      </trkpt>
      <trkpt lat="47.25779" lon="-2.32416">
        <ele>-84.800003051758</ele>
        <time>2022-08-07T10:32:44.000Z</time>
      </trkpt>
      <trkpt lat="47.25789" lon="-2.32432">
        <ele>-84.800003051758</ele>
        <time>2022-08-07T10:32:47.000Z</time>
      </trkpt>
      <trkpt lat="47.25792" lon="-2.32439">
        <ele>-84.800003051758</ele>
        <time>2022-08-07T10:32:48.000Z</time>
      </trkpt>
      <trkpt lat="47.25796" lon="-2.32445">
        <ele>-84.800003051758</ele>
        <time>2022-08-07T10:32:49.000Z</time>
      </trkpt>
      <trkpt lat="47.25805" lon="-2.32455">
        <ele>-84.800003051758</ele>
        <time>2022-08-07T10:32:51.000Z</time>
      </trkpt>
      <trkpt lat="47.25823" lon="-2.32465">
        <ele>-84.800003051758</ele>
        <time>2022-08-07T10:32:54.000Z</time>
      </trkpt>
      <trkpt lat="47.25834" lon="-2.32471">
        <ele>-84.800003051758</ele>
        <time>2022-08-07T10:32:56.000Z</time>
      </trkpt>
      <trkpt lat="47.2584" lon="-2.32473">
        <ele>-84.800003051758</ele>
        <time>2022-08-07T10:32:57.000Z</time>
      </trkpt>
      <trkpt lat="47.25861" lon="-2.32475">
        <ele>-84.800003051758</ele>
        <time>2022-08-07T10:33:01.000Z</time>
      </trkpt>
      <trkpt lat="47.25867" lon="-2.32474">
        <ele>-84.800003051758</ele>
        <time>2022-08-07T10:33:02.000Z</time>
      </trkpt>
      <trkpt lat="47.25889" lon="-2.32467">
        <ele>-84.800003051758</ele>
        <time>2022-08-07T10:33:06.000Z</time>
      </trkpt>
      <trkpt lat="47.25912" lon="-2.32441">
        <ele>-84.800003051758</ele>
        <time>2022-08-07T10:33:11.000Z</time>
      </trkpt>
      <trkpt lat="47.25938" lon="-2.32408">
        <ele>-84.800003051758</ele>
        <time>2022-08-07T10:33:17.000Z</time>
      </trkpt>
      <trkpt lat="47.25966" lon="-2.32376">
        <ele>-84.800003051758</ele>
        <time>2022-08-07T10:33:23.000Z</time>
      </trkpt>
      <trkpt lat="47.25992" lon="-2.32342">
        <ele>-84.800003051758</ele>
        <time>2022-08-07T10:33:29.000Z</time>
      </trkpt>
      <trkpt lat="47.26021" lon="-2.32304">
        <ele>-84.800003051758</ele>
        <time>2022-08-07T10:33:36.000Z</time>
      </trkpt>
      <trkpt lat="47.26049" lon="-2.32272">
        <ele>-84.800003051758</ele>
        <time>2022-08-07T10:33:42.000Z</time>
      </trkpt>
      <trkpt lat="47.2607" lon="-2.32247">
        <ele>-84.800003051758</ele>
        <time>2022-08-07T10:33:47.000Z</time>
      </trkpt>
      <trkpt lat="47.26074" lon="-2.32242">
        <ele>-84.800003051758</ele>
        <time>2022-08-07T10:33:48.000Z</time>
      </trkpt>
      <trkpt lat="47.26095" lon="-2.32212">
        <ele>-84.800003051758</ele>
        <time>2022-08-07T10:33:53.000Z</time>
      </trkpt>
      <trkpt lat="47.26102" lon="-2.32198">
        <ele>-84.800003051758</ele>
        <time>2022-08-07T10:33:55.000Z</time>
      </trkpt>
      <trkpt lat="47.26118" lon="-2.32153">
        <ele>-84.800003051758</ele>
        <time>2022-08-07T10:34:01.000Z</time>
      </trkpt>
      <trkpt lat="47.26127" lon="-2.32123">
        <ele>-84.800003051758</ele>
        <time>2022-08-07T10:34:05.000Z</time>
      </trkpt>
      <trkpt lat="47.26131" lon="-2.32108">
        <ele>-84.800003051758</ele>
        <time>2022-08-07T10:34:07.000Z</time>
      </trkpt>
      <trkpt lat="47.26145" lon="-2.32064">
        <ele>-84.800003051758</ele>
        <time>2022-08-07T10:34:13.000Z</time>
      </trkpt>
      <trkpt lat="47.2616" lon="-2.32023">
        <ele>-84.800003051758</ele>
        <time>2022-08-07T10:34:19.000Z</time>
      </trkpt>
      <trkpt lat="47.26164" lon="-2.3202">
        <ele>-84.800003051758</ele>
        <time>2022-08-07T10:34:20.000Z</time>
      </trkpt>
      <trkpt lat="47.26173" lon="-2.3202">
        <ele>-84.800003051758</ele>
        <time>2022-08-07T10:34:23.000Z</time>
      </trkpt>
      <trkpt lat="47.26178" lon="-2.3202">
        <ele>-84.800003051758</ele>
        <time>2022-08-07T10:34:27.000Z</time>
      </trkpt>
      <trkpt lat="47.26185" lon="-2.32024">
        <ele>-84.800003051758</ele>
        <time>2022-08-07T10:34:32.000Z</time>
      </trkpt>
      <trkpt lat="47.26187" lon="-2.32025">
        <ele>-84.800003051758</ele>
        <time>2022-08-07T10:34:33.000Z</time>
      </trkpt>
      <trkpt lat="47.26193" lon="-2.32024">
        <ele>-84.800003051758</ele>
        <time>2022-08-07T10:34:36.000Z</time>
      </trkpt>
      <trkpt lat="47.26193" lon="-2.32019">
        <ele>-84.800003051758</ele>
        <time>2022-08-07T10:34:37.000Z</time>
      </trkpt>
      <trkpt lat="47.26199" lon="-2.32005">
        <ele>-84.800003051758</ele>
        <time>2022-08-07T10:34:41.000Z</time>
      </trkpt>
      <trkpt lat="47.26201" lon="-2.32003">
        <ele>-84.800003051758</ele>
        <time>2022-08-07T10:34:42.000Z</time>
      </trkpt>
      <trkpt lat="47.26214" lon="-2.31989">
        <ele>-84.800003051758</ele>
        <time>2022-08-07T10:34:46.000Z</time>
      </trkpt>
      <trkpt lat="47.26227" lon="-2.31973">
        <ele>-84.800003051758</ele>
        <time>2022-08-07T10:34:50.000Z</time>
      </trkpt>
      <trkpt lat="47.26239" lon="-2.31961">
        <ele>-84.800003051758</ele>
        <time>2022-08-07T10:34:53.000Z</time>
      </trkpt>
      <trkpt lat="47.26245" lon="-2.3195">
        <ele>-84.800003051758</ele>
        <time>2022-08-07T10:34:55.000Z</time>
      </trkpt>
      <trkpt lat="47.26262" lon="-2.31921">
        <ele>-84.800003051758</ele>
        <time>2022-08-07T10:35:01.000Z</time>
      </trkpt>
      <trkpt lat="47.2627" lon="-2.31913">
        <ele>-84.800003051758</ele>
        <time>2022-08-07T10:35:03.000Z</time>
      </trkpt>
      <trkpt lat="47.26283" lon="-2.31901">
        <ele>-84.800003051758</ele>
        <time>2022-08-07T10:35:06.000Z</time>
      </trkpt>
      <trkpt lat="47.26289" lon="-2.31892">
        <ele>-84.800003051758</ele>
        <time>2022-08-07T10:35:08.000Z</time>
      </trkpt>
      <trkpt lat="47.2629" lon="-2.31885">
        <ele>-84.800003051758</ele>
        <time>2022-08-07T10:35:09.000Z</time>
      </trkpt>
      <trkpt lat="47.26293" lon="-2.31851">
        <ele>-84.800003051758</ele>
        <time>2022-08-07T10:35:14.000Z</time>
      </trkpt>
      <trkpt lat="47.26294" lon="-2.31844">
        <ele>-84.800003051758</ele>
        <time>2022-08-07T10:35:15.000Z</time>
      </trkpt>
      <trkpt lat="47.26298" lon="-2.31811">
        <ele>-84.800003051758</ele>
        <time>2022-08-07T10:35:20.000Z</time>
      </trkpt>
      <trkpt lat="47.26298" lon="-2.31753">
        <ele>-84.800003051758</ele>
        <time>2022-08-07T10:35:28.000Z</time>
      </trkpt>
      <trkpt lat="47.26297" lon="-2.31731">
        <ele>-84.800003051758</ele>
        <time>2022-08-07T10:35:31.000Z</time>
      </trkpt>
      <trkpt lat="47.26302" lon="-2.31719">
        <ele>-84.800003051758</ele>
        <time>2022-08-07T10:35:33.000Z</time>
      </trkpt>
      <trkpt lat="47.26315" lon="-2.31713">
        <ele>-84.800003051758</ele>
        <time>2022-08-07T10:35:36.000Z</time>
      </trkpt>
      <trkpt lat="47.26326" lon="-2.31707">
        <ele>-84.800003051758</ele>
        <time>2022-08-07T10:35:39.000Z</time>
      </trkpt>
      <trkpt lat="47.26329" lon="-2.31703">
        <ele>-84.800003051758</ele>
        <time>2022-08-07T10:35:40.000Z</time>
      </trkpt>
      <trkpt lat="47.2633" lon="-2.31697">
        <ele>-84.800003051758</ele>
        <time>2022-08-07T10:35:41.000Z</time>
      </trkpt>
      <trkpt lat="47.26335" lon="-2.3169">
        <ele>-84.400001525879</ele>
        <time>2022-08-07T10:35:43.000Z</time>
      </trkpt>
      <trkpt lat="47.26338" lon="-2.31688">
        <ele>-84</ele>
        <time>2022-08-07T10:35:44.000Z</time>
      </trkpt>
      <trkpt lat="47.26342" lon="-2.31686">
        <ele>-83.599998474121</ele>
        <time>2022-08-07T10:35:45.000Z</time>
      </trkpt>
      <trkpt lat="47.26346" lon="-2.31684">
        <ele>-83.199996948242</ele>
        <time>2022-08-07T10:35:46.000Z</time>
      </trkpt>
      <trkpt lat="47.26349" lon="-2.31682">
        <ele>-82.800003051758</ele>
        <time>2022-08-07T10:35:47.000Z</time>
      </trkpt>
      <trkpt lat="47.26356" lon="-2.31679">
        <ele>-82.800003051758</ele>
        <time>2022-08-07T10:35:49.000Z</time>
      </trkpt>
      <trkpt lat="47.2638" lon="-2.31668">
        <ele>-82.800003051758</ele>
        <time>2022-08-07T10:35:55.000Z</time>
      </trkpt>
      <trkpt lat="47.26383" lon="-2.31665">
        <ele>-82.400001525879</ele>
        <time>2022-08-07T10:35:56.000Z</time>
      </trkpt>
      <trkpt lat="47.26386" lon="-2.31663">
        <ele>-82</ele>
        <time>2022-08-07T10:35:57.000Z</time>
      </trkpt>
      <trkpt lat="47.2639" lon="-2.31661">
        <ele>-81.599998474121</ele>
        <time>2022-08-07T10:35:58.000Z</time>
      </trkpt>
      <trkpt lat="47.26393" lon="-2.31658">
        <ele>-81.199996948242</ele>
        <time>2022-08-07T10:35:59.000Z</time>
      </trkpt>
      <trkpt lat="47.26396" lon="-2.31658">
        <ele>-80.800003051758</ele>
        <time>2022-08-07T10:36:00.000Z</time>
      </trkpt>
      <trkpt lat="47.26408" lon="-2.31647">
        <ele>-80.800003051758</ele>
        <time>2022-08-07T10:36:04.000Z</time>
      </trkpt>
      <trkpt lat="47.26408" lon="-2.31642">
        <ele>-80.800003051758</ele>
        <time>2022-08-07T10:36:05.000Z</time>
      </trkpt>
      <trkpt lat="47.26408" lon="-2.31621">
        <ele>-80.800003051758</ele>
        <time>2022-08-07T10:36:09.000Z</time>
      </trkpt>
      <trkpt lat="47.26407" lon="-2.3159">
        <ele>-80.800003051758</ele>
        <time>2022-08-07T10:36:15.000Z</time>
      </trkpt>
      <trkpt lat="47.26408" lon="-2.31563">
        <ele>-80.800003051758</ele>
        <time>2022-08-07T10:36:21.000Z</time>
      </trkpt>
      <trkpt lat="47.26412" lon="-2.31552">
        <ele>-80.800003051758</ele>
        <time>2022-08-07T10:36:25.000Z</time>
      </trkpt>
      <trkpt lat="47.26413" lon="-2.31553">
        <ele>-80.800003051758</ele>
        <time>2022-08-07T10:36:26.000Z</time>
      </trkpt>
      <trkpt lat="47.26416" lon="-2.31553">
        <ele>-80.400001525879</ele>
        <time>2022-08-07T10:36:29.000Z</time>
      </trkpt>
    </trkseg>
  </trk>
</gpx>